<?xml version="1.0" encoding="UTF-8" standalone="no" ?>
<gpx xmlns="http://www.topografix.com/GPX/1/1" xmlns:xsi="http://www.w3.org/2001/XMLSchema-instance" xsi:schemaLocation="http://www.topografix.com/GPX/1/1 http://www.topografix.com/GPX/1/1/gpx.xsd" version="1.1" creator="VisuGPX - https://www.visugpx.com">
  <metadata>
    <name>Gorges de St Jaumes - Forêt de Boucheville</name>
    <desc><![CDATA[Au départ de Caudiès de Fenouillèdes.]]></desc>
  </metadata>
  <trk>
    <name><![CDATA[02-NOV-14 14:25:32]]></name>
    <trkseg>
      <trkpt lat="42.8109" lon="2.37298">
        <ele>331.79</ele>
        <time>2014-11-02T07:39:44Z</time>
      </trkpt>
      <trkpt lat="42.81088" lon="2.373">
        <ele>334.2</ele>
        <time>2014-11-02T07:39:47Z</time>
      </trkpt>
      <trkpt lat="42.81083" lon="2.373">
        <ele>338.52</ele>
        <time>2014-11-02T07:39:53Z</time>
      </trkpt>
      <trkpt lat="42.81081" lon="2.373">
        <ele>341.89</ele>
        <time>2014-11-02T07:39:59Z</time>
      </trkpt>
      <trkpt lat="42.81084" lon="2.37301">
        <ele>344.29</ele>
        <time>2014-11-02T07:40:04Z</time>
      </trkpt>
      <trkpt lat="42.81091" lon="2.37308">
        <ele>347.17</ele>
        <time>2014-11-02T07:40:11Z</time>
      </trkpt>
      <trkpt lat="42.81097" lon="2.37311">
        <ele>347.65</ele>
        <time>2014-11-02T07:40:15Z</time>
      </trkpt>
      <trkpt lat="42.81102" lon="2.37295">
        <ele>349.1</ele>
        <time>2014-11-02T07:40:22Z</time>
      </trkpt>
      <trkpt lat="42.81103" lon="2.37285">
        <ele>350.06</ele>
        <time>2014-11-02T07:40:26Z</time>
      </trkpt>
      <trkpt lat="42.811" lon="2.37271">
        <ele>351.02</ele>
        <time>2014-11-02T07:40:32Z</time>
      </trkpt>
      <trkpt lat="42.81098" lon="2.37269">
        <ele>351.02</ele>
        <time>2014-11-02T07:40:33Z</time>
      </trkpt>
      <trkpt lat="42.81094" lon="2.37273">
        <ele>351.02</ele>
        <time>2014-11-02T07:40:37Z</time>
      </trkpt>
      <trkpt lat="42.81093" lon="2.37282">
        <ele>351.5</ele>
        <time>2014-11-02T07:40:40Z</time>
      </trkpt>
      <trkpt lat="42.81092" lon="2.37291">
        <ele>351.5</ele>
        <time>2014-11-02T07:40:54Z</time>
      </trkpt>
      <trkpt lat="42.81091" lon="2.37291">
        <ele>351.5</ele>
        <time>2014-11-02T07:41:02Z</time>
      </trkpt>
      <trkpt lat="42.81092" lon="2.3729">
        <ele>351.5</ele>
        <time>2014-11-02T07:41:07Z</time>
      </trkpt>
      <trkpt lat="42.81093" lon="2.37279">
        <ele>351.5</ele>
        <time>2014-11-02T07:41:13Z</time>
      </trkpt>
      <trkpt lat="42.81095" lon="2.37271">
        <ele>351.5</ele>
        <time>2014-11-02T07:41:18Z</time>
      </trkpt>
      <trkpt lat="42.811" lon="2.37267">
        <ele>351.5</ele>
        <time>2014-11-02T07:41:23Z</time>
      </trkpt>
      <trkpt lat="42.81107" lon="2.37293">
        <ele>351.02</ele>
        <time>2014-11-02T07:41:35Z</time>
      </trkpt>
      <trkpt lat="42.81099" lon="2.37345">
        <ele>350.06</ele>
        <time>2014-11-02T07:41:50Z</time>
      </trkpt>
      <trkpt lat="42.81121" lon="2.37367">
        <ele>349.1</ele>
        <time>2014-11-02T07:42:01Z</time>
      </trkpt>
      <trkpt lat="42.81123" lon="2.37368">
        <ele>349.1</ele>
        <time>2014-11-02T07:42:02Z</time>
      </trkpt>
      <trkpt lat="42.81114" lon="2.37409">
        <ele>348.62</ele>
        <time>2014-11-02T07:42:13Z</time>
      </trkpt>
      <trkpt lat="42.81099" lon="2.37454">
        <ele>349.1</ele>
        <time>2014-11-02T07:42:25Z</time>
      </trkpt>
      <trkpt lat="42.81091" lon="2.37491">
        <ele>349.1</ele>
        <time>2014-11-02T07:42:38Z</time>
      </trkpt>
      <trkpt lat="42.81084" lon="2.37498">
        <ele>348.62</ele>
        <time>2014-11-02T07:42:51Z</time>
      </trkpt>
      <trkpt lat="42.81087" lon="2.375">
        <ele>348.62</ele>
        <time>2014-11-02T07:42:54Z</time>
      </trkpt>
      <trkpt lat="42.81086" lon="2.37496">
        <ele>348.62</ele>
        <time>2014-11-02T07:43:01Z</time>
      </trkpt>
      <trkpt lat="42.81075" lon="2.37534">
        <ele>348.62</ele>
        <time>2014-11-02T07:43:14Z</time>
      </trkpt>
      <trkpt lat="42.81058" lon="2.37608">
        <ele>347.65</ele>
        <time>2014-11-02T07:43:32Z</time>
      </trkpt>
      <trkpt lat="42.8104" lon="2.37676">
        <ele>346.69</ele>
        <time>2014-11-02T07:43:49Z</time>
      </trkpt>
      <trkpt lat="42.81034" lon="2.37704">
        <ele>346.21</ele>
        <time>2014-11-02T07:43:56Z</time>
      </trkpt>
      <trkpt lat="42.81009" lon="2.37718">
        <ele>347.17</ele>
        <time>2014-11-02T07:44:06Z</time>
      </trkpt>
      <trkpt lat="42.80973" lon="2.37745">
        <ele>347.17</ele>
        <time>2014-11-02T07:44:20Z</time>
      </trkpt>
      <trkpt lat="42.80939" lon="2.37801">
        <ele>345.25</ele>
        <time>2014-11-02T07:44:37Z</time>
      </trkpt>
      <trkpt lat="42.80912" lon="2.37802">
        <ele>345.73</ele>
        <time>2014-11-02T07:44:46Z</time>
      </trkpt>
      <trkpt lat="42.80866" lon="2.37798">
        <ele>346.69</ele>
        <time>2014-11-02T07:45:03Z</time>
      </trkpt>
      <trkpt lat="42.80834" lon="2.378">
        <ele>347.17</ele>
        <time>2014-11-02T07:45:17Z</time>
      </trkpt>
      <trkpt lat="42.80832" lon="2.37801">
        <ele>347.65</ele>
        <time>2014-11-02T07:45:18Z</time>
      </trkpt>
      <trkpt lat="42.80817" lon="2.37823">
        <ele>350.06</ele>
        <time>2014-11-02T07:45:30Z</time>
      </trkpt>
      <trkpt lat="42.80802" lon="2.37816">
        <ele>353.42</ele>
        <time>2014-11-02T07:45:41Z</time>
      </trkpt>
      <trkpt lat="42.80798" lon="2.37815">
        <ele>353.9</ele>
        <time>2014-11-02T07:45:43Z</time>
      </trkpt>
      <trkpt lat="42.80769" lon="2.37808">
        <ele>355.34</ele>
        <time>2014-11-02T07:45:59Z</time>
      </trkpt>
      <trkpt lat="42.80734" lon="2.37788">
        <ele>354.38</ele>
        <time>2014-11-02T07:46:15Z</time>
      </trkpt>
      <trkpt lat="42.80701" lon="2.37792">
        <ele>354.38</ele>
        <time>2014-11-02T07:46:29Z</time>
      </trkpt>
      <trkpt lat="42.80675" lon="2.37808">
        <ele>354.86</ele>
        <time>2014-11-02T07:46:41Z</time>
      </trkpt>
      <trkpt lat="42.80651" lon="2.37803">
        <ele>355.34</ele>
        <time>2014-11-02T07:46:52Z</time>
      </trkpt>
      <trkpt lat="42.80637" lon="2.37788">
        <ele>356.31</ele>
        <time>2014-11-02T07:47:03Z</time>
      </trkpt>
      <trkpt lat="42.80631" lon="2.37791">
        <ele>356.79</ele>
        <time>2014-11-02T07:47:07Z</time>
      </trkpt>
      <trkpt lat="42.80627" lon="2.37797">
        <ele>356.79</ele>
        <time>2014-11-02T07:47:11Z</time>
      </trkpt>
      <trkpt lat="42.80605" lon="2.37811">
        <ele>359.19</ele>
        <time>2014-11-02T07:47:26Z</time>
      </trkpt>
      <trkpt lat="42.80577" lon="2.37809">
        <ele>362.55</ele>
        <time>2014-11-02T07:47:41Z</time>
      </trkpt>
      <trkpt lat="42.80553" lon="2.37801">
        <ele>364</ele>
        <time>2014-11-02T07:47:54Z</time>
      </trkpt>
      <trkpt lat="42.80529" lon="2.37795">
        <ele>366.4</ele>
        <time>2014-11-02T07:48:08Z</time>
      </trkpt>
      <trkpt lat="42.80524" lon="2.37794">
        <ele>367.36</ele>
        <time>2014-11-02T07:48:11Z</time>
      </trkpt>
      <trkpt lat="42.80503" lon="2.37781">
        <ele>369.28</ele>
        <time>2014-11-02T07:48:26Z</time>
      </trkpt>
      <trkpt lat="42.80503" lon="2.37781">
        <ele>369.28</ele>
        <time>2014-11-02T07:48:41Z</time>
      </trkpt>
      <trkpt lat="42.80503" lon="2.37781">
        <ele>369.28</ele>
        <time>2014-11-02T07:49:05Z</time>
      </trkpt>
      <trkpt lat="42.80496" lon="2.37776">
        <ele>369.76</ele>
        <time>2014-11-02T07:49:18Z</time>
      </trkpt>
      <trkpt lat="42.80481" lon="2.37772">
        <ele>371.21</ele>
        <time>2014-11-02T07:49:32Z</time>
      </trkpt>
      <trkpt lat="42.8048" lon="2.37771">
        <ele>371.21</ele>
        <time>2014-11-02T07:49:42Z</time>
      </trkpt>
      <trkpt lat="42.80471" lon="2.37773">
        <ele>371.69</ele>
        <time>2014-11-02T07:49:47Z</time>
      </trkpt>
      <trkpt lat="42.80438" lon="2.37773">
        <ele>372.17</ele>
        <time>2014-11-02T07:49:58Z</time>
      </trkpt>
      <trkpt lat="42.80432" lon="2.3778">
        <ele>372.17</ele>
        <time>2014-11-02T07:50:02Z</time>
      </trkpt>
      <trkpt lat="42.80428" lon="2.37791">
        <ele>375.05</ele>
        <time>2014-11-02T07:50:14Z</time>
      </trkpt>
      <trkpt lat="42.80425" lon="2.37793">
        <ele>375.05</ele>
        <time>2014-11-02T07:50:22Z</time>
      </trkpt>
      <trkpt lat="42.80416" lon="2.37794">
        <ele>376.01</ele>
        <time>2014-11-02T07:50:35Z</time>
      </trkpt>
      <trkpt lat="42.8041" lon="2.37798">
        <ele>376.49</ele>
        <time>2014-11-02T07:50:39Z</time>
      </trkpt>
      <trkpt lat="42.80395" lon="2.37827">
        <ele>379.86</ele>
        <time>2014-11-02T07:50:53Z</time>
      </trkpt>
      <trkpt lat="42.80384" lon="2.37843">
        <ele>381.3</ele>
        <time>2014-11-02T07:51:05Z</time>
      </trkpt>
      <trkpt lat="42.80377" lon="2.3785">
        <ele>382.74</ele>
        <time>2014-11-02T07:51:18Z</time>
      </trkpt>
      <trkpt lat="42.80372" lon="2.3786">
        <ele>384.18</ele>
        <time>2014-11-02T07:51:30Z</time>
      </trkpt>
      <trkpt lat="42.80365" lon="2.37859">
        <ele>385.63</ele>
        <time>2014-11-02T07:51:45Z</time>
      </trkpt>
      <trkpt lat="42.80354" lon="2.37855">
        <ele>386.59</ele>
        <time>2014-11-02T07:52:01Z</time>
      </trkpt>
      <trkpt lat="42.80348" lon="2.37852">
        <ele>387.55</ele>
        <time>2014-11-02T07:52:08Z</time>
      </trkpt>
      <trkpt lat="42.80337" lon="2.37857">
        <ele>390.43</ele>
        <time>2014-11-02T07:52:23Z</time>
      </trkpt>
      <trkpt lat="42.80331" lon="2.37858">
        <ele>391.39</ele>
        <time>2014-11-02T07:52:30Z</time>
      </trkpt>
      <trkpt lat="42.80324" lon="2.37871">
        <ele>393.8</ele>
        <time>2014-11-02T07:52:43Z</time>
      </trkpt>
      <trkpt lat="42.80317" lon="2.37884">
        <ele>396.2</ele>
        <time>2014-11-02T07:52:57Z</time>
      </trkpt>
      <trkpt lat="42.80311" lon="2.37893">
        <ele>398.12</ele>
        <time>2014-11-02T07:53:07Z</time>
      </trkpt>
      <trkpt lat="42.8031" lon="2.37899">
        <ele>399.08</ele>
        <time>2014-11-02T07:53:11Z</time>
      </trkpt>
      <trkpt lat="42.80305" lon="2.37906">
        <ele>399.57</ele>
        <time>2014-11-02T07:53:17Z</time>
      </trkpt>
      <trkpt lat="42.80297" lon="2.37908">
        <ele>401.01</ele>
        <time>2014-11-02T07:53:31Z</time>
      </trkpt>
      <trkpt lat="42.80296" lon="2.37908">
        <ele>400.53</ele>
        <time>2014-11-02T07:53:48Z</time>
      </trkpt>
      <trkpt lat="42.80296" lon="2.37908">
        <ele>400.05</ele>
        <time>2014-11-02T07:54:07Z</time>
      </trkpt>
      <trkpt lat="42.80296" lon="2.37908">
        <ele>400.05</ele>
        <time>2014-11-02T07:54:35Z</time>
      </trkpt>
      <trkpt lat="42.80295" lon="2.37908">
        <ele>400.05</ele>
        <time>2014-11-02T07:54:58Z</time>
      </trkpt>
      <trkpt lat="42.80296" lon="2.37908">
        <ele>400.05</ele>
        <time>2014-11-02T07:55:27Z</time>
      </trkpt>
      <trkpt lat="42.80294" lon="2.37908">
        <ele>400.53</ele>
        <time>2014-11-02T07:55:36Z</time>
      </trkpt>
      <trkpt lat="42.80272" lon="2.37949">
        <ele>398.12</ele>
        <time>2014-11-02T07:55:48Z</time>
      </trkpt>
      <trkpt lat="42.80232" lon="2.37999">
        <ele>396.68</ele>
        <time>2014-11-02T07:55:58Z</time>
      </trkpt>
      <trkpt lat="42.80229" lon="2.38002">
        <ele>397.16</ele>
        <time>2014-11-02T07:55:59Z</time>
      </trkpt>
      <trkpt lat="42.80226" lon="2.38004">
        <ele>397.16</ele>
        <time>2014-11-02T07:56:00Z</time>
      </trkpt>
      <trkpt lat="42.80223" lon="2.38005">
        <ele>397.64</ele>
        <time>2014-11-02T07:56:01Z</time>
      </trkpt>
      <trkpt lat="42.8022" lon="2.38006">
        <ele>397.64</ele>
        <time>2014-11-02T07:56:02Z</time>
      </trkpt>
      <trkpt lat="42.80191" lon="2.38025">
        <ele>401.01</ele>
        <time>2014-11-02T07:56:15Z</time>
      </trkpt>
      <trkpt lat="42.8019" lon="2.38028">
        <ele>400.05</ele>
        <time>2014-11-02T07:56:16Z</time>
      </trkpt>
      <trkpt lat="42.80191" lon="2.38031">
        <ele>400.05</ele>
        <time>2014-11-02T07:56:17Z</time>
      </trkpt>
      <trkpt lat="42.80191" lon="2.38035">
        <ele>400.05</ele>
        <time>2014-11-02T07:56:18Z</time>
      </trkpt>
      <trkpt lat="42.80192" lon="2.38038">
        <ele>400.05</ele>
        <time>2014-11-02T07:56:19Z</time>
      </trkpt>
      <trkpt lat="42.80193" lon="2.38041">
        <ele>400.53</ele>
        <time>2014-11-02T07:56:20Z</time>
      </trkpt>
      <trkpt lat="42.80194" lon="2.38043">
        <ele>400.53</ele>
        <time>2014-11-02T07:56:21Z</time>
      </trkpt>
      <trkpt lat="42.80195" lon="2.38044">
        <ele>400.53</ele>
        <time>2014-11-02T07:56:22Z</time>
      </trkpt>
      <trkpt lat="42.80198" lon="2.38045">
        <ele>400.53</ele>
        <time>2014-11-02T07:56:23Z</time>
      </trkpt>
      <trkpt lat="42.80202" lon="2.38045">
        <ele>400.05</ele>
        <time>2014-11-02T07:56:24Z</time>
      </trkpt>
      <trkpt lat="42.80206" lon="2.38047">
        <ele>399.08</ele>
        <time>2014-11-02T07:56:25Z</time>
      </trkpt>
      <trkpt lat="42.8021" lon="2.3805">
        <ele>398.12</ele>
        <time>2014-11-02T07:56:26Z</time>
      </trkpt>
      <trkpt lat="42.80215" lon="2.38055">
        <ele>396.68</ele>
        <time>2014-11-02T07:56:27Z</time>
      </trkpt>
      <trkpt lat="42.80219" lon="2.38062">
        <ele>396.2</ele>
        <time>2014-11-02T07:56:28Z</time>
      </trkpt>
      <trkpt lat="42.80223" lon="2.38069">
        <ele>395.24</ele>
        <time>2014-11-02T07:56:29Z</time>
      </trkpt>
      <trkpt lat="42.80226" lon="2.38077">
        <ele>393.8</ele>
        <time>2014-11-02T07:56:30Z</time>
      </trkpt>
      <trkpt lat="42.80229" lon="2.38087">
        <ele>392.84</ele>
        <time>2014-11-02T07:56:31Z</time>
      </trkpt>
      <trkpt lat="42.80232" lon="2.38097">
        <ele>391.87</ele>
        <time>2014-11-02T07:56:32Z</time>
      </trkpt>
      <trkpt lat="42.80232" lon="2.38104">
        <ele>391.87</ele>
        <time>2014-11-02T07:56:33Z</time>
      </trkpt>
      <trkpt lat="42.80231" lon="2.38111">
        <ele>391.87</ele>
        <time>2014-11-02T07:56:34Z</time>
      </trkpt>
      <trkpt lat="42.80228" lon="2.38115">
        <ele>391.87</ele>
        <time>2014-11-02T07:56:35Z</time>
      </trkpt>
      <trkpt lat="42.80225" lon="2.38118">
        <ele>391.87</ele>
        <time>2014-11-02T07:56:36Z</time>
      </trkpt>
      <trkpt lat="42.80221" lon="2.3812">
        <ele>391.87</ele>
        <time>2014-11-02T07:56:37Z</time>
      </trkpt>
      <trkpt lat="42.80218" lon="2.38121">
        <ele>391.87</ele>
        <time>2014-11-02T07:56:38Z</time>
      </trkpt>
      <trkpt lat="42.80216" lon="2.38123">
        <ele>391.87</ele>
        <time>2014-11-02T07:56:39Z</time>
      </trkpt>
      <trkpt lat="42.80213" lon="2.38125">
        <ele>391.87</ele>
        <time>2014-11-02T07:56:40Z</time>
      </trkpt>
      <trkpt lat="42.80211" lon="2.38127">
        <ele>391.87</ele>
        <time>2014-11-02T07:56:41Z</time>
      </trkpt>
      <trkpt lat="42.8021" lon="2.38129">
        <ele>391.87</ele>
        <time>2014-11-02T07:56:42Z</time>
      </trkpt>
      <trkpt lat="42.80208" lon="2.38131">
        <ele>392.36</ele>
        <time>2014-11-02T07:56:43Z</time>
      </trkpt>
      <trkpt lat="42.80192" lon="2.38178">
        <ele>388.99</ele>
        <time>2014-11-02T07:56:54Z</time>
      </trkpt>
      <trkpt lat="42.80189" lon="2.38215">
        <ele>386.11</ele>
        <time>2014-11-02T07:56:58Z</time>
      </trkpt>
      <trkpt lat="42.80187" lon="2.38236">
        <ele>384.18</ele>
        <time>2014-11-02T07:57:00Z</time>
      </trkpt>
      <trkpt lat="42.80177" lon="2.38281">
        <ele>380.82</ele>
        <time>2014-11-02T07:57:05Z</time>
      </trkpt>
      <trkpt lat="42.80174" lon="2.38296">
        <ele>379.38</ele>
        <time>2014-11-02T07:57:07Z</time>
      </trkpt>
      <trkpt lat="42.80167" lon="2.3834">
        <ele>376.01</ele>
        <time>2014-11-02T07:57:12Z</time>
      </trkpt>
      <trkpt lat="42.80165" lon="2.38348">
        <ele>375.53</ele>
        <time>2014-11-02T07:57:13Z</time>
      </trkpt>
      <trkpt lat="42.80162" lon="2.38356">
        <ele>374.57</ele>
        <time>2014-11-02T07:57:14Z</time>
      </trkpt>
      <trkpt lat="42.80149" lon="2.38395">
        <ele>371.21</ele>
        <time>2014-11-02T07:57:19Z</time>
      </trkpt>
      <trkpt lat="42.80137" lon="2.38435">
        <ele>367.84</ele>
        <time>2014-11-02T07:57:24Z</time>
      </trkpt>
      <trkpt lat="42.80132" lon="2.38456">
        <ele>365.92</ele>
        <time>2014-11-02T07:57:26Z</time>
      </trkpt>
      <trkpt lat="42.80129" lon="2.38466">
        <ele>365.44</ele>
        <time>2014-11-02T07:57:27Z</time>
      </trkpt>
      <trkpt lat="42.80125" lon="2.38476">
        <ele>364.96</ele>
        <time>2014-11-02T07:57:28Z</time>
      </trkpt>
      <trkpt lat="42.8012" lon="2.38485">
        <ele>364.96</ele>
        <time>2014-11-02T07:57:29Z</time>
      </trkpt>
      <trkpt lat="42.80115" lon="2.38492">
        <ele>364.96</ele>
        <time>2014-11-02T07:57:30Z</time>
      </trkpt>
      <trkpt lat="42.8011" lon="2.38499">
        <ele>365.44</ele>
        <time>2014-11-02T07:57:31Z</time>
      </trkpt>
      <trkpt lat="42.80104" lon="2.38504">
        <ele>365.44</ele>
        <time>2014-11-02T07:57:32Z</time>
      </trkpt>
      <trkpt lat="42.80097" lon="2.38508">
        <ele>365.44</ele>
        <time>2014-11-02T07:57:33Z</time>
      </trkpt>
      <trkpt lat="42.8009" lon="2.38509">
        <ele>365.44</ele>
        <time>2014-11-02T07:57:34Z</time>
      </trkpt>
      <trkpt lat="42.80084" lon="2.3851">
        <ele>364.96</ele>
        <time>2014-11-02T07:57:35Z</time>
      </trkpt>
      <trkpt lat="42.80079" lon="2.38508">
        <ele>365.44</ele>
        <time>2014-11-02T07:57:36Z</time>
      </trkpt>
      <trkpt lat="42.80076" lon="2.38505">
        <ele>365.44</ele>
        <time>2014-11-02T07:57:37Z</time>
      </trkpt>
      <trkpt lat="42.80073" lon="2.38499">
        <ele>365.44</ele>
        <time>2014-11-02T07:57:38Z</time>
      </trkpt>
      <trkpt lat="42.80072" lon="2.38493">
        <ele>365.44</ele>
        <time>2014-11-02T07:57:39Z</time>
      </trkpt>
      <trkpt lat="42.80071" lon="2.38487">
        <ele>365.44</ele>
        <time>2014-11-02T07:57:40Z</time>
      </trkpt>
      <trkpt lat="42.8007" lon="2.3848">
        <ele>365.44</ele>
        <time>2014-11-02T07:57:41Z</time>
      </trkpt>
      <trkpt lat="42.80063" lon="2.38411">
        <ele>365.44</ele>
        <time>2014-11-02T07:57:55Z</time>
      </trkpt>
      <trkpt lat="42.80037" lon="2.38352">
        <ele>365.44</ele>
        <time>2014-11-02T07:58:09Z</time>
      </trkpt>
      <trkpt lat="42.79998" lon="2.38326">
        <ele>365.44</ele>
        <time>2014-11-02T07:58:21Z</time>
      </trkpt>
      <trkpt lat="42.79965" lon="2.3833">
        <ele>365.44</ele>
        <time>2014-11-02T07:58:32Z</time>
      </trkpt>
      <trkpt lat="42.79926" lon="2.38309">
        <ele>366.4</ele>
        <time>2014-11-02T07:58:45Z</time>
      </trkpt>
      <trkpt lat="42.79915" lon="2.38295">
        <ele>367.36</ele>
        <time>2014-11-02T07:58:57Z</time>
      </trkpt>
      <trkpt lat="42.79912" lon="2.38289">
        <ele>366.88</ele>
        <time>2014-11-02T07:59:03Z</time>
      </trkpt>
      <trkpt lat="42.7991" lon="2.38287">
        <ele>366.88</ele>
        <time>2014-11-02T07:59:04Z</time>
      </trkpt>
      <trkpt lat="42.79908" lon="2.38286">
        <ele>366.88</ele>
        <time>2014-11-02T07:59:05Z</time>
      </trkpt>
      <trkpt lat="42.79906" lon="2.38284">
        <ele>366.88</ele>
        <time>2014-11-02T07:59:06Z</time>
      </trkpt>
      <trkpt lat="42.79903" lon="2.38282">
        <ele>366.4</ele>
        <time>2014-11-02T07:59:07Z</time>
      </trkpt>
      <trkpt lat="42.799" lon="2.3828">
        <ele>366.4</ele>
        <time>2014-11-02T07:59:08Z</time>
      </trkpt>
      <trkpt lat="42.79897" lon="2.38278">
        <ele>365.92</ele>
        <time>2014-11-02T07:59:09Z</time>
      </trkpt>
      <trkpt lat="42.79862" lon="2.38271">
        <ele>366.88</ele>
        <time>2014-11-02T07:59:22Z</time>
      </trkpt>
      <trkpt lat="42.79844" lon="2.38277">
        <ele>367.36</ele>
        <time>2014-11-02T07:59:30Z</time>
      </trkpt>
      <trkpt lat="42.79842" lon="2.38279">
        <ele>366.88</ele>
        <time>2014-11-02T07:59:31Z</time>
      </trkpt>
      <trkpt lat="42.79821" lon="2.38295">
        <ele>367.84</ele>
        <time>2014-11-02T07:59:41Z</time>
      </trkpt>
      <trkpt lat="42.79788" lon="2.38276">
        <ele>369.28</ele>
        <time>2014-11-02T07:59:54Z</time>
      </trkpt>
      <trkpt lat="42.79765" lon="2.3826">
        <ele>370.73</ele>
        <time>2014-11-02T08:00:06Z</time>
      </trkpt>
      <trkpt lat="42.79748" lon="2.38245">
        <ele>371.69</ele>
        <time>2014-11-02T08:00:18Z</time>
      </trkpt>
      <trkpt lat="42.7974" lon="2.38241">
        <ele>371.69</ele>
        <time>2014-11-02T08:00:38Z</time>
      </trkpt>
      <trkpt lat="42.79737" lon="2.38232">
        <ele>371.69</ele>
        <time>2014-11-02T08:00:53Z</time>
      </trkpt>
      <trkpt lat="42.79732" lon="2.3822">
        <ele>371.69</ele>
        <time>2014-11-02T08:01:06Z</time>
      </trkpt>
      <trkpt lat="42.79728" lon="2.3821">
        <ele>371.69</ele>
        <time>2014-11-02T08:01:20Z</time>
      </trkpt>
      <trkpt lat="42.7972" lon="2.38203">
        <ele>371.69</ele>
        <time>2014-11-02T08:01:37Z</time>
      </trkpt>
      <trkpt lat="42.79712" lon="2.38192">
        <ele>372.65</ele>
        <time>2014-11-02T08:01:52Z</time>
      </trkpt>
      <trkpt lat="42.79696" lon="2.38185">
        <ele>374.09</ele>
        <time>2014-11-02T08:02:00Z</time>
      </trkpt>
      <trkpt lat="42.79692" lon="2.38184">
        <ele>374.09</ele>
        <time>2014-11-02T08:02:02Z</time>
      </trkpt>
      <trkpt lat="42.79686" lon="2.38184">
        <ele>374.09</ele>
        <time>2014-11-02T08:02:06Z</time>
      </trkpt>
      <trkpt lat="42.79681" lon="2.38185">
        <ele>374.09</ele>
        <time>2014-11-02T08:02:10Z</time>
      </trkpt>
      <trkpt lat="42.79675" lon="2.38184">
        <ele>374.57</ele>
        <time>2014-11-02T08:02:21Z</time>
      </trkpt>
      <trkpt lat="42.79673" lon="2.38181">
        <ele>374.57</ele>
        <time>2014-11-02T08:02:24Z</time>
      </trkpt>
      <trkpt lat="42.79668" lon="2.38172">
        <ele>375.05</ele>
        <time>2014-11-02T08:02:30Z</time>
      </trkpt>
      <trkpt lat="42.79658" lon="2.38147">
        <ele>375.53</ele>
        <time>2014-11-02T08:02:45Z</time>
      </trkpt>
      <trkpt lat="42.79657" lon="2.38138">
        <ele>376.49</ele>
        <time>2014-11-02T08:02:57Z</time>
      </trkpt>
      <trkpt lat="42.79662" lon="2.38123">
        <ele>378.42</ele>
        <time>2014-11-02T08:03:15Z</time>
      </trkpt>
      <trkpt lat="42.79667" lon="2.38117">
        <ele>378.9</ele>
        <time>2014-11-02T08:03:20Z</time>
      </trkpt>
      <trkpt lat="42.79656" lon="2.38078">
        <ele>380.34</ele>
        <time>2014-11-02T08:03:35Z</time>
      </trkpt>
      <trkpt lat="42.79641" lon="2.38055">
        <ele>380.82</ele>
        <time>2014-11-02T08:03:47Z</time>
      </trkpt>
      <trkpt lat="42.79651" lon="2.38043">
        <ele>381.78</ele>
        <time>2014-11-02T08:04:00Z</time>
      </trkpt>
      <trkpt lat="42.79649" lon="2.38031">
        <ele>383.22</ele>
        <time>2014-11-02T08:04:06Z</time>
      </trkpt>
      <trkpt lat="42.7965" lon="2.38003">
        <ele>384.18</ele>
        <time>2014-11-02T08:04:20Z</time>
      </trkpt>
      <trkpt lat="42.79653" lon="2.37982">
        <ele>384.18</ele>
        <time>2014-11-02T08:04:37Z</time>
      </trkpt>
      <trkpt lat="42.7965" lon="2.3798">
        <ele>384.66</ele>
        <time>2014-11-02T08:04:41Z</time>
      </trkpt>
      <trkpt lat="42.79652" lon="2.37983">
        <ele>385.63</ele>
        <time>2014-11-02T08:04:51Z</time>
      </trkpt>
      <trkpt lat="42.79647" lon="2.37986">
        <ele>387.07</ele>
        <time>2014-11-02T08:05:05Z</time>
      </trkpt>
      <trkpt lat="42.79634" lon="2.37987">
        <ele>387.55</ele>
        <time>2014-11-02T08:05:19Z</time>
      </trkpt>
      <trkpt lat="42.79622" lon="2.37992">
        <ele>389.47</ele>
        <time>2014-11-02T08:05:35Z</time>
      </trkpt>
      <trkpt lat="42.79614" lon="2.37996">
        <ele>391.87</ele>
        <time>2014-11-02T08:05:52Z</time>
      </trkpt>
      <trkpt lat="42.79599" lon="2.37989">
        <ele>394.28</ele>
        <time>2014-11-02T08:06:11Z</time>
      </trkpt>
      <trkpt lat="42.79598" lon="2.37984">
        <ele>394.76</ele>
        <time>2014-11-02T08:06:15Z</time>
      </trkpt>
      <trkpt lat="42.79598" lon="2.37982">
        <ele>395.72</ele>
        <time>2014-11-02T08:06:16Z</time>
      </trkpt>
      <trkpt lat="42.79588" lon="2.37955">
        <ele>397.16</ele>
        <time>2014-11-02T08:06:34Z</time>
      </trkpt>
      <trkpt lat="42.79593" lon="2.37946">
        <ele>398.12</ele>
        <time>2014-11-02T08:06:48Z</time>
      </trkpt>
      <trkpt lat="42.79589" lon="2.37945">
        <ele>398.6</ele>
        <time>2014-11-02T08:06:56Z</time>
      </trkpt>
      <trkpt lat="42.79576" lon="2.37944">
        <ele>398.12</ele>
        <time>2014-11-02T08:07:04Z</time>
      </trkpt>
      <trkpt lat="42.79571" lon="2.37954">
        <ele>399.57</ele>
        <time>2014-11-02T08:07:22Z</time>
      </trkpt>
      <trkpt lat="42.79476" lon="2.37943">
        <ele>400.53</ele>
        <time>2014-11-02T08:07:38Z</time>
      </trkpt>
      <trkpt lat="42.7947" lon="2.37941">
        <ele>401.49</ele>
        <time>2014-11-02T08:07:52Z</time>
      </trkpt>
      <trkpt lat="42.79463" lon="2.37945">
        <ele>401.49</ele>
        <time>2014-11-02T08:08:06Z</time>
      </trkpt>
      <trkpt lat="42.79457" lon="2.37947">
        <ele>402.45</ele>
        <time>2014-11-02T08:08:09Z</time>
      </trkpt>
      <trkpt lat="42.79438" lon="2.37936">
        <ele>402.93</ele>
        <time>2014-11-02T08:08:17Z</time>
      </trkpt>
      <trkpt lat="42.79434" lon="2.37923">
        <ele>403.41</ele>
        <time>2014-11-02T08:08:32Z</time>
      </trkpt>
      <trkpt lat="42.79434" lon="2.37922">
        <ele>403.41</ele>
        <time>2014-11-02T08:08:49Z</time>
      </trkpt>
      <trkpt lat="42.79436" lon="2.37924">
        <ele>403.41</ele>
        <time>2014-11-02T08:08:59Z</time>
      </trkpt>
      <trkpt lat="42.79444" lon="2.37922">
        <ele>403.41</ele>
        <time>2014-11-02T08:09:17Z</time>
      </trkpt>
      <trkpt lat="42.79449" lon="2.37921">
        <ele>403.41</ele>
        <time>2014-11-02T08:09:22Z</time>
      </trkpt>
      <trkpt lat="42.7946" lon="2.37904">
        <ele>404.37</ele>
        <time>2014-11-02T08:09:31Z</time>
      </trkpt>
      <trkpt lat="42.79494" lon="2.37892">
        <ele>405.33</ele>
        <time>2014-11-02T08:09:41Z</time>
      </trkpt>
      <trkpt lat="42.79507" lon="2.3788">
        <ele>407.26</ele>
        <time>2014-11-02T08:09:50Z</time>
      </trkpt>
      <trkpt lat="42.79507" lon="2.37877">
        <ele>409.18</ele>
        <time>2014-11-02T08:10:05Z</time>
      </trkpt>
      <trkpt lat="42.79502" lon="2.37875">
        <ele>409.18</ele>
        <time>2014-11-02T08:10:10Z</time>
      </trkpt>
      <trkpt lat="42.79468" lon="2.37871">
        <ele>410.62</ele>
        <time>2014-11-02T08:10:26Z</time>
      </trkpt>
      <trkpt lat="42.7941" lon="2.37871">
        <ele>412.06</ele>
        <time>2014-11-02T08:10:39Z</time>
      </trkpt>
      <trkpt lat="42.794" lon="2.37872">
        <ele>413.02</ele>
        <time>2014-11-02T08:10:43Z</time>
      </trkpt>
      <trkpt lat="42.79376" lon="2.37872">
        <ele>414.47</ele>
        <time>2014-11-02T08:10:57Z</time>
      </trkpt>
      <trkpt lat="42.79374" lon="2.37874">
        <ele>414.95</ele>
        <time>2014-11-02T08:11:10Z</time>
      </trkpt>
      <trkpt lat="42.79354" lon="2.3785">
        <ele>415.91</ele>
        <time>2014-11-02T08:11:21Z</time>
      </trkpt>
      <trkpt lat="42.79338" lon="2.37838">
        <ele>416.39</ele>
        <time>2014-11-02T08:11:35Z</time>
      </trkpt>
      <trkpt lat="42.79324" lon="2.37822">
        <ele>417.83</ele>
        <time>2014-11-02T08:11:50Z</time>
      </trkpt>
      <trkpt lat="42.79314" lon="2.37814">
        <ele>420.23</ele>
        <time>2014-11-02T08:12:06Z</time>
      </trkpt>
      <trkpt lat="42.79301" lon="2.3781">
        <ele>423.6</ele>
        <time>2014-11-02T08:12:17Z</time>
      </trkpt>
      <trkpt lat="42.79281" lon="2.37808">
        <ele>423.6</ele>
        <time>2014-11-02T08:12:29Z</time>
      </trkpt>
      <trkpt lat="42.79278" lon="2.37807">
        <ele>424.08</ele>
        <time>2014-11-02T08:12:32Z</time>
      </trkpt>
      <trkpt lat="42.79273" lon="2.37803">
        <ele>425.52</ele>
        <time>2014-11-02T08:12:38Z</time>
      </trkpt>
      <trkpt lat="42.79271" lon="2.37791">
        <ele>426</ele>
        <time>2014-11-02T08:12:46Z</time>
      </trkpt>
      <trkpt lat="42.79257" lon="2.37774">
        <ele>426.48</ele>
        <time>2014-11-02T08:12:55Z</time>
      </trkpt>
      <trkpt lat="42.79252" lon="2.3777">
        <ele>426.48</ele>
        <time>2014-11-02T08:12:58Z</time>
      </trkpt>
      <trkpt lat="42.79199" lon="2.3773">
        <ele>427.44</ele>
        <time>2014-11-02T08:13:11Z</time>
      </trkpt>
      <trkpt lat="42.79195" lon="2.37726">
        <ele>427.44</ele>
        <time>2014-11-02T08:13:15Z</time>
      </trkpt>
      <trkpt lat="42.79189" lon="2.37715">
        <ele>427.44</ele>
        <time>2014-11-02T08:13:21Z</time>
      </trkpt>
      <trkpt lat="42.7918" lon="2.37706">
        <ele>427.44</ele>
        <time>2014-11-02T08:13:26Z</time>
      </trkpt>
      <trkpt lat="42.79171" lon="2.37704">
        <ele>427.44</ele>
        <time>2014-11-02T08:13:30Z</time>
      </trkpt>
      <trkpt lat="42.79141" lon="2.3768">
        <ele>427.92</ele>
        <time>2014-11-02T08:13:42Z</time>
      </trkpt>
      <trkpt lat="42.79118" lon="2.37664">
        <ele>429.37</ele>
        <time>2014-11-02T08:13:52Z</time>
      </trkpt>
      <trkpt lat="42.79095" lon="2.37647">
        <ele>428.89</ele>
        <time>2014-11-02T08:14:01Z</time>
      </trkpt>
      <trkpt lat="42.79065" lon="2.37647">
        <ele>428.89</ele>
        <time>2014-11-02T08:14:09Z</time>
      </trkpt>
      <trkpt lat="42.79048" lon="2.3766">
        <ele>429.37</ele>
        <time>2014-11-02T08:14:23Z</time>
      </trkpt>
      <trkpt lat="42.79043" lon="2.37666">
        <ele>429.37</ele>
        <time>2014-11-02T08:14:37Z</time>
      </trkpt>
      <trkpt lat="42.79033" lon="2.37665">
        <ele>428.89</ele>
        <time>2014-11-02T08:14:51Z</time>
      </trkpt>
      <trkpt lat="42.79026" lon="2.3766">
        <ele>428.89</ele>
        <time>2014-11-02T08:15:06Z</time>
      </trkpt>
      <trkpt lat="42.79022" lon="2.37655">
        <ele>429.85</ele>
        <time>2014-11-02T08:15:22Z</time>
      </trkpt>
      <trkpt lat="42.79025" lon="2.37648">
        <ele>432.73</ele>
        <time>2014-11-02T08:15:39Z</time>
      </trkpt>
      <trkpt lat="42.79024" lon="2.37647">
        <ele>433.21</ele>
        <time>2014-11-02T08:15:41Z</time>
      </trkpt>
      <trkpt lat="42.7902" lon="2.37652">
        <ele>435.61</ele>
        <time>2014-11-02T08:15:55Z</time>
      </trkpt>
      <trkpt lat="42.7902" lon="2.37653">
        <ele>435.61</ele>
        <time>2014-11-02T08:15:56Z</time>
      </trkpt>
      <trkpt lat="42.79025" lon="2.37654">
        <ele>436.58</ele>
        <time>2014-11-02T08:16:04Z</time>
      </trkpt>
      <trkpt lat="42.79016" lon="2.37645">
        <ele>438.02</ele>
        <time>2014-11-02T08:16:14Z</time>
      </trkpt>
      <trkpt lat="42.79014" lon="2.37645">
        <ele>438.02</ele>
        <time>2014-11-02T08:16:28Z</time>
      </trkpt>
      <trkpt lat="42.79013" lon="2.37646">
        <ele>438.02</ele>
        <time>2014-11-02T08:16:49Z</time>
      </trkpt>
      <trkpt lat="42.79011" lon="2.37647">
        <ele>438.02</ele>
        <time>2014-11-02T08:17:15Z</time>
      </trkpt>
      <trkpt lat="42.7901" lon="2.37647">
        <ele>438.02</ele>
        <time>2014-11-02T08:17:16Z</time>
      </trkpt>
      <trkpt lat="42.79005" lon="2.3766">
        <ele>438.5</ele>
        <time>2014-11-02T08:17:30Z</time>
      </trkpt>
      <trkpt lat="42.79002" lon="2.37661">
        <ele>438.5</ele>
        <time>2014-11-02T08:17:33Z</time>
      </trkpt>
      <trkpt lat="42.79" lon="2.37656">
        <ele>438.98</ele>
        <time>2014-11-02T08:17:38Z</time>
      </trkpt>
      <trkpt lat="42.78998" lon="2.37657">
        <ele>438.98</ele>
        <time>2014-11-02T08:17:49Z</time>
      </trkpt>
      <trkpt lat="42.78996" lon="2.37655">
        <ele>438.5</ele>
        <time>2014-11-02T08:18:07Z</time>
      </trkpt>
      <trkpt lat="42.79003" lon="2.37687">
        <ele>438.5</ele>
        <time>2014-11-02T08:18:17Z</time>
      </trkpt>
      <trkpt lat="42.79003" lon="2.37698">
        <ele>438.02</ele>
        <time>2014-11-02T08:18:23Z</time>
      </trkpt>
      <trkpt lat="42.79001" lon="2.37709">
        <ele>439.46</ele>
        <time>2014-11-02T08:18:28Z</time>
      </trkpt>
      <trkpt lat="42.78993" lon="2.3773">
        <ele>442.82</ele>
        <time>2014-11-02T08:18:39Z</time>
      </trkpt>
      <trkpt lat="42.78985" lon="2.37744">
        <ele>445.23</ele>
        <time>2014-11-02T08:18:48Z</time>
      </trkpt>
      <trkpt lat="42.78974" lon="2.37762">
        <ele>448.11</ele>
        <time>2014-11-02T08:19:00Z</time>
      </trkpt>
      <trkpt lat="42.78966" lon="2.37778">
        <ele>450.52</ele>
        <time>2014-11-02T08:19:11Z</time>
      </trkpt>
      <trkpt lat="42.78964" lon="2.37782">
        <ele>451</ele>
        <time>2014-11-02T08:19:14Z</time>
      </trkpt>
      <trkpt lat="42.78959" lon="2.37801">
        <ele>453.88</ele>
        <time>2014-11-02T08:19:26Z</time>
      </trkpt>
      <trkpt lat="42.78964" lon="2.37802">
        <ele>455.32</ele>
        <time>2014-11-02T08:19:31Z</time>
      </trkpt>
      <trkpt lat="42.78975" lon="2.37794">
        <ele>456.28</ele>
        <time>2014-11-02T08:19:41Z</time>
      </trkpt>
      <trkpt lat="42.78985" lon="2.37782">
        <ele>457.72</ele>
        <time>2014-11-02T08:19:51Z</time>
      </trkpt>
      <trkpt lat="42.78994" lon="2.37781">
        <ele>458.21</ele>
        <time>2014-11-02T08:19:56Z</time>
      </trkpt>
      <trkpt lat="42.79018" lon="2.37789">
        <ele>461.09</ele>
        <time>2014-11-02T08:20:11Z</time>
      </trkpt>
      <trkpt lat="42.79039" lon="2.378">
        <ele>463.97</ele>
        <time>2014-11-02T08:20:26Z</time>
      </trkpt>
      <trkpt lat="42.79056" lon="2.37818">
        <ele>465.9</ele>
        <time>2014-11-02T08:20:41Z</time>
      </trkpt>
      <trkpt lat="42.79069" lon="2.37831">
        <ele>467.34</ele>
        <time>2014-11-02T08:20:51Z</time>
      </trkpt>
      <trkpt lat="42.79073" lon="2.3784">
        <ele>467.82</ele>
        <time>2014-11-02T08:20:57Z</time>
      </trkpt>
      <trkpt lat="42.79084" lon="2.3786">
        <ele>470.7</ele>
        <time>2014-11-02T08:21:09Z</time>
      </trkpt>
      <trkpt lat="42.7909" lon="2.37861">
        <ele>471.18</ele>
        <time>2014-11-02T08:21:11Z</time>
      </trkpt>
      <trkpt lat="42.79096" lon="2.37878">
        <ele>473.11</ele>
        <time>2014-11-02T08:21:22Z</time>
      </trkpt>
      <trkpt lat="42.79101" lon="2.37887">
        <ele>473.11</ele>
        <time>2014-11-02T08:21:28Z</time>
      </trkpt>
      <trkpt lat="42.79106" lon="2.37875">
        <ele>472.63</ele>
        <time>2014-11-02T08:21:33Z</time>
      </trkpt>
      <trkpt lat="42.791" lon="2.37861">
        <ele>471.18</ele>
        <time>2014-11-02T08:21:37Z</time>
      </trkpt>
      <trkpt lat="42.79098" lon="2.37855">
        <ele>470.22</ele>
        <time>2014-11-02T08:21:38Z</time>
      </trkpt>
      <trkpt lat="42.7909" lon="2.37828">
        <ele>466.86</ele>
        <time>2014-11-02T08:21:42Z</time>
      </trkpt>
      <trkpt lat="42.79088" lon="2.37823">
        <ele>466.38</ele>
        <time>2014-11-02T08:21:43Z</time>
      </trkpt>
      <trkpt lat="42.7907" lon="2.37808">
        <ele>464.93</ele>
        <time>2014-11-02T08:21:47Z</time>
      </trkpt>
      <trkpt lat="42.79043" lon="2.37795">
        <ele>463.01</ele>
        <time>2014-11-02T08:21:50Z</time>
      </trkpt>
      <trkpt lat="42.79014" lon="2.3778">
        <ele>458.69</ele>
        <time>2014-11-02T08:21:55Z</time>
      </trkpt>
      <trkpt lat="42.79006" lon="2.37777">
        <ele>457.72</ele>
        <time>2014-11-02T08:21:56Z</time>
      </trkpt>
      <trkpt lat="42.78995" lon="2.37777">
        <ele>457.24</ele>
        <time>2014-11-02T08:21:57Z</time>
      </trkpt>
      <trkpt lat="42.7899" lon="2.3778">
        <ele>456.76</ele>
        <time>2014-11-02T08:21:58Z</time>
      </trkpt>
      <trkpt lat="42.78957" lon="2.37795">
        <ele>454.36</ele>
        <time>2014-11-02T08:22:07Z</time>
      </trkpt>
      <trkpt lat="42.78941" lon="2.37813">
        <ele>453.88</ele>
        <time>2014-11-02T08:22:19Z</time>
      </trkpt>
      <trkpt lat="42.7892" lon="2.37813">
        <ele>451</ele>
        <time>2014-11-02T08:22:29Z</time>
      </trkpt>
      <trkpt lat="42.789" lon="2.37814">
        <ele>450.52</ele>
        <time>2014-11-02T08:22:34Z</time>
      </trkpt>
      <trkpt lat="42.78873" lon="2.37819">
        <ele>452.44</ele>
        <time>2014-11-02T08:22:44Z</time>
      </trkpt>
      <trkpt lat="42.78848" lon="2.37827">
        <ele>455.32</ele>
        <time>2014-11-02T08:22:57Z</time>
      </trkpt>
      <trkpt lat="42.7883" lon="2.37837">
        <ele>457.72</ele>
        <time>2014-11-02T08:23:09Z</time>
      </trkpt>
      <trkpt lat="42.78821" lon="2.37844">
        <ele>459.65</ele>
        <time>2014-11-02T08:23:17Z</time>
      </trkpt>
      <trkpt lat="42.78819" lon="2.37851">
        <ele>460.61</ele>
        <time>2014-11-02T08:23:21Z</time>
      </trkpt>
      <trkpt lat="42.78819" lon="2.37853">
        <ele>461.09</ele>
        <time>2014-11-02T08:23:22Z</time>
      </trkpt>
      <trkpt lat="42.78814" lon="2.37866">
        <ele>463.01</ele>
        <time>2014-11-02T08:23:31Z</time>
      </trkpt>
      <trkpt lat="42.78809" lon="2.37885">
        <ele>465.9</ele>
        <time>2014-11-02T08:23:46Z</time>
      </trkpt>
      <trkpt lat="42.78812" lon="2.379">
        <ele>468.3</ele>
        <time>2014-11-02T08:23:58Z</time>
      </trkpt>
      <trkpt lat="42.78814" lon="2.37921">
        <ele>470.22</ele>
        <time>2014-11-02T08:24:16Z</time>
      </trkpt>
      <trkpt lat="42.78818" lon="2.37927">
        <ele>471.18</ele>
        <time>2014-11-02T08:24:23Z</time>
      </trkpt>
      <trkpt lat="42.78825" lon="2.37938">
        <ele>472.14</ele>
        <time>2014-11-02T08:24:39Z</time>
      </trkpt>
      <trkpt lat="42.78824" lon="2.3795">
        <ele>474.55</ele>
        <time>2014-11-02T08:24:55Z</time>
      </trkpt>
      <trkpt lat="42.78821" lon="2.37959">
        <ele>476.47</ele>
        <time>2014-11-02T08:25:10Z</time>
      </trkpt>
      <trkpt lat="42.78818" lon="2.37964">
        <ele>476.95</ele>
        <time>2014-11-02T08:25:26Z</time>
      </trkpt>
      <trkpt lat="42.78818" lon="2.37975">
        <ele>477.91</ele>
        <time>2014-11-02T08:25:43Z</time>
      </trkpt>
      <trkpt lat="42.78819" lon="2.37989">
        <ele>480.32</ele>
        <time>2014-11-02T08:25:54Z</time>
      </trkpt>
      <trkpt lat="42.78819" lon="2.37991">
        <ele>480.8</ele>
        <time>2014-11-02T08:25:55Z</time>
      </trkpt>
      <trkpt lat="42.78819" lon="2.37994">
        <ele>481.28</ele>
        <time>2014-11-02T08:25:57Z</time>
      </trkpt>
      <trkpt lat="42.78829" lon="2.38018">
        <ele>484.16</ele>
        <time>2014-11-02T08:26:11Z</time>
      </trkpt>
      <trkpt lat="42.78836" lon="2.38037">
        <ele>486.56</ele>
        <time>2014-11-02T08:26:24Z</time>
      </trkpt>
      <trkpt lat="42.78834" lon="2.38041">
        <ele>487.53</ele>
        <time>2014-11-02T08:26:36Z</time>
      </trkpt>
      <trkpt lat="42.78822" lon="2.38055">
        <ele>489.45</ele>
        <time>2014-11-02T08:26:50Z</time>
      </trkpt>
      <trkpt lat="42.78811" lon="2.38066">
        <ele>491.37</ele>
        <time>2014-11-02T08:27:05Z</time>
      </trkpt>
      <trkpt lat="42.78805" lon="2.38074">
        <ele>493.29</ele>
        <time>2014-11-02T08:27:18Z</time>
      </trkpt>
      <trkpt lat="42.78796" lon="2.38086">
        <ele>495.7</ele>
        <time>2014-11-02T08:27:33Z</time>
      </trkpt>
      <trkpt lat="42.78797" lon="2.38093">
        <ele>497.14</ele>
        <time>2014-11-02T08:27:41Z</time>
      </trkpt>
      <trkpt lat="42.78797" lon="2.38096">
        <ele>497.14</ele>
        <time>2014-11-02T08:27:56Z</time>
      </trkpt>
      <trkpt lat="42.78788" lon="2.38115">
        <ele>498.58</ele>
        <time>2014-11-02T08:28:11Z</time>
      </trkpt>
      <trkpt lat="42.78779" lon="2.3814">
        <ele>499.54</ele>
        <time>2014-11-02T08:28:24Z</time>
      </trkpt>
      <trkpt lat="42.78774" lon="2.38163">
        <ele>499.06</ele>
        <time>2014-11-02T08:28:34Z</time>
      </trkpt>
      <trkpt lat="42.78768" lon="2.38183">
        <ele>497.62</ele>
        <time>2014-11-02T08:28:50Z</time>
      </trkpt>
      <trkpt lat="42.78769" lon="2.38184">
        <ele>497.62</ele>
        <time>2014-11-02T08:29:05Z</time>
      </trkpt>
      <trkpt lat="42.78769" lon="2.38184">
        <ele>497.62</ele>
        <time>2014-11-02T08:29:24Z</time>
      </trkpt>
      <trkpt lat="42.78766" lon="2.38182">
        <ele>497.14</ele>
        <time>2014-11-02T08:29:52Z</time>
      </trkpt>
      <trkpt lat="42.78767" lon="2.38183">
        <ele>497.14</ele>
        <time>2014-11-02T08:30:22Z</time>
      </trkpt>
      <trkpt lat="42.78765" lon="2.38183">
        <ele>497.62</ele>
        <time>2014-11-02T08:30:52Z</time>
      </trkpt>
      <trkpt lat="42.78765" lon="2.38183">
        <ele>497.62</ele>
        <time>2014-11-02T08:31:24Z</time>
      </trkpt>
      <trkpt lat="42.78765" lon="2.38183">
        <ele>497.62</ele>
        <time>2014-11-02T08:31:56Z</time>
      </trkpt>
      <trkpt lat="42.78765" lon="2.38182">
        <ele>497.62</ele>
        <time>2014-11-02T08:32:25Z</time>
      </trkpt>
      <trkpt lat="42.78765" lon="2.38183">
        <ele>498.1</ele>
        <time>2014-11-02T08:32:56Z</time>
      </trkpt>
      <trkpt lat="42.78765" lon="2.38182">
        <ele>498.1</ele>
        <time>2014-11-02T08:33:19Z</time>
      </trkpt>
      <trkpt lat="42.78765" lon="2.38182">
        <ele>498.58</ele>
        <time>2014-11-02T08:33:45Z</time>
      </trkpt>
      <trkpt lat="42.78765" lon="2.38183">
        <ele>499.54</ele>
        <time>2014-11-02T08:34:08Z</time>
      </trkpt>
      <trkpt lat="42.78762" lon="2.38189">
        <ele>499.06</ele>
        <time>2014-11-02T08:34:12Z</time>
      </trkpt>
      <trkpt lat="42.78754" lon="2.38217">
        <ele>497.62</ele>
        <time>2014-11-02T08:34:20Z</time>
      </trkpt>
      <trkpt lat="42.78747" lon="2.3824">
        <ele>495.7</ele>
        <time>2014-11-02T08:34:24Z</time>
      </trkpt>
      <trkpt lat="42.7874" lon="2.38257">
        <ele>493.77</ele>
        <time>2014-11-02T08:34:28Z</time>
      </trkpt>
      <trkpt lat="42.78737" lon="2.38258">
        <ele>493.77</ele>
        <time>2014-11-02T08:34:33Z</time>
      </trkpt>
      <trkpt lat="42.78735" lon="2.38259">
        <ele>493.77</ele>
        <time>2014-11-02T08:34:34Z</time>
      </trkpt>
      <trkpt lat="42.78733" lon="2.38259">
        <ele>493.77</ele>
        <time>2014-11-02T08:34:35Z</time>
      </trkpt>
      <trkpt lat="42.78698" lon="2.38281">
        <ele>492.81</ele>
        <time>2014-11-02T08:34:50Z</time>
      </trkpt>
      <trkpt lat="42.78699" lon="2.383">
        <ele>491.85</ele>
        <time>2014-11-02T08:34:54Z</time>
      </trkpt>
      <trkpt lat="42.787" lon="2.38305">
        <ele>491.37</ele>
        <time>2014-11-02T08:34:55Z</time>
      </trkpt>
      <trkpt lat="42.78705" lon="2.38325">
        <ele>489.93</ele>
        <time>2014-11-02T08:34:58Z</time>
      </trkpt>
      <trkpt lat="42.78713" lon="2.38367">
        <ele>488.01</ele>
        <time>2014-11-02T08:35:03Z</time>
      </trkpt>
      <trkpt lat="42.78723" lon="2.38422">
        <ele>485.6</ele>
        <time>2014-11-02T08:35:09Z</time>
      </trkpt>
      <trkpt lat="42.78737" lon="2.3848">
        <ele>482.24</ele>
        <time>2014-11-02T08:35:15Z</time>
      </trkpt>
      <trkpt lat="42.78743" lon="2.38532">
        <ele>479.35</ele>
        <time>2014-11-02T08:35:20Z</time>
      </trkpt>
      <trkpt lat="42.78745" lon="2.38563">
        <ele>477.91</ele>
        <time>2014-11-02T08:35:23Z</time>
      </trkpt>
      <trkpt lat="42.78745" lon="2.38607">
        <ele>475.03</ele>
        <time>2014-11-02T08:35:28Z</time>
      </trkpt>
      <trkpt lat="42.78744" lon="2.38614">
        <ele>474.07</ele>
        <time>2014-11-02T08:35:29Z</time>
      </trkpt>
      <trkpt lat="42.78742" lon="2.38622">
        <ele>473.59</ele>
        <time>2014-11-02T08:35:30Z</time>
      </trkpt>
      <trkpt lat="42.78737" lon="2.38638">
        <ele>471.66</ele>
        <time>2014-11-02T08:35:32Z</time>
      </trkpt>
      <trkpt lat="42.78733" lon="2.38646">
        <ele>470.7</ele>
        <time>2014-11-02T08:35:33Z</time>
      </trkpt>
      <trkpt lat="42.78729" lon="2.38653">
        <ele>470.22</ele>
        <time>2014-11-02T08:35:34Z</time>
      </trkpt>
      <trkpt lat="42.78724" lon="2.38658">
        <ele>469.26</ele>
        <time>2014-11-02T08:35:35Z</time>
      </trkpt>
      <trkpt lat="42.78719" lon="2.38663">
        <ele>468.78</ele>
        <time>2014-11-02T08:35:36Z</time>
      </trkpt>
      <trkpt lat="42.78715" lon="2.38668">
        <ele>468.78</ele>
        <time>2014-11-02T08:35:37Z</time>
      </trkpt>
      <trkpt lat="42.78712" lon="2.38673">
        <ele>468.3</ele>
        <time>2014-11-02T08:35:38Z</time>
      </trkpt>
      <trkpt lat="42.78706" lon="2.38683">
        <ele>469.74</ele>
        <time>2014-11-02T08:35:41Z</time>
      </trkpt>
      <trkpt lat="42.78711" lon="2.38692">
        <ele>471.66</ele>
        <time>2014-11-02T08:35:45Z</time>
      </trkpt>
      <trkpt lat="42.78733" lon="2.38719">
        <ele>475.03</ele>
        <time>2014-11-02T08:36:00Z</time>
      </trkpt>
      <trkpt lat="42.78741" lon="2.38727">
        <ele>476.95</ele>
        <time>2014-11-02T08:36:06Z</time>
      </trkpt>
      <trkpt lat="42.78746" lon="2.3874">
        <ele>477.91</ele>
        <time>2014-11-02T08:36:13Z</time>
      </trkpt>
      <trkpt lat="42.78752" lon="2.38747">
        <ele>479.35</ele>
        <time>2014-11-02T08:36:18Z</time>
      </trkpt>
      <trkpt lat="42.78766" lon="2.38769">
        <ele>482.24</ele>
        <time>2014-11-02T08:36:32Z</time>
      </trkpt>
      <trkpt lat="42.78776" lon="2.38789">
        <ele>484.64</ele>
        <time>2014-11-02T08:36:45Z</time>
      </trkpt>
      <trkpt lat="42.78782" lon="2.38817">
        <ele>486.08</ele>
        <time>2014-11-02T08:36:59Z</time>
      </trkpt>
      <trkpt lat="42.78782" lon="2.3882">
        <ele>486.08</ele>
        <time>2014-11-02T08:37:00Z</time>
      </trkpt>
      <trkpt lat="42.78777" lon="2.38829">
        <ele>487.05</ele>
        <time>2014-11-02T08:37:04Z</time>
      </trkpt>
      <trkpt lat="42.7877" lon="2.38857">
        <ele>489.45</ele>
        <time>2014-11-02T08:37:16Z</time>
      </trkpt>
      <trkpt lat="42.78767" lon="2.38891">
        <ele>490.89</ele>
        <time>2014-11-02T08:37:28Z</time>
      </trkpt>
      <trkpt lat="42.78753" lon="2.38936">
        <ele>492.33</ele>
        <time>2014-11-02T08:37:42Z</time>
      </trkpt>
      <trkpt lat="42.78752" lon="2.38976">
        <ele>490.41</ele>
        <time>2014-11-02T08:37:50Z</time>
      </trkpt>
      <trkpt lat="42.78751" lon="2.38982">
        <ele>490.41</ele>
        <time>2014-11-02T08:37:51Z</time>
      </trkpt>
      <trkpt lat="42.78752" lon="2.38988">
        <ele>490.41</ele>
        <time>2014-11-02T08:37:52Z</time>
      </trkpt>
      <trkpt lat="42.78753" lon="2.38994">
        <ele>489.93</ele>
        <time>2014-11-02T08:37:53Z</time>
      </trkpt>
      <trkpt lat="42.78755" lon="2.39">
        <ele>489.45</ele>
        <time>2014-11-02T08:37:54Z</time>
      </trkpt>
      <trkpt lat="42.78756" lon="2.39007">
        <ele>488.49</ele>
        <time>2014-11-02T08:37:55Z</time>
      </trkpt>
      <trkpt lat="42.78757" lon="2.39013">
        <ele>488.01</ele>
        <time>2014-11-02T08:37:56Z</time>
      </trkpt>
      <trkpt lat="42.78758" lon="2.3902">
        <ele>487.53</ele>
        <time>2014-11-02T08:37:57Z</time>
      </trkpt>
      <trkpt lat="42.78756" lon="2.39027">
        <ele>487.05</ele>
        <time>2014-11-02T08:37:58Z</time>
      </trkpt>
      <trkpt lat="42.78753" lon="2.39033">
        <ele>486.08</ele>
        <time>2014-11-02T08:37:59Z</time>
      </trkpt>
      <trkpt lat="42.78748" lon="2.39037">
        <ele>486.08</ele>
        <time>2014-11-02T08:38:00Z</time>
      </trkpt>
      <trkpt lat="42.78742" lon="2.39039">
        <ele>485.6</ele>
        <time>2014-11-02T08:38:01Z</time>
      </trkpt>
      <trkpt lat="42.78736" lon="2.39038">
        <ele>485.6</ele>
        <time>2014-11-02T08:38:02Z</time>
      </trkpt>
      <trkpt lat="42.78731" lon="2.39038">
        <ele>485.6</ele>
        <time>2014-11-02T08:38:03Z</time>
      </trkpt>
      <trkpt lat="42.78708" lon="2.39031">
        <ele>485.6</ele>
        <time>2014-11-02T08:38:09Z</time>
      </trkpt>
      <trkpt lat="42.78707" lon="2.39029">
        <ele>486.08</ele>
        <time>2014-11-02T08:38:10Z</time>
      </trkpt>
      <trkpt lat="42.78705" lon="2.39028">
        <ele>486.08</ele>
        <time>2014-11-02T08:38:11Z</time>
      </trkpt>
      <trkpt lat="42.78697" lon="2.39024">
        <ele>487.05</ele>
        <time>2014-11-02T08:38:23Z</time>
      </trkpt>
      <trkpt lat="42.78695" lon="2.39022">
        <ele>487.05</ele>
        <time>2014-11-02T08:38:25Z</time>
      </trkpt>
      <trkpt lat="42.78689" lon="2.3902">
        <ele>485.6</ele>
        <time>2014-11-02T08:38:34Z</time>
      </trkpt>
      <trkpt lat="42.78688" lon="2.3902">
        <ele>485.12</ele>
        <time>2014-11-02T08:38:35Z</time>
      </trkpt>
      <trkpt lat="42.78686" lon="2.3902">
        <ele>484.64</ele>
        <time>2014-11-02T08:38:36Z</time>
      </trkpt>
      <trkpt lat="42.78684" lon="2.3902">
        <ele>484.64</ele>
        <time>2014-11-02T08:38:37Z</time>
      </trkpt>
      <trkpt lat="42.78682" lon="2.3902">
        <ele>483.68</ele>
        <time>2014-11-02T08:38:38Z</time>
      </trkpt>
      <trkpt lat="42.7868" lon="2.39021">
        <ele>483.68</ele>
        <time>2014-11-02T08:38:39Z</time>
      </trkpt>
      <trkpt lat="42.78679" lon="2.39021">
        <ele>483.2</ele>
        <time>2014-11-02T08:38:40Z</time>
      </trkpt>
      <trkpt lat="42.78677" lon="2.39021">
        <ele>483.2</ele>
        <time>2014-11-02T08:38:41Z</time>
      </trkpt>
      <trkpt lat="42.78675" lon="2.39021">
        <ele>482.72</ele>
        <time>2014-11-02T08:38:42Z</time>
      </trkpt>
      <trkpt lat="42.78674" lon="2.39022">
        <ele>482.72</ele>
        <time>2014-11-02T08:38:43Z</time>
      </trkpt>
      <trkpt lat="42.78674" lon="2.39024">
        <ele>482.72</ele>
        <time>2014-11-02T08:38:44Z</time>
      </trkpt>
      <trkpt lat="42.78678" lon="2.39033">
        <ele>482.24</ele>
        <time>2014-11-02T08:38:56Z</time>
      </trkpt>
      <trkpt lat="42.7868" lon="2.39034">
        <ele>481.76</ele>
        <time>2014-11-02T08:38:58Z</time>
      </trkpt>
      <trkpt lat="42.78685" lon="2.39034">
        <ele>481.28</ele>
        <time>2014-11-02T08:39:11Z</time>
      </trkpt>
      <trkpt lat="42.78687" lon="2.39036">
        <ele>480.8</ele>
        <time>2014-11-02T08:39:13Z</time>
      </trkpt>
      <trkpt lat="42.78689" lon="2.39041">
        <ele>480.8</ele>
        <time>2014-11-02T08:39:22Z</time>
      </trkpt>
      <trkpt lat="42.78694" lon="2.39058">
        <ele>481.28</ele>
        <time>2014-11-02T08:39:33Z</time>
      </trkpt>
      <trkpt lat="42.78694" lon="2.3906">
        <ele>481.28</ele>
        <time>2014-11-02T08:39:34Z</time>
      </trkpt>
      <trkpt lat="42.78696" lon="2.39066">
        <ele>481.76</ele>
        <time>2014-11-02T08:39:37Z</time>
      </trkpt>
      <trkpt lat="42.78697" lon="2.39068">
        <ele>481.76</ele>
        <time>2014-11-02T08:39:38Z</time>
      </trkpt>
      <trkpt lat="42.78699" lon="2.3907">
        <ele>481.76</ele>
        <time>2014-11-02T08:39:39Z</time>
      </trkpt>
      <trkpt lat="42.787" lon="2.39071">
        <ele>482.24</ele>
        <time>2014-11-02T08:39:40Z</time>
      </trkpt>
      <trkpt lat="42.78701" lon="2.39073">
        <ele>482.24</ele>
        <time>2014-11-02T08:39:41Z</time>
      </trkpt>
      <trkpt lat="42.78719" lon="2.39111">
        <ele>481.28</ele>
        <time>2014-11-02T08:39:51Z</time>
      </trkpt>
      <trkpt lat="42.78734" lon="2.39131">
        <ele>481.28</ele>
        <time>2014-11-02T08:39:57Z</time>
      </trkpt>
      <trkpt lat="42.78743" lon="2.39133">
        <ele>481.28</ele>
        <time>2014-11-02T08:40:00Z</time>
      </trkpt>
      <trkpt lat="42.78756" lon="2.39152">
        <ele>481.28</ele>
        <time>2014-11-02T08:40:07Z</time>
      </trkpt>
      <trkpt lat="42.7877" lon="2.39173">
        <ele>480.8</ele>
        <time>2014-11-02T08:40:13Z</time>
      </trkpt>
      <trkpt lat="42.78795" lon="2.39214">
        <ele>480.8</ele>
        <time>2014-11-02T08:40:24Z</time>
      </trkpt>
      <trkpt lat="42.788" lon="2.39223">
        <ele>480.8</ele>
        <time>2014-11-02T08:40:26Z</time>
      </trkpt>
      <trkpt lat="42.78803" lon="2.39229">
        <ele>480.32</ele>
        <time>2014-11-02T08:40:27Z</time>
      </trkpt>
      <trkpt lat="42.78806" lon="2.39236">
        <ele>479.84</ele>
        <time>2014-11-02T08:40:28Z</time>
      </trkpt>
      <trkpt lat="42.78808" lon="2.39243">
        <ele>479.35</ele>
        <time>2014-11-02T08:40:29Z</time>
      </trkpt>
      <trkpt lat="42.78809" lon="2.3925">
        <ele>479.35</ele>
        <time>2014-11-02T08:40:30Z</time>
      </trkpt>
      <trkpt lat="42.78809" lon="2.39256">
        <ele>479.35</ele>
        <time>2014-11-02T08:40:31Z</time>
      </trkpt>
      <trkpt lat="42.78807" lon="2.39263">
        <ele>478.87</ele>
        <time>2014-11-02T08:40:32Z</time>
      </trkpt>
      <trkpt lat="42.78804" lon="2.39269">
        <ele>478.87</ele>
        <time>2014-11-02T08:40:33Z</time>
      </trkpt>
      <trkpt lat="42.78802" lon="2.39274">
        <ele>478.87</ele>
        <time>2014-11-02T08:40:34Z</time>
      </trkpt>
      <trkpt lat="42.78801" lon="2.39279">
        <ele>478.87</ele>
        <time>2014-11-02T08:40:35Z</time>
      </trkpt>
      <trkpt lat="42.78801" lon="2.39285">
        <ele>478.87</ele>
        <time>2014-11-02T08:40:36Z</time>
      </trkpt>
      <trkpt lat="42.78801" lon="2.39289">
        <ele>478.87</ele>
        <time>2014-11-02T08:40:37Z</time>
      </trkpt>
      <trkpt lat="42.78803" lon="2.39291">
        <ele>479.35</ele>
        <time>2014-11-02T08:40:38Z</time>
      </trkpt>
      <trkpt lat="42.78805" lon="2.39293">
        <ele>479.35</ele>
        <time>2014-11-02T08:40:39Z</time>
      </trkpt>
      <trkpt lat="42.78807" lon="2.39294">
        <ele>479.35</ele>
        <time>2014-11-02T08:40:40Z</time>
      </trkpt>
      <trkpt lat="42.7881" lon="2.39295">
        <ele>479.35</ele>
        <time>2014-11-02T08:40:41Z</time>
      </trkpt>
      <trkpt lat="42.78819" lon="2.39293">
        <ele>480.32</ele>
        <time>2014-11-02T08:40:53Z</time>
      </trkpt>
      <trkpt lat="42.78819" lon="2.39293">
        <ele>479.84</ele>
        <time>2014-11-02T08:41:09Z</time>
      </trkpt>
      <trkpt lat="42.78818" lon="2.39292">
        <ele>480.32</ele>
        <time>2014-11-02T08:41:29Z</time>
      </trkpt>
      <trkpt lat="42.78819" lon="2.39293">
        <ele>480.32</ele>
        <time>2014-11-02T08:41:46Z</time>
      </trkpt>
      <trkpt lat="42.78822" lon="2.39292">
        <ele>480.32</ele>
        <time>2014-11-02T08:41:49Z</time>
      </trkpt>
      <trkpt lat="42.78823" lon="2.39291">
        <ele>480.32</ele>
        <time>2014-11-02T08:41:50Z</time>
      </trkpt>
      <trkpt lat="42.78824" lon="2.39289">
        <ele>480.8</ele>
        <time>2014-11-02T08:41:51Z</time>
      </trkpt>
      <trkpt lat="42.78825" lon="2.39288">
        <ele>480.8</ele>
        <time>2014-11-02T08:41:52Z</time>
      </trkpt>
      <trkpt lat="42.78826" lon="2.39285">
        <ele>481.28</ele>
        <time>2014-11-02T08:41:53Z</time>
      </trkpt>
      <trkpt lat="42.78827" lon="2.39283">
        <ele>481.28</ele>
        <time>2014-11-02T08:41:54Z</time>
      </trkpt>
      <trkpt lat="42.78834" lon="2.39254">
        <ele>482.24</ele>
        <time>2014-11-02T08:42:04Z</time>
      </trkpt>
      <trkpt lat="42.78845" lon="2.39217">
        <ele>483.68</ele>
        <time>2014-11-02T08:42:16Z</time>
      </trkpt>
      <trkpt lat="42.78855" lon="2.39177">
        <ele>485.6</ele>
        <time>2014-11-02T08:42:28Z</time>
      </trkpt>
      <trkpt lat="42.78861" lon="2.39158">
        <ele>486.08</ele>
        <time>2014-11-02T08:42:34Z</time>
      </trkpt>
      <trkpt lat="42.78888" lon="2.39144">
        <ele>487.05</ele>
        <time>2014-11-02T08:42:45Z</time>
      </trkpt>
      <trkpt lat="42.78889" lon="2.39141">
        <ele>487.53</ele>
        <time>2014-11-02T08:42:46Z</time>
      </trkpt>
      <trkpt lat="42.78893" lon="2.39096">
        <ele>489.93</ele>
        <time>2014-11-02T08:42:59Z</time>
      </trkpt>
      <trkpt lat="42.78893" lon="2.39081">
        <ele>491.37</ele>
        <time>2014-11-02T08:43:04Z</time>
      </trkpt>
      <trkpt lat="42.78895" lon="2.39082">
        <ele>491.37</ele>
        <time>2014-11-02T08:43:05Z</time>
      </trkpt>
      <trkpt lat="42.78897" lon="2.39084">
        <ele>491.37</ele>
        <time>2014-11-02T08:43:06Z</time>
      </trkpt>
      <trkpt lat="42.78898" lon="2.39087">
        <ele>491.37</ele>
        <time>2014-11-02T08:43:07Z</time>
      </trkpt>
      <trkpt lat="42.78898" lon="2.3909">
        <ele>491.37</ele>
        <time>2014-11-02T08:43:08Z</time>
      </trkpt>
      <trkpt lat="42.7891" lon="2.39138">
        <ele>493.77</ele>
        <time>2014-11-02T08:43:24Z</time>
      </trkpt>
      <trkpt lat="42.78902" lon="2.39173">
        <ele>496.18</ele>
        <time>2014-11-02T08:43:36Z</time>
      </trkpt>
      <trkpt lat="42.78883" lon="2.39216">
        <ele>498.1</ele>
        <time>2014-11-02T08:43:51Z</time>
      </trkpt>
      <trkpt lat="42.78873" lon="2.39267">
        <ele>500.98</ele>
        <time>2014-11-02T08:44:06Z</time>
      </trkpt>
      <trkpt lat="42.78874" lon="2.39326">
        <ele>503.87</ele>
        <time>2014-11-02T08:44:23Z</time>
      </trkpt>
      <trkpt lat="42.78869" lon="2.39375">
        <ele>507.23</ele>
        <time>2014-11-02T08:44:38Z</time>
      </trkpt>
      <trkpt lat="42.78863" lon="2.39428">
        <ele>509.16</ele>
        <time>2014-11-02T08:44:54Z</time>
      </trkpt>
      <trkpt lat="42.78859" lon="2.39489">
        <ele>512.04</ele>
        <time>2014-11-02T08:45:12Z</time>
      </trkpt>
      <trkpt lat="42.7886" lon="2.39532">
        <ele>514.44</ele>
        <time>2014-11-02T08:45:26Z</time>
      </trkpt>
      <trkpt lat="42.78856" lon="2.39581">
        <ele>516.85</ele>
        <time>2014-11-02T08:45:42Z</time>
      </trkpt>
      <trkpt lat="42.78853" lon="2.39622">
        <ele>518.77</ele>
        <time>2014-11-02T08:45:55Z</time>
      </trkpt>
      <trkpt lat="42.7885" lon="2.39662">
        <ele>520.69</ele>
        <time>2014-11-02T08:46:08Z</time>
      </trkpt>
      <trkpt lat="42.78844" lon="2.39701">
        <ele>522.61</ele>
        <time>2014-11-02T08:46:21Z</time>
      </trkpt>
      <trkpt lat="42.78839" lon="2.3974">
        <ele>524.54</ele>
        <time>2014-11-02T08:46:34Z</time>
      </trkpt>
      <trkpt lat="42.78838" lon="2.39774">
        <ele>525.98</ele>
        <time>2014-11-02T08:46:45Z</time>
      </trkpt>
      <trkpt lat="42.78835" lon="2.39822">
        <ele>528.86</ele>
        <time>2014-11-02T08:47:01Z</time>
      </trkpt>
      <trkpt lat="42.78829" lon="2.39864">
        <ele>530.79</ele>
        <time>2014-11-02T08:47:15Z</time>
      </trkpt>
      <trkpt lat="42.78824" lon="2.39905">
        <ele>532.71</ele>
        <time>2014-11-02T08:47:29Z</time>
      </trkpt>
      <trkpt lat="42.78819" lon="2.3994">
        <ele>534.63</ele>
        <time>2014-11-02T08:47:41Z</time>
      </trkpt>
      <trkpt lat="42.78825" lon="2.39982">
        <ele>536.55</ele>
        <time>2014-11-02T08:47:56Z</time>
      </trkpt>
      <trkpt lat="42.78825" lon="2.40019">
        <ele>538.96</ele>
        <time>2014-11-02T08:48:09Z</time>
      </trkpt>
      <trkpt lat="42.7882" lon="2.4006">
        <ele>540.88</ele>
        <time>2014-11-02T08:48:22Z</time>
      </trkpt>
      <trkpt lat="42.7881" lon="2.40105">
        <ele>542.8</ele>
        <time>2014-11-02T08:48:37Z</time>
      </trkpt>
      <trkpt lat="42.788" lon="2.40134">
        <ele>544.24</ele>
        <time>2014-11-02T08:48:49Z</time>
      </trkpt>
      <trkpt lat="42.788" lon="2.40136">
        <ele>544.72</ele>
        <time>2014-11-02T08:48:50Z</time>
      </trkpt>
      <trkpt lat="42.788" lon="2.40138">
        <ele>544.72</ele>
        <time>2014-11-02T08:48:51Z</time>
      </trkpt>
      <trkpt lat="42.78799" lon="2.4014">
        <ele>544.72</ele>
        <time>2014-11-02T08:48:52Z</time>
      </trkpt>
      <trkpt lat="42.78798" lon="2.40141">
        <ele>544.72</ele>
        <time>2014-11-02T08:48:53Z</time>
      </trkpt>
      <trkpt lat="42.78797" lon="2.40143">
        <ele>545.2</ele>
        <time>2014-11-02T08:48:54Z</time>
      </trkpt>
      <trkpt lat="42.78796" lon="2.40145">
        <ele>545.2</ele>
        <time>2014-11-02T08:48:55Z</time>
      </trkpt>
      <trkpt lat="42.78796" lon="2.40147">
        <ele>545.2</ele>
        <time>2014-11-02T08:48:56Z</time>
      </trkpt>
      <trkpt lat="42.78796" lon="2.40149">
        <ele>545.2</ele>
        <time>2014-11-02T08:48:57Z</time>
      </trkpt>
      <trkpt lat="42.78795" lon="2.4015">
        <ele>545.2</ele>
        <time>2014-11-02T08:48:58Z</time>
      </trkpt>
      <trkpt lat="42.78794" lon="2.40152">
        <ele>545.69</ele>
        <time>2014-11-02T08:48:59Z</time>
      </trkpt>
      <trkpt lat="42.78794" lon="2.40154">
        <ele>545.69</ele>
        <time>2014-11-02T08:49:00Z</time>
      </trkpt>
      <trkpt lat="42.78793" lon="2.40156">
        <ele>545.69</ele>
        <time>2014-11-02T08:49:01Z</time>
      </trkpt>
      <trkpt lat="42.78792" lon="2.40158">
        <ele>545.69</ele>
        <time>2014-11-02T08:49:02Z</time>
      </trkpt>
      <trkpt lat="42.78792" lon="2.40159">
        <ele>546.17</ele>
        <time>2014-11-02T08:49:03Z</time>
      </trkpt>
      <trkpt lat="42.78791" lon="2.40161">
        <ele>546.17</ele>
        <time>2014-11-02T08:49:04Z</time>
      </trkpt>
      <trkpt lat="42.78791" lon="2.40163">
        <ele>546.17</ele>
        <time>2014-11-02T08:49:05Z</time>
      </trkpt>
      <trkpt lat="42.78791" lon="2.40164">
        <ele>546.17</ele>
        <time>2014-11-02T08:49:06Z</time>
      </trkpt>
      <trkpt lat="42.78793" lon="2.40163">
        <ele>546.65</ele>
        <time>2014-11-02T08:49:07Z</time>
      </trkpt>
      <trkpt lat="42.78794" lon="2.40162">
        <ele>546.17</ele>
        <time>2014-11-02T08:49:08Z</time>
      </trkpt>
      <trkpt lat="42.78795" lon="2.40161">
        <ele>546.17</ele>
        <time>2014-11-02T08:49:09Z</time>
      </trkpt>
      <trkpt lat="42.78795" lon="2.40159">
        <ele>546.17</ele>
        <time>2014-11-02T08:49:10Z</time>
      </trkpt>
      <trkpt lat="42.78796" lon="2.40157">
        <ele>545.69</ele>
        <time>2014-11-02T08:49:11Z</time>
      </trkpt>
      <trkpt lat="42.78796" lon="2.40155">
        <ele>545.69</ele>
        <time>2014-11-02T08:49:12Z</time>
      </trkpt>
      <trkpt lat="42.78797" lon="2.40152">
        <ele>545.69</ele>
        <time>2014-11-02T08:49:13Z</time>
      </trkpt>
      <trkpt lat="42.788" lon="2.40139">
        <ele>545.2</ele>
        <time>2014-11-02T08:49:25Z</time>
      </trkpt>
      <trkpt lat="42.78797" lon="2.40138">
        <ele>545.2</ele>
        <time>2014-11-02T08:49:48Z</time>
      </trkpt>
      <trkpt lat="42.78798" lon="2.40137">
        <ele>545.2</ele>
        <time>2014-11-02T08:50:19Z</time>
      </trkpt>
      <trkpt lat="42.78798" lon="2.40137">
        <ele>545.2</ele>
        <time>2014-11-02T08:50:48Z</time>
      </trkpt>
      <trkpt lat="42.78799" lon="2.40137">
        <ele>545.69</ele>
        <time>2014-11-02T08:51:11Z</time>
      </trkpt>
      <trkpt lat="42.78798" lon="2.40136">
        <ele>545.69</ele>
        <time>2014-11-02T08:51:43Z</time>
      </trkpt>
      <trkpt lat="42.78798" lon="2.40136">
        <ele>547.61</ele>
        <time>2014-11-02T08:52:10Z</time>
      </trkpt>
      <trkpt lat="42.78799" lon="2.40136">
        <ele>543.76</ele>
        <time>2014-11-02T08:52:22Z</time>
      </trkpt>
      <trkpt lat="42.78799" lon="2.40136">
        <ele>547.13</ele>
        <time>2014-11-02T08:52:23Z</time>
      </trkpt>
      <trkpt lat="42.78798" lon="2.40136">
        <ele>547.13</ele>
        <time>2014-11-02T08:52:52Z</time>
      </trkpt>
      <trkpt lat="42.78797" lon="2.40136">
        <ele>546.17</ele>
        <time>2014-11-02T08:53:27Z</time>
      </trkpt>
      <trkpt lat="42.78795" lon="2.40135">
        <ele>546.17</ele>
        <time>2014-11-02T08:53:53Z</time>
      </trkpt>
      <trkpt lat="42.78794" lon="2.40136">
        <ele>546.17</ele>
        <time>2014-11-02T08:54:22Z</time>
      </trkpt>
      <trkpt lat="42.78795" lon="2.40136">
        <ele>546.65</ele>
        <time>2014-11-02T08:54:48Z</time>
      </trkpt>
      <trkpt lat="42.78795" lon="2.40135">
        <ele>546.65</ele>
        <time>2014-11-02T08:55:07Z</time>
      </trkpt>
      <trkpt lat="42.78795" lon="2.4014">
        <ele>546.65</ele>
        <time>2014-11-02T08:55:23Z</time>
      </trkpt>
      <trkpt lat="42.78795" lon="2.40142">
        <ele>547.13</ele>
        <time>2014-11-02T08:55:24Z</time>
      </trkpt>
      <trkpt lat="42.78786" lon="2.40173">
        <ele>548.57</ele>
        <time>2014-11-02T08:55:37Z</time>
      </trkpt>
      <trkpt lat="42.78782" lon="2.40186">
        <ele>549.53</ele>
        <time>2014-11-02T08:55:43Z</time>
      </trkpt>
      <trkpt lat="42.78781" lon="2.40187">
        <ele>549.53</ele>
        <time>2014-11-02T08:55:44Z</time>
      </trkpt>
      <trkpt lat="42.7878" lon="2.40189">
        <ele>549.53</ele>
        <time>2014-11-02T08:55:45Z</time>
      </trkpt>
      <trkpt lat="42.7878" lon="2.4019">
        <ele>549.53</ele>
        <time>2014-11-02T08:55:46Z</time>
      </trkpt>
      <trkpt lat="42.7878" lon="2.40192">
        <ele>550.01</ele>
        <time>2014-11-02T08:55:47Z</time>
      </trkpt>
      <trkpt lat="42.78779" lon="2.40194">
        <ele>550.01</ele>
        <time>2014-11-02T08:55:48Z</time>
      </trkpt>
      <trkpt lat="42.78779" lon="2.40196">
        <ele>550.01</ele>
        <time>2014-11-02T08:55:49Z</time>
      </trkpt>
      <trkpt lat="42.78761" lon="2.40224">
        <ele>552.41</ele>
        <time>2014-11-02T08:56:04Z</time>
      </trkpt>
      <trkpt lat="42.78744" lon="2.40244">
        <ele>554.82</ele>
        <time>2014-11-02T08:56:17Z</time>
      </trkpt>
      <trkpt lat="42.78737" lon="2.40242">
        <ele>555.78</ele>
        <time>2014-11-02T08:56:22Z</time>
      </trkpt>
      <trkpt lat="42.78736" lon="2.40241">
        <ele>555.78</ele>
        <time>2014-11-02T08:56:23Z</time>
      </trkpt>
      <trkpt lat="42.78736" lon="2.40239">
        <ele>556.26</ele>
        <time>2014-11-02T08:56:24Z</time>
      </trkpt>
      <trkpt lat="42.78735" lon="2.40238">
        <ele>556.26</ele>
        <time>2014-11-02T08:56:25Z</time>
      </trkpt>
      <trkpt lat="42.78734" lon="2.40236">
        <ele>556.74</ele>
        <time>2014-11-02T08:56:26Z</time>
      </trkpt>
      <trkpt lat="42.78733" lon="2.40234">
        <ele>556.74</ele>
        <time>2014-11-02T08:56:27Z</time>
      </trkpt>
      <trkpt lat="42.78732" lon="2.40233">
        <ele>556.74</ele>
        <time>2014-11-02T08:56:28Z</time>
      </trkpt>
      <trkpt lat="42.78732" lon="2.40231">
        <ele>557.22</ele>
        <time>2014-11-02T08:56:29Z</time>
      </trkpt>
      <trkpt lat="42.78727" lon="2.40217">
        <ele>558.66</ele>
        <time>2014-11-02T08:56:37Z</time>
      </trkpt>
      <trkpt lat="42.78725" lon="2.40211">
        <ele>559.14</ele>
        <time>2014-11-02T08:56:41Z</time>
      </trkpt>
      <trkpt lat="42.78724" lon="2.4021">
        <ele>559.62</ele>
        <time>2014-11-02T08:56:42Z</time>
      </trkpt>
      <trkpt lat="42.78718" lon="2.40191">
        <ele>561.55</ele>
        <time>2014-11-02T08:56:55Z</time>
      </trkpt>
      <trkpt lat="42.78713" lon="2.40172">
        <ele>562.99</ele>
        <time>2014-11-02T08:57:05Z</time>
      </trkpt>
      <trkpt lat="42.78712" lon="2.4017">
        <ele>563.47</ele>
        <time>2014-11-02T08:57:06Z</time>
      </trkpt>
      <trkpt lat="42.78712" lon="2.40168">
        <ele>563.47</ele>
        <time>2014-11-02T08:57:07Z</time>
      </trkpt>
      <trkpt lat="42.78711" lon="2.40166">
        <ele>563.95</ele>
        <time>2014-11-02T08:57:08Z</time>
      </trkpt>
      <trkpt lat="42.78707" lon="2.40149">
        <ele>564.91</ele>
        <time>2014-11-02T08:57:17Z</time>
      </trkpt>
      <trkpt lat="42.78708" lon="2.40147">
        <ele>565.39</ele>
        <time>2014-11-02T08:57:18Z</time>
      </trkpt>
      <trkpt lat="42.78702" lon="2.40122">
        <ele>568.28</ele>
        <time>2014-11-02T08:57:32Z</time>
      </trkpt>
      <trkpt lat="42.78702" lon="2.40115">
        <ele>569.24</ele>
        <time>2014-11-02T08:57:36Z</time>
      </trkpt>
      <trkpt lat="42.78703" lon="2.40091">
        <ele>572.6</ele>
        <time>2014-11-02T08:57:50Z</time>
      </trkpt>
      <trkpt lat="42.78701" lon="2.40063">
        <ele>575.01</ele>
        <time>2014-11-02T08:58:05Z</time>
      </trkpt>
      <trkpt lat="42.78698" lon="2.40048">
        <ele>576.45</ele>
        <time>2014-11-02T08:58:13Z</time>
      </trkpt>
      <trkpt lat="42.78688" lon="2.40027">
        <ele>578.37</ele>
        <time>2014-11-02T08:58:27Z</time>
      </trkpt>
      <trkpt lat="42.78676" lon="2.40014">
        <ele>581.73</ele>
        <time>2014-11-02T08:58:39Z</time>
      </trkpt>
      <trkpt lat="42.78662" lon="2.40023">
        <ele>583.18</ele>
        <time>2014-11-02T08:58:53Z</time>
      </trkpt>
      <trkpt lat="42.78657" lon="2.40029">
        <ele>584.14</ele>
        <time>2014-11-02T08:58:58Z</time>
      </trkpt>
      <trkpt lat="42.78655" lon="2.40035">
        <ele>585.1</ele>
        <time>2014-11-02T08:59:02Z</time>
      </trkpt>
      <trkpt lat="42.78654" lon="2.40036">
        <ele>585.1</ele>
        <time>2014-11-02T08:59:03Z</time>
      </trkpt>
      <trkpt lat="42.78654" lon="2.40037">
        <ele>585.58</ele>
        <time>2014-11-02T08:59:04Z</time>
      </trkpt>
      <trkpt lat="42.78653" lon="2.40039">
        <ele>585.58</ele>
        <time>2014-11-02T08:59:05Z</time>
      </trkpt>
      <trkpt lat="42.78652" lon="2.40039">
        <ele>585.58</ele>
        <time>2014-11-02T08:59:06Z</time>
      </trkpt>
      <trkpt lat="42.78649" lon="2.40042">
        <ele>586.54</ele>
        <time>2014-11-02T08:59:09Z</time>
      </trkpt>
      <trkpt lat="42.78648" lon="2.40042">
        <ele>586.54</ele>
        <time>2014-11-02T08:59:10Z</time>
      </trkpt>
      <trkpt lat="42.78646" lon="2.40043">
        <ele>586.54</ele>
        <time>2014-11-02T08:59:11Z</time>
      </trkpt>
      <trkpt lat="42.78645" lon="2.40043">
        <ele>587.02</ele>
        <time>2014-11-02T08:59:12Z</time>
      </trkpt>
      <trkpt lat="42.78644" lon="2.40042">
        <ele>587.02</ele>
        <time>2014-11-02T08:59:13Z</time>
      </trkpt>
      <trkpt lat="42.78643" lon="2.40042">
        <ele>587.02</ele>
        <time>2014-11-02T08:59:14Z</time>
      </trkpt>
      <trkpt lat="42.78628" lon="2.40031">
        <ele>589.43</ele>
        <time>2014-11-02T08:59:27Z</time>
      </trkpt>
      <trkpt lat="42.78627" lon="2.4003">
        <ele>589.43</ele>
        <time>2014-11-02T08:59:28Z</time>
      </trkpt>
      <trkpt lat="42.78616" lon="2.40012">
        <ele>591.35</ele>
        <time>2014-11-02T08:59:42Z</time>
      </trkpt>
      <trkpt lat="42.78607" lon="2.39989">
        <ele>593.75</ele>
        <time>2014-11-02T08:59:56Z</time>
      </trkpt>
      <trkpt lat="42.78596" lon="2.39958">
        <ele>595.67</ele>
        <time>2014-11-02T09:00:11Z</time>
      </trkpt>
      <trkpt lat="42.78578" lon="2.39925">
        <ele>597.6</ele>
        <time>2014-11-02T09:00:26Z</time>
      </trkpt>
      <trkpt lat="42.78567" lon="2.39888">
        <ele>598.56</ele>
        <time>2014-11-02T09:00:38Z</time>
      </trkpt>
      <trkpt lat="42.78554" lon="2.3985">
        <ele>600.48</ele>
        <time>2014-11-02T09:00:51Z</time>
      </trkpt>
      <trkpt lat="42.78538" lon="2.39819">
        <ele>602.88</ele>
        <time>2014-11-02T09:01:04Z</time>
      </trkpt>
      <trkpt lat="42.7852" lon="2.39785">
        <ele>603.85</ele>
        <time>2014-11-02T09:01:16Z</time>
      </trkpt>
      <trkpt lat="42.7851" lon="2.39739">
        <ele>605.29</ele>
        <time>2014-11-02T09:01:29Z</time>
      </trkpt>
      <trkpt lat="42.785" lon="2.39699">
        <ele>607.69</ele>
        <time>2014-11-02T09:01:42Z</time>
      </trkpt>
      <trkpt lat="42.78493" lon="2.39654">
        <ele>610.57</ele>
        <time>2014-11-02T09:01:56Z</time>
      </trkpt>
      <trkpt lat="42.78485" lon="2.39624">
        <ele>612.98</ele>
        <time>2014-11-02T09:02:09Z</time>
      </trkpt>
      <trkpt lat="42.78483" lon="2.39613">
        <ele>613.94</ele>
        <time>2014-11-02T09:02:15Z</time>
      </trkpt>
      <trkpt lat="42.78482" lon="2.39611">
        <ele>614.42</ele>
        <time>2014-11-02T09:02:16Z</time>
      </trkpt>
      <trkpt lat="42.78481" lon="2.39608">
        <ele>614.42</ele>
        <time>2014-11-02T09:02:17Z</time>
      </trkpt>
      <trkpt lat="42.7848" lon="2.39605">
        <ele>614.42</ele>
        <time>2014-11-02T09:02:18Z</time>
      </trkpt>
      <trkpt lat="42.78479" lon="2.39603">
        <ele>614.9</ele>
        <time>2014-11-02T09:02:19Z</time>
      </trkpt>
      <trkpt lat="42.78479" lon="2.39601">
        <ele>614.9</ele>
        <time>2014-11-02T09:02:20Z</time>
      </trkpt>
      <trkpt lat="42.78478" lon="2.39599">
        <ele>615.38</ele>
        <time>2014-11-02T09:02:21Z</time>
      </trkpt>
      <trkpt lat="42.78477" lon="2.39597">
        <ele>615.38</ele>
        <time>2014-11-02T09:02:22Z</time>
      </trkpt>
      <trkpt lat="42.7847" lon="2.39567">
        <ele>617.3</ele>
        <time>2014-11-02T09:02:34Z</time>
      </trkpt>
      <trkpt lat="42.78458" lon="2.39528">
        <ele>620.19</ele>
        <time>2014-11-02T09:02:50Z</time>
      </trkpt>
      <trkpt lat="42.7844" lon="2.39515">
        <ele>622.59</ele>
        <time>2014-11-02T09:03:03Z</time>
      </trkpt>
      <trkpt lat="42.78418" lon="2.39522">
        <ele>625.96</ele>
        <time>2014-11-02T09:03:19Z</time>
      </trkpt>
      <trkpt lat="42.78415" lon="2.39521">
        <ele>626.44</ele>
        <time>2014-11-02T09:03:22Z</time>
      </trkpt>
      <trkpt lat="42.78413" lon="2.39521">
        <ele>626.44</ele>
        <time>2014-11-02T09:03:23Z</time>
      </trkpt>
      <trkpt lat="42.78399" lon="2.39524">
        <ele>628.84</ele>
        <time>2014-11-02T09:03:35Z</time>
      </trkpt>
      <trkpt lat="42.7839" lon="2.39538">
        <ele>630.76</ele>
        <time>2014-11-02T09:03:47Z</time>
      </trkpt>
      <trkpt lat="42.78389" lon="2.39539">
        <ele>631.24</ele>
        <time>2014-11-02T09:03:48Z</time>
      </trkpt>
      <trkpt lat="42.78389" lon="2.39541">
        <ele>631.24</ele>
        <time>2014-11-02T09:03:49Z</time>
      </trkpt>
      <trkpt lat="42.78389" lon="2.39542">
        <ele>631.24</ele>
        <time>2014-11-02T09:03:50Z</time>
      </trkpt>
      <trkpt lat="42.78389" lon="2.39544">
        <ele>631.72</ele>
        <time>2014-11-02T09:03:51Z</time>
      </trkpt>
      <trkpt lat="42.78389" lon="2.39545">
        <ele>631.72</ele>
        <time>2014-11-02T09:03:52Z</time>
      </trkpt>
      <trkpt lat="42.7839" lon="2.39547">
        <ele>631.72</ele>
        <time>2014-11-02T09:03:53Z</time>
      </trkpt>
      <trkpt lat="42.78391" lon="2.39549">
        <ele>632.2</ele>
        <time>2014-11-02T09:03:54Z</time>
      </trkpt>
      <trkpt lat="42.78391" lon="2.3955">
        <ele>632.2</ele>
        <time>2014-11-02T09:03:55Z</time>
      </trkpt>
      <trkpt lat="42.78397" lon="2.39571">
        <ele>634.13</ele>
        <time>2014-11-02T09:04:07Z</time>
      </trkpt>
      <trkpt lat="42.78402" lon="2.39596">
        <ele>634.61</ele>
        <time>2014-11-02T09:04:17Z</time>
      </trkpt>
      <trkpt lat="42.78401" lon="2.39598">
        <ele>634.61</ele>
        <time>2014-11-02T09:04:18Z</time>
      </trkpt>
      <trkpt lat="42.78401" lon="2.39601">
        <ele>634.61</ele>
        <time>2014-11-02T09:04:19Z</time>
      </trkpt>
      <trkpt lat="42.78399" lon="2.39603">
        <ele>635.09</ele>
        <time>2014-11-02T09:04:20Z</time>
      </trkpt>
      <trkpt lat="42.78398" lon="2.39605">
        <ele>635.09</ele>
        <time>2014-11-02T09:04:21Z</time>
      </trkpt>
      <trkpt lat="42.78396" lon="2.39606">
        <ele>635.57</ele>
        <time>2014-11-02T09:04:22Z</time>
      </trkpt>
      <trkpt lat="42.78395" lon="2.39607">
        <ele>635.57</ele>
        <time>2014-11-02T09:04:23Z</time>
      </trkpt>
      <trkpt lat="42.78393" lon="2.39608">
        <ele>636.05</ele>
        <time>2014-11-02T09:04:24Z</time>
      </trkpt>
      <trkpt lat="42.78377" lon="2.39613">
        <ele>637.97</ele>
        <time>2014-11-02T09:04:37Z</time>
      </trkpt>
      <trkpt lat="42.7837" lon="2.39618">
        <ele>639.41</ele>
        <time>2014-11-02T09:04:43Z</time>
      </trkpt>
      <trkpt lat="42.78358" lon="2.39644">
        <ele>641.34</ele>
        <time>2014-11-02T09:04:58Z</time>
      </trkpt>
      <trkpt lat="42.78351" lon="2.39677">
        <ele>642.78</ele>
        <time>2014-11-02T09:05:13Z</time>
      </trkpt>
      <trkpt lat="42.78344" lon="2.39703">
        <ele>645.18</ele>
        <time>2014-11-02T09:05:27Z</time>
      </trkpt>
      <trkpt lat="42.78335" lon="2.3973">
        <ele>647.59</ele>
        <time>2014-11-02T09:05:41Z</time>
      </trkpt>
      <trkpt lat="42.78318" lon="2.3975">
        <ele>649.51</ele>
        <time>2014-11-02T09:05:55Z</time>
      </trkpt>
      <trkpt lat="42.78315" lon="2.39753">
        <ele>649.51</ele>
        <time>2014-11-02T09:05:57Z</time>
      </trkpt>
      <trkpt lat="42.78314" lon="2.39754">
        <ele>649.51</ele>
        <time>2014-11-02T09:05:58Z</time>
      </trkpt>
      <trkpt lat="42.78313" lon="2.39755">
        <ele>649.99</ele>
        <time>2014-11-02T09:05:59Z</time>
      </trkpt>
      <trkpt lat="42.78312" lon="2.39756">
        <ele>649.99</ele>
        <time>2014-11-02T09:06:00Z</time>
      </trkpt>
      <trkpt lat="42.7831" lon="2.39757">
        <ele>649.99</ele>
        <time>2014-11-02T09:06:01Z</time>
      </trkpt>
      <trkpt lat="42.78289" lon="2.39771">
        <ele>651.91</ele>
        <time>2014-11-02T09:06:15Z</time>
      </trkpt>
      <trkpt lat="42.78261" lon="2.39783">
        <ele>653.35</ele>
        <time>2014-11-02T09:06:29Z</time>
      </trkpt>
      <trkpt lat="42.78234" lon="2.39783">
        <ele>656.24</ele>
        <time>2014-11-02T09:06:40Z</time>
      </trkpt>
      <trkpt lat="42.78207" lon="2.39797">
        <ele>655.28</ele>
        <time>2014-11-02T09:06:49Z</time>
      </trkpt>
      <trkpt lat="42.78201" lon="2.39806">
        <ele>654.8</ele>
        <time>2014-11-02T09:06:51Z</time>
      </trkpt>
      <trkpt lat="42.78198" lon="2.3981">
        <ele>654.31</ele>
        <time>2014-11-02T09:06:52Z</time>
      </trkpt>
      <trkpt lat="42.78194" lon="2.39814">
        <ele>654.31</ele>
        <time>2014-11-02T09:06:53Z</time>
      </trkpt>
      <trkpt lat="42.7819" lon="2.39818">
        <ele>653.83</ele>
        <time>2014-11-02T09:06:54Z</time>
      </trkpt>
      <trkpt lat="42.78185" lon="2.3982">
        <ele>653.83</ele>
        <time>2014-11-02T09:06:55Z</time>
      </trkpt>
      <trkpt lat="42.7818" lon="2.39821">
        <ele>653.83</ele>
        <time>2014-11-02T09:06:56Z</time>
      </trkpt>
      <trkpt lat="42.78175" lon="2.3982">
        <ele>653.83</ele>
        <time>2014-11-02T09:06:57Z</time>
      </trkpt>
      <trkpt lat="42.78171" lon="2.39819">
        <ele>653.83</ele>
        <time>2014-11-02T09:06:58Z</time>
      </trkpt>
      <trkpt lat="42.78167" lon="2.39817">
        <ele>653.83</ele>
        <time>2014-11-02T09:06:59Z</time>
      </trkpt>
      <trkpt lat="42.78163" lon="2.39815">
        <ele>653.83</ele>
        <time>2014-11-02T09:07:00Z</time>
      </trkpt>
      <trkpt lat="42.7816" lon="2.39813">
        <ele>653.83</ele>
        <time>2014-11-02T09:07:01Z</time>
      </trkpt>
      <trkpt lat="42.78123" lon="2.39793">
        <ele>656.72</ele>
        <time>2014-11-02T09:07:13Z</time>
      </trkpt>
      <trkpt lat="42.78082" lon="2.39799">
        <ele>658.64</ele>
        <time>2014-11-02T09:07:27Z</time>
      </trkpt>
      <trkpt lat="42.78056" lon="2.39803">
        <ele>661.04</ele>
        <time>2014-11-02T09:07:39Z</time>
      </trkpt>
      <trkpt lat="42.78036" lon="2.39802">
        <ele>663.45</ele>
        <time>2014-11-02T09:07:52Z</time>
      </trkpt>
      <trkpt lat="42.78012" lon="2.39799">
        <ele>665.37</ele>
        <time>2014-11-02T09:08:06Z</time>
      </trkpt>
      <trkpt lat="42.77984" lon="2.39802">
        <ele>666.81</ele>
        <time>2014-11-02T09:08:20Z</time>
      </trkpt>
      <trkpt lat="42.77949" lon="2.3983">
        <ele>666.33</ele>
        <time>2014-11-02T09:08:32Z</time>
      </trkpt>
      <trkpt lat="42.77908" lon="2.39841">
        <ele>666.81</ele>
        <time>2014-11-02T09:08:44Z</time>
      </trkpt>
      <trkpt lat="42.77891" lon="2.39817">
        <ele>667.29</ele>
        <time>2014-11-02T09:08:57Z</time>
      </trkpt>
      <trkpt lat="42.77886" lon="2.3981">
        <ele>667.29</ele>
        <time>2014-11-02T09:09:00Z</time>
      </trkpt>
      <trkpt lat="42.77885" lon="2.39807">
        <ele>667.77</ele>
        <time>2014-11-02T09:09:01Z</time>
      </trkpt>
      <trkpt lat="42.77884" lon="2.39803">
        <ele>667.77</ele>
        <time>2014-11-02T09:09:02Z</time>
      </trkpt>
      <trkpt lat="42.77884" lon="2.398">
        <ele>667.77</ele>
        <time>2014-11-02T09:09:03Z</time>
      </trkpt>
      <trkpt lat="42.77882" lon="2.39797">
        <ele>667.77</ele>
        <time>2014-11-02T09:09:04Z</time>
      </trkpt>
      <trkpt lat="42.77881" lon="2.39793">
        <ele>667.77</ele>
        <time>2014-11-02T09:09:05Z</time>
      </trkpt>
      <trkpt lat="42.77879" lon="2.39789">
        <ele>667.77</ele>
        <time>2014-11-02T09:09:06Z</time>
      </trkpt>
      <trkpt lat="42.77877" lon="2.39786">
        <ele>667.77</ele>
        <time>2014-11-02T09:09:07Z</time>
      </trkpt>
      <trkpt lat="42.77875" lon="2.39782">
        <ele>667.77</ele>
        <time>2014-11-02T09:09:08Z</time>
      </trkpt>
      <trkpt lat="42.77858" lon="2.3974">
        <ele>668.73</ele>
        <time>2014-11-02T09:09:19Z</time>
      </trkpt>
      <trkpt lat="42.77843" lon="2.39706">
        <ele>669.22</ele>
        <time>2014-11-02T09:09:30Z</time>
      </trkpt>
      <trkpt lat="42.7781" lon="2.39661">
        <ele>670.66</ele>
        <time>2014-11-02T09:09:43Z</time>
      </trkpt>
      <trkpt lat="42.77795" lon="2.39639">
        <ele>672.1</ele>
        <time>2014-11-02T09:09:50Z</time>
      </trkpt>
      <trkpt lat="42.77794" lon="2.39636">
        <ele>672.58</ele>
        <time>2014-11-02T09:09:51Z</time>
      </trkpt>
      <trkpt lat="42.77793" lon="2.39633">
        <ele>672.58</ele>
        <time>2014-11-02T09:09:52Z</time>
      </trkpt>
      <trkpt lat="42.77791" lon="2.3963">
        <ele>673.06</ele>
        <time>2014-11-02T09:09:53Z</time>
      </trkpt>
      <trkpt lat="42.77789" lon="2.39628">
        <ele>673.06</ele>
        <time>2014-11-02T09:09:54Z</time>
      </trkpt>
      <trkpt lat="42.77787" lon="2.39625">
        <ele>673.06</ele>
        <time>2014-11-02T09:09:55Z</time>
      </trkpt>
      <trkpt lat="42.77785" lon="2.39623">
        <ele>673.06</ele>
        <time>2014-11-02T09:09:56Z</time>
      </trkpt>
      <trkpt lat="42.77763" lon="2.39592">
        <ele>674.98</ele>
        <time>2014-11-02T09:10:09Z</time>
      </trkpt>
      <trkpt lat="42.77745" lon="2.39565">
        <ele>676.91</ele>
        <time>2014-11-02T09:10:21Z</time>
      </trkpt>
      <trkpt lat="42.77742" lon="2.3956">
        <ele>676.91</ele>
        <time>2014-11-02T09:10:23Z</time>
      </trkpt>
      <trkpt lat="42.7774" lon="2.39559">
        <ele>676.91</ele>
        <time>2014-11-02T09:10:24Z</time>
      </trkpt>
      <trkpt lat="42.77738" lon="2.39557">
        <ele>677.39</ele>
        <time>2014-11-02T09:10:25Z</time>
      </trkpt>
      <trkpt lat="42.77736" lon="2.39555">
        <ele>677.39</ele>
        <time>2014-11-02T09:10:26Z</time>
      </trkpt>
      <trkpt lat="42.77735" lon="2.39552">
        <ele>677.39</ele>
        <time>2014-11-02T09:10:27Z</time>
      </trkpt>
      <trkpt lat="42.77729" lon="2.39544">
        <ele>678.35</ele>
        <time>2014-11-02T09:10:31Z</time>
      </trkpt>
      <trkpt lat="42.77712" lon="2.39516">
        <ele>679.31</ele>
        <time>2014-11-02T09:10:43Z</time>
      </trkpt>
      <trkpt lat="42.77691" lon="2.39475">
        <ele>680.27</ele>
        <time>2014-11-02T09:10:56Z</time>
      </trkpt>
      <trkpt lat="42.77688" lon="2.39468">
        <ele>680.75</ele>
        <time>2014-11-02T09:10:58Z</time>
      </trkpt>
      <trkpt lat="42.77687" lon="2.39466">
        <ele>680.75</ele>
        <time>2014-11-02T09:10:59Z</time>
      </trkpt>
      <trkpt lat="42.77685" lon="2.39463">
        <ele>680.75</ele>
        <time>2014-11-02T09:11:00Z</time>
      </trkpt>
      <trkpt lat="42.77684" lon="2.3946">
        <ele>681.23</ele>
        <time>2014-11-02T09:11:01Z</time>
      </trkpt>
      <trkpt lat="42.77683" lon="2.39458">
        <ele>681.23</ele>
        <time>2014-11-02T09:11:02Z</time>
      </trkpt>
      <trkpt lat="42.77681" lon="2.39457">
        <ele>681.23</ele>
        <time>2014-11-02T09:11:03Z</time>
      </trkpt>
      <trkpt lat="42.77676" lon="2.3944">
        <ele>683.63</ele>
        <time>2014-11-02T09:11:12Z</time>
      </trkpt>
      <trkpt lat="42.7767" lon="2.39431">
        <ele>684.6</ele>
        <time>2014-11-02T09:11:18Z</time>
      </trkpt>
      <trkpt lat="42.77656" lon="2.39414">
        <ele>686.52</ele>
        <time>2014-11-02T09:11:29Z</time>
      </trkpt>
      <trkpt lat="42.77653" lon="2.39409">
        <ele>686.52</ele>
        <time>2014-11-02T09:11:31Z</time>
      </trkpt>
      <trkpt lat="42.77641" lon="2.3939">
        <ele>688.92</ele>
        <time>2014-11-02T09:11:43Z</time>
      </trkpt>
      <trkpt lat="42.7764" lon="2.39388">
        <ele>689.4</ele>
        <time>2014-11-02T09:11:44Z</time>
      </trkpt>
      <trkpt lat="42.77639" lon="2.39386">
        <ele>689.4</ele>
        <time>2014-11-02T09:11:45Z</time>
      </trkpt>
      <trkpt lat="42.77638" lon="2.39382">
        <ele>689.88</ele>
        <time>2014-11-02T09:11:47Z</time>
      </trkpt>
      <trkpt lat="42.77632" lon="2.39357">
        <ele>691.33</ele>
        <time>2014-11-02T09:12:00Z</time>
      </trkpt>
      <trkpt lat="42.77624" lon="2.39329">
        <ele>693.73</ele>
        <time>2014-11-02T09:12:14Z</time>
      </trkpt>
      <trkpt lat="42.77614" lon="2.39303">
        <ele>695.65</ele>
        <time>2014-11-02T09:12:26Z</time>
      </trkpt>
      <trkpt lat="42.77614" lon="2.39301">
        <ele>695.65</ele>
        <time>2014-11-02T09:12:27Z</time>
      </trkpt>
      <trkpt lat="42.77614" lon="2.39298">
        <ele>696.13</ele>
        <time>2014-11-02T09:12:28Z</time>
      </trkpt>
      <trkpt lat="42.77614" lon="2.39295">
        <ele>696.13</ele>
        <time>2014-11-02T09:12:29Z</time>
      </trkpt>
      <trkpt lat="42.77614" lon="2.39293">
        <ele>696.13</ele>
        <time>2014-11-02T09:12:30Z</time>
      </trkpt>
      <trkpt lat="42.77614" lon="2.3929">
        <ele>696.13</ele>
        <time>2014-11-02T09:12:31Z</time>
      </trkpt>
      <trkpt lat="42.77614" lon="2.39287">
        <ele>696.13</ele>
        <time>2014-11-02T09:12:32Z</time>
      </trkpt>
      <trkpt lat="42.77614" lon="2.39284">
        <ele>696.13</ele>
        <time>2014-11-02T09:12:33Z</time>
      </trkpt>
      <trkpt lat="42.77618" lon="2.39255">
        <ele>696.61</ele>
        <time>2014-11-02T09:12:42Z</time>
      </trkpt>
      <trkpt lat="42.77622" lon="2.39249">
        <ele>696.61</ele>
        <time>2014-11-02T09:12:44Z</time>
      </trkpt>
      <trkpt lat="42.77626" lon="2.39247">
        <ele>696.61</ele>
        <time>2014-11-02T09:12:46Z</time>
      </trkpt>
      <trkpt lat="42.77629" lon="2.39248">
        <ele>696.61</ele>
        <time>2014-11-02T09:12:47Z</time>
      </trkpt>
      <trkpt lat="42.77632" lon="2.39249">
        <ele>697.09</ele>
        <time>2014-11-02T09:12:48Z</time>
      </trkpt>
      <trkpt lat="42.77634" lon="2.39251">
        <ele>697.09</ele>
        <time>2014-11-02T09:12:49Z</time>
      </trkpt>
      <trkpt lat="42.77635" lon="2.39254">
        <ele>697.09</ele>
        <time>2014-11-02T09:12:50Z</time>
      </trkpt>
      <trkpt lat="42.77637" lon="2.39256">
        <ele>697.09</ele>
        <time>2014-11-02T09:12:51Z</time>
      </trkpt>
      <trkpt lat="42.77638" lon="2.39259">
        <ele>697.57</ele>
        <time>2014-11-02T09:12:52Z</time>
      </trkpt>
      <trkpt lat="42.77639" lon="2.39262">
        <ele>697.57</ele>
        <time>2014-11-02T09:12:53Z</time>
      </trkpt>
      <trkpt lat="42.7764" lon="2.39264">
        <ele>697.57</ele>
        <time>2014-11-02T09:12:54Z</time>
      </trkpt>
      <trkpt lat="42.77641" lon="2.39266">
        <ele>698.05</ele>
        <time>2014-11-02T09:12:55Z</time>
      </trkpt>
      <trkpt lat="42.77652" lon="2.39289">
        <ele>699.5</ele>
        <time>2014-11-02T09:13:06Z</time>
      </trkpt>
      <trkpt lat="42.77671" lon="2.39314">
        <ele>701.42</ele>
        <time>2014-11-02T09:13:20Z</time>
      </trkpt>
      <trkpt lat="42.77678" lon="2.39321">
        <ele>702.38</ele>
        <time>2014-11-02T09:13:25Z</time>
      </trkpt>
      <trkpt lat="42.77679" lon="2.39324">
        <ele>702.38</ele>
        <time>2014-11-02T09:13:26Z</time>
      </trkpt>
      <trkpt lat="42.7768" lon="2.39325">
        <ele>702.38</ele>
        <time>2014-11-02T09:13:27Z</time>
      </trkpt>
      <trkpt lat="42.77681" lon="2.39327">
        <ele>702.38</ele>
        <time>2014-11-02T09:13:28Z</time>
      </trkpt>
      <trkpt lat="42.77682" lon="2.39329">
        <ele>702.86</ele>
        <time>2014-11-02T09:13:30Z</time>
      </trkpt>
      <trkpt lat="42.77701" lon="2.39335">
        <ele>704.78</ele>
        <time>2014-11-02T09:13:42Z</time>
      </trkpt>
      <trkpt lat="42.77717" lon="2.39343">
        <ele>706.71</ele>
        <time>2014-11-02T09:13:54Z</time>
      </trkpt>
      <trkpt lat="42.77723" lon="2.39346">
        <ele>707.67</ele>
        <time>2014-11-02T09:13:59Z</time>
      </trkpt>
      <trkpt lat="42.7774" lon="2.39349">
        <ele>709.59</ele>
        <time>2014-11-02T09:14:11Z</time>
      </trkpt>
      <trkpt lat="42.77756" lon="2.39346">
        <ele>711.99</ele>
        <time>2014-11-02T09:14:22Z</time>
      </trkpt>
      <trkpt lat="42.7776" lon="2.39345">
        <ele>711.99</ele>
        <time>2014-11-02T09:14:25Z</time>
      </trkpt>
      <trkpt lat="42.77763" lon="2.39345">
        <ele>712.95</ele>
        <time>2014-11-02T09:14:28Z</time>
      </trkpt>
      <trkpt lat="42.77764" lon="2.39345">
        <ele>712.95</ele>
        <time>2014-11-02T09:14:29Z</time>
      </trkpt>
      <trkpt lat="42.77766" lon="2.39345">
        <ele>712.95</ele>
        <time>2014-11-02T09:14:30Z</time>
      </trkpt>
      <trkpt lat="42.77768" lon="2.39344">
        <ele>713.44</ele>
        <time>2014-11-02T09:14:31Z</time>
      </trkpt>
      <trkpt lat="42.77769" lon="2.39343">
        <ele>713.44</ele>
        <time>2014-11-02T09:14:32Z</time>
      </trkpt>
      <trkpt lat="42.77772" lon="2.39342">
        <ele>713.44</ele>
        <time>2014-11-02T09:14:34Z</time>
      </trkpt>
      <trkpt lat="42.77774" lon="2.39342">
        <ele>713.92</ele>
        <time>2014-11-02T09:14:35Z</time>
      </trkpt>
      <trkpt lat="42.7779" lon="2.39347">
        <ele>714.88</ele>
        <time>2014-11-02T09:14:47Z</time>
      </trkpt>
      <trkpt lat="42.77792" lon="2.39347">
        <ele>714.88</ele>
        <time>2014-11-02T09:14:48Z</time>
      </trkpt>
      <trkpt lat="42.77803" lon="2.39354">
        <ele>716.32</ele>
        <time>2014-11-02T09:14:57Z</time>
      </trkpt>
      <trkpt lat="42.77805" lon="2.39355">
        <ele>716.32</ele>
        <time>2014-11-02T09:14:58Z</time>
      </trkpt>
      <trkpt lat="42.77806" lon="2.39356">
        <ele>716.8</ele>
        <time>2014-11-02T09:14:59Z</time>
      </trkpt>
      <trkpt lat="42.77807" lon="2.39356">
        <ele>716.8</ele>
        <time>2014-11-02T09:15:00Z</time>
      </trkpt>
      <trkpt lat="42.77808" lon="2.39357">
        <ele>716.8</ele>
        <time>2014-11-02T09:15:01Z</time>
      </trkpt>
      <trkpt lat="42.77809" lon="2.39359">
        <ele>716.8</ele>
        <time>2014-11-02T09:15:02Z</time>
      </trkpt>
      <trkpt lat="42.7781" lon="2.39359">
        <ele>717.28</ele>
        <time>2014-11-02T09:15:03Z</time>
      </trkpt>
      <trkpt lat="42.77812" lon="2.3936">
        <ele>717.28</ele>
        <time>2014-11-02T09:15:04Z</time>
      </trkpt>
      <trkpt lat="42.77815" lon="2.39361">
        <ele>717.28</ele>
        <time>2014-11-02T09:15:06Z</time>
      </trkpt>
      <trkpt lat="42.77816" lon="2.39363">
        <ele>717.28</ele>
        <time>2014-11-02T09:15:07Z</time>
      </trkpt>
      <trkpt lat="42.77818" lon="2.39364">
        <ele>717.76</ele>
        <time>2014-11-02T09:15:08Z</time>
      </trkpt>
      <trkpt lat="42.77828" lon="2.39362">
        <ele>718.72</ele>
        <time>2014-11-02T09:15:16Z</time>
      </trkpt>
      <trkpt lat="42.77831" lon="2.39358">
        <ele>719.2</ele>
        <time>2014-11-02T09:15:19Z</time>
      </trkpt>
      <trkpt lat="42.77833" lon="2.39357">
        <ele>719.2</ele>
        <time>2014-11-02T09:15:20Z</time>
      </trkpt>
      <trkpt lat="42.77834" lon="2.39355">
        <ele>718.72</ele>
        <time>2014-11-02T09:15:21Z</time>
      </trkpt>
      <trkpt lat="42.77834" lon="2.39353">
        <ele>719.2</ele>
        <time>2014-11-02T09:15:22Z</time>
      </trkpt>
      <trkpt lat="42.77833" lon="2.39351">
        <ele>719.2</ele>
        <time>2014-11-02T09:15:23Z</time>
      </trkpt>
      <trkpt lat="42.77834" lon="2.39349">
        <ele>719.68</ele>
        <time>2014-11-02T09:15:24Z</time>
      </trkpt>
      <trkpt lat="42.77833" lon="2.39347">
        <ele>719.68</ele>
        <time>2014-11-02T09:15:25Z</time>
      </trkpt>
      <trkpt lat="42.77833" lon="2.39345">
        <ele>719.68</ele>
        <time>2014-11-02T09:15:26Z</time>
      </trkpt>
      <trkpt lat="42.77834" lon="2.39343">
        <ele>719.68</ele>
        <time>2014-11-02T09:15:27Z</time>
      </trkpt>
      <trkpt lat="42.77834" lon="2.39341">
        <ele>720.16</ele>
        <time>2014-11-02T09:15:28Z</time>
      </trkpt>
      <trkpt lat="42.77835" lon="2.39335">
        <ele>720.65</ele>
        <time>2014-11-02T09:15:32Z</time>
      </trkpt>
      <trkpt lat="42.77836" lon="2.39333">
        <ele>720.65</ele>
        <time>2014-11-02T09:15:33Z</time>
      </trkpt>
      <trkpt lat="42.77835" lon="2.39331">
        <ele>721.13</ele>
        <time>2014-11-02T09:15:34Z</time>
      </trkpt>
      <trkpt lat="42.77834" lon="2.39325">
        <ele>721.61</ele>
        <time>2014-11-02T09:15:38Z</time>
      </trkpt>
      <trkpt lat="42.77832" lon="2.39319">
        <ele>722.57</ele>
        <time>2014-11-02T09:15:42Z</time>
      </trkpt>
      <trkpt lat="42.77833" lon="2.39317">
        <ele>722.57</ele>
        <time>2014-11-02T09:15:43Z</time>
      </trkpt>
      <trkpt lat="42.77833" lon="2.39315">
        <ele>722.57</ele>
        <time>2014-11-02T09:15:44Z</time>
      </trkpt>
      <trkpt lat="42.77835" lon="2.3931">
        <ele>723.05</ele>
        <time>2014-11-02T09:15:47Z</time>
      </trkpt>
      <trkpt lat="42.77835" lon="2.39308">
        <ele>723.53</ele>
        <time>2014-11-02T09:15:48Z</time>
      </trkpt>
      <trkpt lat="42.77835" lon="2.39306">
        <ele>723.53</ele>
        <time>2014-11-02T09:15:49Z</time>
      </trkpt>
      <trkpt lat="42.77835" lon="2.39304">
        <ele>723.53</ele>
        <time>2014-11-02T09:15:50Z</time>
      </trkpt>
      <trkpt lat="42.77835" lon="2.39302">
        <ele>724.01</ele>
        <time>2014-11-02T09:15:51Z</time>
      </trkpt>
      <trkpt lat="42.77834" lon="2.393">
        <ele>724.01</ele>
        <time>2014-11-02T09:15:52Z</time>
      </trkpt>
      <trkpt lat="42.77834" lon="2.39298">
        <ele>724.01</ele>
        <time>2014-11-02T09:15:53Z</time>
      </trkpt>
      <trkpt lat="42.77834" lon="2.39296">
        <ele>724.49</ele>
        <time>2014-11-02T09:15:54Z</time>
      </trkpt>
      <trkpt lat="42.77833" lon="2.39294">
        <ele>724.49</ele>
        <time>2014-11-02T09:15:55Z</time>
      </trkpt>
      <trkpt lat="42.77834" lon="2.39292">
        <ele>724.49</ele>
        <time>2014-11-02T09:15:56Z</time>
      </trkpt>
      <trkpt lat="42.77834" lon="2.3929">
        <ele>724.49</ele>
        <time>2014-11-02T09:15:57Z</time>
      </trkpt>
      <trkpt lat="42.77833" lon="2.39288">
        <ele>724.97</ele>
        <time>2014-11-02T09:15:58Z</time>
      </trkpt>
      <trkpt lat="42.77836" lon="2.39273">
        <ele>725.93</ele>
        <time>2014-11-02T09:16:06Z</time>
      </trkpt>
      <trkpt lat="42.77837" lon="2.39271">
        <ele>725.93</ele>
        <time>2014-11-02T09:16:07Z</time>
      </trkpt>
      <trkpt lat="42.77837" lon="2.39265">
        <ele>726.41</ele>
        <time>2014-11-02T09:16:10Z</time>
      </trkpt>
      <trkpt lat="42.77838" lon="2.39263">
        <ele>726.41</ele>
        <time>2014-11-02T09:16:11Z</time>
      </trkpt>
      <trkpt lat="42.77838" lon="2.39257">
        <ele>726.89</ele>
        <time>2014-11-02T09:16:14Z</time>
      </trkpt>
      <trkpt lat="42.77838" lon="2.39255">
        <ele>726.89</ele>
        <time>2014-11-02T09:16:15Z</time>
      </trkpt>
      <trkpt lat="42.77839" lon="2.39253">
        <ele>726.89</ele>
        <time>2014-11-02T09:16:16Z</time>
      </trkpt>
      <trkpt lat="42.7784" lon="2.39235">
        <ele>728.82</ele>
        <time>2014-11-02T09:16:27Z</time>
      </trkpt>
      <trkpt lat="42.7784" lon="2.39232">
        <ele>728.82</ele>
        <time>2014-11-02T09:16:29Z</time>
      </trkpt>
      <trkpt lat="42.7784" lon="2.3923">
        <ele>729.3</ele>
        <time>2014-11-02T09:16:30Z</time>
      </trkpt>
      <trkpt lat="42.7784" lon="2.39219">
        <ele>729.78</ele>
        <time>2014-11-02T09:16:36Z</time>
      </trkpt>
      <trkpt lat="42.77836" lon="2.39198">
        <ele>731.22</ele>
        <time>2014-11-02T09:16:47Z</time>
      </trkpt>
      <trkpt lat="42.77835" lon="2.39176">
        <ele>732.66</ele>
        <time>2014-11-02T09:16:59Z</time>
      </trkpt>
      <trkpt lat="42.77836" lon="2.39171">
        <ele>733.14</ele>
        <time>2014-11-02T09:17:02Z</time>
      </trkpt>
      <trkpt lat="42.77835" lon="2.39169">
        <ele>733.14</ele>
        <time>2014-11-02T09:17:03Z</time>
      </trkpt>
      <trkpt lat="42.77835" lon="2.39166">
        <ele>733.62</ele>
        <time>2014-11-02T09:17:05Z</time>
      </trkpt>
      <trkpt lat="42.77835" lon="2.39164">
        <ele>733.62</ele>
        <time>2014-11-02T09:17:06Z</time>
      </trkpt>
      <trkpt lat="42.77837" lon="2.39149">
        <ele>735.07</ele>
        <time>2014-11-02T09:17:15Z</time>
      </trkpt>
      <trkpt lat="42.77837" lon="2.39148">
        <ele>735.07</ele>
        <time>2014-11-02T09:17:16Z</time>
      </trkpt>
      <trkpt lat="42.77837" lon="2.39128">
        <ele>736.99</ele>
        <time>2014-11-02T09:17:29Z</time>
      </trkpt>
      <trkpt lat="42.77836" lon="2.39123">
        <ele>737.47</ele>
        <time>2014-11-02T09:17:32Z</time>
      </trkpt>
      <trkpt lat="42.77836" lon="2.39119">
        <ele>737.95</ele>
        <time>2014-11-02T09:17:34Z</time>
      </trkpt>
      <trkpt lat="42.77836" lon="2.39116">
        <ele>737.95</ele>
        <time>2014-11-02T09:17:35Z</time>
      </trkpt>
      <trkpt lat="42.77836" lon="2.39114">
        <ele>737.95</ele>
        <time>2014-11-02T09:17:36Z</time>
      </trkpt>
      <trkpt lat="42.77836" lon="2.3911">
        <ele>738.43</ele>
        <time>2014-11-02T09:17:39Z</time>
      </trkpt>
      <trkpt lat="42.77837" lon="2.39076">
        <ele>740.83</ele>
        <time>2014-11-02T09:17:53Z</time>
      </trkpt>
      <trkpt lat="42.77839" lon="2.39063">
        <ele>741.31</ele>
        <time>2014-11-02T09:17:59Z</time>
      </trkpt>
      <trkpt lat="42.7784" lon="2.39061">
        <ele>741.31</ele>
        <time>2014-11-02T09:18:00Z</time>
      </trkpt>
      <trkpt lat="42.7784" lon="2.39059">
        <ele>741.31</ele>
        <time>2014-11-02T09:18:01Z</time>
      </trkpt>
      <trkpt lat="42.77841" lon="2.39057">
        <ele>741.31</ele>
        <time>2014-11-02T09:18:02Z</time>
      </trkpt>
      <trkpt lat="42.77841" lon="2.39055">
        <ele>741.79</ele>
        <time>2014-11-02T09:18:03Z</time>
      </trkpt>
      <trkpt lat="42.77841" lon="2.39053">
        <ele>741.79</ele>
        <time>2014-11-02T09:18:04Z</time>
      </trkpt>
      <trkpt lat="42.77841" lon="2.39051">
        <ele>741.79</ele>
        <time>2014-11-02T09:18:05Z</time>
      </trkpt>
      <trkpt lat="42.77842" lon="2.39044">
        <ele>742.76</ele>
        <time>2014-11-02T09:18:10Z</time>
      </trkpt>
      <trkpt lat="42.77842" lon="2.39042">
        <ele>742.76</ele>
        <time>2014-11-02T09:18:11Z</time>
      </trkpt>
      <trkpt lat="42.77842" lon="2.39041">
        <ele>742.76</ele>
        <time>2014-11-02T09:18:12Z</time>
      </trkpt>
      <trkpt lat="42.77843" lon="2.39039">
        <ele>743.24</ele>
        <time>2014-11-02T09:18:13Z</time>
      </trkpt>
      <trkpt lat="42.77843" lon="2.39037">
        <ele>743.24</ele>
        <time>2014-11-02T09:18:14Z</time>
      </trkpt>
      <trkpt lat="42.77851" lon="2.39012">
        <ele>744.68</ele>
        <time>2014-11-02T09:18:27Z</time>
      </trkpt>
      <trkpt lat="42.77851" lon="2.39009">
        <ele>744.68</ele>
        <time>2014-11-02T09:18:28Z</time>
      </trkpt>
      <trkpt lat="42.77852" lon="2.39007">
        <ele>745.16</ele>
        <time>2014-11-02T09:18:29Z</time>
      </trkpt>
      <trkpt lat="42.77852" lon="2.39005">
        <ele>745.16</ele>
        <time>2014-11-02T09:18:30Z</time>
      </trkpt>
      <trkpt lat="42.77853" lon="2.38991">
        <ele>746.6</ele>
        <time>2014-11-02T09:18:38Z</time>
      </trkpt>
      <trkpt lat="42.77853" lon="2.3899">
        <ele>746.6</ele>
        <time>2014-11-02T09:18:39Z</time>
      </trkpt>
      <trkpt lat="42.77852" lon="2.38988">
        <ele>746.6</ele>
        <time>2014-11-02T09:18:40Z</time>
      </trkpt>
      <trkpt lat="42.77852" lon="2.38985">
        <ele>748.04</ele>
        <time>2014-11-02T09:18:41Z</time>
      </trkpt>
      <trkpt lat="42.77852" lon="2.38983">
        <ele>747.08</ele>
        <time>2014-11-02T09:18:42Z</time>
      </trkpt>
      <trkpt lat="42.77851" lon="2.38981">
        <ele>747.08</ele>
        <time>2014-11-02T09:18:43Z</time>
      </trkpt>
      <trkpt lat="42.77852" lon="2.38979">
        <ele>747.56</ele>
        <time>2014-11-02T09:18:44Z</time>
      </trkpt>
      <trkpt lat="42.77854" lon="2.3896">
        <ele>749</ele>
        <time>2014-11-02T09:18:55Z</time>
      </trkpt>
      <trkpt lat="42.77853" lon="2.38956">
        <ele>749</ele>
        <time>2014-11-02T09:18:57Z</time>
      </trkpt>
      <trkpt lat="42.77853" lon="2.38952">
        <ele>749.49</ele>
        <time>2014-11-02T09:18:59Z</time>
      </trkpt>
      <trkpt lat="42.77853" lon="2.38949">
        <ele>749.49</ele>
        <time>2014-11-02T09:19:00Z</time>
      </trkpt>
      <trkpt lat="42.77852" lon="2.38939">
        <ele>749.97</ele>
        <time>2014-11-02T09:19:05Z</time>
      </trkpt>
      <trkpt lat="42.77852" lon="2.38936">
        <ele>750.45</ele>
        <time>2014-11-02T09:19:06Z</time>
      </trkpt>
      <trkpt lat="42.77851" lon="2.38934">
        <ele>750.45</ele>
        <time>2014-11-02T09:19:07Z</time>
      </trkpt>
      <trkpt lat="42.77851" lon="2.38932">
        <ele>750.45</ele>
        <time>2014-11-02T09:19:08Z</time>
      </trkpt>
      <trkpt lat="42.77851" lon="2.38929">
        <ele>750.93</ele>
        <time>2014-11-02T09:19:09Z</time>
      </trkpt>
      <trkpt lat="42.77851" lon="2.38927">
        <ele>750.93</ele>
        <time>2014-11-02T09:19:10Z</time>
      </trkpt>
      <trkpt lat="42.77852" lon="2.38926">
        <ele>750.93</ele>
        <time>2014-11-02T09:19:11Z</time>
      </trkpt>
      <trkpt lat="42.77852" lon="2.3892">
        <ele>751.41</ele>
        <time>2014-11-02T09:19:14Z</time>
      </trkpt>
      <trkpt lat="42.77852" lon="2.38917">
        <ele>751.41</ele>
        <time>2014-11-02T09:19:16Z</time>
      </trkpt>
      <trkpt lat="42.7785" lon="2.38907">
        <ele>752.37</ele>
        <time>2014-11-02T09:19:21Z</time>
      </trkpt>
      <trkpt lat="42.7785" lon="2.38905">
        <ele>752.37</ele>
        <time>2014-11-02T09:19:22Z</time>
      </trkpt>
      <trkpt lat="42.7785" lon="2.38903">
        <ele>752.37</ele>
        <time>2014-11-02T09:19:23Z</time>
      </trkpt>
      <trkpt lat="42.77849" lon="2.38901">
        <ele>752.85</ele>
        <time>2014-11-02T09:19:24Z</time>
      </trkpt>
      <trkpt lat="42.77849" lon="2.38899">
        <ele>752.85</ele>
        <time>2014-11-02T09:19:25Z</time>
      </trkpt>
      <trkpt lat="42.7785" lon="2.38897">
        <ele>752.85</ele>
        <time>2014-11-02T09:19:26Z</time>
      </trkpt>
      <trkpt lat="42.7785" lon="2.38895">
        <ele>752.85</ele>
        <time>2014-11-02T09:19:27Z</time>
      </trkpt>
      <trkpt lat="42.77849" lon="2.38873">
        <ele>754.77</ele>
        <time>2014-11-02T09:19:37Z</time>
      </trkpt>
      <trkpt lat="42.77849" lon="2.38869">
        <ele>755.25</ele>
        <time>2014-11-02T09:19:39Z</time>
      </trkpt>
      <trkpt lat="42.77846" lon="2.38851">
        <ele>756.69</ele>
        <time>2014-11-02T09:19:48Z</time>
      </trkpt>
      <trkpt lat="42.77844" lon="2.38847">
        <ele>757.18</ele>
        <time>2014-11-02T09:19:50Z</time>
      </trkpt>
      <trkpt lat="42.77844" lon="2.38845">
        <ele>757.18</ele>
        <time>2014-11-02T09:19:51Z</time>
      </trkpt>
      <trkpt lat="42.77843" lon="2.38842">
        <ele>757.66</ele>
        <time>2014-11-02T09:19:52Z</time>
      </trkpt>
      <trkpt lat="42.77842" lon="2.3884">
        <ele>757.66</ele>
        <time>2014-11-02T09:19:53Z</time>
      </trkpt>
      <trkpt lat="42.77841" lon="2.38838">
        <ele>758.14</ele>
        <time>2014-11-02T09:19:54Z</time>
      </trkpt>
      <trkpt lat="42.7784" lon="2.38835">
        <ele>758.14</ele>
        <time>2014-11-02T09:19:56Z</time>
      </trkpt>
      <trkpt lat="42.7784" lon="2.38833">
        <ele>758.14</ele>
        <time>2014-11-02T09:19:57Z</time>
      </trkpt>
      <trkpt lat="42.77839" lon="2.38831">
        <ele>758.62</ele>
        <time>2014-11-02T09:19:58Z</time>
      </trkpt>
      <trkpt lat="42.77839" lon="2.38829">
        <ele>759.1</ele>
        <time>2014-11-02T09:19:59Z</time>
      </trkpt>
      <trkpt lat="42.77832" lon="2.38809">
        <ele>760.54</ele>
        <time>2014-11-02T09:20:11Z</time>
      </trkpt>
      <trkpt lat="42.77826" lon="2.38791">
        <ele>761.5</ele>
        <time>2014-11-02T09:20:19Z</time>
      </trkpt>
      <trkpt lat="42.77823" lon="2.38786">
        <ele>761.98</ele>
        <time>2014-11-02T09:20:22Z</time>
      </trkpt>
      <trkpt lat="42.77822" lon="2.38784">
        <ele>761.98</ele>
        <time>2014-11-02T09:20:23Z</time>
      </trkpt>
      <trkpt lat="42.77821" lon="2.38782">
        <ele>762.46</ele>
        <time>2014-11-02T09:20:24Z</time>
      </trkpt>
      <trkpt lat="42.7782" lon="2.3878">
        <ele>762.46</ele>
        <time>2014-11-02T09:20:25Z</time>
      </trkpt>
      <trkpt lat="42.7782" lon="2.38778">
        <ele>762.46</ele>
        <time>2014-11-02T09:20:26Z</time>
      </trkpt>
      <trkpt lat="42.77818" lon="2.38771">
        <ele>762.94</ele>
        <time>2014-11-02T09:20:29Z</time>
      </trkpt>
      <trkpt lat="42.77818" lon="2.38769">
        <ele>762.94</ele>
        <time>2014-11-02T09:20:30Z</time>
      </trkpt>
      <trkpt lat="42.77817" lon="2.38767">
        <ele>763.42</ele>
        <time>2014-11-02T09:20:31Z</time>
      </trkpt>
      <trkpt lat="42.77816" lon="2.38765">
        <ele>763.42</ele>
        <time>2014-11-02T09:20:32Z</time>
      </trkpt>
      <trkpt lat="42.7781" lon="2.38741">
        <ele>765.35</ele>
        <time>2014-11-02T09:20:45Z</time>
      </trkpt>
      <trkpt lat="42.77805" lon="2.38726">
        <ele>766.31</ele>
        <time>2014-11-02T09:20:52Z</time>
      </trkpt>
      <trkpt lat="42.77805" lon="2.38724">
        <ele>766.31</ele>
        <time>2014-11-02T09:20:53Z</time>
      </trkpt>
      <trkpt lat="42.77804" lon="2.38722">
        <ele>766.79</ele>
        <time>2014-11-02T09:20:54Z</time>
      </trkpt>
      <trkpt lat="42.77803" lon="2.3872">
        <ele>766.79</ele>
        <time>2014-11-02T09:20:55Z</time>
      </trkpt>
      <trkpt lat="42.77803" lon="2.38718">
        <ele>766.79</ele>
        <time>2014-11-02T09:20:56Z</time>
      </trkpt>
      <trkpt lat="42.77802" lon="2.38716">
        <ele>766.79</ele>
        <time>2014-11-02T09:20:57Z</time>
      </trkpt>
      <trkpt lat="42.77795" lon="2.38693">
        <ele>769.19</ele>
        <time>2014-11-02T09:21:10Z</time>
      </trkpt>
      <trkpt lat="42.7779" lon="2.38668">
        <ele>771.6</ele>
        <time>2014-11-02T09:21:23Z</time>
      </trkpt>
      <trkpt lat="42.77788" lon="2.38646">
        <ele>773.52</ele>
        <time>2014-11-02T09:21:35Z</time>
      </trkpt>
      <trkpt lat="42.77787" lon="2.38644">
        <ele>773.52</ele>
        <time>2014-11-02T09:21:36Z</time>
      </trkpt>
      <trkpt lat="42.77787" lon="2.38642">
        <ele>774</ele>
        <time>2014-11-02T09:21:37Z</time>
      </trkpt>
      <trkpt lat="42.77785" lon="2.38633">
        <ele>774.48</ele>
        <time>2014-11-02T09:21:42Z</time>
      </trkpt>
      <trkpt lat="42.77785" lon="2.38625">
        <ele>774.96</ele>
        <time>2014-11-02T09:21:46Z</time>
      </trkpt>
      <trkpt lat="42.77782" lon="2.38588">
        <ele>776.4</ele>
        <time>2014-11-02T09:21:59Z</time>
      </trkpt>
      <trkpt lat="42.77782" lon="2.38549">
        <ele>777.84</ele>
        <time>2014-11-02T09:22:12Z</time>
      </trkpt>
      <trkpt lat="42.77783" lon="2.3854">
        <ele>778.32</ele>
        <time>2014-11-02T09:22:16Z</time>
      </trkpt>
      <trkpt lat="42.77782" lon="2.38538">
        <ele>778.32</ele>
        <time>2014-11-02T09:22:17Z</time>
      </trkpt>
      <trkpt lat="42.77781" lon="2.38533">
        <ele>778.32</ele>
        <time>2014-11-02T09:22:30Z</time>
      </trkpt>
      <trkpt lat="42.7778" lon="2.38532">
        <ele>778.81</ele>
        <time>2014-11-02T09:22:49Z</time>
      </trkpt>
      <trkpt lat="42.7778" lon="2.38532">
        <ele>778.81</ele>
        <time>2014-11-02T09:23:06Z</time>
      </trkpt>
      <trkpt lat="42.7778" lon="2.38532">
        <ele>778.81</ele>
        <time>2014-11-02T09:23:28Z</time>
      </trkpt>
      <trkpt lat="42.7778" lon="2.38532">
        <ele>778.81</ele>
        <time>2014-11-02T09:23:50Z</time>
      </trkpt>
      <trkpt lat="42.7778" lon="2.38532">
        <ele>778.81</ele>
        <time>2014-11-02T09:24:09Z</time>
      </trkpt>
      <trkpt lat="42.7778" lon="2.38531">
        <ele>778.81</ele>
        <time>2014-11-02T09:24:31Z</time>
      </trkpt>
      <trkpt lat="42.77779" lon="2.3853">
        <ele>778.81</ele>
        <time>2014-11-02T09:25:00Z</time>
      </trkpt>
      <trkpt lat="42.77779" lon="2.3853">
        <ele>778.81</ele>
        <time>2014-11-02T09:25:28Z</time>
      </trkpt>
      <trkpt lat="42.77779" lon="2.3853">
        <ele>778.81</ele>
        <time>2014-11-02T09:25:58Z</time>
      </trkpt>
      <trkpt lat="42.77779" lon="2.3853">
        <ele>778.81</ele>
        <time>2014-11-02T09:26:25Z</time>
      </trkpt>
      <trkpt lat="42.77779" lon="2.3853">
        <ele>779.29</ele>
        <time>2014-11-02T09:26:47Z</time>
      </trkpt>
      <trkpt lat="42.77779" lon="2.3853">
        <ele>779.29</ele>
        <time>2014-11-02T09:27:07Z</time>
      </trkpt>
      <trkpt lat="42.77777" lon="2.3853">
        <ele>779.29</ele>
        <time>2014-11-02T09:27:19Z</time>
      </trkpt>
      <trkpt lat="42.77776" lon="2.38531">
        <ele>779.29</ele>
        <time>2014-11-02T09:27:20Z</time>
      </trkpt>
      <trkpt lat="42.77775" lon="2.38532">
        <ele>779.29</ele>
        <time>2014-11-02T09:27:21Z</time>
      </trkpt>
      <trkpt lat="42.77773" lon="2.38535">
        <ele>779.77</ele>
        <time>2014-11-02T09:27:23Z</time>
      </trkpt>
      <trkpt lat="42.77768" lon="2.38564">
        <ele>781.69</ele>
        <time>2014-11-02T09:27:35Z</time>
      </trkpt>
      <trkpt lat="42.77764" lon="2.38604">
        <ele>784.09</ele>
        <time>2014-11-02T09:27:51Z</time>
      </trkpt>
      <trkpt lat="42.7776" lon="2.38636">
        <ele>786.02</ele>
        <time>2014-11-02T09:28:04Z</time>
      </trkpt>
      <trkpt lat="42.77756" lon="2.38658">
        <ele>787.46</ele>
        <time>2014-11-02T09:28:14Z</time>
      </trkpt>
      <trkpt lat="42.77756" lon="2.38661">
        <ele>787.46</ele>
        <time>2014-11-02T09:28:15Z</time>
      </trkpt>
      <trkpt lat="42.77755" lon="2.38663">
        <ele>787.46</ele>
        <time>2014-11-02T09:28:16Z</time>
      </trkpt>
      <trkpt lat="42.77755" lon="2.38665">
        <ele>787.94</ele>
        <time>2014-11-02T09:28:17Z</time>
      </trkpt>
      <trkpt lat="42.77754" lon="2.38667">
        <ele>787.94</ele>
        <time>2014-11-02T09:28:18Z</time>
      </trkpt>
      <trkpt lat="42.77754" lon="2.38669">
        <ele>788.42</ele>
        <time>2014-11-02T09:28:19Z</time>
      </trkpt>
      <trkpt lat="42.77753" lon="2.38671">
        <ele>788.42</ele>
        <time>2014-11-02T09:28:20Z</time>
      </trkpt>
      <trkpt lat="42.77749" lon="2.38697">
        <ele>790.34</ele>
        <time>2014-11-02T09:28:32Z</time>
      </trkpt>
      <trkpt lat="42.77749" lon="2.387">
        <ele>790.34</ele>
        <time>2014-11-02T09:28:33Z</time>
      </trkpt>
      <trkpt lat="42.77748" lon="2.38704">
        <ele>790.82</ele>
        <time>2014-11-02T09:28:35Z</time>
      </trkpt>
      <trkpt lat="42.77747" lon="2.38706">
        <ele>790.82</ele>
        <time>2014-11-02T09:28:36Z</time>
      </trkpt>
      <trkpt lat="42.77746" lon="2.38707">
        <ele>790.82</ele>
        <time>2014-11-02T09:28:37Z</time>
      </trkpt>
      <trkpt lat="42.77745" lon="2.38709">
        <ele>791.3</ele>
        <time>2014-11-02T09:28:38Z</time>
      </trkpt>
      <trkpt lat="42.77743" lon="2.3871">
        <ele>791.78</ele>
        <time>2014-11-02T09:28:39Z</time>
      </trkpt>
      <trkpt lat="42.77721" lon="2.38727">
        <ele>793.71</ele>
        <time>2014-11-02T09:28:53Z</time>
      </trkpt>
      <trkpt lat="42.77708" lon="2.38727">
        <ele>795.15</ele>
        <time>2014-11-02T09:29:03Z</time>
      </trkpt>
      <trkpt lat="42.77707" lon="2.38727">
        <ele>795.15</ele>
        <time>2014-11-02T09:29:04Z</time>
      </trkpt>
      <trkpt lat="42.77705" lon="2.38727">
        <ele>795.15</ele>
        <time>2014-11-02T09:29:05Z</time>
      </trkpt>
      <trkpt lat="42.77686" lon="2.38729">
        <ele>797.07</ele>
        <time>2014-11-02T09:29:17Z</time>
      </trkpt>
      <trkpt lat="42.77677" lon="2.38726">
        <ele>798.03</ele>
        <time>2014-11-02T09:29:23Z</time>
      </trkpt>
      <trkpt lat="42.77676" lon="2.38726">
        <ele>798.03</ele>
        <time>2014-11-02T09:29:24Z</time>
      </trkpt>
      <trkpt lat="42.77653" lon="2.38718">
        <ele>799.95</ele>
        <time>2014-11-02T09:29:38Z</time>
      </trkpt>
      <trkpt lat="42.7764" lon="2.38713">
        <ele>800.92</ele>
        <time>2014-11-02T09:29:46Z</time>
      </trkpt>
      <trkpt lat="42.77639" lon="2.38711">
        <ele>801.4</ele>
        <time>2014-11-02T09:29:47Z</time>
      </trkpt>
      <trkpt lat="42.77638" lon="2.3871">
        <ele>801.4</ele>
        <time>2014-11-02T09:29:48Z</time>
      </trkpt>
      <trkpt lat="42.77637" lon="2.38709">
        <ele>801.88</ele>
        <time>2014-11-02T09:29:49Z</time>
      </trkpt>
      <trkpt lat="42.77635" lon="2.38708">
        <ele>801.88</ele>
        <time>2014-11-02T09:29:50Z</time>
      </trkpt>
      <trkpt lat="42.77633" lon="2.38707">
        <ele>801.88</ele>
        <time>2014-11-02T09:29:51Z</time>
      </trkpt>
      <trkpt lat="42.77631" lon="2.38706">
        <ele>802.36</ele>
        <time>2014-11-02T09:29:52Z</time>
      </trkpt>
      <trkpt lat="42.77629" lon="2.38705">
        <ele>802.36</ele>
        <time>2014-11-02T09:29:53Z</time>
      </trkpt>
      <trkpt lat="42.77628" lon="2.38704">
        <ele>802.36</ele>
        <time>2014-11-02T09:29:54Z</time>
      </trkpt>
      <trkpt lat="42.77626" lon="2.38703">
        <ele>802.84</ele>
        <time>2014-11-02T09:29:55Z</time>
      </trkpt>
      <trkpt lat="42.77624" lon="2.38703">
        <ele>802.84</ele>
        <time>2014-11-02T09:29:56Z</time>
      </trkpt>
      <trkpt lat="42.77623" lon="2.38702">
        <ele>803.32</ele>
        <time>2014-11-02T09:29:57Z</time>
      </trkpt>
      <trkpt lat="42.77622" lon="2.38701">
        <ele>803.32</ele>
        <time>2014-11-02T09:29:58Z</time>
      </trkpt>
      <trkpt lat="42.7762" lon="2.387">
        <ele>803.32</ele>
        <time>2014-11-02T09:29:59Z</time>
      </trkpt>
      <trkpt lat="42.77619" lon="2.38699">
        <ele>803.8</ele>
        <time>2014-11-02T09:30:00Z</time>
      </trkpt>
      <trkpt lat="42.77618" lon="2.38699">
        <ele>803.8</ele>
        <time>2014-11-02T09:30:01Z</time>
      </trkpt>
      <trkpt lat="42.77616" lon="2.38698">
        <ele>803.8</ele>
        <time>2014-11-02T09:30:02Z</time>
      </trkpt>
      <trkpt lat="42.77615" lon="2.38697">
        <ele>804.28</ele>
        <time>2014-11-02T09:30:03Z</time>
      </trkpt>
      <trkpt lat="42.77613" lon="2.38697">
        <ele>804.28</ele>
        <time>2014-11-02T09:30:04Z</time>
      </trkpt>
      <trkpt lat="42.77603" lon="2.38689">
        <ele>805.24</ele>
        <time>2014-11-02T09:30:12Z</time>
      </trkpt>
      <trkpt lat="42.77602" lon="2.38687">
        <ele>805.72</ele>
        <time>2014-11-02T09:30:13Z</time>
      </trkpt>
      <trkpt lat="42.77588" lon="2.38667">
        <ele>807.64</ele>
        <time>2014-11-02T09:30:27Z</time>
      </trkpt>
      <trkpt lat="42.77586" lon="2.38664">
        <ele>808.13</ele>
        <time>2014-11-02T09:30:29Z</time>
      </trkpt>
      <trkpt lat="42.77585" lon="2.38662">
        <ele>808.13</ele>
        <time>2014-11-02T09:30:30Z</time>
      </trkpt>
      <trkpt lat="42.77578" lon="2.38652">
        <ele>808.61</ele>
        <time>2014-11-02T09:30:37Z</time>
      </trkpt>
      <trkpt lat="42.77577" lon="2.3865">
        <ele>809.09</ele>
        <time>2014-11-02T09:30:38Z</time>
      </trkpt>
      <trkpt lat="42.77575" lon="2.38649">
        <ele>809.09</ele>
        <time>2014-11-02T09:30:39Z</time>
      </trkpt>
      <trkpt lat="42.77574" lon="2.38647">
        <ele>809.09</ele>
        <time>2014-11-02T09:30:40Z</time>
      </trkpt>
      <trkpt lat="42.77573" lon="2.38646">
        <ele>809.09</ele>
        <time>2014-11-02T09:30:41Z</time>
      </trkpt>
      <trkpt lat="42.77557" lon="2.38623">
        <ele>811.49</ele>
        <time>2014-11-02T09:30:54Z</time>
      </trkpt>
      <trkpt lat="42.77544" lon="2.38597">
        <ele>813.41</ele>
        <time>2014-11-02T09:31:07Z</time>
      </trkpt>
      <trkpt lat="42.77544" lon="2.38591">
        <ele>813.89</ele>
        <time>2014-11-02T09:31:10Z</time>
      </trkpt>
      <trkpt lat="42.77543" lon="2.38588">
        <ele>813.89</ele>
        <time>2014-11-02T09:31:11Z</time>
      </trkpt>
      <trkpt lat="42.77537" lon="2.38556">
        <ele>815.82</ele>
        <time>2014-11-02T09:31:25Z</time>
      </trkpt>
      <trkpt lat="42.77534" lon="2.38531">
        <ele>817.74</ele>
        <time>2014-11-02T09:31:37Z</time>
      </trkpt>
      <trkpt lat="42.77533" lon="2.38501">
        <ele>819.66</ele>
        <time>2014-11-02T09:31:50Z</time>
      </trkpt>
      <trkpt lat="42.77532" lon="2.38492">
        <ele>820.14</ele>
        <time>2014-11-02T09:31:54Z</time>
      </trkpt>
      <trkpt lat="42.77532" lon="2.3849">
        <ele>820.14</ele>
        <time>2014-11-02T09:31:55Z</time>
      </trkpt>
      <trkpt lat="42.77532" lon="2.38488">
        <ele>820.62</ele>
        <time>2014-11-02T09:31:56Z</time>
      </trkpt>
      <trkpt lat="42.77532" lon="2.38486">
        <ele>820.62</ele>
        <time>2014-11-02T09:31:57Z</time>
      </trkpt>
      <trkpt lat="42.77532" lon="2.38484">
        <ele>820.62</ele>
        <time>2014-11-02T09:31:58Z</time>
      </trkpt>
      <trkpt lat="42.7753" lon="2.38462">
        <ele>822.55</ele>
        <time>2014-11-02T09:32:09Z</time>
      </trkpt>
      <trkpt lat="42.77528" lon="2.38434">
        <ele>824.47</ele>
        <time>2014-11-02T09:32:22Z</time>
      </trkpt>
      <trkpt lat="42.77527" lon="2.38432">
        <ele>824.47</ele>
        <time>2014-11-02T09:32:23Z</time>
      </trkpt>
      <trkpt lat="42.7752" lon="2.38402">
        <ele>826.87</ele>
        <time>2014-11-02T09:32:37Z</time>
      </trkpt>
      <trkpt lat="42.77513" lon="2.38383">
        <ele>828.31</ele>
        <time>2014-11-02T09:32:47Z</time>
      </trkpt>
      <trkpt lat="42.77513" lon="2.38381">
        <ele>828.31</ele>
        <time>2014-11-02T09:32:48Z</time>
      </trkpt>
      <trkpt lat="42.77512" lon="2.38379">
        <ele>828.79</ele>
        <time>2014-11-02T09:32:49Z</time>
      </trkpt>
      <trkpt lat="42.775" lon="2.38355">
        <ele>830.72</ele>
        <time>2014-11-02T09:33:02Z</time>
      </trkpt>
      <trkpt lat="42.77497" lon="2.38349">
        <ele>831.2</ele>
        <time>2014-11-02T09:33:05Z</time>
      </trkpt>
      <trkpt lat="42.77478" lon="2.3833">
        <ele>833.12</ele>
        <time>2014-11-02T09:33:18Z</time>
      </trkpt>
      <trkpt lat="42.77471" lon="2.38325">
        <ele>833.6</ele>
        <time>2014-11-02T09:33:22Z</time>
      </trkpt>
      <trkpt lat="42.7747" lon="2.38324">
        <ele>834.08</ele>
        <time>2014-11-02T09:33:23Z</time>
      </trkpt>
      <trkpt lat="42.77468" lon="2.38324">
        <ele>834.08</ele>
        <time>2014-11-02T09:33:24Z</time>
      </trkpt>
      <trkpt lat="42.77466" lon="2.38323">
        <ele>834.08</ele>
        <time>2014-11-02T09:33:25Z</time>
      </trkpt>
      <trkpt lat="42.77464" lon="2.38322">
        <ele>834.56</ele>
        <time>2014-11-02T09:33:26Z</time>
      </trkpt>
      <trkpt lat="42.77462" lon="2.38322">
        <ele>834.56</ele>
        <time>2014-11-02T09:33:27Z</time>
      </trkpt>
      <trkpt lat="42.7746" lon="2.38322">
        <ele>834.56</ele>
        <time>2014-11-02T09:33:28Z</time>
      </trkpt>
      <trkpt lat="42.77458" lon="2.38322">
        <ele>835.04</ele>
        <time>2014-11-02T09:33:29Z</time>
      </trkpt>
      <trkpt lat="42.77456" lon="2.38321">
        <ele>835.04</ele>
        <time>2014-11-02T09:33:30Z</time>
      </trkpt>
      <trkpt lat="42.77453" lon="2.38321">
        <ele>835.04</ele>
        <time>2014-11-02T09:33:32Z</time>
      </trkpt>
      <trkpt lat="42.77452" lon="2.3832">
        <ele>835.52</ele>
        <time>2014-11-02T09:33:33Z</time>
      </trkpt>
      <trkpt lat="42.7745" lon="2.3832">
        <ele>835.52</ele>
        <time>2014-11-02T09:33:34Z</time>
      </trkpt>
      <trkpt lat="42.77448" lon="2.3832">
        <ele>835.52</ele>
        <time>2014-11-02T09:33:35Z</time>
      </trkpt>
      <trkpt lat="42.77447" lon="2.3832">
        <ele>836</ele>
        <time>2014-11-02T09:33:36Z</time>
      </trkpt>
      <trkpt lat="42.77445" lon="2.3832">
        <ele>836</ele>
        <time>2014-11-02T09:33:37Z</time>
      </trkpt>
      <trkpt lat="42.77443" lon="2.38321">
        <ele>836.48</ele>
        <time>2014-11-02T09:33:38Z</time>
      </trkpt>
      <trkpt lat="42.77441" lon="2.38321">
        <ele>836.48</ele>
        <time>2014-11-02T09:33:39Z</time>
      </trkpt>
      <trkpt lat="42.77439" lon="2.38321">
        <ele>836.48</ele>
        <time>2014-11-02T09:33:40Z</time>
      </trkpt>
      <trkpt lat="42.77423" lon="2.3832">
        <ele>838.41</ele>
        <time>2014-11-02T09:33:49Z</time>
      </trkpt>
      <trkpt lat="42.77399" lon="2.38325">
        <ele>840.81</ele>
        <time>2014-11-02T09:34:03Z</time>
      </trkpt>
      <trkpt lat="42.77379" lon="2.38327">
        <ele>842.73</ele>
        <time>2014-11-02T09:34:14Z</time>
      </trkpt>
      <trkpt lat="42.77377" lon="2.38327">
        <ele>842.73</ele>
        <time>2014-11-02T09:34:15Z</time>
      </trkpt>
      <trkpt lat="42.77359" lon="2.38312">
        <ele>844.66</ele>
        <time>2014-11-02T09:34:27Z</time>
      </trkpt>
      <trkpt lat="42.77358" lon="2.3831">
        <ele>844.66</ele>
        <time>2014-11-02T09:34:28Z</time>
      </trkpt>
      <trkpt lat="42.77356" lon="2.38309">
        <ele>845.14</ele>
        <time>2014-11-02T09:34:29Z</time>
      </trkpt>
      <trkpt lat="42.77355" lon="2.38307">
        <ele>845.14</ele>
        <time>2014-11-02T09:34:30Z</time>
      </trkpt>
      <trkpt lat="42.77353" lon="2.38306">
        <ele>845.62</ele>
        <time>2014-11-02T09:34:31Z</time>
      </trkpt>
      <trkpt lat="42.7733" lon="2.38291">
        <ele>848.02</ele>
        <time>2014-11-02T09:34:46Z</time>
      </trkpt>
      <trkpt lat="42.7732" lon="2.38285">
        <ele>848.98</ele>
        <time>2014-11-02T09:34:53Z</time>
      </trkpt>
      <trkpt lat="42.77318" lon="2.38284">
        <ele>848.98</ele>
        <time>2014-11-02T09:34:54Z</time>
      </trkpt>
      <trkpt lat="42.77317" lon="2.38283">
        <ele>849.46</ele>
        <time>2014-11-02T09:34:55Z</time>
      </trkpt>
      <trkpt lat="42.77309" lon="2.38279">
        <ele>849.94</ele>
        <time>2014-11-02T09:35:00Z</time>
      </trkpt>
      <trkpt lat="42.77307" lon="2.38278">
        <ele>850.42</ele>
        <time>2014-11-02T09:35:01Z</time>
      </trkpt>
      <trkpt lat="42.77306" lon="2.38277">
        <ele>850.42</ele>
        <time>2014-11-02T09:35:02Z</time>
      </trkpt>
      <trkpt lat="42.77286" lon="2.38263">
        <ele>852.35</ele>
        <time>2014-11-02T09:35:15Z</time>
      </trkpt>
      <trkpt lat="42.77267" lon="2.38251">
        <ele>854.75</ele>
        <time>2014-11-02T09:35:28Z</time>
      </trkpt>
      <trkpt lat="42.77248" lon="2.38234">
        <ele>856.67</ele>
        <time>2014-11-02T09:35:42Z</time>
      </trkpt>
      <trkpt lat="42.77226" lon="2.38218">
        <ele>859.56</ele>
        <time>2014-11-02T09:35:57Z</time>
      </trkpt>
      <trkpt lat="42.77223" lon="2.38216">
        <ele>859.56</ele>
        <time>2014-11-02T09:35:59Z</time>
      </trkpt>
      <trkpt lat="42.77222" lon="2.38215">
        <ele>860.04</ele>
        <time>2014-11-02T09:36:00Z</time>
      </trkpt>
      <trkpt lat="42.77203" lon="2.38201">
        <ele>861.96</ele>
        <time>2014-11-02T09:36:13Z</time>
      </trkpt>
      <trkpt lat="42.77194" lon="2.38196">
        <ele>862.92</ele>
        <time>2014-11-02T09:36:19Z</time>
      </trkpt>
      <trkpt lat="42.7718" lon="2.38185">
        <ele>864.84</ele>
        <time>2014-11-02T09:36:32Z</time>
      </trkpt>
      <trkpt lat="42.77178" lon="2.38184">
        <ele>864.84</ele>
        <time>2014-11-02T09:36:33Z</time>
      </trkpt>
      <trkpt lat="42.77177" lon="2.38184">
        <ele>864.84</ele>
        <time>2014-11-02T09:36:34Z</time>
      </trkpt>
      <trkpt lat="42.77172" lon="2.38181">
        <ele>865.8</ele>
        <time>2014-11-02T09:36:38Z</time>
      </trkpt>
      <trkpt lat="42.7716" lon="2.38175">
        <ele>867.25</ele>
        <time>2014-11-02T09:36:48Z</time>
      </trkpt>
      <trkpt lat="42.77154" lon="2.38168">
        <ele>869.17</ele>
        <time>2014-11-02T09:36:55Z</time>
      </trkpt>
      <trkpt lat="42.77153" lon="2.38165">
        <ele>869.65</ele>
        <time>2014-11-02T09:36:57Z</time>
      </trkpt>
      <trkpt lat="42.77153" lon="2.38162">
        <ele>869.65</ele>
        <time>2014-11-02T09:36:58Z</time>
      </trkpt>
      <trkpt lat="42.77154" lon="2.38159">
        <ele>869.65</ele>
        <time>2014-11-02T09:36:59Z</time>
      </trkpt>
      <trkpt lat="42.77155" lon="2.38157">
        <ele>870.13</ele>
        <time>2014-11-02T09:37:00Z</time>
      </trkpt>
      <trkpt lat="42.77156" lon="2.38155">
        <ele>869.65</ele>
        <time>2014-11-02T09:37:01Z</time>
      </trkpt>
      <trkpt lat="42.77161" lon="2.38147">
        <ele>870.13</ele>
        <time>2014-11-02T09:37:05Z</time>
      </trkpt>
      <trkpt lat="42.77163" lon="2.38146">
        <ele>870.13</ele>
        <time>2014-11-02T09:37:06Z</time>
      </trkpt>
      <trkpt lat="42.7719" lon="2.3811">
        <ele>871.57</ele>
        <time>2014-11-02T09:37:23Z</time>
      </trkpt>
      <trkpt lat="42.77194" lon="2.38106">
        <ele>872.05</ele>
        <time>2014-11-02T09:37:26Z</time>
      </trkpt>
      <trkpt lat="42.77195" lon="2.38105">
        <ele>872.05</ele>
        <time>2014-11-02T09:37:27Z</time>
      </trkpt>
      <trkpt lat="42.77204" lon="2.38102">
        <ele>873.01</ele>
        <time>2014-11-02T09:37:41Z</time>
      </trkpt>
      <trkpt lat="42.77203" lon="2.38102">
        <ele>872.05</ele>
        <time>2014-11-02T09:38:01Z</time>
      </trkpt>
      <trkpt lat="42.77203" lon="2.38102">
        <ele>872.53</ele>
        <time>2014-11-02T09:38:27Z</time>
      </trkpt>
      <trkpt lat="42.77204" lon="2.38102">
        <ele>872.53</ele>
        <time>2014-11-02T09:38:59Z</time>
      </trkpt>
      <trkpt lat="42.77204" lon="2.38103">
        <ele>872.53</ele>
        <time>2014-11-02T09:39:31Z</time>
      </trkpt>
      <trkpt lat="42.77203" lon="2.38103">
        <ele>872.53</ele>
        <time>2014-11-02T09:40:03Z</time>
      </trkpt>
      <trkpt lat="42.77203" lon="2.38104">
        <ele>873.01</ele>
        <time>2014-11-02T09:40:34Z</time>
      </trkpt>
      <trkpt lat="42.77201" lon="2.38099">
        <ele>873.5</ele>
        <time>2014-11-02T09:40:47Z</time>
      </trkpt>
      <trkpt lat="42.77202" lon="2.38098">
        <ele>873.5</ele>
        <time>2014-11-02T09:41:11Z</time>
      </trkpt>
      <trkpt lat="42.77201" lon="2.38097">
        <ele>873.5</ele>
        <time>2014-11-02T09:41:35Z</time>
      </trkpt>
      <trkpt lat="42.772" lon="2.38097">
        <ele>873.5</ele>
        <time>2014-11-02T09:42:07Z</time>
      </trkpt>
      <trkpt lat="42.77199" lon="2.38097">
        <ele>873.5</ele>
        <time>2014-11-02T09:42:41Z</time>
      </trkpt>
      <trkpt lat="42.77199" lon="2.38096">
        <ele>873.5</ele>
        <time>2014-11-02T09:43:12Z</time>
      </trkpt>
      <trkpt lat="42.77201" lon="2.38096">
        <ele>873.5</ele>
        <time>2014-11-02T09:43:41Z</time>
      </trkpt>
      <trkpt lat="42.77201" lon="2.38097">
        <ele>873.5</ele>
        <time>2014-11-02T09:43:56Z</time>
      </trkpt>
      <trkpt lat="42.77201" lon="2.38096">
        <ele>873.98</ele>
        <time>2014-11-02T09:44:21Z</time>
      </trkpt>
      <trkpt lat="42.77201" lon="2.38097">
        <ele>873.5</ele>
        <time>2014-11-02T09:44:48Z</time>
      </trkpt>
      <trkpt lat="42.77201" lon="2.38098">
        <ele>873.5</ele>
        <time>2014-11-02T09:45:07Z</time>
      </trkpt>
      <trkpt lat="42.772" lon="2.38097">
        <ele>873.5</ele>
        <time>2014-11-02T09:45:08Z</time>
      </trkpt>
      <trkpt lat="42.77199" lon="2.38096">
        <ele>873.5</ele>
        <time>2014-11-02T09:45:09Z</time>
      </trkpt>
      <trkpt lat="42.77194" lon="2.3809">
        <ele>873.01</ele>
        <time>2014-11-02T09:45:12Z</time>
      </trkpt>
      <trkpt lat="42.77193" lon="2.38088">
        <ele>873.5</ele>
        <time>2014-11-02T09:45:13Z</time>
      </trkpt>
      <trkpt lat="42.77192" lon="2.38084">
        <ele>873.01</ele>
        <time>2014-11-02T09:45:14Z</time>
      </trkpt>
      <trkpt lat="42.77191" lon="2.38081">
        <ele>873.01</ele>
        <time>2014-11-02T09:45:15Z</time>
      </trkpt>
      <trkpt lat="42.77191" lon="2.38078">
        <ele>873.01</ele>
        <time>2014-11-02T09:45:16Z</time>
      </trkpt>
      <trkpt lat="42.77181" lon="2.38038">
        <ele>871.57</ele>
        <time>2014-11-02T09:45:24Z</time>
      </trkpt>
      <trkpt lat="42.7716" lon="2.37979">
        <ele>869.65</ele>
        <time>2014-11-02T09:45:34Z</time>
      </trkpt>
      <trkpt lat="42.77146" lon="2.37951">
        <ele>868.21</ele>
        <time>2014-11-02T09:45:39Z</time>
      </trkpt>
      <trkpt lat="42.77142" lon="2.37945">
        <ele>867.25</ele>
        <time>2014-11-02T09:45:40Z</time>
      </trkpt>
      <trkpt lat="42.77099" lon="2.37887">
        <ele>864.36</ele>
        <time>2014-11-02T09:45:50Z</time>
      </trkpt>
      <trkpt lat="42.77078" lon="2.37844">
        <ele>864.36</ele>
        <time>2014-11-02T09:45:55Z</time>
      </trkpt>
      <trkpt lat="42.77075" lon="2.37832">
        <ele>863.88</ele>
        <time>2014-11-02T09:45:56Z</time>
      </trkpt>
      <trkpt lat="42.77074" lon="2.37823">
        <ele>863.88</ele>
        <time>2014-11-02T09:45:57Z</time>
      </trkpt>
      <trkpt lat="42.77074" lon="2.37814">
        <ele>863.88</ele>
        <time>2014-11-02T09:45:58Z</time>
      </trkpt>
      <trkpt lat="42.77076" lon="2.37805">
        <ele>863.88</ele>
        <time>2014-11-02T09:45:59Z</time>
      </trkpt>
      <trkpt lat="42.77079" lon="2.37797">
        <ele>863.4</ele>
        <time>2014-11-02T09:46:00Z</time>
      </trkpt>
      <trkpt lat="42.77082" lon="2.37788">
        <ele>863.4</ele>
        <time>2014-11-02T09:46:01Z</time>
      </trkpt>
      <trkpt lat="42.77099" lon="2.37746">
        <ele>861.48</ele>
        <time>2014-11-02T09:46:06Z</time>
      </trkpt>
      <trkpt lat="42.7711" lon="2.37723">
        <ele>860.04</ele>
        <time>2014-11-02T09:46:09Z</time>
      </trkpt>
      <trkpt lat="42.77111" lon="2.37716">
        <ele>859.56</ele>
        <time>2014-11-02T09:46:10Z</time>
      </trkpt>
      <trkpt lat="42.77111" lon="2.3771">
        <ele>859.56</ele>
        <time>2014-11-02T09:46:11Z</time>
      </trkpt>
      <trkpt lat="42.7711" lon="2.37704">
        <ele>859.56</ele>
        <time>2014-11-02T09:46:12Z</time>
      </trkpt>
      <trkpt lat="42.77107" lon="2.37698">
        <ele>859.08</ele>
        <time>2014-11-02T09:46:13Z</time>
      </trkpt>
      <trkpt lat="42.77104" lon="2.37692">
        <ele>858.59</ele>
        <time>2014-11-02T09:46:14Z</time>
      </trkpt>
      <trkpt lat="42.77101" lon="2.37687">
        <ele>858.59</ele>
        <time>2014-11-02T09:46:15Z</time>
      </trkpt>
      <trkpt lat="42.77097" lon="2.37682">
        <ele>858.11</ele>
        <time>2014-11-02T09:46:16Z</time>
      </trkpt>
      <trkpt lat="42.77093" lon="2.37678">
        <ele>858.11</ele>
        <time>2014-11-02T09:46:17Z</time>
      </trkpt>
      <trkpt lat="42.77084" lon="2.37668">
        <ele>857.63</ele>
        <time>2014-11-02T09:46:19Z</time>
      </trkpt>
      <trkpt lat="42.77022" lon="2.37626">
        <ele>856.19</ele>
        <time>2014-11-02T09:46:32Z</time>
      </trkpt>
      <trkpt lat="42.77017" lon="2.37621">
        <ele>855.71</ele>
        <time>2014-11-02T09:46:33Z</time>
      </trkpt>
      <trkpt lat="42.77014" lon="2.37617">
        <ele>855.71</ele>
        <time>2014-11-02T09:46:34Z</time>
      </trkpt>
      <trkpt lat="42.7701" lon="2.37609">
        <ele>855.71</ele>
        <time>2014-11-02T09:46:35Z</time>
      </trkpt>
      <trkpt lat="42.77008" lon="2.37601">
        <ele>855.71</ele>
        <time>2014-11-02T09:46:36Z</time>
      </trkpt>
      <trkpt lat="42.77005" lon="2.37594">
        <ele>855.71</ele>
        <time>2014-11-02T09:46:37Z</time>
      </trkpt>
      <trkpt lat="42.77002" lon="2.37587">
        <ele>855.71</ele>
        <time>2014-11-02T09:46:38Z</time>
      </trkpt>
      <trkpt lat="42.76999" lon="2.3758">
        <ele>855.23</ele>
        <time>2014-11-02T09:46:39Z</time>
      </trkpt>
      <trkpt lat="42.76945" lon="2.37494">
        <ele>854.27</ele>
        <time>2014-11-02T09:46:52Z</time>
      </trkpt>
      <trkpt lat="42.76929" lon="2.37467">
        <ele>854.27</ele>
        <time>2014-11-02T09:46:56Z</time>
      </trkpt>
      <trkpt lat="42.76907" lon="2.3743">
        <ele>855.23</ele>
        <time>2014-11-02T09:47:03Z</time>
      </trkpt>
      <trkpt lat="42.76907" lon="2.37425">
        <ele>855.23</ele>
        <time>2014-11-02T09:47:04Z</time>
      </trkpt>
      <trkpt lat="42.76908" lon="2.37422">
        <ele>855.71</ele>
        <time>2014-11-02T09:47:05Z</time>
      </trkpt>
      <trkpt lat="42.7691" lon="2.37418">
        <ele>855.71</ele>
        <time>2014-11-02T09:47:06Z</time>
      </trkpt>
      <trkpt lat="42.76912" lon="2.37416">
        <ele>855.71</ele>
        <time>2014-11-02T09:47:07Z</time>
      </trkpt>
      <trkpt lat="42.76915" lon="2.37414">
        <ele>855.71</ele>
        <time>2014-11-02T09:47:08Z</time>
      </trkpt>
      <trkpt lat="42.76918" lon="2.37413">
        <ele>855.71</ele>
        <time>2014-11-02T09:47:09Z</time>
      </trkpt>
      <trkpt lat="42.76921" lon="2.37412">
        <ele>856.19</ele>
        <time>2014-11-02T09:47:10Z</time>
      </trkpt>
      <trkpt lat="42.76956" lon="2.37399">
        <ele>857.15</ele>
        <time>2014-11-02T09:47:21Z</time>
      </trkpt>
      <trkpt lat="42.7699" lon="2.37367">
        <ele>858.59</ele>
        <time>2014-11-02T09:47:34Z</time>
      </trkpt>
      <trkpt lat="42.77025" lon="2.37347">
        <ele>859.56</ele>
        <time>2014-11-02T09:47:46Z</time>
      </trkpt>
      <trkpt lat="42.77059" lon="2.3733">
        <ele>861</ele>
        <time>2014-11-02T09:47:58Z</time>
      </trkpt>
      <trkpt lat="42.77089" lon="2.37292">
        <ele>862.44</ele>
        <time>2014-11-02T09:48:09Z</time>
      </trkpt>
      <trkpt lat="42.77121" lon="2.37254">
        <ele>863.88</ele>
        <time>2014-11-02T09:48:22Z</time>
      </trkpt>
      <trkpt lat="42.77146" lon="2.37206">
        <ele>864.84</ele>
        <time>2014-11-02T09:48:33Z</time>
      </trkpt>
      <trkpt lat="42.77146" lon="2.37187">
        <ele>865.8</ele>
        <time>2014-11-02T09:48:38Z</time>
      </trkpt>
      <trkpt lat="42.77144" lon="2.37184">
        <ele>865.8</ele>
        <time>2014-11-02T09:48:39Z</time>
      </trkpt>
      <trkpt lat="42.77142" lon="2.37181">
        <ele>865.8</ele>
        <time>2014-11-02T09:48:40Z</time>
      </trkpt>
      <trkpt lat="42.77139" lon="2.37179">
        <ele>866.29</ele>
        <time>2014-11-02T09:48:41Z</time>
      </trkpt>
      <trkpt lat="42.77135" lon="2.37176">
        <ele>866.29</ele>
        <time>2014-11-02T09:48:42Z</time>
      </trkpt>
      <trkpt lat="42.7713" lon="2.37173">
        <ele>866.29</ele>
        <time>2014-11-02T09:48:43Z</time>
      </trkpt>
      <trkpt lat="42.77126" lon="2.37172">
        <ele>866.29</ele>
        <time>2014-11-02T09:48:44Z</time>
      </trkpt>
      <trkpt lat="42.77118" lon="2.3717">
        <ele>866.77</ele>
        <time>2014-11-02T09:48:46Z</time>
      </trkpt>
      <trkpt lat="42.77067" lon="2.37179">
        <ele>866.29</ele>
        <time>2014-11-02T09:48:58Z</time>
      </trkpt>
      <trkpt lat="42.77063" lon="2.37181">
        <ele>866.29</ele>
        <time>2014-11-02T09:48:59Z</time>
      </trkpt>
      <trkpt lat="42.7703" lon="2.3719">
        <ele>865.8</ele>
        <time>2014-11-02T09:49:06Z</time>
      </trkpt>
      <trkpt lat="42.77001" lon="2.37193">
        <ele>865.8</ele>
        <time>2014-11-02T09:49:12Z</time>
      </trkpt>
      <trkpt lat="42.7697" lon="2.37196">
        <ele>866.29</ele>
        <time>2014-11-02T09:49:19Z</time>
      </trkpt>
      <trkpt lat="42.76965" lon="2.37195">
        <ele>866.29</ele>
        <time>2014-11-02T09:49:20Z</time>
      </trkpt>
      <trkpt lat="42.76951" lon="2.37192">
        <ele>865.8</ele>
        <time>2014-11-02T09:49:23Z</time>
      </trkpt>
      <trkpt lat="42.76938" lon="2.3719">
        <ele>865.8</ele>
        <time>2014-11-02T09:49:26Z</time>
      </trkpt>
      <trkpt lat="42.76933" lon="2.37187">
        <ele>865.8</ele>
        <time>2014-11-02T09:49:27Z</time>
      </trkpt>
      <trkpt lat="42.76929" lon="2.37185">
        <ele>865.8</ele>
        <time>2014-11-02T09:49:28Z</time>
      </trkpt>
      <trkpt lat="42.76925" lon="2.37182">
        <ele>865.32</ele>
        <time>2014-11-02T09:49:29Z</time>
      </trkpt>
      <trkpt lat="42.76922" lon="2.37177">
        <ele>865.32</ele>
        <time>2014-11-02T09:49:30Z</time>
      </trkpt>
      <trkpt lat="42.76918" lon="2.37173">
        <ele>865.32</ele>
        <time>2014-11-02T09:49:31Z</time>
      </trkpt>
      <trkpt lat="42.76914" lon="2.37168">
        <ele>864.84</ele>
        <time>2014-11-02T09:49:32Z</time>
      </trkpt>
      <trkpt lat="42.76895" lon="2.37146">
        <ele>863.88</ele>
        <time>2014-11-02T09:49:37Z</time>
      </trkpt>
      <trkpt lat="42.76844" lon="2.37124">
        <ele>860.52</ele>
        <time>2014-11-02T09:49:47Z</time>
      </trkpt>
      <trkpt lat="42.76808" lon="2.37105">
        <ele>857.63</ele>
        <time>2014-11-02T09:49:53Z</time>
      </trkpt>
      <trkpt lat="42.76777" lon="2.37099">
        <ele>855.23</ele>
        <time>2014-11-02T09:49:57Z</time>
      </trkpt>
      <trkpt lat="42.76769" lon="2.37097">
        <ele>854.75</ele>
        <time>2014-11-02T09:49:58Z</time>
      </trkpt>
      <trkpt lat="42.76731" lon="2.37084">
        <ele>855.23</ele>
        <time>2014-11-02T09:50:04Z</time>
      </trkpt>
      <trkpt lat="42.76727" lon="2.37081">
        <ele>855.23</ele>
        <time>2014-11-02T09:50:05Z</time>
      </trkpt>
      <trkpt lat="42.76724" lon="2.37077">
        <ele>855.23</ele>
        <time>2014-11-02T09:50:06Z</time>
      </trkpt>
      <trkpt lat="42.76723" lon="2.37073">
        <ele>855.23</ele>
        <time>2014-11-02T09:50:07Z</time>
      </trkpt>
      <trkpt lat="42.76722" lon="2.37067">
        <ele>855.71</ele>
        <time>2014-11-02T09:50:08Z</time>
      </trkpt>
      <trkpt lat="42.76722" lon="2.37061">
        <ele>855.23</ele>
        <time>2014-11-02T09:50:09Z</time>
      </trkpt>
      <trkpt lat="42.76723" lon="2.37056">
        <ele>855.71</ele>
        <time>2014-11-02T09:50:10Z</time>
      </trkpt>
      <trkpt lat="42.76725" lon="2.37053">
        <ele>855.71</ele>
        <time>2014-11-02T09:50:11Z</time>
      </trkpt>
      <trkpt lat="42.76742" lon="2.37">
        <ele>858.11</ele>
        <time>2014-11-02T09:50:22Z</time>
      </trkpt>
      <trkpt lat="42.76752" lon="2.3696">
        <ele>860.52</ele>
        <time>2014-11-02T09:50:34Z</time>
      </trkpt>
      <trkpt lat="42.7676" lon="2.36915">
        <ele>862.92</ele>
        <time>2014-11-02T09:50:49Z</time>
      </trkpt>
      <trkpt lat="42.76773" lon="2.36876">
        <ele>864.36</ele>
        <time>2014-11-02T09:51:01Z</time>
      </trkpt>
      <trkpt lat="42.76773" lon="2.36873">
        <ele>864.36</ele>
        <time>2014-11-02T09:51:02Z</time>
      </trkpt>
      <trkpt lat="42.76773" lon="2.36871">
        <ele>864.36</ele>
        <time>2014-11-02T09:51:03Z</time>
      </trkpt>
      <trkpt lat="42.76772" lon="2.36863">
        <ele>864.84</ele>
        <time>2014-11-02T09:51:05Z</time>
      </trkpt>
      <trkpt lat="42.76772" lon="2.3686">
        <ele>864.84</ele>
        <time>2014-11-02T09:51:06Z</time>
      </trkpt>
      <trkpt lat="42.7677" lon="2.36857">
        <ele>865.32</ele>
        <time>2014-11-02T09:51:07Z</time>
      </trkpt>
      <trkpt lat="42.7675" lon="2.36832">
        <ele>867.25</ele>
        <time>2014-11-02T09:51:22Z</time>
      </trkpt>
      <trkpt lat="42.76734" lon="2.36817">
        <ele>869.17</ele>
        <time>2014-11-02T09:51:34Z</time>
      </trkpt>
      <trkpt lat="42.76705" lon="2.36797">
        <ele>871.09</ele>
        <time>2014-11-02T09:51:50Z</time>
      </trkpt>
      <trkpt lat="42.76687" lon="2.36784">
        <ele>872.53</ele>
        <time>2014-11-02T09:52:01Z</time>
      </trkpt>
      <trkpt lat="42.76665" lon="2.36764">
        <ele>873.98</ele>
        <time>2014-11-02T09:52:13Z</time>
      </trkpt>
      <trkpt lat="42.76657" lon="2.36758">
        <ele>874.94</ele>
        <time>2014-11-02T09:52:17Z</time>
      </trkpt>
      <trkpt lat="42.76656" lon="2.36756">
        <ele>874.94</ele>
        <time>2014-11-02T09:52:18Z</time>
      </trkpt>
      <trkpt lat="42.76626" lon="2.36737">
        <ele>876.86</ele>
        <time>2014-11-02T09:52:32Z</time>
      </trkpt>
      <trkpt lat="42.76602" lon="2.36726">
        <ele>878.3</ele>
        <time>2014-11-02T09:52:44Z</time>
      </trkpt>
      <trkpt lat="42.76577" lon="2.3672">
        <ele>879.74</ele>
        <time>2014-11-02T09:52:56Z</time>
      </trkpt>
      <trkpt lat="42.76569" lon="2.36719">
        <ele>880.71</ele>
        <time>2014-11-02T09:53:01Z</time>
      </trkpt>
      <trkpt lat="42.76567" lon="2.3672">
        <ele>880.71</ele>
        <time>2014-11-02T09:53:02Z</time>
      </trkpt>
      <trkpt lat="42.76566" lon="2.36719">
        <ele>880.71</ele>
        <time>2014-11-02T09:53:03Z</time>
      </trkpt>
      <trkpt lat="42.76564" lon="2.36719">
        <ele>880.71</ele>
        <time>2014-11-02T09:53:04Z</time>
      </trkpt>
      <trkpt lat="42.76562" lon="2.36718">
        <ele>881.19</ele>
        <time>2014-11-02T09:53:05Z</time>
      </trkpt>
      <trkpt lat="42.76556" lon="2.36714">
        <ele>881.67</ele>
        <time>2014-11-02T09:53:08Z</time>
      </trkpt>
      <trkpt lat="42.76554" lon="2.36712">
        <ele>881.67</ele>
        <time>2014-11-02T09:53:09Z</time>
      </trkpt>
      <trkpt lat="42.76553" lon="2.36711">
        <ele>881.67</ele>
        <time>2014-11-02T09:53:10Z</time>
      </trkpt>
      <trkpt lat="42.76553" lon="2.36709">
        <ele>881.67</ele>
        <time>2014-11-02T09:53:11Z</time>
      </trkpt>
      <trkpt lat="42.76553" lon="2.36707">
        <ele>881.67</ele>
        <time>2014-11-02T09:53:12Z</time>
      </trkpt>
      <trkpt lat="42.76553" lon="2.36705">
        <ele>881.67</ele>
        <time>2014-11-02T09:53:13Z</time>
      </trkpt>
      <trkpt lat="42.76563" lon="2.36663">
        <ele>882.63</ele>
        <time>2014-11-02T09:53:24Z</time>
      </trkpt>
      <trkpt lat="42.76557" lon="2.36613">
        <ele>883.11</ele>
        <time>2014-11-02T09:53:34Z</time>
      </trkpt>
      <trkpt lat="42.76557" lon="2.36608">
        <ele>883.11</ele>
        <time>2014-11-02T09:53:35Z</time>
      </trkpt>
      <trkpt lat="42.76558" lon="2.36603">
        <ele>882.63</ele>
        <time>2014-11-02T09:53:36Z</time>
      </trkpt>
      <trkpt lat="42.76559" lon="2.36598">
        <ele>883.11</ele>
        <time>2014-11-02T09:53:37Z</time>
      </trkpt>
      <trkpt lat="42.76561" lon="2.36593">
        <ele>883.11</ele>
        <time>2014-11-02T09:53:38Z</time>
      </trkpt>
      <trkpt lat="42.76563" lon="2.36589">
        <ele>883.11</ele>
        <time>2014-11-02T09:53:39Z</time>
      </trkpt>
      <trkpt lat="42.76565" lon="2.36584">
        <ele>883.11</ele>
        <time>2014-11-02T09:53:40Z</time>
      </trkpt>
      <trkpt lat="42.76567" lon="2.36579">
        <ele>883.11</ele>
        <time>2014-11-02T09:53:41Z</time>
      </trkpt>
      <trkpt lat="42.7658" lon="2.36528">
        <ele>883.59</ele>
        <time>2014-11-02T09:53:51Z</time>
      </trkpt>
      <trkpt lat="42.76587" lon="2.36518">
        <ele>883.59</ele>
        <time>2014-11-02T09:53:53Z</time>
      </trkpt>
      <trkpt lat="42.76591" lon="2.36513">
        <ele>883.59</ele>
        <time>2014-11-02T09:53:54Z</time>
      </trkpt>
      <trkpt lat="42.76595" lon="2.3651">
        <ele>883.59</ele>
        <time>2014-11-02T09:53:55Z</time>
      </trkpt>
      <trkpt lat="42.76629" lon="2.36487">
        <ele>885.03</ele>
        <time>2014-11-02T09:54:06Z</time>
      </trkpt>
      <trkpt lat="42.76667" lon="2.36458">
        <ele>885.99</ele>
        <time>2014-11-02T09:54:18Z</time>
      </trkpt>
      <trkpt lat="42.76698" lon="2.3643">
        <ele>887.43</ele>
        <time>2014-11-02T09:54:30Z</time>
      </trkpt>
      <trkpt lat="42.76716" lon="2.36411">
        <ele>887.91</ele>
        <time>2014-11-02T09:54:36Z</time>
      </trkpt>
      <trkpt lat="42.76719" lon="2.36406">
        <ele>887.91</ele>
        <time>2014-11-02T09:54:37Z</time>
      </trkpt>
      <trkpt lat="42.7672" lon="2.36401">
        <ele>888.4</ele>
        <time>2014-11-02T09:54:38Z</time>
      </trkpt>
      <trkpt lat="42.76721" lon="2.36396">
        <ele>887.91</ele>
        <time>2014-11-02T09:54:39Z</time>
      </trkpt>
      <trkpt lat="42.7672" lon="2.3639">
        <ele>888.4</ele>
        <time>2014-11-02T09:54:40Z</time>
      </trkpt>
      <trkpt lat="42.76719" lon="2.36385">
        <ele>888.4</ele>
        <time>2014-11-02T09:54:41Z</time>
      </trkpt>
      <trkpt lat="42.76716" lon="2.36381">
        <ele>887.91</ele>
        <time>2014-11-02T09:54:42Z</time>
      </trkpt>
      <trkpt lat="42.76714" lon="2.36376">
        <ele>888.4</ele>
        <time>2014-11-02T09:54:43Z</time>
      </trkpt>
      <trkpt lat="42.76713" lon="2.36371">
        <ele>888.4</ele>
        <time>2014-11-02T09:54:44Z</time>
      </trkpt>
      <trkpt lat="42.76706" lon="2.36358">
        <ele>888.4</ele>
        <time>2014-11-02T09:54:47Z</time>
      </trkpt>
      <trkpt lat="42.76697" lon="2.36346">
        <ele>887.91</ele>
        <time>2014-11-02T09:54:50Z</time>
      </trkpt>
      <trkpt lat="42.76662" lon="2.36324">
        <ele>888.88</ele>
        <time>2014-11-02T09:55:00Z</time>
      </trkpt>
      <trkpt lat="42.76612" lon="2.36311">
        <ele>888.88</ele>
        <time>2014-11-02T09:55:13Z</time>
      </trkpt>
      <trkpt lat="42.76576" lon="2.36287">
        <ele>889.36</ele>
        <time>2014-11-02T09:55:23Z</time>
      </trkpt>
      <trkpt lat="42.76533" lon="2.36248">
        <ele>889.84</ele>
        <time>2014-11-02T09:55:35Z</time>
      </trkpt>
      <trkpt lat="42.76507" lon="2.36218">
        <ele>890.32</ele>
        <time>2014-11-02T09:55:43Z</time>
      </trkpt>
      <trkpt lat="42.76498" lon="2.36203">
        <ele>890.32</ele>
        <time>2014-11-02T09:55:46Z</time>
      </trkpt>
      <trkpt lat="42.7649" lon="2.36189">
        <ele>890.32</ele>
        <time>2014-11-02T09:55:49Z</time>
      </trkpt>
      <trkpt lat="42.76487" lon="2.36186">
        <ele>890.32</ele>
        <time>2014-11-02T09:55:50Z</time>
      </trkpt>
      <trkpt lat="42.76479" lon="2.3618">
        <ele>890.32</ele>
        <time>2014-11-02T09:55:52Z</time>
      </trkpt>
      <trkpt lat="42.76475" lon="2.36179">
        <ele>890.32</ele>
        <time>2014-11-02T09:55:53Z</time>
      </trkpt>
      <trkpt lat="42.7647" lon="2.36178">
        <ele>890.32</ele>
        <time>2014-11-02T09:55:54Z</time>
      </trkpt>
      <trkpt lat="42.76428" lon="2.36173">
        <ele>890.8</ele>
        <time>2014-11-02T09:56:04Z</time>
      </trkpt>
      <trkpt lat="42.76424" lon="2.36172">
        <ele>890.8</ele>
        <time>2014-11-02T09:56:05Z</time>
      </trkpt>
      <trkpt lat="42.76421" lon="2.36172">
        <ele>890.8</ele>
        <time>2014-11-02T09:56:06Z</time>
      </trkpt>
      <trkpt lat="42.76386" lon="2.3617">
        <ele>891.76</ele>
        <time>2014-11-02T09:56:16Z</time>
      </trkpt>
      <trkpt lat="42.76372" lon="2.36163">
        <ele>891.76</ele>
        <time>2014-11-02T09:56:20Z</time>
      </trkpt>
      <trkpt lat="42.76343" lon="2.36155">
        <ele>891.76</ele>
        <time>2014-11-02T09:56:27Z</time>
      </trkpt>
      <trkpt lat="42.76338" lon="2.36156">
        <ele>891.76</ele>
        <time>2014-11-02T09:56:28Z</time>
      </trkpt>
      <trkpt lat="42.76302" lon="2.36163">
        <ele>892.72</ele>
        <time>2014-11-02T09:56:37Z</time>
      </trkpt>
      <trkpt lat="42.76298" lon="2.36163">
        <ele>892.72</ele>
        <time>2014-11-02T09:56:38Z</time>
      </trkpt>
      <trkpt lat="42.76294" lon="2.36162">
        <ele>892.72</ele>
        <time>2014-11-02T09:56:39Z</time>
      </trkpt>
      <trkpt lat="42.76291" lon="2.36161">
        <ele>892.72</ele>
        <time>2014-11-02T09:56:40Z</time>
      </trkpt>
      <trkpt lat="42.76287" lon="2.36159">
        <ele>892.72</ele>
        <time>2014-11-02T09:56:41Z</time>
      </trkpt>
      <trkpt lat="42.76284" lon="2.36157">
        <ele>892.72</ele>
        <time>2014-11-02T09:56:42Z</time>
      </trkpt>
      <trkpt lat="42.76276" lon="2.36151">
        <ele>893.68</ele>
        <time>2014-11-02T09:56:45Z</time>
      </trkpt>
      <trkpt lat="42.76275" lon="2.36147">
        <ele>892.72</ele>
        <time>2014-11-02T09:56:46Z</time>
      </trkpt>
      <trkpt lat="42.76276" lon="2.36138">
        <ele>892.72</ele>
        <time>2014-11-02T09:56:49Z</time>
      </trkpt>
      <trkpt lat="42.76278" lon="2.36137">
        <ele>892.72</ele>
        <time>2014-11-02T09:56:50Z</time>
      </trkpt>
      <trkpt lat="42.76279" lon="2.36135">
        <ele>892.72</ele>
        <time>2014-11-02T09:56:51Z</time>
      </trkpt>
      <trkpt lat="42.7628" lon="2.36134">
        <ele>892.72</ele>
        <time>2014-11-02T09:56:52Z</time>
      </trkpt>
      <trkpt lat="42.76281" lon="2.36133">
        <ele>892.72</ele>
        <time>2014-11-02T09:56:53Z</time>
      </trkpt>
      <trkpt lat="42.76285" lon="2.36129">
        <ele>892.72</ele>
        <time>2014-11-02T09:57:07Z</time>
      </trkpt>
      <trkpt lat="42.76289" lon="2.36129">
        <ele>892.72</ele>
        <time>2014-11-02T09:57:21Z</time>
      </trkpt>
      <trkpt lat="42.76321" lon="2.36121">
        <ele>893.2</ele>
        <time>2014-11-02T09:57:32Z</time>
      </trkpt>
      <trkpt lat="42.76359" lon="2.36106">
        <ele>894.64</ele>
        <time>2014-11-02T09:57:45Z</time>
      </trkpt>
      <trkpt lat="42.76389" lon="2.36102">
        <ele>896.09</ele>
        <time>2014-11-02T09:57:56Z</time>
      </trkpt>
      <trkpt lat="42.76426" lon="2.36087">
        <ele>898.01</ele>
        <time>2014-11-02T09:58:09Z</time>
      </trkpt>
      <trkpt lat="42.76456" lon="2.36043">
        <ele>898.97</ele>
        <time>2014-11-02T09:58:22Z</time>
      </trkpt>
      <trkpt lat="42.76476" lon="2.36009">
        <ele>900.41</ele>
        <time>2014-11-02T09:58:33Z</time>
      </trkpt>
      <trkpt lat="42.76506" lon="2.35974">
        <ele>902.82</ele>
        <time>2014-11-02T09:58:46Z</time>
      </trkpt>
      <trkpt lat="42.76511" lon="2.35926">
        <ele>903.3</ele>
        <time>2014-11-02T09:58:59Z</time>
      </trkpt>
      <trkpt lat="42.76511" lon="2.3592">
        <ele>903.3</ele>
        <time>2014-11-02T09:59:01Z</time>
      </trkpt>
      <trkpt lat="42.76511" lon="2.35917">
        <ele>903.3</ele>
        <time>2014-11-02T09:59:02Z</time>
      </trkpt>
      <trkpt lat="42.76509" lon="2.35906">
        <ele>903.3</ele>
        <time>2014-11-02T09:59:05Z</time>
      </trkpt>
      <trkpt lat="42.76512" lon="2.35874">
        <ele>903.3</ele>
        <time>2014-11-02T09:59:11Z</time>
      </trkpt>
      <trkpt lat="42.76489" lon="2.35827">
        <ele>903.78</ele>
        <time>2014-11-02T09:59:21Z</time>
      </trkpt>
      <trkpt lat="42.7648" lon="2.35805">
        <ele>904.26</ele>
        <time>2014-11-02T09:59:27Z</time>
      </trkpt>
      <trkpt lat="42.76482" lon="2.358">
        <ele>904.26</ele>
        <time>2014-11-02T09:59:28Z</time>
      </trkpt>
      <trkpt lat="42.76484" lon="2.35796">
        <ele>904.26</ele>
        <time>2014-11-02T09:59:29Z</time>
      </trkpt>
      <trkpt lat="42.76486" lon="2.35792">
        <ele>904.26</ele>
        <time>2014-11-02T09:59:30Z</time>
      </trkpt>
      <trkpt lat="42.7649" lon="2.3579">
        <ele>904.26</ele>
        <time>2014-11-02T09:59:31Z</time>
      </trkpt>
      <trkpt lat="42.76494" lon="2.35788">
        <ele>904.26</ele>
        <time>2014-11-02T09:59:32Z</time>
      </trkpt>
      <trkpt lat="42.76512" lon="2.35777">
        <ele>903.3</ele>
        <time>2014-11-02T09:59:37Z</time>
      </trkpt>
      <trkpt lat="42.76516" lon="2.35773">
        <ele>902.82</ele>
        <time>2014-11-02T09:59:38Z</time>
      </trkpt>
      <trkpt lat="42.76542" lon="2.35741">
        <ele>901.85</ele>
        <time>2014-11-02T09:59:46Z</time>
      </trkpt>
      <trkpt lat="42.76575" lon="2.35727">
        <ele>902.33</ele>
        <time>2014-11-02T09:59:56Z</time>
      </trkpt>
      <trkpt lat="42.76611" lon="2.35735">
        <ele>904.74</ele>
        <time>2014-11-02T10:00:06Z</time>
      </trkpt>
      <trkpt lat="42.76645" lon="2.35753">
        <ele>906.18</ele>
        <time>2014-11-02T10:00:17Z</time>
      </trkpt>
      <trkpt lat="42.76679" lon="2.35772">
        <ele>908.1</ele>
        <time>2014-11-02T10:00:30Z</time>
      </trkpt>
      <trkpt lat="42.76697" lon="2.35773">
        <ele>909.06</ele>
        <time>2014-11-02T10:00:36Z</time>
      </trkpt>
      <trkpt lat="42.76719" lon="2.3575">
        <ele>910.99</ele>
        <time>2014-11-02T10:00:49Z</time>
      </trkpt>
      <trkpt lat="42.76732" lon="2.35729">
        <ele>912.91</ele>
        <time>2014-11-02T10:01:00Z</time>
      </trkpt>
      <trkpt lat="42.76741" lon="2.35708">
        <ele>915.31</ele>
        <time>2014-11-02T10:01:11Z</time>
      </trkpt>
      <trkpt lat="42.76741" lon="2.35706">
        <ele>915.31</ele>
        <time>2014-11-02T10:01:12Z</time>
      </trkpt>
      <trkpt lat="42.76742" lon="2.35705">
        <ele>915.79</ele>
        <time>2014-11-02T10:01:13Z</time>
      </trkpt>
      <trkpt lat="42.76747" lon="2.35683">
        <ele>917.72</ele>
        <time>2014-11-02T10:01:25Z</time>
      </trkpt>
      <trkpt lat="42.76749" lon="2.3568">
        <ele>918.2</ele>
        <time>2014-11-02T10:01:27Z</time>
      </trkpt>
      <trkpt lat="42.7675" lon="2.35679">
        <ele>918.2</ele>
        <time>2014-11-02T10:01:28Z</time>
      </trkpt>
      <trkpt lat="42.76751" lon="2.35678">
        <ele>918.2</ele>
        <time>2014-11-02T10:01:29Z</time>
      </trkpt>
      <trkpt lat="42.76752" lon="2.35676">
        <ele>918.68</ele>
        <time>2014-11-02T10:01:30Z</time>
      </trkpt>
      <trkpt lat="42.76754" lon="2.35675">
        <ele>918.68</ele>
        <time>2014-11-02T10:01:31Z</time>
      </trkpt>
      <trkpt lat="42.76755" lon="2.35673">
        <ele>918.68</ele>
        <time>2014-11-02T10:01:32Z</time>
      </trkpt>
      <trkpt lat="42.76757" lon="2.35672">
        <ele>918.68</ele>
        <time>2014-11-02T10:01:33Z</time>
      </trkpt>
      <trkpt lat="42.76758" lon="2.35671">
        <ele>918.68</ele>
        <time>2014-11-02T10:01:34Z</time>
      </trkpt>
      <trkpt lat="42.7676" lon="2.3567">
        <ele>918.68</ele>
        <time>2014-11-02T10:01:35Z</time>
      </trkpt>
      <trkpt lat="42.76766" lon="2.35669">
        <ele>919.16</ele>
        <time>2014-11-02T10:01:39Z</time>
      </trkpt>
      <trkpt lat="42.76767" lon="2.3567">
        <ele>919.16</ele>
        <time>2014-11-02T10:01:40Z</time>
      </trkpt>
      <trkpt lat="42.76795" lon="2.35692">
        <ele>920.6</ele>
        <time>2014-11-02T10:01:54Z</time>
      </trkpt>
      <trkpt lat="42.7682" lon="2.35708">
        <ele>922.04</ele>
        <time>2014-11-02T10:02:06Z</time>
      </trkpt>
      <trkpt lat="42.76846" lon="2.35722">
        <ele>923.48</ele>
        <time>2014-11-02T10:02:17Z</time>
      </trkpt>
      <trkpt lat="42.76868" lon="2.35721">
        <ele>924.93</ele>
        <time>2014-11-02T10:02:27Z</time>
      </trkpt>
      <trkpt lat="42.769" lon="2.3571">
        <ele>926.85</ele>
        <time>2014-11-02T10:02:41Z</time>
      </trkpt>
      <trkpt lat="42.76929" lon="2.357">
        <ele>928.29</ele>
        <time>2014-11-02T10:02:53Z</time>
      </trkpt>
      <trkpt lat="42.76957" lon="2.35689">
        <ele>930.21</ele>
        <time>2014-11-02T10:03:05Z</time>
      </trkpt>
      <trkpt lat="42.76987" lon="2.35676">
        <ele>932.62</ele>
        <time>2014-11-02T10:03:19Z</time>
      </trkpt>
      <trkpt lat="42.77026" lon="2.35664">
        <ele>935.02</ele>
        <time>2014-11-02T10:03:36Z</time>
      </trkpt>
      <trkpt lat="42.77064" lon="2.35655">
        <ele>937.42</ele>
        <time>2014-11-02T10:03:51Z</time>
      </trkpt>
      <trkpt lat="42.77084" lon="2.35624">
        <ele>939.35</ele>
        <time>2014-11-02T10:04:04Z</time>
      </trkpt>
      <trkpt lat="42.77083" lon="2.35621">
        <ele>939.83</ele>
        <time>2014-11-02T10:04:05Z</time>
      </trkpt>
      <trkpt lat="42.77082" lon="2.35618">
        <ele>939.83</ele>
        <time>2014-11-02T10:04:06Z</time>
      </trkpt>
      <trkpt lat="42.77076" lon="2.35603">
        <ele>940.79</ele>
        <time>2014-11-02T10:04:12Z</time>
      </trkpt>
      <trkpt lat="42.77075" lon="2.35601">
        <ele>940.79</ele>
        <time>2014-11-02T10:04:13Z</time>
      </trkpt>
      <trkpt lat="42.77061" lon="2.35568">
        <ele>942.23</ele>
        <time>2014-11-02T10:04:27Z</time>
      </trkpt>
      <trkpt lat="42.7705" lon="2.35542">
        <ele>943.67</ele>
        <time>2014-11-02T10:04:39Z</time>
      </trkpt>
      <trkpt lat="42.77033" lon="2.35504">
        <ele>945.11</ele>
        <time>2014-11-02T10:04:54Z</time>
      </trkpt>
      <trkpt lat="42.77025" lon="2.35489">
        <ele>946.07</ele>
        <time>2014-11-02T10:05:01Z</time>
      </trkpt>
      <trkpt lat="42.77024" lon="2.35487">
        <ele>946.07</ele>
        <time>2014-11-02T10:05:02Z</time>
      </trkpt>
      <trkpt lat="42.77023" lon="2.35485">
        <ele>946.07</ele>
        <time>2014-11-02T10:05:03Z</time>
      </trkpt>
      <trkpt lat="42.7701" lon="2.35454">
        <ele>948</ele>
        <time>2014-11-02T10:05:16Z</time>
      </trkpt>
      <trkpt lat="42.77009" lon="2.35451">
        <ele>948</ele>
        <time>2014-11-02T10:05:17Z</time>
      </trkpt>
      <trkpt lat="42.77009" lon="2.35449">
        <ele>948</ele>
        <time>2014-11-02T10:05:18Z</time>
      </trkpt>
      <trkpt lat="42.77" lon="2.35417">
        <ele>949.44</ele>
        <time>2014-11-02T10:05:29Z</time>
      </trkpt>
      <trkpt lat="42.76999" lon="2.35412">
        <ele>949.92</ele>
        <time>2014-11-02T10:05:31Z</time>
      </trkpt>
      <trkpt lat="42.76998" lon="2.35409">
        <ele>949.92</ele>
        <time>2014-11-02T10:05:32Z</time>
      </trkpt>
      <trkpt lat="42.76998" lon="2.35407">
        <ele>949.92</ele>
        <time>2014-11-02T10:05:33Z</time>
      </trkpt>
      <trkpt lat="42.76997" lon="2.35404">
        <ele>949.92</ele>
        <time>2014-11-02T10:05:34Z</time>
      </trkpt>
      <trkpt lat="42.76996" lon="2.35401">
        <ele>950.4</ele>
        <time>2014-11-02T10:05:35Z</time>
      </trkpt>
      <trkpt lat="42.76995" lon="2.35399">
        <ele>950.4</ele>
        <time>2014-11-02T10:05:36Z</time>
      </trkpt>
      <trkpt lat="42.76994" lon="2.35396">
        <ele>950.4</ele>
        <time>2014-11-02T10:05:37Z</time>
      </trkpt>
      <trkpt lat="42.76989" lon="2.35361">
        <ele>951.84</ele>
        <time>2014-11-02T10:05:49Z</time>
      </trkpt>
      <trkpt lat="42.76987" lon="2.35353">
        <ele>952.32</ele>
        <time>2014-11-02T10:05:52Z</time>
      </trkpt>
      <trkpt lat="42.76987" lon="2.3535">
        <ele>952.32</ele>
        <time>2014-11-02T10:05:53Z</time>
      </trkpt>
      <trkpt lat="42.76986" lon="2.35346">
        <ele>952.32</ele>
        <time>2014-11-02T10:05:54Z</time>
      </trkpt>
      <trkpt lat="42.76986" lon="2.35343">
        <ele>952.8</ele>
        <time>2014-11-02T10:05:55Z</time>
      </trkpt>
      <trkpt lat="42.76985" lon="2.35339">
        <ele>952.8</ele>
        <time>2014-11-02T10:05:56Z</time>
      </trkpt>
      <trkpt lat="42.76978" lon="2.35308">
        <ele>954.25</ele>
        <time>2014-11-02T10:06:06Z</time>
      </trkpt>
      <trkpt lat="42.76975" lon="2.35303">
        <ele>954.25</ele>
        <time>2014-11-02T10:06:08Z</time>
      </trkpt>
      <trkpt lat="42.76974" lon="2.353">
        <ele>954.73</ele>
        <time>2014-11-02T10:06:09Z</time>
      </trkpt>
      <trkpt lat="42.76972" lon="2.35295">
        <ele>955.21</ele>
        <time>2014-11-02T10:06:11Z</time>
      </trkpt>
      <trkpt lat="42.76972" lon="2.35292">
        <ele>955.21</ele>
        <time>2014-11-02T10:06:12Z</time>
      </trkpt>
      <trkpt lat="42.76972" lon="2.35287">
        <ele>955.21</ele>
        <time>2014-11-02T10:06:13Z</time>
      </trkpt>
      <trkpt lat="42.76971" lon="2.35282">
        <ele>955.21</ele>
        <time>2014-11-02T10:06:14Z</time>
      </trkpt>
      <trkpt lat="42.76971" lon="2.35277">
        <ele>955.21</ele>
        <time>2014-11-02T10:06:15Z</time>
      </trkpt>
      <trkpt lat="42.76971" lon="2.35271">
        <ele>955.21</ele>
        <time>2014-11-02T10:06:16Z</time>
      </trkpt>
      <trkpt lat="42.76971" lon="2.35267">
        <ele>955.21</ele>
        <time>2014-11-02T10:06:17Z</time>
      </trkpt>
      <trkpt lat="42.76972" lon="2.35262">
        <ele>955.21</ele>
        <time>2014-11-02T10:06:18Z</time>
      </trkpt>
      <trkpt lat="42.76974" lon="2.35259">
        <ele>955.21</ele>
        <time>2014-11-02T10:06:19Z</time>
      </trkpt>
      <trkpt lat="42.76994" lon="2.35238">
        <ele>956.17</ele>
        <time>2014-11-02T10:06:29Z</time>
      </trkpt>
      <trkpt lat="42.77016" lon="2.35218">
        <ele>958.09</ele>
        <time>2014-11-02T10:06:40Z</time>
      </trkpt>
      <trkpt lat="42.77037" lon="2.35201">
        <ele>959.53</ele>
        <time>2014-11-02T10:06:51Z</time>
      </trkpt>
      <trkpt lat="42.77064" lon="2.35195">
        <ele>960.98</ele>
        <time>2014-11-02T10:07:02Z</time>
      </trkpt>
      <trkpt lat="42.77096" lon="2.35187">
        <ele>963.38</ele>
        <time>2014-11-02T10:07:16Z</time>
      </trkpt>
      <trkpt lat="42.77119" lon="2.3518">
        <ele>964.82</ele>
        <time>2014-11-02T10:07:27Z</time>
      </trkpt>
      <trkpt lat="42.77147" lon="2.35171">
        <ele>966.26</ele>
        <time>2014-11-02T10:07:39Z</time>
      </trkpt>
      <trkpt lat="42.77167" lon="2.35163">
        <ele>967.7</ele>
        <time>2014-11-02T10:07:50Z</time>
      </trkpt>
      <trkpt lat="42.77169" lon="2.35161">
        <ele>967.7</ele>
        <time>2014-11-02T10:07:51Z</time>
      </trkpt>
      <trkpt lat="42.77171" lon="2.3516">
        <ele>968.18</ele>
        <time>2014-11-02T10:07:52Z</time>
      </trkpt>
      <trkpt lat="42.77174" lon="2.35158">
        <ele>968.18</ele>
        <time>2014-11-02T10:07:53Z</time>
      </trkpt>
      <trkpt lat="42.77176" lon="2.35156">
        <ele>968.18</ele>
        <time>2014-11-02T10:07:54Z</time>
      </trkpt>
      <trkpt lat="42.77178" lon="2.35154">
        <ele>968.67</ele>
        <time>2014-11-02T10:07:55Z</time>
      </trkpt>
      <trkpt lat="42.7718" lon="2.35152">
        <ele>968.67</ele>
        <time>2014-11-02T10:07:56Z</time>
      </trkpt>
      <trkpt lat="42.77203" lon="2.35119">
        <ele>970.59</ele>
        <time>2014-11-02T10:08:10Z</time>
      </trkpt>
      <trkpt lat="42.77209" lon="2.35101">
        <ele>971.07</ele>
        <time>2014-11-02T10:08:17Z</time>
      </trkpt>
      <trkpt lat="42.77209" lon="2.35098">
        <ele>971.55</ele>
        <time>2014-11-02T10:08:18Z</time>
      </trkpt>
      <trkpt lat="42.77215" lon="2.35067">
        <ele>972.99</ele>
        <time>2014-11-02T10:08:30Z</time>
      </trkpt>
      <trkpt lat="42.77219" lon="2.35039">
        <ele>974.43</ele>
        <time>2014-11-02T10:08:39Z</time>
      </trkpt>
      <trkpt lat="42.7722" lon="2.35037">
        <ele>974.43</ele>
        <time>2014-11-02T10:08:40Z</time>
      </trkpt>
      <trkpt lat="42.7722" lon="2.35034">
        <ele>974.43</ele>
        <time>2014-11-02T10:08:41Z</time>
      </trkpt>
      <trkpt lat="42.77219" lon="2.35032">
        <ele>974.91</ele>
        <time>2014-11-02T10:08:42Z</time>
      </trkpt>
      <trkpt lat="42.77219" lon="2.35028">
        <ele>974.91</ele>
        <time>2014-11-02T10:08:43Z</time>
      </trkpt>
      <trkpt lat="42.77219" lon="2.35018">
        <ele>976.36</ele>
        <time>2014-11-02T10:08:47Z</time>
      </trkpt>
      <trkpt lat="42.77219" lon="2.35015">
        <ele>975.39</ele>
        <time>2014-11-02T10:08:48Z</time>
      </trkpt>
      <trkpt lat="42.77219" lon="2.35013">
        <ele>975.88</ele>
        <time>2014-11-02T10:08:49Z</time>
      </trkpt>
      <trkpt lat="42.77219" lon="2.35002">
        <ele>976.36</ele>
        <time>2014-11-02T10:08:54Z</time>
      </trkpt>
      <trkpt lat="42.77219" lon="2.35">
        <ele>976.84</ele>
        <time>2014-11-02T10:08:55Z</time>
      </trkpt>
      <trkpt lat="42.77224" lon="2.34955">
        <ele>978.76</ele>
        <time>2014-11-02T10:09:11Z</time>
      </trkpt>
      <trkpt lat="42.77227" lon="2.34908">
        <ele>980.2</ele>
        <time>2014-11-02T10:09:26Z</time>
      </trkpt>
      <trkpt lat="42.77225" lon="2.34882">
        <ele>981.64</ele>
        <time>2014-11-02T10:09:34Z</time>
      </trkpt>
      <trkpt lat="42.77225" lon="2.34879">
        <ele>981.64</ele>
        <time>2014-11-02T10:09:35Z</time>
      </trkpt>
      <trkpt lat="42.77225" lon="2.34876">
        <ele>981.64</ele>
        <time>2014-11-02T10:09:36Z</time>
      </trkpt>
      <trkpt lat="42.77226" lon="2.34873">
        <ele>981.64</ele>
        <time>2014-11-02T10:09:37Z</time>
      </trkpt>
      <trkpt lat="42.77225" lon="2.34871">
        <ele>982.12</ele>
        <time>2014-11-02T10:09:38Z</time>
      </trkpt>
      <trkpt lat="42.77223" lon="2.34836">
        <ele>984.05</ele>
        <time>2014-11-02T10:09:50Z</time>
      </trkpt>
      <trkpt lat="42.77214" lon="2.348">
        <ele>985.97</ele>
        <time>2014-11-02T10:10:02Z</time>
      </trkpt>
      <trkpt lat="42.77213" lon="2.34797">
        <ele>985.97</ele>
        <time>2014-11-02T10:10:03Z</time>
      </trkpt>
      <trkpt lat="42.77212" lon="2.34795">
        <ele>985.97</ele>
        <time>2014-11-02T10:10:04Z</time>
      </trkpt>
      <trkpt lat="42.77195" lon="2.34756">
        <ele>988.85</ele>
        <time>2014-11-02T10:10:19Z</time>
      </trkpt>
      <trkpt lat="42.77187" lon="2.34744">
        <ele>988.85</ele>
        <time>2014-11-02T10:10:33Z</time>
      </trkpt>
      <trkpt lat="42.77186" lon="2.34744">
        <ele>988.85</ele>
        <time>2014-11-02T10:10:49Z</time>
      </trkpt>
      <trkpt lat="42.77185" lon="2.34744">
        <ele>988.85</ele>
        <time>2014-11-02T10:11:16Z</time>
      </trkpt>
      <trkpt lat="42.77185" lon="2.34744">
        <ele>988.37</ele>
        <time>2014-11-02T10:11:32Z</time>
      </trkpt>
      <trkpt lat="42.77185" lon="2.34743">
        <ele>988.37</ele>
        <time>2014-11-02T10:11:50Z</time>
      </trkpt>
      <trkpt lat="42.77185" lon="2.34743">
        <ele>988.37</ele>
        <time>2014-11-02T10:12:12Z</time>
      </trkpt>
      <trkpt lat="42.77185" lon="2.34743">
        <ele>988.37</ele>
        <time>2014-11-02T10:12:37Z</time>
      </trkpt>
      <trkpt lat="42.77184" lon="2.34743">
        <ele>988.37</ele>
        <time>2014-11-02T10:13:06Z</time>
      </trkpt>
      <trkpt lat="42.77184" lon="2.34742">
        <ele>987.41</ele>
        <time>2014-11-02T10:13:16Z</time>
      </trkpt>
      <trkpt lat="42.77185" lon="2.34742">
        <ele>987.41</ele>
        <time>2014-11-02T10:13:44Z</time>
      </trkpt>
      <trkpt lat="42.77185" lon="2.34742">
        <ele>987.41</ele>
        <time>2014-11-02T10:14:08Z</time>
      </trkpt>
      <trkpt lat="42.77183" lon="2.3474">
        <ele>986.93</ele>
        <time>2014-11-02T10:14:37Z</time>
      </trkpt>
      <trkpt lat="42.77183" lon="2.34739">
        <ele>986.93</ele>
        <time>2014-11-02T10:15:07Z</time>
      </trkpt>
      <trkpt lat="42.77184" lon="2.34739">
        <ele>986.93</ele>
        <time>2014-11-02T10:15:35Z</time>
      </trkpt>
      <trkpt lat="42.77185" lon="2.34741">
        <ele>986.93</ele>
        <time>2014-11-02T10:16:02Z</time>
      </trkpt>
      <trkpt lat="42.77188" lon="2.34746">
        <ele>986.93</ele>
        <time>2014-11-02T10:16:36Z</time>
      </trkpt>
      <trkpt lat="42.77188" lon="2.34746">
        <ele>986.93</ele>
        <time>2014-11-02T10:17:14Z</time>
      </trkpt>
      <trkpt lat="42.77188" lon="2.34745">
        <ele>986.93</ele>
        <time>2014-11-02T10:17:43Z</time>
      </trkpt>
      <trkpt lat="42.77187" lon="2.34743">
        <ele>986.45</ele>
        <time>2014-11-02T10:18:14Z</time>
      </trkpt>
      <trkpt lat="42.77186" lon="2.34744">
        <ele>986.45</ele>
        <time>2014-11-02T10:18:42Z</time>
      </trkpt>
      <trkpt lat="42.77186" lon="2.34745">
        <ele>986.45</ele>
        <time>2014-11-02T10:19:08Z</time>
      </trkpt>
      <trkpt lat="42.77188" lon="2.34744">
        <ele>986.45</ele>
        <time>2014-11-02T10:19:40Z</time>
      </trkpt>
      <trkpt lat="42.77187" lon="2.34746">
        <ele>986.45</ele>
        <time>2014-11-02T10:20:13Z</time>
      </trkpt>
      <trkpt lat="42.77188" lon="2.34745">
        <ele>986.45</ele>
        <time>2014-11-02T10:20:40Z</time>
      </trkpt>
      <trkpt lat="42.77188" lon="2.34744">
        <ele>986.93</ele>
        <time>2014-11-02T10:21:10Z</time>
      </trkpt>
      <trkpt lat="42.77188" lon="2.34742">
        <ele>986.93</ele>
        <time>2014-11-02T10:21:18Z</time>
      </trkpt>
      <trkpt lat="42.77188" lon="2.3474">
        <ele>986.45</ele>
        <time>2014-11-02T10:21:19Z</time>
      </trkpt>
      <trkpt lat="42.77187" lon="2.34738">
        <ele>986.93</ele>
        <time>2014-11-02T10:21:20Z</time>
      </trkpt>
      <trkpt lat="42.77186" lon="2.34735">
        <ele>986.45</ele>
        <time>2014-11-02T10:21:21Z</time>
      </trkpt>
      <trkpt lat="42.77185" lon="2.34732">
        <ele>986.45</ele>
        <time>2014-11-02T10:21:22Z</time>
      </trkpt>
      <trkpt lat="42.77183" lon="2.34729">
        <ele>986.45</ele>
        <time>2014-11-02T10:21:23Z</time>
      </trkpt>
      <trkpt lat="42.77182" lon="2.34726">
        <ele>985.97</ele>
        <time>2014-11-02T10:21:24Z</time>
      </trkpt>
      <trkpt lat="42.77181" lon="2.34722">
        <ele>985.97</ele>
        <time>2014-11-02T10:21:25Z</time>
      </trkpt>
      <trkpt lat="42.77168" lon="2.34657">
        <ele>982.6</ele>
        <time>2014-11-02T10:21:36Z</time>
      </trkpt>
      <trkpt lat="42.77166" lon="2.34645">
        <ele>982.12</ele>
        <time>2014-11-02T10:21:38Z</time>
      </trkpt>
      <trkpt lat="42.77165" lon="2.34638">
        <ele>982.12</ele>
        <time>2014-11-02T10:21:39Z</time>
      </trkpt>
      <trkpt lat="42.77159" lon="2.34594">
        <ele>978.28</ele>
        <time>2014-11-02T10:21:47Z</time>
      </trkpt>
      <trkpt lat="42.77164" lon="2.34579">
        <ele>975.39</ele>
        <time>2014-11-02T10:21:52Z</time>
      </trkpt>
      <trkpt lat="42.77166" lon="2.34576">
        <ele>974.91</ele>
        <time>2014-11-02T10:21:53Z</time>
      </trkpt>
      <trkpt lat="42.77168" lon="2.34575">
        <ele>974.43</ele>
        <time>2014-11-02T10:21:54Z</time>
      </trkpt>
      <trkpt lat="42.77187" lon="2.34564">
        <ele>970.59</ele>
        <time>2014-11-02T10:22:04Z</time>
      </trkpt>
      <trkpt lat="42.77206" lon="2.34556">
        <ele>967.22</ele>
        <time>2014-11-02T10:22:07Z</time>
      </trkpt>
      <trkpt lat="42.77228" lon="2.34546">
        <ele>963.86</ele>
        <time>2014-11-02T10:22:10Z</time>
      </trkpt>
      <trkpt lat="42.77253" lon="2.34533">
        <ele>960.49</ele>
        <time>2014-11-02T10:22:14Z</time>
      </trkpt>
      <trkpt lat="42.77295" lon="2.34512">
        <ele>958.09</ele>
        <time>2014-11-02T10:22:21Z</time>
      </trkpt>
      <trkpt lat="42.773" lon="2.3451">
        <ele>958.09</ele>
        <time>2014-11-02T10:22:22Z</time>
      </trkpt>
      <trkpt lat="42.77343" lon="2.34495">
        <ele>957.61</ele>
        <time>2014-11-02T10:22:33Z</time>
      </trkpt>
      <trkpt lat="42.77368" lon="2.34484">
        <ele>957.13</ele>
        <time>2014-11-02T10:22:45Z</time>
      </trkpt>
      <trkpt lat="42.77378" lon="2.34482">
        <ele>957.13</ele>
        <time>2014-11-02T10:22:54Z</time>
      </trkpt>
      <trkpt lat="42.77382" lon="2.34481">
        <ele>956.65</ele>
        <time>2014-11-02T10:22:56Z</time>
      </trkpt>
      <trkpt lat="42.77421" lon="2.34455">
        <ele>953.28</ele>
        <time>2014-11-02T10:23:07Z</time>
      </trkpt>
      <trkpt lat="42.7746" lon="2.34429">
        <ele>950.4</ele>
        <time>2014-11-02T10:23:15Z</time>
      </trkpt>
      <trkpt lat="42.77495" lon="2.34398">
        <ele>947.04</ele>
        <time>2014-11-02T10:23:20Z</time>
      </trkpt>
      <trkpt lat="42.77515" lon="2.34386">
        <ele>942.71</ele>
        <time>2014-11-02T10:23:23Z</time>
      </trkpt>
      <trkpt lat="42.77523" lon="2.34377">
        <ele>941.75</ele>
        <time>2014-11-02T10:23:24Z</time>
      </trkpt>
      <trkpt lat="42.77558" lon="2.34356">
        <ele>940.79</ele>
        <time>2014-11-02T10:23:27Z</time>
      </trkpt>
      <trkpt lat="42.77565" lon="2.34353">
        <ele>940.79</ele>
        <time>2014-11-02T10:23:28Z</time>
      </trkpt>
      <trkpt lat="42.77569" lon="2.34354">
        <ele>940.79</ele>
        <time>2014-11-02T10:23:29Z</time>
      </trkpt>
      <trkpt lat="42.77571" lon="2.34357">
        <ele>940.79</ele>
        <time>2014-11-02T10:23:30Z</time>
      </trkpt>
      <trkpt lat="42.77572" lon="2.3436">
        <ele>940.79</ele>
        <time>2014-11-02T10:23:31Z</time>
      </trkpt>
      <trkpt lat="42.77573" lon="2.34365">
        <ele>941.27</ele>
        <time>2014-11-02T10:23:32Z</time>
      </trkpt>
      <trkpt lat="42.77574" lon="2.3437">
        <ele>940.79</ele>
        <time>2014-11-02T10:23:33Z</time>
      </trkpt>
      <trkpt lat="42.77575" lon="2.34376">
        <ele>940.31</ele>
        <time>2014-11-02T10:23:34Z</time>
      </trkpt>
      <trkpt lat="42.77575" lon="2.34383">
        <ele>939.83</ele>
        <time>2014-11-02T10:23:35Z</time>
      </trkpt>
      <trkpt lat="42.77574" lon="2.34392">
        <ele>939.35</ele>
        <time>2014-11-02T10:23:36Z</time>
      </trkpt>
      <trkpt lat="42.77573" lon="2.34401">
        <ele>938.38</ele>
        <time>2014-11-02T10:23:37Z</time>
      </trkpt>
      <trkpt lat="42.77571" lon="2.34435">
        <ele>934.54</ele>
        <time>2014-11-02T10:23:40Z</time>
      </trkpt>
      <trkpt lat="42.77569" lon="2.34448">
        <ele>932.62</ele>
        <time>2014-11-02T10:23:41Z</time>
      </trkpt>
      <trkpt lat="42.77565" lon="2.3446">
        <ele>930.69</ele>
        <time>2014-11-02T10:23:42Z</time>
      </trkpt>
      <trkpt lat="42.7756" lon="2.34472">
        <ele>929.25</ele>
        <time>2014-11-02T10:23:43Z</time>
      </trkpt>
      <trkpt lat="42.7754" lon="2.34505">
        <ele>925.41</ele>
        <time>2014-11-02T10:23:46Z</time>
      </trkpt>
      <trkpt lat="42.7752" lon="2.34536">
        <ele>921.56</ele>
        <time>2014-11-02T10:23:49Z</time>
      </trkpt>
      <trkpt lat="42.77499" lon="2.34568">
        <ele>917.72</ele>
        <time>2014-11-02T10:23:52Z</time>
      </trkpt>
      <trkpt lat="42.77486" lon="2.34587">
        <ele>914.83</ele>
        <time>2014-11-02T10:23:54Z</time>
      </trkpt>
      <trkpt lat="42.77479" lon="2.34596">
        <ele>913.87</ele>
        <time>2014-11-02T10:23:55Z</time>
      </trkpt>
      <trkpt lat="42.77449" lon="2.34625">
        <ele>910.03</ele>
        <time>2014-11-02T10:23:59Z</time>
      </trkpt>
      <trkpt lat="42.77422" lon="2.34652">
        <ele>906.66</ele>
        <time>2014-11-02T10:24:03Z</time>
      </trkpt>
      <trkpt lat="42.77414" lon="2.34658">
        <ele>905.7</ele>
        <time>2014-11-02T10:24:05Z</time>
      </trkpt>
      <trkpt lat="42.77413" lon="2.34662">
        <ele>905.7</ele>
        <time>2014-11-02T10:24:06Z</time>
      </trkpt>
      <trkpt lat="42.77415" lon="2.34663">
        <ele>904.26</ele>
        <time>2014-11-02T10:24:08Z</time>
      </trkpt>
      <trkpt lat="42.77417" lon="2.34661">
        <ele>903.78</ele>
        <time>2014-11-02T10:24:09Z</time>
      </trkpt>
      <trkpt lat="42.7742" lon="2.34658">
        <ele>903.3</ele>
        <time>2014-11-02T10:24:10Z</time>
      </trkpt>
      <trkpt lat="42.77426" lon="2.34651">
        <ele>901.85</ele>
        <time>2014-11-02T10:24:12Z</time>
      </trkpt>
      <trkpt lat="42.77429" lon="2.34647">
        <ele>901.37</ele>
        <time>2014-11-02T10:24:13Z</time>
      </trkpt>
      <trkpt lat="42.77433" lon="2.34644">
        <ele>900.89</ele>
        <time>2014-11-02T10:24:14Z</time>
      </trkpt>
      <trkpt lat="42.77436" lon="2.34641">
        <ele>899.93</ele>
        <time>2014-11-02T10:24:15Z</time>
      </trkpt>
      <trkpt lat="42.7744" lon="2.34638">
        <ele>898.49</ele>
        <time>2014-11-02T10:24:16Z</time>
      </trkpt>
      <trkpt lat="42.77444" lon="2.34636">
        <ele>898.01</ele>
        <time>2014-11-02T10:24:17Z</time>
      </trkpt>
      <trkpt lat="42.77449" lon="2.34634">
        <ele>896.09</ele>
        <time>2014-11-02T10:24:18Z</time>
      </trkpt>
      <trkpt lat="42.77454" lon="2.34633">
        <ele>895.61</ele>
        <time>2014-11-02T10:24:19Z</time>
      </trkpt>
      <trkpt lat="42.7746" lon="2.34634">
        <ele>894.64</ele>
        <time>2014-11-02T10:24:20Z</time>
      </trkpt>
      <trkpt lat="42.77466" lon="2.34638">
        <ele>894.16</ele>
        <time>2014-11-02T10:24:21Z</time>
      </trkpt>
      <trkpt lat="42.77471" lon="2.34642">
        <ele>893.68</ele>
        <time>2014-11-02T10:24:22Z</time>
      </trkpt>
      <trkpt lat="42.77487" lon="2.34678">
        <ele>890.8</ele>
        <time>2014-11-02T10:24:30Z</time>
      </trkpt>
      <trkpt lat="42.7749" lon="2.34684">
        <ele>890.8</ele>
        <time>2014-11-02T10:24:43Z</time>
      </trkpt>
      <trkpt lat="42.77493" lon="2.34687">
        <ele>890.8</ele>
        <time>2014-11-02T10:25:01Z</time>
      </trkpt>
      <trkpt lat="42.77492" lon="2.34688">
        <ele>889.84</ele>
        <time>2014-11-02T10:25:21Z</time>
      </trkpt>
      <trkpt lat="42.7749" lon="2.34684">
        <ele>889.84</ele>
        <time>2014-11-02T10:25:51Z</time>
      </trkpt>
      <trkpt lat="42.7749" lon="2.34686">
        <ele>890.8</ele>
        <time>2014-11-02T10:26:11Z</time>
      </trkpt>
      <trkpt lat="42.77491" lon="2.34687">
        <ele>890.32</ele>
        <time>2014-11-02T10:26:35Z</time>
      </trkpt>
      <trkpt lat="42.77491" lon="2.34687">
        <ele>890.8</ele>
        <time>2014-11-02T10:26:53Z</time>
      </trkpt>
      <trkpt lat="42.77489" lon="2.34698">
        <ele>889.84</ele>
        <time>2014-11-02T10:27:10Z</time>
      </trkpt>
      <trkpt lat="42.77489" lon="2.34705">
        <ele>888.88</ele>
        <time>2014-11-02T10:27:11Z</time>
      </trkpt>
      <trkpt lat="42.77487" lon="2.34728">
        <ele>885.51</ele>
        <time>2014-11-02T10:27:14Z</time>
      </trkpt>
      <trkpt lat="42.77485" lon="2.34745">
        <ele>881.19</ele>
        <time>2014-11-02T10:27:16Z</time>
      </trkpt>
      <trkpt lat="42.77484" lon="2.34753">
        <ele>879.74</ele>
        <time>2014-11-02T10:27:17Z</time>
      </trkpt>
      <trkpt lat="42.77483" lon="2.34781">
        <ele>876.38</ele>
        <time>2014-11-02T10:27:20Z</time>
      </trkpt>
      <trkpt lat="42.77481" lon="2.34812">
        <ele>872.53</ele>
        <time>2014-11-02T10:27:23Z</time>
      </trkpt>
      <trkpt lat="42.77478" lon="2.34856">
        <ele>869.65</ele>
        <time>2014-11-02T10:27:27Z</time>
      </trkpt>
      <trkpt lat="42.77477" lon="2.34887">
        <ele>866.77</ele>
        <time>2014-11-02T10:27:30Z</time>
      </trkpt>
      <trkpt lat="42.77478" lon="2.34899">
        <ele>864.84</ele>
        <time>2014-11-02T10:27:31Z</time>
      </trkpt>
      <trkpt lat="42.7748" lon="2.34912">
        <ele>863.88</ele>
        <time>2014-11-02T10:27:32Z</time>
      </trkpt>
      <trkpt lat="42.77484" lon="2.34923">
        <ele>861.96</ele>
        <time>2014-11-02T10:27:33Z</time>
      </trkpt>
      <trkpt lat="42.77491" lon="2.34943">
        <ele>860.04</ele>
        <time>2014-11-02T10:27:35Z</time>
      </trkpt>
      <trkpt lat="42.77495" lon="2.3495">
        <ele>859.08</ele>
        <time>2014-11-02T10:27:36Z</time>
      </trkpt>
      <trkpt lat="42.77506" lon="2.34966">
        <ele>856.19</ele>
        <time>2014-11-02T10:27:38Z</time>
      </trkpt>
      <trkpt lat="42.7751" lon="2.34975">
        <ele>853.31</ele>
        <time>2014-11-02T10:27:39Z</time>
      </trkpt>
      <trkpt lat="42.77512" lon="2.34985">
        <ele>851.87</ele>
        <time>2014-11-02T10:27:40Z</time>
      </trkpt>
      <trkpt lat="42.77514" lon="2.34995">
        <ele>850.9</ele>
        <time>2014-11-02T10:27:41Z</time>
      </trkpt>
      <trkpt lat="42.77513" lon="2.35004">
        <ele>849.94</ele>
        <time>2014-11-02T10:27:42Z</time>
      </trkpt>
      <trkpt lat="42.77511" lon="2.35011">
        <ele>848.5</ele>
        <time>2014-11-02T10:27:43Z</time>
      </trkpt>
      <trkpt lat="42.77509" lon="2.35018">
        <ele>848.02</ele>
        <time>2014-11-02T10:27:44Z</time>
      </trkpt>
      <trkpt lat="42.77507" lon="2.35025">
        <ele>847.06</ele>
        <time>2014-11-02T10:27:45Z</time>
      </trkpt>
      <trkpt lat="42.77507" lon="2.35031">
        <ele>846.1</ele>
        <time>2014-11-02T10:27:46Z</time>
      </trkpt>
      <trkpt lat="42.77508" lon="2.35037">
        <ele>845.14</ele>
        <time>2014-11-02T10:27:47Z</time>
      </trkpt>
      <trkpt lat="42.77511" lon="2.35042">
        <ele>843.69</ele>
        <time>2014-11-02T10:27:48Z</time>
      </trkpt>
      <trkpt lat="42.77515" lon="2.35045">
        <ele>842.73</ele>
        <time>2014-11-02T10:27:49Z</time>
      </trkpt>
      <trkpt lat="42.7752" lon="2.35048">
        <ele>841.29</ele>
        <time>2014-11-02T10:27:50Z</time>
      </trkpt>
      <trkpt lat="42.77526" lon="2.35051">
        <ele>839.37</ele>
        <time>2014-11-02T10:27:51Z</time>
      </trkpt>
      <trkpt lat="42.77537" lon="2.35057">
        <ele>837.45</ele>
        <time>2014-11-02T10:27:53Z</time>
      </trkpt>
      <trkpt lat="42.77541" lon="2.35061">
        <ele>836.48</ele>
        <time>2014-11-02T10:27:54Z</time>
      </trkpt>
      <trkpt lat="42.77542" lon="2.35067">
        <ele>835.52</ele>
        <time>2014-11-02T10:27:55Z</time>
      </trkpt>
      <trkpt lat="42.77542" lon="2.35075">
        <ele>835.04</ele>
        <time>2014-11-02T10:27:56Z</time>
      </trkpt>
      <trkpt lat="42.77542" lon="2.35082">
        <ele>833.6</ele>
        <time>2014-11-02T10:27:57Z</time>
      </trkpt>
      <trkpt lat="42.77541" lon="2.35089">
        <ele>832.16</ele>
        <time>2014-11-02T10:27:58Z</time>
      </trkpt>
      <trkpt lat="42.77541" lon="2.35097">
        <ele>830.72</ele>
        <time>2014-11-02T10:27:59Z</time>
      </trkpt>
      <trkpt lat="42.77542" lon="2.35104">
        <ele>829.76</ele>
        <time>2014-11-02T10:28:00Z</time>
      </trkpt>
      <trkpt lat="42.77542" lon="2.35112">
        <ele>828.31</ele>
        <time>2014-11-02T10:28:01Z</time>
      </trkpt>
      <trkpt lat="42.77543" lon="2.35121">
        <ele>826.39</ele>
        <time>2014-11-02T10:28:02Z</time>
      </trkpt>
      <trkpt lat="42.77543" lon="2.3513">
        <ele>824.95</ele>
        <time>2014-11-02T10:28:03Z</time>
      </trkpt>
      <trkpt lat="42.77544" lon="2.35146">
        <ele>821.58</ele>
        <time>2014-11-02T10:28:05Z</time>
      </trkpt>
      <trkpt lat="42.77543" lon="2.35153">
        <ele>820.62</ele>
        <time>2014-11-02T10:28:06Z</time>
      </trkpt>
      <trkpt lat="42.77542" lon="2.35159">
        <ele>819.66</ele>
        <time>2014-11-02T10:28:07Z</time>
      </trkpt>
      <trkpt lat="42.7754" lon="2.35166">
        <ele>818.22</ele>
        <time>2014-11-02T10:28:08Z</time>
      </trkpt>
      <trkpt lat="42.77538" lon="2.35172">
        <ele>816.78</ele>
        <time>2014-11-02T10:28:09Z</time>
      </trkpt>
      <trkpt lat="42.77537" lon="2.35177">
        <ele>815.82</ele>
        <time>2014-11-02T10:28:10Z</time>
      </trkpt>
      <trkpt lat="42.77535" lon="2.35183">
        <ele>814.37</ele>
        <time>2014-11-02T10:28:11Z</time>
      </trkpt>
      <trkpt lat="42.77532" lon="2.35202">
        <ele>810.53</ele>
        <time>2014-11-02T10:28:14Z</time>
      </trkpt>
      <trkpt lat="42.7753" lon="2.3522">
        <ele>807.64</ele>
        <time>2014-11-02T10:28:17Z</time>
      </trkpt>
      <trkpt lat="42.77529" lon="2.35227">
        <ele>806.68</ele>
        <time>2014-11-02T10:28:18Z</time>
      </trkpt>
      <trkpt lat="42.77539" lon="2.35271">
        <ele>804.76</ele>
        <time>2014-11-02T10:28:27Z</time>
      </trkpt>
      <trkpt lat="42.7754" lon="2.35284">
        <ele>801.4</ele>
        <time>2014-11-02T10:28:30Z</time>
      </trkpt>
      <trkpt lat="42.7754" lon="2.35294">
        <ele>799.47</ele>
        <time>2014-11-02T10:28:32Z</time>
      </trkpt>
      <trkpt lat="42.77533" lon="2.35297">
        <ele>798.03</ele>
        <time>2014-11-02T10:28:36Z</time>
      </trkpt>
      <trkpt lat="42.77527" lon="2.35285">
        <ele>796.59</ele>
        <time>2014-11-02T10:28:39Z</time>
      </trkpt>
      <trkpt lat="42.77521" lon="2.3527">
        <ele>796.59</ele>
        <time>2014-11-02T10:28:42Z</time>
      </trkpt>
      <trkpt lat="42.77501" lon="2.3522">
        <ele>795.15</ele>
        <time>2014-11-02T10:28:53Z</time>
      </trkpt>
      <trkpt lat="42.77492" lon="2.35198">
        <ele>795.63</ele>
        <time>2014-11-02T10:29:00Z</time>
      </trkpt>
      <trkpt lat="42.77487" lon="2.35196">
        <ele>794.67</ele>
        <time>2014-11-02T10:29:04Z</time>
      </trkpt>
      <trkpt lat="42.7749" lon="2.35232">
        <ele>791.78</ele>
        <time>2014-11-02T10:29:12Z</time>
      </trkpt>
      <trkpt lat="42.77498" lon="2.35264">
        <ele>787.94</ele>
        <time>2014-11-02T10:29:17Z</time>
      </trkpt>
      <trkpt lat="42.775" lon="2.35284">
        <ele>784.57</ele>
        <time>2014-11-02T10:29:20Z</time>
      </trkpt>
      <trkpt lat="42.77503" lon="2.35304">
        <ele>782.17</ele>
        <time>2014-11-02T10:29:23Z</time>
      </trkpt>
      <trkpt lat="42.77504" lon="2.35311">
        <ele>780.73</ele>
        <time>2014-11-02T10:29:24Z</time>
      </trkpt>
      <trkpt lat="42.77505" lon="2.35317">
        <ele>779.77</ele>
        <time>2014-11-02T10:29:25Z</time>
      </trkpt>
      <trkpt lat="42.77508" lon="2.35343">
        <ele>776.4</ele>
        <time>2014-11-02T10:29:29Z</time>
      </trkpt>
      <trkpt lat="42.77509" lon="2.35368">
        <ele>772.56</ele>
        <time>2014-11-02T10:29:34Z</time>
      </trkpt>
      <trkpt lat="42.77513" lon="2.35393">
        <ele>769.67</ele>
        <time>2014-11-02T10:29:40Z</time>
      </trkpt>
      <trkpt lat="42.77515" lon="2.35402">
        <ele>768.23</ele>
        <time>2014-11-02T10:29:43Z</time>
      </trkpt>
      <trkpt lat="42.77516" lon="2.3541">
        <ele>766.79</ele>
        <time>2014-11-02T10:29:47Z</time>
      </trkpt>
      <trkpt lat="42.77518" lon="2.35432">
        <ele>763.9</ele>
        <time>2014-11-02T10:29:54Z</time>
      </trkpt>
      <trkpt lat="42.77522" lon="2.35451">
        <ele>760.06</ele>
        <time>2014-11-02T10:29:58Z</time>
      </trkpt>
      <trkpt lat="42.77539" lon="2.35479">
        <ele>756.69</ele>
        <time>2014-11-02T10:30:04Z</time>
      </trkpt>
      <trkpt lat="42.77552" lon="2.35504">
        <ele>752.37</ele>
        <time>2014-11-02T10:30:09Z</time>
      </trkpt>
      <trkpt lat="42.77571" lon="2.3554">
        <ele>749</ele>
        <time>2014-11-02T10:30:14Z</time>
      </trkpt>
      <trkpt lat="42.77593" lon="2.35577">
        <ele>745.64</ele>
        <time>2014-11-02T10:30:20Z</time>
      </trkpt>
      <trkpt lat="42.77609" lon="2.356">
        <ele>742.28</ele>
        <time>2014-11-02T10:30:24Z</time>
      </trkpt>
      <trkpt lat="42.77615" lon="2.35609">
        <ele>741.79</ele>
        <time>2014-11-02T10:30:25Z</time>
      </trkpt>
      <trkpt lat="42.77618" lon="2.35615">
        <ele>740.83</ele>
        <time>2014-11-02T10:30:26Z</time>
      </trkpt>
      <trkpt lat="42.77621" lon="2.35621">
        <ele>740.35</ele>
        <time>2014-11-02T10:30:27Z</time>
      </trkpt>
      <trkpt lat="42.77629" lon="2.35644">
        <ele>736.51</ele>
        <time>2014-11-02T10:30:33Z</time>
      </trkpt>
      <trkpt lat="42.77638" lon="2.35673">
        <ele>732.66</ele>
        <time>2014-11-02T10:30:38Z</time>
      </trkpt>
      <trkpt lat="42.77647" lon="2.35691">
        <ele>729.78</ele>
        <time>2014-11-02T10:30:43Z</time>
      </trkpt>
      <trkpt lat="42.77657" lon="2.35719">
        <ele>726.41</ele>
        <time>2014-11-02T10:30:48Z</time>
      </trkpt>
      <trkpt lat="42.77669" lon="2.35762">
        <ele>723.53</ele>
        <time>2014-11-02T10:30:55Z</time>
      </trkpt>
      <trkpt lat="42.7768" lon="2.35794">
        <ele>722.57</ele>
        <time>2014-11-02T10:31:03Z</time>
      </trkpt>
      <trkpt lat="42.77682" lon="2.35805">
        <ele>722.09</ele>
        <time>2014-11-02T10:31:05Z</time>
      </trkpt>
      <trkpt lat="42.77684" lon="2.3581">
        <ele>721.61</ele>
        <time>2014-11-02T10:31:06Z</time>
      </trkpt>
      <trkpt lat="42.77699" lon="2.35866">
        <ele>721.13</ele>
        <time>2014-11-02T10:31:15Z</time>
      </trkpt>
      <trkpt lat="42.77701" lon="2.35872">
        <ele>721.61</ele>
        <time>2014-11-02T10:31:16Z</time>
      </trkpt>
      <trkpt lat="42.77723" lon="2.35906">
        <ele>719.2</ele>
        <time>2014-11-02T10:31:23Z</time>
      </trkpt>
      <trkpt lat="42.77727" lon="2.35914">
        <ele>719.2</ele>
        <time>2014-11-02T10:31:24Z</time>
      </trkpt>
      <trkpt lat="42.7773" lon="2.35923">
        <ele>718.24</ele>
        <time>2014-11-02T10:31:25Z</time>
      </trkpt>
      <trkpt lat="42.77734" lon="2.3594">
        <ele>715.36</ele>
        <time>2014-11-02T10:31:27Z</time>
      </trkpt>
      <trkpt lat="42.77747" lon="2.35987">
        <ele>711.99</ele>
        <time>2014-11-02T10:31:32Z</time>
      </trkpt>
      <trkpt lat="42.7775" lon="2.36015">
        <ele>709.11</ele>
        <time>2014-11-02T10:31:35Z</time>
      </trkpt>
      <trkpt lat="42.7775" lon="2.36023">
        <ele>708.15</ele>
        <time>2014-11-02T10:31:36Z</time>
      </trkpt>
      <trkpt lat="42.77753" lon="2.36055">
        <ele>704.78</ele>
        <time>2014-11-02T10:31:40Z</time>
      </trkpt>
      <trkpt lat="42.77753" lon="2.36059">
        <ele>704.3</ele>
        <time>2014-11-02T10:31:41Z</time>
      </trkpt>
      <trkpt lat="42.77746" lon="2.36047">
        <ele>702.38</ele>
        <time>2014-11-02T10:31:46Z</time>
      </trkpt>
      <trkpt lat="42.77733" lon="2.36006">
        <ele>699.98</ele>
        <time>2014-11-02T10:31:58Z</time>
      </trkpt>
      <trkpt lat="42.77731" lon="2.36044">
        <ele>696.13</ele>
        <time>2014-11-02T10:32:05Z</time>
      </trkpt>
      <trkpt lat="42.77732" lon="2.36079">
        <ele>692.77</ele>
        <time>2014-11-02T10:32:09Z</time>
      </trkpt>
      <trkpt lat="42.77736" lon="2.36102">
        <ele>690.84</ele>
        <time>2014-11-02T10:32:12Z</time>
      </trkpt>
      <trkpt lat="42.77739" lon="2.36109">
        <ele>689.4</ele>
        <time>2014-11-02T10:32:13Z</time>
      </trkpt>
      <trkpt lat="42.77743" lon="2.36114">
        <ele>689.4</ele>
        <time>2014-11-02T10:32:14Z</time>
      </trkpt>
      <trkpt lat="42.77747" lon="2.36117">
        <ele>688.44</ele>
        <time>2014-11-02T10:32:15Z</time>
      </trkpt>
      <trkpt lat="42.77751" lon="2.36119">
        <ele>687.96</ele>
        <time>2014-11-02T10:32:16Z</time>
      </trkpt>
      <trkpt lat="42.77756" lon="2.36122">
        <ele>686.52</ele>
        <time>2014-11-02T10:32:17Z</time>
      </trkpt>
      <trkpt lat="42.77765" lon="2.36125">
        <ele>685.56</ele>
        <time>2014-11-02T10:32:19Z</time>
      </trkpt>
      <trkpt lat="42.77771" lon="2.36127">
        <ele>684.6</ele>
        <time>2014-11-02T10:32:20Z</time>
      </trkpt>
      <trkpt lat="42.77776" lon="2.36129">
        <ele>684.12</ele>
        <time>2014-11-02T10:32:21Z</time>
      </trkpt>
      <trkpt lat="42.77781" lon="2.36132">
        <ele>683.63</ele>
        <time>2014-11-02T10:32:22Z</time>
      </trkpt>
      <trkpt lat="42.77785" lon="2.36134">
        <ele>683.15</ele>
        <time>2014-11-02T10:32:23Z</time>
      </trkpt>
      <trkpt lat="42.7779" lon="2.36137">
        <ele>682.67</ele>
        <time>2014-11-02T10:32:24Z</time>
      </trkpt>
      <trkpt lat="42.77793" lon="2.36139">
        <ele>682.19</ele>
        <time>2014-11-02T10:32:25Z</time>
      </trkpt>
      <trkpt lat="42.77812" lon="2.3615">
        <ele>680.27</ele>
        <time>2014-11-02T10:32:31Z</time>
      </trkpt>
      <trkpt lat="42.77822" lon="2.36169">
        <ele>677.39</ele>
        <time>2014-11-02T10:32:34Z</time>
      </trkpt>
      <trkpt lat="42.7784" lon="2.362">
        <ele>673.06</ele>
        <time>2014-11-02T10:32:38Z</time>
      </trkpt>
      <trkpt lat="42.77845" lon="2.36207">
        <ele>672.1</ele>
        <time>2014-11-02T10:32:39Z</time>
      </trkpt>
      <trkpt lat="42.77849" lon="2.36213">
        <ele>671.62</ele>
        <time>2014-11-02T10:32:40Z</time>
      </trkpt>
      <trkpt lat="42.77861" lon="2.36227">
        <ele>669.7</ele>
        <time>2014-11-02T10:32:44Z</time>
      </trkpt>
      <trkpt lat="42.77862" lon="2.36227">
        <ele>669.7</ele>
        <time>2014-11-02T10:32:45Z</time>
      </trkpt>
      <trkpt lat="42.77854" lon="2.36224">
        <ele>667.77</ele>
        <time>2014-11-02T10:32:49Z</time>
      </trkpt>
      <trkpt lat="42.77851" lon="2.36226">
        <ele>665.85</ele>
        <time>2014-11-02T10:32:50Z</time>
      </trkpt>
      <trkpt lat="42.77848" lon="2.3623">
        <ele>664.89</ele>
        <time>2014-11-02T10:32:51Z</time>
      </trkpt>
      <trkpt lat="42.77846" lon="2.36234">
        <ele>663.93</ele>
        <time>2014-11-02T10:32:52Z</time>
      </trkpt>
      <trkpt lat="42.77845" lon="2.36239">
        <ele>662.49</ele>
        <time>2014-11-02T10:32:53Z</time>
      </trkpt>
      <trkpt lat="42.77843" lon="2.36244">
        <ele>661.52</ele>
        <time>2014-11-02T10:32:54Z</time>
      </trkpt>
      <trkpt lat="42.77841" lon="2.36255">
        <ele>659.6</ele>
        <time>2014-11-02T10:32:56Z</time>
      </trkpt>
      <trkpt lat="42.7784" lon="2.36259">
        <ele>659.12</ele>
        <time>2014-11-02T10:32:57Z</time>
      </trkpt>
      <trkpt lat="42.7784" lon="2.36263">
        <ele>658.64</ele>
        <time>2014-11-02T10:32:58Z</time>
      </trkpt>
      <trkpt lat="42.7784" lon="2.36264">
        <ele>658.16</ele>
        <time>2014-11-02T10:32:59Z</time>
      </trkpt>
      <trkpt lat="42.77839" lon="2.36264">
        <ele>658.16</ele>
        <time>2014-11-02T10:33:16Z</time>
      </trkpt>
      <trkpt lat="42.7784" lon="2.36262">
        <ele>658.16</ele>
        <time>2014-11-02T10:33:31Z</time>
      </trkpt>
      <trkpt lat="42.77838" lon="2.36263">
        <ele>658.16</ele>
        <time>2014-11-02T10:33:49Z</time>
      </trkpt>
      <trkpt lat="42.77837" lon="2.36263">
        <ele>658.16</ele>
        <time>2014-11-02T10:34:15Z</time>
      </trkpt>
      <trkpt lat="42.77835" lon="2.36264">
        <ele>657.68</ele>
        <time>2014-11-02T10:34:38Z</time>
      </trkpt>
      <trkpt lat="42.77835" lon="2.36264">
        <ele>657.68</ele>
        <time>2014-11-02T10:34:58Z</time>
      </trkpt>
      <trkpt lat="42.77844" lon="2.36291">
        <ele>655.76</ele>
        <time>2014-11-02T10:35:09Z</time>
      </trkpt>
      <trkpt lat="42.77847" lon="2.36294">
        <ele>655.28</ele>
        <time>2014-11-02T10:35:10Z</time>
      </trkpt>
      <trkpt lat="42.77885" lon="2.36313">
        <ele>651.91</ele>
        <time>2014-11-02T10:35:20Z</time>
      </trkpt>
      <trkpt lat="42.77889" lon="2.36316">
        <ele>651.43</ele>
        <time>2014-11-02T10:35:21Z</time>
      </trkpt>
      <trkpt lat="42.77893" lon="2.3632">
        <ele>651.43</ele>
        <time>2014-11-02T10:35:22Z</time>
      </trkpt>
      <trkpt lat="42.77901" lon="2.36326">
        <ele>650.47</ele>
        <time>2014-11-02T10:35:24Z</time>
      </trkpt>
      <trkpt lat="42.77905" lon="2.36329">
        <ele>649.99</ele>
        <time>2014-11-02T10:35:25Z</time>
      </trkpt>
      <trkpt lat="42.7791" lon="2.3633">
        <ele>649.03</ele>
        <time>2014-11-02T10:35:26Z</time>
      </trkpt>
      <trkpt lat="42.77916" lon="2.36331">
        <ele>648.07</ele>
        <time>2014-11-02T10:35:27Z</time>
      </trkpt>
      <trkpt lat="42.77921" lon="2.3633">
        <ele>647.1</ele>
        <time>2014-11-02T10:35:28Z</time>
      </trkpt>
      <trkpt lat="42.77927" lon="2.36329">
        <ele>646.14</ele>
        <time>2014-11-02T10:35:29Z</time>
      </trkpt>
      <trkpt lat="42.77938" lon="2.36329">
        <ele>644.22</ele>
        <time>2014-11-02T10:35:31Z</time>
      </trkpt>
      <trkpt lat="42.77943" lon="2.3633">
        <ele>643.74</ele>
        <time>2014-11-02T10:35:32Z</time>
      </trkpt>
      <trkpt lat="42.77949" lon="2.36332">
        <ele>642.78</ele>
        <time>2014-11-02T10:35:33Z</time>
      </trkpt>
      <trkpt lat="42.77954" lon="2.36337">
        <ele>642.3</ele>
        <time>2014-11-02T10:35:34Z</time>
      </trkpt>
      <trkpt lat="42.77959" lon="2.36342">
        <ele>641.34</ele>
        <time>2014-11-02T10:35:35Z</time>
      </trkpt>
      <trkpt lat="42.77964" lon="2.36349">
        <ele>639.89</ele>
        <time>2014-11-02T10:35:36Z</time>
      </trkpt>
      <trkpt lat="42.77968" lon="2.36357">
        <ele>638.93</ele>
        <time>2014-11-02T10:35:37Z</time>
      </trkpt>
      <trkpt lat="42.77972" lon="2.36365">
        <ele>637.97</ele>
        <time>2014-11-02T10:35:38Z</time>
      </trkpt>
      <trkpt lat="42.77974" lon="2.36373">
        <ele>637.49</ele>
        <time>2014-11-02T10:35:39Z</time>
      </trkpt>
      <trkpt lat="42.77977" lon="2.36381">
        <ele>637.01</ele>
        <time>2014-11-02T10:35:40Z</time>
      </trkpt>
      <trkpt lat="42.77978" lon="2.3639">
        <ele>636.53</ele>
        <time>2014-11-02T10:35:41Z</time>
      </trkpt>
      <trkpt lat="42.77983" lon="2.36407">
        <ele>635.57</ele>
        <time>2014-11-02T10:35:43Z</time>
      </trkpt>
      <trkpt lat="42.77986" lon="2.36416">
        <ele>635.09</ele>
        <time>2014-11-02T10:35:44Z</time>
      </trkpt>
      <trkpt lat="42.7799" lon="2.36425">
        <ele>634.61</ele>
        <time>2014-11-02T10:35:45Z</time>
      </trkpt>
      <trkpt lat="42.77994" lon="2.36432">
        <ele>633.65</ele>
        <time>2014-11-02T10:35:46Z</time>
      </trkpt>
      <trkpt lat="42.77998" lon="2.36439">
        <ele>633.17</ele>
        <time>2014-11-02T10:35:47Z</time>
      </trkpt>
      <trkpt lat="42.78006" lon="2.36454">
        <ele>632.2</ele>
        <time>2014-11-02T10:35:49Z</time>
      </trkpt>
      <trkpt lat="42.78009" lon="2.36462">
        <ele>631.72</ele>
        <time>2014-11-02T10:35:50Z</time>
      </trkpt>
      <trkpt lat="42.7801" lon="2.36471">
        <ele>631.24</ele>
        <time>2014-11-02T10:35:51Z</time>
      </trkpt>
      <trkpt lat="42.78013" lon="2.36559">
        <ele>628.36</ele>
        <time>2014-11-02T10:36:01Z</time>
      </trkpt>
      <trkpt lat="42.78014" lon="2.36587">
        <ele>627.88</ele>
        <time>2014-11-02T10:36:04Z</time>
      </trkpt>
      <trkpt lat="42.78016" lon="2.36597">
        <ele>627.4</ele>
        <time>2014-11-02T10:36:05Z</time>
      </trkpt>
      <trkpt lat="42.78019" lon="2.36605">
        <ele>626.92</ele>
        <time>2014-11-02T10:36:06Z</time>
      </trkpt>
      <trkpt lat="42.78031" lon="2.36631">
        <ele>625.96</ele>
        <time>2014-11-02T10:36:09Z</time>
      </trkpt>
      <trkpt lat="42.78036" lon="2.36637">
        <ele>625.47</ele>
        <time>2014-11-02T10:36:10Z</time>
      </trkpt>
      <trkpt lat="42.7804" lon="2.36643">
        <ele>624.51</ele>
        <time>2014-11-02T10:36:11Z</time>
      </trkpt>
      <trkpt lat="42.78044" lon="2.36651">
        <ele>624.03</ele>
        <time>2014-11-02T10:36:12Z</time>
      </trkpt>
      <trkpt lat="42.78047" lon="2.36659">
        <ele>623.55</ele>
        <time>2014-11-02T10:36:13Z</time>
      </trkpt>
      <trkpt lat="42.7805" lon="2.36669">
        <ele>622.59</ele>
        <time>2014-11-02T10:36:14Z</time>
      </trkpt>
      <trkpt lat="42.78052" lon="2.3668">
        <ele>622.11</ele>
        <time>2014-11-02T10:36:15Z</time>
      </trkpt>
      <trkpt lat="42.78061" lon="2.36714">
        <ele>617.78</ele>
        <time>2014-11-02T10:36:18Z</time>
      </trkpt>
      <trkpt lat="42.7807" lon="2.36752">
        <ele>613.46</ele>
        <time>2014-11-02T10:36:21Z</time>
      </trkpt>
      <trkpt lat="42.78073" lon="2.36763">
        <ele>612.5</ele>
        <time>2014-11-02T10:36:22Z</time>
      </trkpt>
      <trkpt lat="42.78079" lon="2.36795">
        <ele>608.65</ele>
        <time>2014-11-02T10:36:25Z</time>
      </trkpt>
      <trkpt lat="42.78082" lon="2.36804">
        <ele>607.69</ele>
        <time>2014-11-02T10:36:26Z</time>
      </trkpt>
      <trkpt lat="42.78086" lon="2.36812">
        <ele>606.73</ele>
        <time>2014-11-02T10:36:27Z</time>
      </trkpt>
      <trkpt lat="42.78091" lon="2.36818">
        <ele>605.77</ele>
        <time>2014-11-02T10:36:28Z</time>
      </trkpt>
      <trkpt lat="42.78096" lon="2.36823">
        <ele>605.29</ele>
        <time>2014-11-02T10:36:29Z</time>
      </trkpt>
      <trkpt lat="42.78102" lon="2.36828">
        <ele>604.81</ele>
        <time>2014-11-02T10:36:30Z</time>
      </trkpt>
      <trkpt lat="42.78108" lon="2.36831">
        <ele>604.33</ele>
        <time>2014-11-02T10:36:31Z</time>
      </trkpt>
      <trkpt lat="42.78115" lon="2.36832">
        <ele>603.36</ele>
        <time>2014-11-02T10:36:32Z</time>
      </trkpt>
      <trkpt lat="42.7813" lon="2.36832">
        <ele>601.92</ele>
        <time>2014-11-02T10:36:34Z</time>
      </trkpt>
      <trkpt lat="42.78137" lon="2.36834">
        <ele>601.44</ele>
        <time>2014-11-02T10:36:35Z</time>
      </trkpt>
      <trkpt lat="42.78144" lon="2.36837">
        <ele>600.96</ele>
        <time>2014-11-02T10:36:36Z</time>
      </trkpt>
      <trkpt lat="42.7815" lon="2.36841">
        <ele>600.96</ele>
        <time>2014-11-02T10:36:37Z</time>
      </trkpt>
      <trkpt lat="42.78156" lon="2.36846">
        <ele>600.48</ele>
        <time>2014-11-02T10:36:38Z</time>
      </trkpt>
      <trkpt lat="42.78161" lon="2.36853">
        <ele>600</ele>
        <time>2014-11-02T10:36:39Z</time>
      </trkpt>
      <trkpt lat="42.78164" lon="2.36861">
        <ele>599.52</ele>
        <time>2014-11-02T10:36:40Z</time>
      </trkpt>
      <trkpt lat="42.78166" lon="2.36869">
        <ele>599.04</ele>
        <time>2014-11-02T10:36:41Z</time>
      </trkpt>
      <trkpt lat="42.78167" lon="2.36878">
        <ele>599.04</ele>
        <time>2014-11-02T10:36:42Z</time>
      </trkpt>
      <trkpt lat="42.78167" lon="2.36887">
        <ele>598.56</ele>
        <time>2014-11-02T10:36:43Z</time>
      </trkpt>
      <trkpt lat="42.78167" lon="2.36912">
        <ele>596.64</ele>
        <time>2014-11-02T10:36:46Z</time>
      </trkpt>
      <trkpt lat="42.78168" lon="2.3692">
        <ele>596.64</ele>
        <time>2014-11-02T10:36:47Z</time>
      </trkpt>
      <trkpt lat="42.7817" lon="2.36927">
        <ele>596.15</ele>
        <time>2014-11-02T10:36:48Z</time>
      </trkpt>
      <trkpt lat="42.78174" lon="2.36943">
        <ele>595.67</ele>
        <time>2014-11-02T10:36:50Z</time>
      </trkpt>
      <trkpt lat="42.78176" lon="2.36952">
        <ele>594.23</ele>
        <time>2014-11-02T10:36:51Z</time>
      </trkpt>
      <trkpt lat="42.78187" lon="2.36989">
        <ele>590.39</ele>
        <time>2014-11-02T10:36:55Z</time>
      </trkpt>
      <trkpt lat="42.78197" lon="2.37016">
        <ele>587.98</ele>
        <time>2014-11-02T10:36:58Z</time>
      </trkpt>
      <trkpt lat="42.78201" lon="2.37024">
        <ele>586.54</ele>
        <time>2014-11-02T10:36:59Z</time>
      </trkpt>
      <trkpt lat="42.78214" lon="2.37049">
        <ele>583.18</ele>
        <time>2014-11-02T10:37:02Z</time>
      </trkpt>
      <trkpt lat="42.78225" lon="2.37075">
        <ele>580.29</ele>
        <time>2014-11-02T10:37:05Z</time>
      </trkpt>
      <trkpt lat="42.78233" lon="2.37091">
        <ele>577.89</ele>
        <time>2014-11-02T10:37:07Z</time>
      </trkpt>
      <trkpt lat="42.78239" lon="2.37099">
        <ele>576.93</ele>
        <time>2014-11-02T10:37:08Z</time>
      </trkpt>
      <trkpt lat="42.78259" lon="2.37122">
        <ele>572.6</ele>
        <time>2014-11-02T10:37:11Z</time>
      </trkpt>
      <trkpt lat="42.78281" lon="2.37144">
        <ele>568.76</ele>
        <time>2014-11-02T10:37:14Z</time>
      </trkpt>
      <trkpt lat="42.78297" lon="2.37158">
        <ele>565.87</ele>
        <time>2014-11-02T10:37:16Z</time>
      </trkpt>
      <trkpt lat="42.78313" lon="2.37169">
        <ele>564.43</ele>
        <time>2014-11-02T10:37:18Z</time>
      </trkpt>
      <trkpt lat="42.7832" lon="2.37173">
        <ele>563.47</ele>
        <time>2014-11-02T10:37:19Z</time>
      </trkpt>
      <trkpt lat="42.78327" lon="2.37175">
        <ele>562.99</ele>
        <time>2014-11-02T10:37:20Z</time>
      </trkpt>
      <trkpt lat="42.78334" lon="2.37176">
        <ele>562.03</ele>
        <time>2014-11-02T10:37:21Z</time>
      </trkpt>
      <trkpt lat="42.78342" lon="2.37175">
        <ele>561.55</ele>
        <time>2014-11-02T10:37:22Z</time>
      </trkpt>
      <trkpt lat="42.7836" lon="2.37174">
        <ele>559.62</ele>
        <time>2014-11-02T10:37:25Z</time>
      </trkpt>
      <trkpt lat="42.78365" lon="2.37176">
        <ele>559.14</ele>
        <time>2014-11-02T10:37:26Z</time>
      </trkpt>
      <trkpt lat="42.7837" lon="2.37179">
        <ele>558.18</ele>
        <time>2014-11-02T10:37:27Z</time>
      </trkpt>
      <trkpt lat="42.78394" lon="2.37193">
        <ele>559.62</ele>
        <time>2014-11-02T10:37:36Z</time>
      </trkpt>
      <trkpt lat="42.78408" lon="2.37223">
        <ele>561.55</ele>
        <time>2014-11-02T10:37:46Z</time>
      </trkpt>
      <trkpt lat="42.78437" lon="2.37254">
        <ele>561.07</ele>
        <time>2014-11-02T10:37:59Z</time>
      </trkpt>
      <trkpt lat="42.78443" lon="2.37263">
        <ele>561.07</ele>
        <time>2014-11-02T10:38:01Z</time>
      </trkpt>
      <trkpt lat="42.78482" lon="2.37311">
        <ele>558.66</ele>
        <time>2014-11-02T10:38:11Z</time>
      </trkpt>
      <trkpt lat="42.78487" lon="2.37315">
        <ele>558.66</ele>
        <time>2014-11-02T10:38:12Z</time>
      </trkpt>
      <trkpt lat="42.78491" lon="2.37318">
        <ele>558.66</ele>
        <time>2014-11-02T10:38:13Z</time>
      </trkpt>
      <trkpt lat="42.78496" lon="2.37321">
        <ele>558.66</ele>
        <time>2014-11-02T10:38:14Z</time>
      </trkpt>
      <trkpt lat="42.78501" lon="2.37323">
        <ele>558.66</ele>
        <time>2014-11-02T10:38:15Z</time>
      </trkpt>
      <trkpt lat="42.78506" lon="2.37324">
        <ele>558.66</ele>
        <time>2014-11-02T10:38:16Z</time>
      </trkpt>
      <trkpt lat="42.7851" lon="2.37325">
        <ele>558.66</ele>
        <time>2014-11-02T10:38:17Z</time>
      </trkpt>
      <trkpt lat="42.78515" lon="2.37325">
        <ele>558.66</ele>
        <time>2014-11-02T10:38:18Z</time>
      </trkpt>
      <trkpt lat="42.78529" lon="2.37323">
        <ele>558.18</ele>
        <time>2014-11-02T10:38:21Z</time>
      </trkpt>
      <trkpt lat="42.78546" lon="2.37321">
        <ele>557.22</ele>
        <time>2014-11-02T10:38:30Z</time>
      </trkpt>
      <trkpt lat="42.78547" lon="2.37322">
        <ele>557.22</ele>
        <time>2014-11-02T10:38:43Z</time>
      </trkpt>
      <trkpt lat="42.78548" lon="2.37324">
        <ele>556.74</ele>
        <time>2014-11-02T10:38:44Z</time>
      </trkpt>
      <trkpt lat="42.78559" lon="2.37354">
        <ele>556.74</ele>
        <time>2014-11-02T10:38:50Z</time>
      </trkpt>
      <trkpt lat="42.78564" lon="2.37365">
        <ele>555.3</ele>
        <time>2014-11-02T10:38:52Z</time>
      </trkpt>
      <trkpt lat="42.78568" lon="2.3737">
        <ele>555.3</ele>
        <time>2014-11-02T10:38:53Z</time>
      </trkpt>
      <trkpt lat="42.78584" lon="2.37387">
        <ele>554.82</ele>
        <time>2014-11-02T10:38:57Z</time>
      </trkpt>
      <trkpt lat="42.78589" lon="2.37389">
        <ele>554.34</ele>
        <time>2014-11-02T10:38:58Z</time>
      </trkpt>
      <trkpt lat="42.78593" lon="2.37391">
        <ele>554.34</ele>
        <time>2014-11-02T10:38:59Z</time>
      </trkpt>
      <trkpt lat="42.78598" lon="2.37391">
        <ele>554.34</ele>
        <time>2014-11-02T10:39:00Z</time>
      </trkpt>
      <trkpt lat="42.78603" lon="2.37391">
        <ele>553.86</ele>
        <time>2014-11-02T10:39:01Z</time>
      </trkpt>
      <trkpt lat="42.78608" lon="2.37391">
        <ele>553.38</ele>
        <time>2014-11-02T10:39:02Z</time>
      </trkpt>
      <trkpt lat="42.78644" lon="2.37387">
        <ele>550.97</ele>
        <time>2014-11-02T10:39:09Z</time>
      </trkpt>
      <trkpt lat="42.78649" lon="2.37385">
        <ele>550.49</ele>
        <time>2014-11-02T10:39:10Z</time>
      </trkpt>
      <trkpt lat="42.78653" lon="2.37382">
        <ele>550.01</ele>
        <time>2014-11-02T10:39:11Z</time>
      </trkpt>
      <trkpt lat="42.78662" lon="2.37372">
        <ele>548.57</ele>
        <time>2014-11-02T10:39:14Z</time>
      </trkpt>
      <trkpt lat="42.78666" lon="2.37364">
        <ele>547.61</ele>
        <time>2014-11-02T10:39:16Z</time>
      </trkpt>
      <trkpt lat="42.78686" lon="2.37329">
        <ele>543.28</ele>
        <time>2014-11-02T10:39:22Z</time>
      </trkpt>
      <trkpt lat="42.78699" lon="2.37305">
        <ele>540.4</ele>
        <time>2014-11-02T10:39:25Z</time>
      </trkpt>
      <trkpt lat="42.78705" lon="2.37301">
        <ele>539.92</ele>
        <time>2014-11-02T10:39:26Z</time>
      </trkpt>
      <trkpt lat="42.78711" lon="2.373">
        <ele>539.44</ele>
        <time>2014-11-02T10:39:27Z</time>
      </trkpt>
      <trkpt lat="42.78718" lon="2.37301">
        <ele>538.96</ele>
        <time>2014-11-02T10:39:28Z</time>
      </trkpt>
      <trkpt lat="42.78725" lon="2.37304">
        <ele>538.48</ele>
        <time>2014-11-02T10:39:29Z</time>
      </trkpt>
      <trkpt lat="42.78731" lon="2.37309">
        <ele>537.99</ele>
        <time>2014-11-02T10:39:30Z</time>
      </trkpt>
      <trkpt lat="42.78735" lon="2.37316">
        <ele>537.51</ele>
        <time>2014-11-02T10:39:31Z</time>
      </trkpt>
      <trkpt lat="42.78739" lon="2.37322">
        <ele>536.55</ele>
        <time>2014-11-02T10:39:32Z</time>
      </trkpt>
      <trkpt lat="42.78754" lon="2.37345">
        <ele>534.63</ele>
        <time>2014-11-02T10:39:40Z</time>
      </trkpt>
      <trkpt lat="42.78756" lon="2.37348">
        <ele>534.15</ele>
        <time>2014-11-02T10:39:42Z</time>
      </trkpt>
      <trkpt lat="42.78755" lon="2.37351">
        <ele>533.67</ele>
        <time>2014-11-02T10:39:44Z</time>
      </trkpt>
      <trkpt lat="42.78753" lon="2.37351">
        <ele>533.67</ele>
        <time>2014-11-02T10:39:45Z</time>
      </trkpt>
      <trkpt lat="42.78752" lon="2.3735">
        <ele>533.67</ele>
        <time>2014-11-02T10:39:46Z</time>
      </trkpt>
      <trkpt lat="42.78742" lon="2.37345">
        <ele>532.23</ele>
        <time>2014-11-02T10:39:53Z</time>
      </trkpt>
      <trkpt lat="42.78741" lon="2.37347">
        <ele>531.75</ele>
        <time>2014-11-02T10:39:54Z</time>
      </trkpt>
      <trkpt lat="42.78741" lon="2.37349">
        <ele>531.27</ele>
        <time>2014-11-02T10:39:55Z</time>
      </trkpt>
      <trkpt lat="42.78742" lon="2.37352">
        <ele>530.79</ele>
        <time>2014-11-02T10:39:56Z</time>
      </trkpt>
      <trkpt lat="42.78742" lon="2.37355">
        <ele>530.79</ele>
        <time>2014-11-02T10:39:57Z</time>
      </trkpt>
      <trkpt lat="42.78743" lon="2.37357">
        <ele>530.79</ele>
        <time>2014-11-02T10:39:58Z</time>
      </trkpt>
      <trkpt lat="42.78744" lon="2.37359">
        <ele>530.79</ele>
        <time>2014-11-02T10:39:59Z</time>
      </trkpt>
      <trkpt lat="42.78744" lon="2.37362">
        <ele>530.79</ele>
        <time>2014-11-02T10:40:00Z</time>
      </trkpt>
      <trkpt lat="42.78744" lon="2.37365">
        <ele>530.79</ele>
        <time>2014-11-02T10:40:01Z</time>
      </trkpt>
      <trkpt lat="42.78751" lon="2.37379">
        <ele>530.79</ele>
        <time>2014-11-02T10:40:13Z</time>
      </trkpt>
      <trkpt lat="42.78755" lon="2.37379">
        <ele>530.79</ele>
        <time>2014-11-02T10:40:24Z</time>
      </trkpt>
      <trkpt lat="42.78755" lon="2.37381">
        <ele>530.79</ele>
        <time>2014-11-02T10:40:44Z</time>
      </trkpt>
      <trkpt lat="42.78755" lon="2.37382">
        <ele>530.3</ele>
        <time>2014-11-02T10:41:02Z</time>
      </trkpt>
      <trkpt lat="42.78755" lon="2.37382">
        <ele>530.3</ele>
        <time>2014-11-02T10:41:22Z</time>
      </trkpt>
      <trkpt lat="42.78758" lon="2.37383">
        <ele>530.3</ele>
        <time>2014-11-02T10:41:34Z</time>
      </trkpt>
      <trkpt lat="42.78779" lon="2.37392">
        <ele>529.82</ele>
        <time>2014-11-02T10:41:48Z</time>
      </trkpt>
      <trkpt lat="42.78781" lon="2.3739">
        <ele>529.82</ele>
        <time>2014-11-02T10:41:56Z</time>
      </trkpt>
      <trkpt lat="42.78781" lon="2.37366">
        <ele>530.3</ele>
        <time>2014-11-02T10:42:06Z</time>
      </trkpt>
      <trkpt lat="42.7878" lon="2.37365">
        <ele>530.3</ele>
        <time>2014-11-02T10:42:07Z</time>
      </trkpt>
      <trkpt lat="42.78778" lon="2.37365">
        <ele>530.3</ele>
        <time>2014-11-02T10:42:08Z</time>
      </trkpt>
      <trkpt lat="42.78761" lon="2.37357">
        <ele>532.71</ele>
        <time>2014-11-02T10:42:17Z</time>
      </trkpt>
      <trkpt lat="42.78744" lon="2.37346">
        <ele>531.75</ele>
        <time>2014-11-02T10:42:26Z</time>
      </trkpt>
      <trkpt lat="42.78742" lon="2.37348">
        <ele>531.27</ele>
        <time>2014-11-02T10:42:27Z</time>
      </trkpt>
      <trkpt lat="42.78741" lon="2.3735">
        <ele>530.79</ele>
        <time>2014-11-02T10:42:28Z</time>
      </trkpt>
      <trkpt lat="42.78741" lon="2.37352">
        <ele>530.3</ele>
        <time>2014-11-02T10:42:29Z</time>
      </trkpt>
      <trkpt lat="42.78739" lon="2.3735">
        <ele>530.3</ele>
        <time>2014-11-02T10:42:38Z</time>
      </trkpt>
      <trkpt lat="42.78738" lon="2.37351">
        <ele>531.27</ele>
        <time>2014-11-02T10:42:50Z</time>
      </trkpt>
      <trkpt lat="42.78736" lon="2.37351">
        <ele>530.3</ele>
        <time>2014-11-02T10:43:02Z</time>
      </trkpt>
      <trkpt lat="42.78743" lon="2.37351">
        <ele>538.48</ele>
        <time>2014-11-02T11:45:24Z</time>
      </trkpt>
      <trkpt lat="42.78744" lon="2.37348">
        <ele>538.48</ele>
        <time>2014-11-02T11:45:25Z</time>
      </trkpt>
      <trkpt lat="42.78745" lon="2.37352">
        <ele>534.63</ele>
        <time>2014-11-02T11:45:34Z</time>
      </trkpt>
      <trkpt lat="42.78745" lon="2.37352">
        <ele>531.75</ele>
        <time>2014-11-02T11:45:38Z</time>
      </trkpt>
      <trkpt lat="42.78746" lon="2.37352">
        <ele>530.79</ele>
        <time>2014-11-02T11:45:40Z</time>
      </trkpt>
      <trkpt lat="42.78746" lon="2.37352">
        <ele>527.9</ele>
        <time>2014-11-02T11:45:44Z</time>
      </trkpt>
      <trkpt lat="42.78746" lon="2.37352">
        <ele>526.46</ele>
        <time>2014-11-02T11:45:47Z</time>
      </trkpt>
      <trkpt lat="42.78746" lon="2.37352">
        <ele>524.54</ele>
        <time>2014-11-02T11:45:51Z</time>
      </trkpt>
      <trkpt lat="42.78742" lon="2.37352">
        <ele>521.65</ele>
        <time>2014-11-02T11:46:04Z</time>
      </trkpt>
      <trkpt lat="42.78741" lon="2.37352">
        <ele>519.73</ele>
        <time>2014-11-02T11:46:14Z</time>
      </trkpt>
      <trkpt lat="42.7875" lon="2.37379">
        <ele>517.81</ele>
        <time>2014-11-02T11:46:27Z</time>
      </trkpt>
      <trkpt lat="42.78769" lon="2.3739">
        <ele>517.81</ele>
        <time>2014-11-02T11:46:38Z</time>
      </trkpt>
      <trkpt lat="42.78781" lon="2.37394">
        <ele>516.85</ele>
        <time>2014-11-02T11:46:54Z</time>
      </trkpt>
      <trkpt lat="42.78782" lon="2.37394">
        <ele>516.85</ele>
        <time>2014-11-02T11:47:17Z</time>
      </trkpt>
      <trkpt lat="42.78783" lon="2.37396">
        <ele>516.85</ele>
        <time>2014-11-02T11:47:47Z</time>
      </trkpt>
      <trkpt lat="42.78783" lon="2.37396">
        <ele>517.33</ele>
        <time>2014-11-02T11:48:08Z</time>
      </trkpt>
      <trkpt lat="42.78782" lon="2.37402">
        <ele>514.44</ele>
        <time>2014-11-02T11:48:18Z</time>
      </trkpt>
      <trkpt lat="42.78784" lon="2.37407">
        <ele>513.96</ele>
        <time>2014-11-02T11:48:20Z</time>
      </trkpt>
      <trkpt lat="42.78794" lon="2.37415">
        <ele>510.12</ele>
        <time>2014-11-02T11:48:26Z</time>
      </trkpt>
      <trkpt lat="42.78797" lon="2.37414">
        <ele>509.16</ele>
        <time>2014-11-02T11:48:28Z</time>
      </trkpt>
      <trkpt lat="42.78798" lon="2.37412">
        <ele>508.67</ele>
        <time>2014-11-02T11:48:31Z</time>
      </trkpt>
      <trkpt lat="42.78805" lon="2.37422">
        <ele>504.35</ele>
        <time>2014-11-02T11:48:36Z</time>
      </trkpt>
      <trkpt lat="42.78811" lon="2.37437">
        <ele>500.02</ele>
        <time>2014-11-02T11:48:40Z</time>
      </trkpt>
      <trkpt lat="42.78819" lon="2.37453">
        <ele>496.18</ele>
        <time>2014-11-02T11:48:43Z</time>
      </trkpt>
      <trkpt lat="42.78823" lon="2.37457">
        <ele>495.22</ele>
        <time>2014-11-02T11:48:44Z</time>
      </trkpt>
      <trkpt lat="42.78827" lon="2.3746">
        <ele>494.26</ele>
        <time>2014-11-02T11:48:45Z</time>
      </trkpt>
      <trkpt lat="42.78841" lon="2.3747">
        <ele>491.37</ele>
        <time>2014-11-02T11:48:48Z</time>
      </trkpt>
      <trkpt lat="42.78845" lon="2.37474">
        <ele>490.41</ele>
        <time>2014-11-02T11:48:49Z</time>
      </trkpt>
      <trkpt lat="42.78849" lon="2.37479">
        <ele>488.97</ele>
        <time>2014-11-02T11:48:50Z</time>
      </trkpt>
      <trkpt lat="42.78852" lon="2.37492">
        <ele>485.12</ele>
        <time>2014-11-02T11:48:52Z</time>
      </trkpt>
      <trkpt lat="42.78857" lon="2.37509">
        <ele>481.28</ele>
        <time>2014-11-02T11:48:55Z</time>
      </trkpt>
      <trkpt lat="42.78861" lon="2.3752">
        <ele>478.87</ele>
        <time>2014-11-02T11:48:57Z</time>
      </trkpt>
      <trkpt lat="42.78861" lon="2.37525">
        <ele>477.43</ele>
        <time>2014-11-02T11:48:58Z</time>
      </trkpt>
      <trkpt lat="42.78865" lon="2.37541">
        <ele>474.07</ele>
        <time>2014-11-02T11:49:01Z</time>
      </trkpt>
      <trkpt lat="42.78869" lon="2.37559">
        <ele>470.22</ele>
        <time>2014-11-02T11:49:05Z</time>
      </trkpt>
      <trkpt lat="42.78867" lon="2.37565">
        <ele>469.26</ele>
        <time>2014-11-02T11:49:06Z</time>
      </trkpt>
      <trkpt lat="42.78865" lon="2.37571">
        <ele>468.3</ele>
        <time>2014-11-02T11:49:07Z</time>
      </trkpt>
      <trkpt lat="42.78862" lon="2.37575">
        <ele>467.34</ele>
        <time>2014-11-02T11:49:08Z</time>
      </trkpt>
      <trkpt lat="42.7886" lon="2.37578">
        <ele>466.38</ele>
        <time>2014-11-02T11:49:09Z</time>
      </trkpt>
      <trkpt lat="42.78859" lon="2.37581">
        <ele>465.42</ele>
        <time>2014-11-02T11:49:10Z</time>
      </trkpt>
      <trkpt lat="42.78858" lon="2.37582">
        <ele>464.93</ele>
        <time>2014-11-02T11:49:11Z</time>
      </trkpt>
      <trkpt lat="42.78856" lon="2.37583">
        <ele>464.93</ele>
        <time>2014-11-02T11:49:25Z</time>
      </trkpt>
      <trkpt lat="42.78856" lon="2.37587">
        <ele>463.97</ele>
        <time>2014-11-02T11:49:43Z</time>
      </trkpt>
      <trkpt lat="42.78877" lon="2.37598">
        <ele>462.05</ele>
        <time>2014-11-02T11:49:52Z</time>
      </trkpt>
      <trkpt lat="42.78881" lon="2.37598">
        <ele>461.57</ele>
        <time>2014-11-02T11:49:53Z</time>
      </trkpt>
      <trkpt lat="42.78886" lon="2.37597">
        <ele>461.09</ele>
        <time>2014-11-02T11:49:54Z</time>
      </trkpt>
      <trkpt lat="42.78908" lon="2.37582">
        <ele>458.21</ele>
        <time>2014-11-02T11:49:59Z</time>
      </trkpt>
      <trkpt lat="42.78911" lon="2.37583">
        <ele>457.72</ele>
        <time>2014-11-02T11:50:00Z</time>
      </trkpt>
      <trkpt lat="42.78914" lon="2.37586">
        <ele>457.72</ele>
        <time>2014-11-02T11:50:01Z</time>
      </trkpt>
      <trkpt lat="42.78936" lon="2.37636">
        <ele>454.84</ele>
        <time>2014-11-02T11:50:12Z</time>
      </trkpt>
      <trkpt lat="42.78939" lon="2.37641">
        <ele>454.36</ele>
        <time>2014-11-02T11:50:13Z</time>
      </trkpt>
      <trkpt lat="42.78944" lon="2.37644">
        <ele>453.88</ele>
        <time>2014-11-02T11:50:14Z</time>
      </trkpt>
      <trkpt lat="42.78949" lon="2.37645">
        <ele>453.4</ele>
        <time>2014-11-02T11:50:15Z</time>
      </trkpt>
      <trkpt lat="42.78955" lon="2.37646">
        <ele>452.44</ele>
        <time>2014-11-02T11:50:16Z</time>
      </trkpt>
      <trkpt lat="42.78961" lon="2.37647">
        <ele>451.48</ele>
        <time>2014-11-02T11:50:17Z</time>
      </trkpt>
      <trkpt lat="42.78979" lon="2.37651">
        <ele>449.07</ele>
        <time>2014-11-02T11:50:20Z</time>
      </trkpt>
      <trkpt lat="42.78988" lon="2.37654">
        <ele>448.11</ele>
        <time>2014-11-02T11:50:22Z</time>
      </trkpt>
      <trkpt lat="42.78992" lon="2.37654">
        <ele>447.63</ele>
        <time>2014-11-02T11:50:23Z</time>
      </trkpt>
      <trkpt lat="42.78996" lon="2.37654">
        <ele>447.15</ele>
        <time>2014-11-02T11:50:24Z</time>
      </trkpt>
      <trkpt lat="42.79" lon="2.37653">
        <ele>447.15</ele>
        <time>2014-11-02T11:50:25Z</time>
      </trkpt>
      <trkpt lat="42.79004" lon="2.37651">
        <ele>447.15</ele>
        <time>2014-11-02T11:50:26Z</time>
      </trkpt>
      <trkpt lat="42.79006" lon="2.37649">
        <ele>447.15</ele>
        <time>2014-11-02T11:50:27Z</time>
      </trkpt>
      <trkpt lat="42.79006" lon="2.37646">
        <ele>447.63</ele>
        <time>2014-11-02T11:50:28Z</time>
      </trkpt>
      <trkpt lat="42.7901" lon="2.37627">
        <ele>449.07</ele>
        <time>2014-11-02T11:50:35Z</time>
      </trkpt>
      <trkpt lat="42.7901" lon="2.37625">
        <ele>449.07</ele>
        <time>2014-11-02T11:50:36Z</time>
      </trkpt>
      <trkpt lat="42.79011" lon="2.37623">
        <ele>449.07</ele>
        <time>2014-11-02T11:50:37Z</time>
      </trkpt>
      <trkpt lat="42.79011" lon="2.3762">
        <ele>449.55</ele>
        <time>2014-11-02T11:50:38Z</time>
      </trkpt>
      <trkpt lat="42.79011" lon="2.37618">
        <ele>449.55</ele>
        <time>2014-11-02T11:50:39Z</time>
      </trkpt>
      <trkpt lat="42.79012" lon="2.37616">
        <ele>449.55</ele>
        <time>2014-11-02T11:50:40Z</time>
      </trkpt>
      <trkpt lat="42.79017" lon="2.37599">
        <ele>451</ele>
        <time>2014-11-02T11:50:48Z</time>
      </trkpt>
      <trkpt lat="42.79033" lon="2.3758">
        <ele>453.88</ele>
        <time>2014-11-02T11:51:02Z</time>
      </trkpt>
      <trkpt lat="42.79049" lon="2.37562">
        <ele>455.8</ele>
        <time>2014-11-02T11:51:15Z</time>
      </trkpt>
      <trkpt lat="42.79069" lon="2.37544">
        <ele>458.21</ele>
        <time>2014-11-02T11:51:28Z</time>
      </trkpt>
      <trkpt lat="42.79076" lon="2.37533">
        <ele>459.65</ele>
        <time>2014-11-02T11:51:34Z</time>
      </trkpt>
      <trkpt lat="42.79075" lon="2.37531">
        <ele>459.65</ele>
        <time>2014-11-02T11:51:35Z</time>
      </trkpt>
      <trkpt lat="42.79073" lon="2.37528">
        <ele>460.13</ele>
        <time>2014-11-02T11:51:37Z</time>
      </trkpt>
      <trkpt lat="42.79072" lon="2.37527">
        <ele>460.13</ele>
        <time>2014-11-02T11:51:38Z</time>
      </trkpt>
      <trkpt lat="42.79071" lon="2.37527">
        <ele>460.61</ele>
        <time>2014-11-02T11:51:39Z</time>
      </trkpt>
      <trkpt lat="42.79069" lon="2.37527">
        <ele>460.61</ele>
        <time>2014-11-02T11:51:40Z</time>
      </trkpt>
      <trkpt lat="42.79068" lon="2.37527">
        <ele>460.61</ele>
        <time>2014-11-02T11:51:41Z</time>
      </trkpt>
      <trkpt lat="42.79066" lon="2.37528">
        <ele>461.09</ele>
        <time>2014-11-02T11:51:42Z</time>
      </trkpt>
      <trkpt lat="42.79065" lon="2.37529">
        <ele>461.09</ele>
        <time>2014-11-02T11:51:43Z</time>
      </trkpt>
      <trkpt lat="42.79064" lon="2.3753">
        <ele>461.57</ele>
        <time>2014-11-02T11:51:44Z</time>
      </trkpt>
      <trkpt lat="42.79046" lon="2.37543">
        <ele>463.01</ele>
        <time>2014-11-02T11:51:56Z</time>
      </trkpt>
      <trkpt lat="42.79026" lon="2.37552">
        <ele>465.42</ele>
        <time>2014-11-02T11:52:09Z</time>
      </trkpt>
      <trkpt lat="42.79024" lon="2.37553">
        <ele>465.9</ele>
        <time>2014-11-02T11:52:10Z</time>
      </trkpt>
      <trkpt lat="42.79023" lon="2.37553">
        <ele>465.9</ele>
        <time>2014-11-02T11:52:11Z</time>
      </trkpt>
      <trkpt lat="42.79" lon="2.3756">
        <ele>467.82</ele>
        <time>2014-11-02T11:52:25Z</time>
      </trkpt>
      <trkpt lat="42.78984" lon="2.37574">
        <ele>470.22</ele>
        <time>2014-11-02T11:52:38Z</time>
      </trkpt>
      <trkpt lat="42.78961" lon="2.37585">
        <ele>472.63</ele>
        <time>2014-11-02T11:52:53Z</time>
      </trkpt>
      <trkpt lat="42.78942" lon="2.37575">
        <ele>475.03</ele>
        <time>2014-11-02T11:53:07Z</time>
      </trkpt>
      <trkpt lat="42.78935" lon="2.37558">
        <ele>476.95</ele>
        <time>2014-11-02T11:53:19Z</time>
      </trkpt>
      <trkpt lat="42.78931" lon="2.3755">
        <ele>477.91</ele>
        <time>2014-11-02T11:53:24Z</time>
      </trkpt>
      <trkpt lat="42.78928" lon="2.37543">
        <ele>478.39</ele>
        <time>2014-11-02T11:53:28Z</time>
      </trkpt>
      <trkpt lat="42.78928" lon="2.37541">
        <ele>478.87</ele>
        <time>2014-11-02T11:53:29Z</time>
      </trkpt>
      <trkpt lat="42.78927" lon="2.37539">
        <ele>478.87</ele>
        <time>2014-11-02T11:53:30Z</time>
      </trkpt>
      <trkpt lat="42.78927" lon="2.37536">
        <ele>478.87</ele>
        <time>2014-11-02T11:53:31Z</time>
      </trkpt>
      <trkpt lat="42.78927" lon="2.37534">
        <ele>479.35</ele>
        <time>2014-11-02T11:53:32Z</time>
      </trkpt>
      <trkpt lat="42.78925" lon="2.3752">
        <ele>480.32</ele>
        <time>2014-11-02T11:53:40Z</time>
      </trkpt>
      <trkpt lat="42.78924" lon="2.37518">
        <ele>480.8</ele>
        <time>2014-11-02T11:53:41Z</time>
      </trkpt>
      <trkpt lat="42.78918" lon="2.37491">
        <ele>482.72</ele>
        <time>2014-11-02T11:53:54Z</time>
      </trkpt>
      <trkpt lat="42.78918" lon="2.37488">
        <ele>483.2</ele>
        <time>2014-11-02T11:53:57Z</time>
      </trkpt>
      <trkpt lat="42.78918" lon="2.37483">
        <ele>483.68</ele>
        <time>2014-11-02T11:53:59Z</time>
      </trkpt>
      <trkpt lat="42.78917" lon="2.3748">
        <ele>483.68</ele>
        <time>2014-11-02T11:54:00Z</time>
      </trkpt>
      <trkpt lat="42.78918" lon="2.37476">
        <ele>484.16</ele>
        <time>2014-11-02T11:54:02Z</time>
      </trkpt>
      <trkpt lat="42.78918" lon="2.37471">
        <ele>484.64</ele>
        <time>2014-11-02T11:54:04Z</time>
      </trkpt>
      <trkpt lat="42.78918" lon="2.37468">
        <ele>484.64</ele>
        <time>2014-11-02T11:54:05Z</time>
      </trkpt>
      <trkpt lat="42.78918" lon="2.37466">
        <ele>484.64</ele>
        <time>2014-11-02T11:54:06Z</time>
      </trkpt>
      <trkpt lat="42.78917" lon="2.37463">
        <ele>485.12</ele>
        <time>2014-11-02T11:54:07Z</time>
      </trkpt>
      <trkpt lat="42.78918" lon="2.37455">
        <ele>485.6</ele>
        <time>2014-11-02T11:54:10Z</time>
      </trkpt>
      <trkpt lat="42.78918" lon="2.37452">
        <ele>485.6</ele>
        <time>2014-11-02T11:54:11Z</time>
      </trkpt>
      <trkpt lat="42.78918" lon="2.37449">
        <ele>485.6</ele>
        <time>2014-11-02T11:54:12Z</time>
      </trkpt>
      <trkpt lat="42.78918" lon="2.37446">
        <ele>486.08</ele>
        <time>2014-11-02T11:54:13Z</time>
      </trkpt>
      <trkpt lat="42.78917" lon="2.37443">
        <ele>486.08</ele>
        <time>2014-11-02T11:54:14Z</time>
      </trkpt>
      <trkpt lat="42.78917" lon="2.37442">
        <ele>486.56</ele>
        <time>2014-11-02T11:54:15Z</time>
      </trkpt>
      <trkpt lat="42.78916" lon="2.3744">
        <ele>486.56</ele>
        <time>2014-11-02T11:54:16Z</time>
      </trkpt>
      <trkpt lat="42.78915" lon="2.37438">
        <ele>486.56</ele>
        <time>2014-11-02T11:54:17Z</time>
      </trkpt>
      <trkpt lat="42.78915" lon="2.37437">
        <ele>486.56</ele>
        <time>2014-11-02T11:54:18Z</time>
      </trkpt>
      <trkpt lat="42.78909" lon="2.3742">
        <ele>488.49</ele>
        <time>2014-11-02T11:54:28Z</time>
      </trkpt>
      <trkpt lat="42.78903" lon="2.37397">
        <ele>490.41</ele>
        <time>2014-11-02T11:54:40Z</time>
      </trkpt>
      <trkpt lat="42.78903" lon="2.37395">
        <ele>490.41</ele>
        <time>2014-11-02T11:54:41Z</time>
      </trkpt>
      <trkpt lat="42.78903" lon="2.37368">
        <ele>491.85</ele>
        <time>2014-11-02T11:54:50Z</time>
      </trkpt>
      <trkpt lat="42.78903" lon="2.37366">
        <ele>492.33</ele>
        <time>2014-11-02T11:54:51Z</time>
      </trkpt>
      <trkpt lat="42.78903" lon="2.37363">
        <ele>492.33</ele>
        <time>2014-11-02T11:54:52Z</time>
      </trkpt>
      <trkpt lat="42.78903" lon="2.3736">
        <ele>492.81</ele>
        <time>2014-11-02T11:54:53Z</time>
      </trkpt>
      <trkpt lat="42.78904" lon="2.37358">
        <ele>492.81</ele>
        <time>2014-11-02T11:54:54Z</time>
      </trkpt>
      <trkpt lat="42.78904" lon="2.37355">
        <ele>492.81</ele>
        <time>2014-11-02T11:54:55Z</time>
      </trkpt>
      <trkpt lat="42.78905" lon="2.37353">
        <ele>493.29</ele>
        <time>2014-11-02T11:54:56Z</time>
      </trkpt>
      <trkpt lat="42.78905" lon="2.37351">
        <ele>493.29</ele>
        <time>2014-11-02T11:54:57Z</time>
      </trkpt>
      <trkpt lat="42.78905" lon="2.37349">
        <ele>493.77</ele>
        <time>2014-11-02T11:54:58Z</time>
      </trkpt>
      <trkpt lat="42.78905" lon="2.37347">
        <ele>493.77</ele>
        <time>2014-11-02T11:54:59Z</time>
      </trkpt>
      <trkpt lat="42.78911" lon="2.37315">
        <ele>496.18</ele>
        <time>2014-11-02T11:55:14Z</time>
      </trkpt>
      <trkpt lat="42.78911" lon="2.37288">
        <ele>498.58</ele>
        <time>2014-11-02T11:55:29Z</time>
      </trkpt>
      <trkpt lat="42.78909" lon="2.37257">
        <ele>500.98</ele>
        <time>2014-11-02T11:55:44Z</time>
      </trkpt>
      <trkpt lat="42.78905" lon="2.3723">
        <ele>503.39</ele>
        <time>2014-11-02T11:55:59Z</time>
      </trkpt>
      <trkpt lat="42.78903" lon="2.37224">
        <ele>503.87</ele>
        <time>2014-11-02T11:56:02Z</time>
      </trkpt>
      <trkpt lat="42.78903" lon="2.37222">
        <ele>503.87</ele>
        <time>2014-11-02T11:56:03Z</time>
      </trkpt>
      <trkpt lat="42.78899" lon="2.37206">
        <ele>505.31</ele>
        <time>2014-11-02T11:56:11Z</time>
      </trkpt>
      <trkpt lat="42.78898" lon="2.37204">
        <ele>505.79</ele>
        <time>2014-11-02T11:56:12Z</time>
      </trkpt>
      <trkpt lat="42.78897" lon="2.37203">
        <ele>505.79</ele>
        <time>2014-11-02T11:56:13Z</time>
      </trkpt>
      <trkpt lat="42.78896" lon="2.37202">
        <ele>505.79</ele>
        <time>2014-11-02T11:56:14Z</time>
      </trkpt>
      <trkpt lat="42.78895" lon="2.372">
        <ele>505.79</ele>
        <time>2014-11-02T11:56:15Z</time>
      </trkpt>
      <trkpt lat="42.78886" lon="2.37204">
        <ele>507.71</ele>
        <time>2014-11-02T11:56:27Z</time>
      </trkpt>
      <trkpt lat="42.78881" lon="2.37204">
        <ele>508.67</ele>
        <time>2014-11-02T11:56:32Z</time>
      </trkpt>
      <trkpt lat="42.7888" lon="2.37202">
        <ele>508.67</ele>
        <time>2014-11-02T11:56:33Z</time>
      </trkpt>
      <trkpt lat="42.7888" lon="2.372">
        <ele>508.67</ele>
        <time>2014-11-02T11:56:34Z</time>
      </trkpt>
      <trkpt lat="42.78881" lon="2.37199">
        <ele>509.16</ele>
        <time>2014-11-02T11:56:35Z</time>
      </trkpt>
      <trkpt lat="42.78882" lon="2.37197">
        <ele>509.16</ele>
        <time>2014-11-02T11:56:36Z</time>
      </trkpt>
      <trkpt lat="42.78882" lon="2.37195">
        <ele>509.16</ele>
        <time>2014-11-02T11:56:37Z</time>
      </trkpt>
      <trkpt lat="42.78883" lon="2.37194">
        <ele>509.16</ele>
        <time>2014-11-02T11:56:38Z</time>
      </trkpt>
      <trkpt lat="42.78884" lon="2.37192">
        <ele>509.16</ele>
        <time>2014-11-02T11:56:39Z</time>
      </trkpt>
      <trkpt lat="42.78885" lon="2.37191">
        <ele>509.16</ele>
        <time>2014-11-02T11:56:40Z</time>
      </trkpt>
      <trkpt lat="42.78887" lon="2.37189">
        <ele>509.16</ele>
        <time>2014-11-02T11:56:41Z</time>
      </trkpt>
      <trkpt lat="42.78888" lon="2.37188">
        <ele>509.64</ele>
        <time>2014-11-02T11:56:42Z</time>
      </trkpt>
      <trkpt lat="42.7891" lon="2.37183">
        <ele>510.6</ele>
        <time>2014-11-02T11:56:53Z</time>
      </trkpt>
      <trkpt lat="42.78925" lon="2.37222">
        <ele>512.04</ele>
        <time>2014-11-02T11:57:06Z</time>
      </trkpt>
      <trkpt lat="42.78928" lon="2.37261">
        <ele>512.04</ele>
        <time>2014-11-02T11:57:15Z</time>
      </trkpt>
      <trkpt lat="42.78942" lon="2.373">
        <ele>512.52</ele>
        <time>2014-11-02T11:57:25Z</time>
      </trkpt>
      <trkpt lat="42.78953" lon="2.37339">
        <ele>514.44</ele>
        <time>2014-11-02T11:57:36Z</time>
      </trkpt>
      <trkpt lat="42.7897" lon="2.37373">
        <ele>516.85</ele>
        <time>2014-11-02T11:57:49Z</time>
      </trkpt>
      <trkpt lat="42.78972" lon="2.37374">
        <ele>516.85</ele>
        <time>2014-11-02T11:57:50Z</time>
      </trkpt>
      <trkpt lat="42.78974" lon="2.37376">
        <ele>516.85</ele>
        <time>2014-11-02T11:57:51Z</time>
      </trkpt>
      <trkpt lat="42.78999" lon="2.37411">
        <ele>518.77</ele>
        <time>2014-11-02T11:58:05Z</time>
      </trkpt>
      <trkpt lat="42.79017" lon="2.37414">
        <ele>518.29</ele>
        <time>2014-11-02T11:58:11Z</time>
      </trkpt>
      <trkpt lat="42.79039" lon="2.37403">
        <ele>516.85</ele>
        <time>2014-11-02T11:58:16Z</time>
      </trkpt>
      <trkpt lat="42.79052" lon="2.37392">
        <ele>516.37</ele>
        <time>2014-11-02T11:58:19Z</time>
      </trkpt>
      <trkpt lat="42.79056" lon="2.37387">
        <ele>515.88</ele>
        <time>2014-11-02T11:58:20Z</time>
      </trkpt>
      <trkpt lat="42.79064" lon="2.37378">
        <ele>515.88</ele>
        <time>2014-11-02T11:58:22Z</time>
      </trkpt>
      <trkpt lat="42.79069" lon="2.37374">
        <ele>515.88</ele>
        <time>2014-11-02T11:58:23Z</time>
      </trkpt>
      <trkpt lat="42.79073" lon="2.3737">
        <ele>515.4</ele>
        <time>2014-11-02T11:58:24Z</time>
      </trkpt>
      <trkpt lat="42.79078" lon="2.37365">
        <ele>514.92</ele>
        <time>2014-11-02T11:58:25Z</time>
      </trkpt>
      <trkpt lat="42.79082" lon="2.37361">
        <ele>514.92</ele>
        <time>2014-11-02T11:58:26Z</time>
      </trkpt>
      <trkpt lat="42.79108" lon="2.3733">
        <ele>514.44</ele>
        <time>2014-11-02T11:58:32Z</time>
      </trkpt>
      <trkpt lat="42.79113" lon="2.37326">
        <ele>514.44</ele>
        <time>2014-11-02T11:58:33Z</time>
      </trkpt>
      <trkpt lat="42.79118" lon="2.37323">
        <ele>514.44</ele>
        <time>2014-11-02T11:58:34Z</time>
      </trkpt>
      <trkpt lat="42.79123" lon="2.37321">
        <ele>514.44</ele>
        <time>2014-11-02T11:58:35Z</time>
      </trkpt>
      <trkpt lat="42.79128" lon="2.37318">
        <ele>513.96</ele>
        <time>2014-11-02T11:58:36Z</time>
      </trkpt>
      <trkpt lat="42.79134" lon="2.37316">
        <ele>513.96</ele>
        <time>2014-11-02T11:58:37Z</time>
      </trkpt>
      <trkpt lat="42.79138" lon="2.37312">
        <ele>513.96</ele>
        <time>2014-11-02T11:58:38Z</time>
      </trkpt>
      <trkpt lat="42.79142" lon="2.37309">
        <ele>514.44</ele>
        <time>2014-11-02T11:58:39Z</time>
      </trkpt>
      <trkpt lat="42.79146" lon="2.37305">
        <ele>514.44</ele>
        <time>2014-11-02T11:58:40Z</time>
      </trkpt>
      <trkpt lat="42.7915" lon="2.373">
        <ele>513.96</ele>
        <time>2014-11-02T11:58:41Z</time>
      </trkpt>
      <trkpt lat="42.79154" lon="2.37294">
        <ele>513.96</ele>
        <time>2014-11-02T11:58:42Z</time>
      </trkpt>
      <trkpt lat="42.79158" lon="2.37288">
        <ele>513.48</ele>
        <time>2014-11-02T11:58:43Z</time>
      </trkpt>
      <trkpt lat="42.79161" lon="2.37281">
        <ele>513.48</ele>
        <time>2014-11-02T11:58:44Z</time>
      </trkpt>
      <trkpt lat="42.79164" lon="2.37275">
        <ele>513.48</ele>
        <time>2014-11-02T11:58:45Z</time>
      </trkpt>
      <trkpt lat="42.7917" lon="2.37257">
        <ele>513.96</ele>
        <time>2014-11-02T11:58:48Z</time>
      </trkpt>
      <trkpt lat="42.79172" lon="2.37252">
        <ele>514.44</ele>
        <time>2014-11-02T11:58:49Z</time>
      </trkpt>
      <trkpt lat="42.79174" lon="2.37247">
        <ele>514.44</ele>
        <time>2014-11-02T11:58:50Z</time>
      </trkpt>
      <trkpt lat="42.79195" lon="2.37186">
        <ele>516.85</ele>
        <time>2014-11-02T11:59:06Z</time>
      </trkpt>
      <trkpt lat="42.79204" lon="2.37148">
        <ele>519.25</ele>
        <time>2014-11-02T11:59:18Z</time>
      </trkpt>
      <trkpt lat="42.79213" lon="2.37113">
        <ele>520.69</ele>
        <time>2014-11-02T11:59:33Z</time>
      </trkpt>
      <trkpt lat="42.79215" lon="2.37088">
        <ele>522.61</ele>
        <time>2014-11-02T11:59:46Z</time>
      </trkpt>
      <trkpt lat="42.79219" lon="2.37065">
        <ele>525.02</ele>
        <time>2014-11-02T11:59:59Z</time>
      </trkpt>
      <trkpt lat="42.79221" lon="2.3706">
        <ele>525.02</ele>
        <time>2014-11-02T12:00:02Z</time>
      </trkpt>
      <trkpt lat="42.79222" lon="2.37058">
        <ele>525.5</ele>
        <time>2014-11-02T12:00:03Z</time>
      </trkpt>
      <trkpt lat="42.79222" lon="2.37057">
        <ele>525.5</ele>
        <time>2014-11-02T12:00:04Z</time>
      </trkpt>
      <trkpt lat="42.79228" lon="2.37037">
        <ele>527.42</ele>
        <time>2014-11-02T12:00:17Z</time>
      </trkpt>
      <trkpt lat="42.79236" lon="2.37019">
        <ele>529.34</ele>
        <time>2014-11-02T12:00:29Z</time>
      </trkpt>
      <trkpt lat="42.79241" lon="2.37007">
        <ele>530.3</ele>
        <time>2014-11-02T12:00:37Z</time>
      </trkpt>
      <trkpt lat="42.79252" lon="2.36985">
        <ele>532.71</ele>
        <time>2014-11-02T12:00:54Z</time>
      </trkpt>
      <trkpt lat="42.79258" lon="2.3696">
        <ele>535.59</ele>
        <time>2014-11-02T12:01:11Z</time>
      </trkpt>
      <trkpt lat="42.79261" lon="2.36945">
        <ele>537.03</ele>
        <time>2014-11-02T12:01:20Z</time>
      </trkpt>
      <trkpt lat="42.79261" lon="2.36936">
        <ele>537.51</ele>
        <time>2014-11-02T12:01:26Z</time>
      </trkpt>
      <trkpt lat="42.79262" lon="2.36934">
        <ele>537.99</ele>
        <time>2014-11-02T12:01:27Z</time>
      </trkpt>
      <trkpt lat="42.79262" lon="2.36933">
        <ele>537.99</ele>
        <time>2014-11-02T12:01:28Z</time>
      </trkpt>
      <trkpt lat="42.79262" lon="2.36931">
        <ele>537.99</ele>
        <time>2014-11-02T12:01:29Z</time>
      </trkpt>
      <trkpt lat="42.79262" lon="2.3693">
        <ele>538.48</ele>
        <time>2014-11-02T12:01:30Z</time>
      </trkpt>
      <trkpt lat="42.79263" lon="2.36912">
        <ele>539.44</ele>
        <time>2014-11-02T12:01:40Z</time>
      </trkpt>
      <trkpt lat="42.79264" lon="2.36909">
        <ele>539.44</ele>
        <time>2014-11-02T12:01:49Z</time>
      </trkpt>
      <trkpt lat="42.79265" lon="2.36906">
        <ele>539.44</ele>
        <time>2014-11-02T12:01:50Z</time>
      </trkpt>
      <trkpt lat="42.79265" lon="2.36904">
        <ele>539.44</ele>
        <time>2014-11-02T12:01:51Z</time>
      </trkpt>
      <trkpt lat="42.79264" lon="2.36903">
        <ele>539.92</ele>
        <time>2014-11-02T12:01:52Z</time>
      </trkpt>
      <trkpt lat="42.79264" lon="2.36901">
        <ele>539.92</ele>
        <time>2014-11-02T12:01:53Z</time>
      </trkpt>
      <trkpt lat="42.79256" lon="2.3687">
        <ele>540.4</ele>
        <time>2014-11-02T12:02:04Z</time>
      </trkpt>
      <trkpt lat="42.79246" lon="2.36836">
        <ele>542.32</ele>
        <time>2014-11-02T12:02:16Z</time>
      </trkpt>
      <trkpt lat="42.79242" lon="2.36804">
        <ele>543.76</ele>
        <time>2014-11-02T12:02:28Z</time>
      </trkpt>
      <trkpt lat="42.79238" lon="2.3676">
        <ele>545.69</ele>
        <time>2014-11-02T12:02:42Z</time>
      </trkpt>
      <trkpt lat="42.79241" lon="2.36711">
        <ele>547.13</ele>
        <time>2014-11-02T12:02:57Z</time>
      </trkpt>
      <trkpt lat="42.79238" lon="2.36666">
        <ele>549.05</ele>
        <time>2014-11-02T12:03:12Z</time>
      </trkpt>
      <trkpt lat="42.79233" lon="2.36623">
        <ele>551.45</ele>
        <time>2014-11-02T12:03:30Z</time>
      </trkpt>
      <trkpt lat="42.79234" lon="2.36621">
        <ele>551.45</ele>
        <time>2014-11-02T12:03:43Z</time>
      </trkpt>
      <trkpt lat="42.79234" lon="2.3662">
        <ele>551.45</ele>
        <time>2014-11-02T12:03:44Z</time>
      </trkpt>
      <trkpt lat="42.79234" lon="2.36618">
        <ele>551.45</ele>
        <time>2014-11-02T12:03:45Z</time>
      </trkpt>
      <trkpt lat="42.79233" lon="2.36616">
        <ele>551.45</ele>
        <time>2014-11-02T12:03:46Z</time>
      </trkpt>
      <trkpt lat="42.79233" lon="2.36614">
        <ele>551.93</ele>
        <time>2014-11-02T12:03:47Z</time>
      </trkpt>
      <trkpt lat="42.79232" lon="2.36612">
        <ele>551.93</ele>
        <time>2014-11-02T12:03:48Z</time>
      </trkpt>
      <trkpt lat="42.79232" lon="2.3661">
        <ele>551.93</ele>
        <time>2014-11-02T12:03:49Z</time>
      </trkpt>
      <trkpt lat="42.79231" lon="2.36607">
        <ele>552.41</ele>
        <time>2014-11-02T12:03:50Z</time>
      </trkpt>
      <trkpt lat="42.79231" lon="2.36605">
        <ele>552.41</ele>
        <time>2014-11-02T12:03:51Z</time>
      </trkpt>
      <trkpt lat="42.79231" lon="2.36603">
        <ele>552.41</ele>
        <time>2014-11-02T12:03:52Z</time>
      </trkpt>
      <trkpt lat="42.79229" lon="2.36591">
        <ele>553.86</ele>
        <time>2014-11-02T12:03:58Z</time>
      </trkpt>
      <trkpt lat="42.79229" lon="2.36589">
        <ele>553.86</ele>
        <time>2014-11-02T12:03:59Z</time>
      </trkpt>
      <trkpt lat="42.79228" lon="2.36587">
        <ele>554.34</ele>
        <time>2014-11-02T12:04:00Z</time>
      </trkpt>
      <trkpt lat="42.79228" lon="2.36585">
        <ele>554.34</ele>
        <time>2014-11-02T12:04:01Z</time>
      </trkpt>
      <trkpt lat="42.79227" lon="2.36583">
        <ele>554.34</ele>
        <time>2014-11-02T12:04:02Z</time>
      </trkpt>
      <trkpt lat="42.79227" lon="2.36581">
        <ele>554.34</ele>
        <time>2014-11-02T12:04:03Z</time>
      </trkpt>
      <trkpt lat="42.79227" lon="2.36579">
        <ele>554.82</ele>
        <time>2014-11-02T12:04:04Z</time>
      </trkpt>
      <trkpt lat="42.79227" lon="2.36577">
        <ele>555.3</ele>
        <time>2014-11-02T12:04:05Z</time>
      </trkpt>
      <trkpt lat="42.79226" lon="2.36575">
        <ele>555.3</ele>
        <time>2014-11-02T12:04:06Z</time>
      </trkpt>
      <trkpt lat="42.79226" lon="2.36573">
        <ele>555.3</ele>
        <time>2014-11-02T12:04:07Z</time>
      </trkpt>
      <trkpt lat="42.79221" lon="2.3654">
        <ele>557.22</ele>
        <time>2014-11-02T12:04:21Z</time>
      </trkpt>
      <trkpt lat="42.79216" lon="2.36506">
        <ele>559.62</ele>
        <time>2014-11-02T12:04:35Z</time>
      </trkpt>
      <trkpt lat="42.79215" lon="2.36466">
        <ele>561.07</ele>
        <time>2014-11-02T12:04:49Z</time>
      </trkpt>
      <trkpt lat="42.79225" lon="2.36424">
        <ele>562.03</ele>
        <time>2014-11-02T12:05:00Z</time>
      </trkpt>
      <trkpt lat="42.79226" lon="2.36376">
        <ele>562.99</ele>
        <time>2014-11-02T12:05:12Z</time>
      </trkpt>
      <trkpt lat="42.79228" lon="2.36323">
        <ele>564.91</ele>
        <time>2014-11-02T12:05:26Z</time>
      </trkpt>
      <trkpt lat="42.7923" lon="2.36273">
        <ele>564.91</ele>
        <time>2014-11-02T12:05:38Z</time>
      </trkpt>
      <trkpt lat="42.79234" lon="2.36227">
        <ele>566.83</ele>
        <time>2014-11-02T12:05:49Z</time>
      </trkpt>
      <trkpt lat="42.79234" lon="2.36184">
        <ele>569.24</ele>
        <time>2014-11-02T12:06:03Z</time>
      </trkpt>
      <trkpt lat="42.79236" lon="2.36137">
        <ele>571.16</ele>
        <time>2014-11-02T12:06:17Z</time>
      </trkpt>
      <trkpt lat="42.79237" lon="2.36089">
        <ele>572.12</ele>
        <time>2014-11-02T12:06:28Z</time>
      </trkpt>
      <trkpt lat="42.79248" lon="2.36027">
        <ele>572.6</ele>
        <time>2014-11-02T12:06:42Z</time>
      </trkpt>
      <trkpt lat="42.79247" lon="2.3598">
        <ele>574.53</ele>
        <time>2014-11-02T12:06:54Z</time>
      </trkpt>
      <trkpt lat="42.79243" lon="2.35963">
        <ele>575.49</ele>
        <time>2014-11-02T12:06:59Z</time>
      </trkpt>
      <trkpt lat="42.79242" lon="2.3596">
        <ele>575.49</ele>
        <time>2014-11-02T12:07:00Z</time>
      </trkpt>
      <trkpt lat="42.7923" lon="2.35912">
        <ele>577.41</ele>
        <time>2014-11-02T12:07:14Z</time>
      </trkpt>
      <trkpt lat="42.79221" lon="2.35855">
        <ele>578.37</ele>
        <time>2014-11-02T12:07:29Z</time>
      </trkpt>
      <trkpt lat="42.79223" lon="2.3584">
        <ele>577.89</ele>
        <time>2014-11-02T12:07:32Z</time>
      </trkpt>
      <trkpt lat="42.79225" lon="2.35834">
        <ele>577.89</ele>
        <time>2014-11-02T12:07:33Z</time>
      </trkpt>
      <trkpt lat="42.79236" lon="2.35773">
        <ele>577.41</ele>
        <time>2014-11-02T12:07:45Z</time>
      </trkpt>
      <trkpt lat="42.79221" lon="2.357">
        <ele>577.41</ele>
        <time>2014-11-02T12:07:59Z</time>
      </trkpt>
      <trkpt lat="42.79208" lon="2.35643">
        <ele>579.33</ele>
        <time>2014-11-02T12:08:14Z</time>
      </trkpt>
      <trkpt lat="42.79196" lon="2.35607">
        <ele>581.73</ele>
        <time>2014-11-02T12:08:27Z</time>
      </trkpt>
      <trkpt lat="42.79181" lon="2.35579">
        <ele>584.14</ele>
        <time>2014-11-02T12:08:40Z</time>
      </trkpt>
      <trkpt lat="42.79175" lon="2.35559">
        <ele>586.06</ele>
        <time>2014-11-02T12:08:51Z</time>
      </trkpt>
      <trkpt lat="42.79175" lon="2.35557">
        <ele>586.06</ele>
        <time>2014-11-02T12:08:52Z</time>
      </trkpt>
      <trkpt lat="42.79175" lon="2.35555">
        <ele>586.54</ele>
        <time>2014-11-02T12:08:53Z</time>
      </trkpt>
      <trkpt lat="42.79174" lon="2.35553">
        <ele>586.54</ele>
        <time>2014-11-02T12:08:54Z</time>
      </trkpt>
      <trkpt lat="42.79174" lon="2.35551">
        <ele>586.54</ele>
        <time>2014-11-02T12:08:55Z</time>
      </trkpt>
      <trkpt lat="42.79176" lon="2.35536">
        <ele>587.98</ele>
        <time>2014-11-02T12:09:03Z</time>
      </trkpt>
      <trkpt lat="42.79176" lon="2.35534">
        <ele>587.98</ele>
        <time>2014-11-02T12:09:04Z</time>
      </trkpt>
      <trkpt lat="42.79177" lon="2.35527">
        <ele>588.95</ele>
        <time>2014-11-02T12:09:08Z</time>
      </trkpt>
      <trkpt lat="42.79176" lon="2.35525">
        <ele>588.95</ele>
        <time>2014-11-02T12:09:09Z</time>
      </trkpt>
      <trkpt lat="42.79176" lon="2.35523">
        <ele>588.95</ele>
        <time>2014-11-02T12:09:10Z</time>
      </trkpt>
      <trkpt lat="42.79174" lon="2.35505">
        <ele>591.35</ele>
        <time>2014-11-02T12:09:23Z</time>
      </trkpt>
      <trkpt lat="42.79173" lon="2.35501">
        <ele>591.83</ele>
        <time>2014-11-02T12:09:26Z</time>
      </trkpt>
      <trkpt lat="42.79165" lon="2.35482">
        <ele>594.23</ele>
        <time>2014-11-02T12:09:39Z</time>
      </trkpt>
      <trkpt lat="42.79154" lon="2.35453">
        <ele>595.67</ele>
        <time>2014-11-02T12:09:53Z</time>
      </trkpt>
      <trkpt lat="42.79152" lon="2.35444">
        <ele>596.64</ele>
        <time>2014-11-02T12:09:57Z</time>
      </trkpt>
      <trkpt lat="42.79152" lon="2.35442">
        <ele>596.64</ele>
        <time>2014-11-02T12:09:58Z</time>
      </trkpt>
      <trkpt lat="42.79151" lon="2.35439">
        <ele>596.64</ele>
        <time>2014-11-02T12:09:59Z</time>
      </trkpt>
      <trkpt lat="42.79141" lon="2.35396">
        <ele>598.56</ele>
        <time>2014-11-02T12:10:16Z</time>
      </trkpt>
      <trkpt lat="42.79133" lon="2.3537">
        <ele>600.48</ele>
        <time>2014-11-02T12:10:29Z</time>
      </trkpt>
      <trkpt lat="42.79129" lon="2.35357">
        <ele>601.44</ele>
        <time>2014-11-02T12:10:35Z</time>
      </trkpt>
      <trkpt lat="42.79129" lon="2.35355">
        <ele>601.44</ele>
        <time>2014-11-02T12:10:36Z</time>
      </trkpt>
      <trkpt lat="42.79128" lon="2.35353">
        <ele>601.92</ele>
        <time>2014-11-02T12:10:37Z</time>
      </trkpt>
      <trkpt lat="42.79128" lon="2.3535">
        <ele>601.92</ele>
        <time>2014-11-02T12:10:38Z</time>
      </trkpt>
      <trkpt lat="42.79128" lon="2.35348">
        <ele>601.92</ele>
        <time>2014-11-02T12:10:39Z</time>
      </trkpt>
      <trkpt lat="42.79128" lon="2.35345">
        <ele>601.92</ele>
        <time>2014-11-02T12:10:40Z</time>
      </trkpt>
      <trkpt lat="42.79129" lon="2.35338">
        <ele>602.88</ele>
        <time>2014-11-02T12:10:44Z</time>
      </trkpt>
      <trkpt lat="42.7913" lon="2.35336">
        <ele>603.36</ele>
        <time>2014-11-02T12:10:45Z</time>
      </trkpt>
      <trkpt lat="42.7913" lon="2.35334">
        <ele>603.36</ele>
        <time>2014-11-02T12:10:46Z</time>
      </trkpt>
      <trkpt lat="42.79131" lon="2.35332">
        <ele>603.36</ele>
        <time>2014-11-02T12:10:47Z</time>
      </trkpt>
      <trkpt lat="42.79132" lon="2.3533">
        <ele>603.85</ele>
        <time>2014-11-02T12:10:48Z</time>
      </trkpt>
      <trkpt lat="42.79133" lon="2.35328">
        <ele>603.85</ele>
        <time>2014-11-02T12:10:49Z</time>
      </trkpt>
      <trkpt lat="42.79133" lon="2.35326">
        <ele>603.85</ele>
        <time>2014-11-02T12:10:50Z</time>
      </trkpt>
      <trkpt lat="42.79134" lon="2.35324">
        <ele>604.33</ele>
        <time>2014-11-02T12:10:51Z</time>
      </trkpt>
      <trkpt lat="42.79134" lon="2.35322">
        <ele>604.33</ele>
        <time>2014-11-02T12:10:52Z</time>
      </trkpt>
      <trkpt lat="42.79135" lon="2.3532">
        <ele>604.81</ele>
        <time>2014-11-02T12:10:53Z</time>
      </trkpt>
      <trkpt lat="42.79135" lon="2.35318">
        <ele>604.81</ele>
        <time>2014-11-02T12:10:54Z</time>
      </trkpt>
      <trkpt lat="42.79135" lon="2.35317">
        <ele>604.81</ele>
        <time>2014-11-02T12:10:55Z</time>
      </trkpt>
      <trkpt lat="42.79139" lon="2.35289">
        <ele>607.21</ele>
        <time>2014-11-02T12:11:10Z</time>
      </trkpt>
      <trkpt lat="42.79139" lon="2.3528">
        <ele>608.17</ele>
        <time>2014-11-02T12:11:14Z</time>
      </trkpt>
      <trkpt lat="42.79138" lon="2.35278">
        <ele>608.17</ele>
        <time>2014-11-02T12:11:15Z</time>
      </trkpt>
      <trkpt lat="42.79138" lon="2.35276">
        <ele>608.17</ele>
        <time>2014-11-02T12:11:16Z</time>
      </trkpt>
      <trkpt lat="42.79138" lon="2.35274">
        <ele>608.65</ele>
        <time>2014-11-02T12:11:17Z</time>
      </trkpt>
      <trkpt lat="42.79138" lon="2.35272">
        <ele>608.65</ele>
        <time>2014-11-02T12:11:18Z</time>
      </trkpt>
      <trkpt lat="42.79138" lon="2.35269">
        <ele>609.61</ele>
        <time>2014-11-02T12:11:19Z</time>
      </trkpt>
      <trkpt lat="42.79138" lon="2.35262">
        <ele>609.13</ele>
        <time>2014-11-02T12:11:23Z</time>
      </trkpt>
      <trkpt lat="42.79137" lon="2.35236">
        <ele>610.57</ele>
        <time>2014-11-02T12:11:36Z</time>
      </trkpt>
      <trkpt lat="42.79137" lon="2.35234">
        <ele>610.57</ele>
        <time>2014-11-02T12:11:37Z</time>
      </trkpt>
      <trkpt lat="42.79129" lon="2.35205">
        <ele>612.02</ele>
        <time>2014-11-02T12:11:48Z</time>
      </trkpt>
      <trkpt lat="42.79117" lon="2.35172">
        <ele>612.98</ele>
        <time>2014-11-02T12:11:59Z</time>
      </trkpt>
      <trkpt lat="42.79096" lon="2.35137">
        <ele>613.94</ele>
        <time>2014-11-02T12:12:12Z</time>
      </trkpt>
      <trkpt lat="42.79094" lon="2.35106">
        <ele>614.9</ele>
        <time>2014-11-02T12:12:22Z</time>
      </trkpt>
      <trkpt lat="42.79092" lon="2.35063">
        <ele>615.38</ele>
        <time>2014-11-02T12:12:32Z</time>
      </trkpt>
      <trkpt lat="42.79104" lon="2.35027">
        <ele>615.86</ele>
        <time>2014-11-02T12:12:42Z</time>
      </trkpt>
      <trkpt lat="42.79114" lon="2.34991">
        <ele>617.78</ele>
        <time>2014-11-02T12:12:54Z</time>
      </trkpt>
      <trkpt lat="42.79115" lon="2.34989">
        <ele>617.78</ele>
        <time>2014-11-02T12:12:55Z</time>
      </trkpt>
      <trkpt lat="42.79115" lon="2.34987">
        <ele>617.78</ele>
        <time>2014-11-02T12:12:56Z</time>
      </trkpt>
      <trkpt lat="42.79116" lon="2.34985">
        <ele>618.26</ele>
        <time>2014-11-02T12:12:57Z</time>
      </trkpt>
      <trkpt lat="42.79117" lon="2.34982">
        <ele>618.26</ele>
        <time>2014-11-02T12:12:58Z</time>
      </trkpt>
      <trkpt lat="42.79118" lon="2.3498">
        <ele>618.26</ele>
        <time>2014-11-02T12:12:59Z</time>
      </trkpt>
      <trkpt lat="42.79119" lon="2.34978">
        <ele>618.75</ele>
        <time>2014-11-02T12:13:00Z</time>
      </trkpt>
      <trkpt lat="42.79119" lon="2.34976">
        <ele>618.75</ele>
        <time>2014-11-02T12:13:01Z</time>
      </trkpt>
      <trkpt lat="42.7912" lon="2.34975">
        <ele>619.23</ele>
        <time>2014-11-02T12:13:02Z</time>
      </trkpt>
      <trkpt lat="42.79121" lon="2.34973">
        <ele>619.23</ele>
        <time>2014-11-02T12:13:03Z</time>
      </trkpt>
      <trkpt lat="42.79121" lon="2.34958">
        <ele>620.67</ele>
        <time>2014-11-02T12:13:11Z</time>
      </trkpt>
      <trkpt lat="42.7912" lon="2.34956">
        <ele>621.15</ele>
        <time>2014-11-02T12:13:12Z</time>
      </trkpt>
      <trkpt lat="42.7912" lon="2.34954">
        <ele>621.15</ele>
        <time>2014-11-02T12:13:13Z</time>
      </trkpt>
      <trkpt lat="42.79119" lon="2.34952">
        <ele>621.15</ele>
        <time>2014-11-02T12:13:14Z</time>
      </trkpt>
      <trkpt lat="42.79119" lon="2.3495">
        <ele>621.63</ele>
        <time>2014-11-02T12:13:15Z</time>
      </trkpt>
      <trkpt lat="42.79118" lon="2.34948">
        <ele>621.63</ele>
        <time>2014-11-02T12:13:16Z</time>
      </trkpt>
      <trkpt lat="42.79117" lon="2.34946">
        <ele>621.63</ele>
        <time>2014-11-02T12:13:17Z</time>
      </trkpt>
      <trkpt lat="42.79117" lon="2.34944">
        <ele>621.63</ele>
        <time>2014-11-02T12:13:18Z</time>
      </trkpt>
      <trkpt lat="42.79116" lon="2.34942">
        <ele>623.07</ele>
        <time>2014-11-02T12:13:19Z</time>
      </trkpt>
      <trkpt lat="42.79116" lon="2.34939">
        <ele>622.11</ele>
        <time>2014-11-02T12:13:20Z</time>
      </trkpt>
      <trkpt lat="42.79115" lon="2.34937">
        <ele>622.11</ele>
        <time>2014-11-02T12:13:21Z</time>
      </trkpt>
      <trkpt lat="42.79114" lon="2.34935">
        <ele>622.11</ele>
        <time>2014-11-02T12:13:22Z</time>
      </trkpt>
      <trkpt lat="42.79113" lon="2.34933">
        <ele>622.11</ele>
        <time>2014-11-02T12:13:23Z</time>
      </trkpt>
      <trkpt lat="42.79112" lon="2.34932">
        <ele>622.11</ele>
        <time>2014-11-02T12:13:24Z</time>
      </trkpt>
      <trkpt lat="42.7911" lon="2.34896">
        <ele>624.03</ele>
        <time>2014-11-02T12:13:38Z</time>
      </trkpt>
      <trkpt lat="42.79112" lon="2.34862">
        <ele>625.47</ele>
        <time>2014-11-02T12:13:51Z</time>
      </trkpt>
      <trkpt lat="42.79111" lon="2.34857">
        <ele>625.96</ele>
        <time>2014-11-02T12:13:53Z</time>
      </trkpt>
      <trkpt lat="42.7911" lon="2.34854">
        <ele>625.96</ele>
        <time>2014-11-02T12:13:54Z</time>
      </trkpt>
      <trkpt lat="42.7911" lon="2.34851">
        <ele>625.96</ele>
        <time>2014-11-02T12:13:55Z</time>
      </trkpt>
      <trkpt lat="42.79109" lon="2.34849">
        <ele>625.96</ele>
        <time>2014-11-02T12:13:56Z</time>
      </trkpt>
      <trkpt lat="42.79108" lon="2.34846">
        <ele>625.96</ele>
        <time>2014-11-02T12:13:57Z</time>
      </trkpt>
      <trkpt lat="42.79108" lon="2.34843">
        <ele>625.96</ele>
        <time>2014-11-02T12:13:58Z</time>
      </trkpt>
      <trkpt lat="42.79108" lon="2.3484">
        <ele>626.44</ele>
        <time>2014-11-02T12:13:59Z</time>
      </trkpt>
      <trkpt lat="42.79108" lon="2.34838">
        <ele>626.44</ele>
        <time>2014-11-02T12:14:00Z</time>
      </trkpt>
      <trkpt lat="42.79107" lon="2.34835">
        <ele>626.44</ele>
        <time>2014-11-02T12:14:01Z</time>
      </trkpt>
      <trkpt lat="42.79108" lon="2.34832">
        <ele>626.44</ele>
        <time>2014-11-02T12:14:02Z</time>
      </trkpt>
      <trkpt lat="42.79107" lon="2.34829">
        <ele>626.44</ele>
        <time>2014-11-02T12:14:03Z</time>
      </trkpt>
      <trkpt lat="42.79107" lon="2.34826">
        <ele>626.44</ele>
        <time>2014-11-02T12:14:04Z</time>
      </trkpt>
      <trkpt lat="42.79108" lon="2.34823">
        <ele>626.44</ele>
        <time>2014-11-02T12:14:05Z</time>
      </trkpt>
      <trkpt lat="42.79108" lon="2.34821">
        <ele>626.44</ele>
        <time>2014-11-02T12:14:06Z</time>
      </trkpt>
      <trkpt lat="42.79107" lon="2.34818">
        <ele>626.92</ele>
        <time>2014-11-02T12:14:07Z</time>
      </trkpt>
      <trkpt lat="42.79107" lon="2.34815">
        <ele>626.92</ele>
        <time>2014-11-02T12:14:08Z</time>
      </trkpt>
      <trkpt lat="42.79094" lon="2.34781">
        <ele>628.36</ele>
        <time>2014-11-02T12:14:20Z</time>
      </trkpt>
      <trkpt lat="42.79082" lon="2.34742">
        <ele>628.84</ele>
        <time>2014-11-02T12:14:32Z</time>
      </trkpt>
      <trkpt lat="42.79079" lon="2.34728">
        <ele>629.8</ele>
        <time>2014-11-02T12:14:38Z</time>
      </trkpt>
      <trkpt lat="42.79078" lon="2.34727">
        <ele>630.28</ele>
        <time>2014-11-02T12:14:39Z</time>
      </trkpt>
      <trkpt lat="42.79068" lon="2.34696">
        <ele>632.2</ele>
        <time>2014-11-02T12:14:53Z</time>
      </trkpt>
      <trkpt lat="42.79063" lon="2.34669">
        <ele>634.13</ele>
        <time>2014-11-02T12:15:07Z</time>
      </trkpt>
      <trkpt lat="42.79059" lon="2.34656">
        <ele>635.09</ele>
        <time>2014-11-02T12:15:14Z</time>
      </trkpt>
      <trkpt lat="42.79057" lon="2.3465">
        <ele>635.57</ele>
        <time>2014-11-02T12:15:17Z</time>
      </trkpt>
      <trkpt lat="42.79054" lon="2.34645">
        <ele>637.01</ele>
        <time>2014-11-02T12:15:20Z</time>
      </trkpt>
      <trkpt lat="42.79052" lon="2.34642">
        <ele>636.05</ele>
        <time>2014-11-02T12:15:22Z</time>
      </trkpt>
      <trkpt lat="42.79052" lon="2.34639">
        <ele>636.05</ele>
        <time>2014-11-02T12:15:23Z</time>
      </trkpt>
      <trkpt lat="42.79051" lon="2.34637">
        <ele>636.53</ele>
        <time>2014-11-02T12:15:24Z</time>
      </trkpt>
      <trkpt lat="42.79051" lon="2.34635">
        <ele>636.53</ele>
        <time>2014-11-02T12:15:25Z</time>
      </trkpt>
      <trkpt lat="42.7905" lon="2.34633">
        <ele>637.01</ele>
        <time>2014-11-02T12:15:26Z</time>
      </trkpt>
      <trkpt lat="42.79049" lon="2.34631">
        <ele>637.01</ele>
        <time>2014-11-02T12:15:27Z</time>
      </trkpt>
      <trkpt lat="42.79047" lon="2.34629">
        <ele>637.01</ele>
        <time>2014-11-02T12:15:28Z</time>
      </trkpt>
      <trkpt lat="42.79046" lon="2.34625">
        <ele>637.49</ele>
        <time>2014-11-02T12:15:30Z</time>
      </trkpt>
      <trkpt lat="42.79045" lon="2.34622">
        <ele>637.49</ele>
        <time>2014-11-02T12:15:31Z</time>
      </trkpt>
      <trkpt lat="42.79045" lon="2.3462">
        <ele>637.97</ele>
        <time>2014-11-02T12:15:32Z</time>
      </trkpt>
      <trkpt lat="42.79041" lon="2.34614">
        <ele>637.97</ele>
        <time>2014-11-02T12:15:36Z</time>
      </trkpt>
      <trkpt lat="42.79027" lon="2.34598">
        <ele>639.89</ele>
        <time>2014-11-02T12:15:48Z</time>
      </trkpt>
      <trkpt lat="42.79024" lon="2.34593">
        <ele>640.38</ele>
        <time>2014-11-02T12:15:51Z</time>
      </trkpt>
      <trkpt lat="42.79023" lon="2.34592">
        <ele>640.38</ele>
        <time>2014-11-02T12:15:52Z</time>
      </trkpt>
      <trkpt lat="42.79016" lon="2.34587">
        <ele>641.34</ele>
        <time>2014-11-02T12:15:57Z</time>
      </trkpt>
      <trkpt lat="42.79008" lon="2.34569">
        <ele>642.3</ele>
        <time>2014-11-02T12:16:06Z</time>
      </trkpt>
      <trkpt lat="42.79008" lon="2.34566">
        <ele>642.3</ele>
        <time>2014-11-02T12:16:07Z</time>
      </trkpt>
      <trkpt lat="42.79008" lon="2.34565">
        <ele>642.3</ele>
        <time>2014-11-02T12:16:08Z</time>
      </trkpt>
      <trkpt lat="42.79008" lon="2.34563">
        <ele>642.78</ele>
        <time>2014-11-02T12:16:09Z</time>
      </trkpt>
      <trkpt lat="42.79007" lon="2.34561">
        <ele>642.78</ele>
        <time>2014-11-02T12:16:10Z</time>
      </trkpt>
      <trkpt lat="42.79007" lon="2.34556">
        <ele>643.26</ele>
        <time>2014-11-02T12:16:12Z</time>
      </trkpt>
      <trkpt lat="42.78993" lon="2.34529">
        <ele>645.18</ele>
        <time>2014-11-02T12:16:26Z</time>
      </trkpt>
      <trkpt lat="42.78984" lon="2.34519">
        <ele>646.62</ele>
        <time>2014-11-02T12:16:35Z</time>
      </trkpt>
      <trkpt lat="42.78983" lon="2.34516">
        <ele>647.1</ele>
        <time>2014-11-02T12:16:37Z</time>
      </trkpt>
      <trkpt lat="42.78981" lon="2.34515">
        <ele>647.1</ele>
        <time>2014-11-02T12:16:38Z</time>
      </trkpt>
      <trkpt lat="42.7898" lon="2.34513">
        <ele>647.1</ele>
        <time>2014-11-02T12:16:39Z</time>
      </trkpt>
      <trkpt lat="42.78979" lon="2.34511">
        <ele>647.59</ele>
        <time>2014-11-02T12:16:40Z</time>
      </trkpt>
      <trkpt lat="42.78978" lon="2.3451">
        <ele>647.59</ele>
        <time>2014-11-02T12:16:41Z</time>
      </trkpt>
      <trkpt lat="42.78977" lon="2.34508">
        <ele>648.07</ele>
        <time>2014-11-02T12:16:42Z</time>
      </trkpt>
      <trkpt lat="42.78977" lon="2.34506">
        <ele>647.59</ele>
        <time>2014-11-02T12:16:43Z</time>
      </trkpt>
      <trkpt lat="42.78977" lon="2.34504">
        <ele>648.07</ele>
        <time>2014-11-02T12:16:44Z</time>
      </trkpt>
      <trkpt lat="42.78977" lon="2.34502">
        <ele>648.07</ele>
        <time>2014-11-02T12:16:45Z</time>
      </trkpt>
      <trkpt lat="42.78976" lon="2.345">
        <ele>648.07</ele>
        <time>2014-11-02T12:16:46Z</time>
      </trkpt>
      <trkpt lat="42.78975" lon="2.34498">
        <ele>648.55</ele>
        <time>2014-11-02T12:16:47Z</time>
      </trkpt>
      <trkpt lat="42.78973" lon="2.34496">
        <ele>648.55</ele>
        <time>2014-11-02T12:16:48Z</time>
      </trkpt>
      <trkpt lat="42.78961" lon="2.34464">
        <ele>650.47</ele>
        <time>2014-11-02T12:17:03Z</time>
      </trkpt>
      <trkpt lat="42.78959" lon="2.34451">
        <ele>650.95</ele>
        <time>2014-11-02T12:17:10Z</time>
      </trkpt>
      <trkpt lat="42.78959" lon="2.34449">
        <ele>651.43</ele>
        <time>2014-11-02T12:17:11Z</time>
      </trkpt>
      <trkpt lat="42.78959" lon="2.34446">
        <ele>651.43</ele>
        <time>2014-11-02T12:17:12Z</time>
      </trkpt>
      <trkpt lat="42.78959" lon="2.34444">
        <ele>651.43</ele>
        <time>2014-11-02T12:17:13Z</time>
      </trkpt>
      <trkpt lat="42.78959" lon="2.34441">
        <ele>651.43</ele>
        <time>2014-11-02T12:17:14Z</time>
      </trkpt>
      <trkpt lat="42.78959" lon="2.34438">
        <ele>651.43</ele>
        <time>2014-11-02T12:17:15Z</time>
      </trkpt>
      <trkpt lat="42.78959" lon="2.34435">
        <ele>651.43</ele>
        <time>2014-11-02T12:17:16Z</time>
      </trkpt>
      <trkpt lat="42.7896" lon="2.34433">
        <ele>651.43</ele>
        <time>2014-11-02T12:17:17Z</time>
      </trkpt>
      <trkpt lat="42.7896" lon="2.3443">
        <ele>651.43</ele>
        <time>2014-11-02T12:17:18Z</time>
      </trkpt>
      <trkpt lat="42.7896" lon="2.34427">
        <ele>651.91</ele>
        <time>2014-11-02T12:17:19Z</time>
      </trkpt>
      <trkpt lat="42.7896" lon="2.34424">
        <ele>652.87</ele>
        <time>2014-11-02T12:17:20Z</time>
      </trkpt>
      <trkpt lat="42.7896" lon="2.34422">
        <ele>652.39</ele>
        <time>2014-11-02T12:17:21Z</time>
      </trkpt>
      <trkpt lat="42.7896" lon="2.34419">
        <ele>652.39</ele>
        <time>2014-11-02T12:17:22Z</time>
      </trkpt>
      <trkpt lat="42.7896" lon="2.34416">
        <ele>652.39</ele>
        <time>2014-11-02T12:17:23Z</time>
      </trkpt>
      <trkpt lat="42.7896" lon="2.34413">
        <ele>652.39</ele>
        <time>2014-11-02T12:17:24Z</time>
      </trkpt>
      <trkpt lat="42.7896" lon="2.3441">
        <ele>652.39</ele>
        <time>2014-11-02T12:17:25Z</time>
      </trkpt>
      <trkpt lat="42.7896" lon="2.34406">
        <ele>652.39</ele>
        <time>2014-11-02T12:17:26Z</time>
      </trkpt>
      <trkpt lat="42.78961" lon="2.34403">
        <ele>652.39</ele>
        <time>2014-11-02T12:17:27Z</time>
      </trkpt>
      <trkpt lat="42.78961" lon="2.344">
        <ele>652.39</ele>
        <time>2014-11-02T12:17:28Z</time>
      </trkpt>
      <trkpt lat="42.78961" lon="2.34397">
        <ele>652.87</ele>
        <time>2014-11-02T12:17:29Z</time>
      </trkpt>
      <trkpt lat="42.78961" lon="2.34394">
        <ele>652.87</ele>
        <time>2014-11-02T12:17:30Z</time>
      </trkpt>
      <trkpt lat="42.78961" lon="2.34391">
        <ele>652.87</ele>
        <time>2014-11-02T12:17:31Z</time>
      </trkpt>
      <trkpt lat="42.78961" lon="2.34388">
        <ele>652.87</ele>
        <time>2014-11-02T12:17:32Z</time>
      </trkpt>
      <trkpt lat="42.78961" lon="2.34385">
        <ele>652.87</ele>
        <time>2014-11-02T12:17:33Z</time>
      </trkpt>
      <trkpt lat="42.7896" lon="2.34382">
        <ele>653.35</ele>
        <time>2014-11-02T12:17:34Z</time>
      </trkpt>
      <trkpt lat="42.78957" lon="2.34345">
        <ele>654.8</ele>
        <time>2014-11-02T12:17:48Z</time>
      </trkpt>
      <trkpt lat="42.78957" lon="2.34342">
        <ele>654.8</ele>
        <time>2014-11-02T12:17:49Z</time>
      </trkpt>
      <trkpt lat="42.78957" lon="2.3434">
        <ele>654.8</ele>
        <time>2014-11-02T12:17:50Z</time>
      </trkpt>
      <trkpt lat="42.78956" lon="2.34338">
        <ele>654.8</ele>
        <time>2014-11-02T12:17:51Z</time>
      </trkpt>
      <trkpt lat="42.78956" lon="2.3433">
        <ele>655.76</ele>
        <time>2014-11-02T12:17:55Z</time>
      </trkpt>
      <trkpt lat="42.78955" lon="2.34298">
        <ele>656.72</ele>
        <time>2014-11-02T12:18:08Z</time>
      </trkpt>
      <trkpt lat="42.78963" lon="2.3427">
        <ele>658.64</ele>
        <time>2014-11-02T12:18:21Z</time>
      </trkpt>
      <trkpt lat="42.78965" lon="2.34243">
        <ele>661.04</ele>
        <time>2014-11-02T12:18:34Z</time>
      </trkpt>
      <trkpt lat="42.78962" lon="2.34212">
        <ele>663.45</ele>
        <time>2014-11-02T12:18:49Z</time>
      </trkpt>
      <trkpt lat="42.7896" lon="2.34182">
        <ele>665.37</ele>
        <time>2014-11-02T12:19:03Z</time>
      </trkpt>
      <trkpt lat="42.78958" lon="2.34165">
        <ele>666.33</ele>
        <time>2014-11-02T12:19:10Z</time>
      </trkpt>
      <trkpt lat="42.78958" lon="2.34163">
        <ele>666.33</ele>
        <time>2014-11-02T12:19:11Z</time>
      </trkpt>
      <trkpt lat="42.78967" lon="2.3412">
        <ele>666.81</ele>
        <time>2014-11-02T12:19:25Z</time>
      </trkpt>
      <trkpt lat="42.7897" lon="2.34079">
        <ele>666.33</ele>
        <time>2014-11-02T12:19:34Z</time>
      </trkpt>
      <trkpt lat="42.78972" lon="2.34076">
        <ele>666.81</ele>
        <time>2014-11-02T12:19:35Z</time>
      </trkpt>
      <trkpt lat="42.78974" lon="2.34073">
        <ele>666.81</ele>
        <time>2014-11-02T12:19:36Z</time>
      </trkpt>
      <trkpt lat="42.78977" lon="2.34071">
        <ele>666.81</ele>
        <time>2014-11-02T12:19:37Z</time>
      </trkpt>
      <trkpt lat="42.78979" lon="2.34068">
        <ele>666.81</ele>
        <time>2014-11-02T12:19:38Z</time>
      </trkpt>
      <trkpt lat="42.78982" lon="2.34064">
        <ele>666.33</ele>
        <time>2014-11-02T12:19:39Z</time>
      </trkpt>
      <trkpt lat="42.79003" lon="2.34028">
        <ele>667.77</ele>
        <time>2014-11-02T12:19:50Z</time>
      </trkpt>
      <trkpt lat="42.79008" lon="2.34">
        <ele>667.77</ele>
        <time>2014-11-02T12:19:56Z</time>
      </trkpt>
      <trkpt lat="42.79009" lon="2.33995">
        <ele>667.77</ele>
        <time>2014-11-02T12:19:57Z</time>
      </trkpt>
      <trkpt lat="42.79027" lon="2.33959">
        <ele>668.73</ele>
        <time>2014-11-02T12:20:05Z</time>
      </trkpt>
      <trkpt lat="42.79031" lon="2.33947">
        <ele>669.7</ele>
        <time>2014-11-02T12:20:10Z</time>
      </trkpt>
      <trkpt lat="42.79032" lon="2.33945">
        <ele>669.7</ele>
        <time>2014-11-02T12:20:11Z</time>
      </trkpt>
      <trkpt lat="42.79033" lon="2.33943">
        <ele>670.18</ele>
        <time>2014-11-02T12:20:12Z</time>
      </trkpt>
      <trkpt lat="42.79035" lon="2.33941">
        <ele>670.18</ele>
        <time>2014-11-02T12:20:13Z</time>
      </trkpt>
      <trkpt lat="42.79036" lon="2.33938">
        <ele>670.18</ele>
        <time>2014-11-02T12:20:14Z</time>
      </trkpt>
      <trkpt lat="42.79038" lon="2.33935">
        <ele>670.66</ele>
        <time>2014-11-02T12:20:15Z</time>
      </trkpt>
      <trkpt lat="42.79061" lon="2.33909">
        <ele>671.62</ele>
        <time>2014-11-02T12:20:27Z</time>
      </trkpt>
      <trkpt lat="42.7907" lon="2.33901">
        <ele>672.58</ele>
        <time>2014-11-02T12:20:31Z</time>
      </trkpt>
      <trkpt lat="42.79071" lon="2.33901">
        <ele>672.58</ele>
        <time>2014-11-02T12:20:32Z</time>
      </trkpt>
      <trkpt lat="42.79073" lon="2.33901">
        <ele>672.1</ele>
        <time>2014-11-02T12:20:33Z</time>
      </trkpt>
      <trkpt lat="42.79076" lon="2.339">
        <ele>672.1</ele>
        <time>2014-11-02T12:20:34Z</time>
      </trkpt>
      <trkpt lat="42.7908" lon="2.33898">
        <ele>671.62</ele>
        <time>2014-11-02T12:20:35Z</time>
      </trkpt>
      <trkpt lat="42.79093" lon="2.33891">
        <ele>671.14</ele>
        <time>2014-11-02T12:20:38Z</time>
      </trkpt>
      <trkpt lat="42.79104" lon="2.33886">
        <ele>670.18</ele>
        <time>2014-11-02T12:20:40Z</time>
      </trkpt>
      <trkpt lat="42.79123" lon="2.33879">
        <ele>668.73</ele>
        <time>2014-11-02T12:20:43Z</time>
      </trkpt>
      <trkpt lat="42.79129" lon="2.33876">
        <ele>668.25</ele>
        <time>2014-11-02T12:20:44Z</time>
      </trkpt>
      <trkpt lat="42.79136" lon="2.33872">
        <ele>668.25</ele>
        <time>2014-11-02T12:20:45Z</time>
      </trkpt>
      <trkpt lat="42.7917" lon="2.33848">
        <ele>664.89</ele>
        <time>2014-11-02T12:20:50Z</time>
      </trkpt>
      <trkpt lat="42.79189" lon="2.33838">
        <ele>663.45</ele>
        <time>2014-11-02T12:20:53Z</time>
      </trkpt>
      <trkpt lat="42.79196" lon="2.33838">
        <ele>662.97</ele>
        <time>2014-11-02T12:20:54Z</time>
      </trkpt>
      <trkpt lat="42.79203" lon="2.33837">
        <ele>662.49</ele>
        <time>2014-11-02T12:20:55Z</time>
      </trkpt>
      <trkpt lat="42.79209" lon="2.33835">
        <ele>662.01</ele>
        <time>2014-11-02T12:20:56Z</time>
      </trkpt>
      <trkpt lat="42.79213" lon="2.33831">
        <ele>661.04</ele>
        <time>2014-11-02T12:20:57Z</time>
      </trkpt>
      <trkpt lat="42.79217" lon="2.33823">
        <ele>660.56</ele>
        <time>2014-11-02T12:20:58Z</time>
      </trkpt>
      <trkpt lat="42.79221" lon="2.33816">
        <ele>659.6</ele>
        <time>2014-11-02T12:20:59Z</time>
      </trkpt>
      <trkpt lat="42.79223" lon="2.33807">
        <ele>659.12</ele>
        <time>2014-11-02T12:21:00Z</time>
      </trkpt>
      <trkpt lat="42.79224" lon="2.33799">
        <ele>658.64</ele>
        <time>2014-11-02T12:21:01Z</time>
      </trkpt>
      <trkpt lat="42.79225" lon="2.33791">
        <ele>658.16</ele>
        <time>2014-11-02T12:21:02Z</time>
      </trkpt>
      <trkpt lat="42.79227" lon="2.33782">
        <ele>657.68</ele>
        <time>2014-11-02T12:21:03Z</time>
      </trkpt>
      <trkpt lat="42.7923" lon="2.33774">
        <ele>657.2</ele>
        <time>2014-11-02T12:21:04Z</time>
      </trkpt>
      <trkpt lat="42.79243" lon="2.33723">
        <ele>657.68</ele>
        <time>2014-11-02T12:21:12Z</time>
      </trkpt>
      <trkpt lat="42.79244" lon="2.33717">
        <ele>657.2</ele>
        <time>2014-11-02T12:21:13Z</time>
      </trkpt>
      <trkpt lat="42.79245" lon="2.33712">
        <ele>656.72</ele>
        <time>2014-11-02T12:21:14Z</time>
      </trkpt>
      <trkpt lat="42.79247" lon="2.33699">
        <ele>655.76</ele>
        <time>2014-11-02T12:21:16Z</time>
      </trkpt>
      <trkpt lat="42.79246" lon="2.33691">
        <ele>655.76</ele>
        <time>2014-11-02T12:21:17Z</time>
      </trkpt>
      <trkpt lat="42.79245" lon="2.33684">
        <ele>655.28</ele>
        <time>2014-11-02T12:21:18Z</time>
      </trkpt>
      <trkpt lat="42.79243" lon="2.33677">
        <ele>654.8</ele>
        <time>2014-11-02T12:21:19Z</time>
      </trkpt>
      <trkpt lat="42.79242" lon="2.3367">
        <ele>654.8</ele>
        <time>2014-11-02T12:21:20Z</time>
      </trkpt>
      <trkpt lat="42.79243" lon="2.33662">
        <ele>653.83</ele>
        <time>2014-11-02T12:21:21Z</time>
      </trkpt>
      <trkpt lat="42.79245" lon="2.33654">
        <ele>653.35</ele>
        <time>2014-11-02T12:21:22Z</time>
      </trkpt>
      <trkpt lat="42.79247" lon="2.33645">
        <ele>652.87</ele>
        <time>2014-11-02T12:21:23Z</time>
      </trkpt>
      <trkpt lat="42.7925" lon="2.33636">
        <ele>652.39</ele>
        <time>2014-11-02T12:21:24Z</time>
      </trkpt>
      <trkpt lat="42.79252" lon="2.33627">
        <ele>651.91</ele>
        <time>2014-11-02T12:21:25Z</time>
      </trkpt>
      <trkpt lat="42.79257" lon="2.33619">
        <ele>651.43</ele>
        <time>2014-11-02T12:21:26Z</time>
      </trkpt>
      <trkpt lat="42.79262" lon="2.33613">
        <ele>650.47</ele>
        <time>2014-11-02T12:21:27Z</time>
      </trkpt>
      <trkpt lat="42.79269" lon="2.33609">
        <ele>650.47</ele>
        <time>2014-11-02T12:21:28Z</time>
      </trkpt>
      <trkpt lat="42.79275" lon="2.33606">
        <ele>650.47</ele>
        <time>2014-11-02T12:21:29Z</time>
      </trkpt>
      <trkpt lat="42.79282" lon="2.33603">
        <ele>649.99</ele>
        <time>2014-11-02T12:21:30Z</time>
      </trkpt>
      <trkpt lat="42.79287" lon="2.33598">
        <ele>649.99</ele>
        <time>2014-11-02T12:21:31Z</time>
      </trkpt>
      <trkpt lat="42.79292" lon="2.33593">
        <ele>649.51</ele>
        <time>2014-11-02T12:21:32Z</time>
      </trkpt>
      <trkpt lat="42.79296" lon="2.33585">
        <ele>648.55</ele>
        <time>2014-11-02T12:21:33Z</time>
      </trkpt>
      <trkpt lat="42.793" lon="2.33577">
        <ele>648.07</ele>
        <time>2014-11-02T12:21:34Z</time>
      </trkpt>
      <trkpt lat="42.79315" lon="2.33541">
        <ele>643.74</ele>
        <time>2014-11-02T12:21:38Z</time>
      </trkpt>
      <trkpt lat="42.79322" lon="2.33524">
        <ele>641.34</ele>
        <time>2014-11-02T12:21:40Z</time>
      </trkpt>
      <trkpt lat="42.79327" lon="2.33511">
        <ele>639.41</ele>
        <time>2014-11-02T12:21:42Z</time>
      </trkpt>
      <trkpt lat="42.7933" lon="2.33507">
        <ele>638.93</ele>
        <time>2014-11-02T12:21:43Z</time>
      </trkpt>
      <trkpt lat="42.79334" lon="2.33503">
        <ele>638.45</ele>
        <time>2014-11-02T12:21:44Z</time>
      </trkpt>
      <trkpt lat="42.79339" lon="2.335">
        <ele>637.49</ele>
        <time>2014-11-02T12:21:45Z</time>
      </trkpt>
      <trkpt lat="42.79345" lon="2.33496">
        <ele>637.01</ele>
        <time>2014-11-02T12:21:46Z</time>
      </trkpt>
      <trkpt lat="42.79351" lon="2.33492">
        <ele>636.53</ele>
        <time>2014-11-02T12:21:47Z</time>
      </trkpt>
      <trkpt lat="42.79357" lon="2.33487">
        <ele>636.05</ele>
        <time>2014-11-02T12:21:48Z</time>
      </trkpt>
      <trkpt lat="42.79362" lon="2.33482">
        <ele>636.05</ele>
        <time>2014-11-02T12:21:49Z</time>
      </trkpt>
      <trkpt lat="42.79368" lon="2.33479">
        <ele>635.57</ele>
        <time>2014-11-02T12:21:50Z</time>
      </trkpt>
      <trkpt lat="42.79374" lon="2.33476">
        <ele>635.57</ele>
        <time>2014-11-02T12:21:51Z</time>
      </trkpt>
      <trkpt lat="42.79387" lon="2.33472">
        <ele>635.09</ele>
        <time>2014-11-02T12:21:53Z</time>
      </trkpt>
      <trkpt lat="42.79414" lon="2.33459">
        <ele>633.65</ele>
        <time>2014-11-02T12:21:58Z</time>
      </trkpt>
      <trkpt lat="42.79418" lon="2.33455">
        <ele>633.65</ele>
        <time>2014-11-02T12:21:59Z</time>
      </trkpt>
      <trkpt lat="42.79439" lon="2.33433">
        <ele>632.2</ele>
        <time>2014-11-02T12:22:04Z</time>
      </trkpt>
      <trkpt lat="42.79456" lon="2.33425">
        <ele>630.28</ele>
        <time>2014-11-02T12:22:07Z</time>
      </trkpt>
      <trkpt lat="42.79462" lon="2.33426">
        <ele>629.8</ele>
        <time>2014-11-02T12:22:08Z</time>
      </trkpt>
      <trkpt lat="42.79472" lon="2.33429">
        <ele>630.28</ele>
        <time>2014-11-02T12:22:10Z</time>
      </trkpt>
      <trkpt lat="42.79476" lon="2.33428">
        <ele>630.28</ele>
        <time>2014-11-02T12:22:11Z</time>
      </trkpt>
      <trkpt lat="42.79479" lon="2.33426">
        <ele>630.76</ele>
        <time>2014-11-02T12:22:12Z</time>
      </trkpt>
      <trkpt lat="42.79482" lon="2.33422">
        <ele>630.76</ele>
        <time>2014-11-02T12:22:21Z</time>
      </trkpt>
      <trkpt lat="42.79482" lon="2.33422">
        <ele>630.76</ele>
        <time>2014-11-02T12:22:46Z</time>
      </trkpt>
      <trkpt lat="42.79485" lon="2.33423">
        <ele>630.28</ele>
        <time>2014-11-02T12:22:57Z</time>
      </trkpt>
      <trkpt lat="42.79488" lon="2.33423">
        <ele>629.8</ele>
        <time>2014-11-02T12:22:58Z</time>
      </trkpt>
      <trkpt lat="42.79491" lon="2.3342">
        <ele>629.8</ele>
        <time>2014-11-02T12:22:59Z</time>
      </trkpt>
      <trkpt lat="42.79494" lon="2.33417">
        <ele>629.32</ele>
        <time>2014-11-02T12:23:00Z</time>
      </trkpt>
      <trkpt lat="42.79497" lon="2.33415">
        <ele>628.84</ele>
        <time>2014-11-02T12:23:01Z</time>
      </trkpt>
      <trkpt lat="42.795" lon="2.33416">
        <ele>628.36</ele>
        <time>2014-11-02T12:23:02Z</time>
      </trkpt>
      <trkpt lat="42.79502" lon="2.33419">
        <ele>628.36</ele>
        <time>2014-11-02T12:23:03Z</time>
      </trkpt>
      <trkpt lat="42.79503" lon="2.33421">
        <ele>628.36</ele>
        <time>2014-11-02T12:23:04Z</time>
      </trkpt>
      <trkpt lat="42.79508" lon="2.33426">
        <ele>629.32</ele>
        <time>2014-11-02T12:23:13Z</time>
      </trkpt>
      <trkpt lat="42.7951" lon="2.33425">
        <ele>629.32</ele>
        <time>2014-11-02T12:23:41Z</time>
      </trkpt>
      <trkpt lat="42.79511" lon="2.33425">
        <ele>629.32</ele>
        <time>2014-11-02T12:24:02Z</time>
      </trkpt>
      <trkpt lat="42.79512" lon="2.33427">
        <ele>629.32</ele>
        <time>2014-11-02T12:24:32Z</time>
      </trkpt>
      <trkpt lat="42.79512" lon="2.33427">
        <ele>629.32</ele>
        <time>2014-11-02T12:24:55Z</time>
      </trkpt>
      <trkpt lat="42.79511" lon="2.33427">
        <ele>630.28</ele>
        <time>2014-11-02T12:25:21Z</time>
      </trkpt>
      <trkpt lat="42.7951" lon="2.33427">
        <ele>629.32</ele>
        <time>2014-11-02T12:25:44Z</time>
      </trkpt>
      <trkpt lat="42.79512" lon="2.3343">
        <ele>629.32</ele>
        <time>2014-11-02T12:26:04Z</time>
      </trkpt>
      <trkpt lat="42.79513" lon="2.33431">
        <ele>629.8</ele>
        <time>2014-11-02T12:26:05Z</time>
      </trkpt>
      <trkpt lat="42.79518" lon="2.33436">
        <ele>630.76</ele>
        <time>2014-11-02T12:26:10Z</time>
      </trkpt>
      <trkpt lat="42.79519" lon="2.33437">
        <ele>630.76</ele>
        <time>2014-11-02T12:26:11Z</time>
      </trkpt>
      <trkpt lat="42.7952" lon="2.33438">
        <ele>631.24</ele>
        <time>2014-11-02T12:26:12Z</time>
      </trkpt>
      <trkpt lat="42.79521" lon="2.33439">
        <ele>631.72</ele>
        <time>2014-11-02T12:26:13Z</time>
      </trkpt>
      <trkpt lat="42.79522" lon="2.33441">
        <ele>631.72</ele>
        <time>2014-11-02T12:26:14Z</time>
      </trkpt>
      <trkpt lat="42.79523" lon="2.33442">
        <ele>632.2</ele>
        <time>2014-11-02T12:26:15Z</time>
      </trkpt>
      <trkpt lat="42.79532" lon="2.33459">
        <ele>634.61</ele>
        <time>2014-11-02T12:26:27Z</time>
      </trkpt>
      <trkpt lat="42.79541" lon="2.33478">
        <ele>636.53</ele>
        <time>2014-11-02T12:26:41Z</time>
      </trkpt>
      <trkpt lat="42.79549" lon="2.33496">
        <ele>639.41</ele>
        <time>2014-11-02T12:26:55Z</time>
      </trkpt>
      <trkpt lat="42.79556" lon="2.33513">
        <ele>642.3</ele>
        <time>2014-11-02T12:27:10Z</time>
      </trkpt>
      <trkpt lat="42.79556" lon="2.33514">
        <ele>642.78</ele>
        <time>2014-11-02T12:27:20Z</time>
      </trkpt>
      <trkpt lat="42.79557" lon="2.33515">
        <ele>643.74</ele>
        <time>2014-11-02T12:27:21Z</time>
      </trkpt>
      <trkpt lat="42.79559" lon="2.33524">
        <ele>644.22</ele>
        <time>2014-11-02T12:27:32Z</time>
      </trkpt>
      <trkpt lat="42.7956" lon="2.33534">
        <ele>645.66</ele>
        <time>2014-11-02T12:27:44Z</time>
      </trkpt>
      <trkpt lat="42.79562" lon="2.33544">
        <ele>647.1</ele>
        <time>2014-11-02T12:27:57Z</time>
      </trkpt>
      <trkpt lat="42.79564" lon="2.33554">
        <ele>649.03</ele>
        <time>2014-11-02T12:28:10Z</time>
      </trkpt>
      <trkpt lat="42.79567" lon="2.33566">
        <ele>650.95</ele>
        <time>2014-11-02T12:28:23Z</time>
      </trkpt>
      <trkpt lat="42.79568" lon="2.3358">
        <ele>653.35</ele>
        <time>2014-11-02T12:28:38Z</time>
      </trkpt>
      <trkpt lat="42.79569" lon="2.33581">
        <ele>653.35</ele>
        <time>2014-11-02T12:28:48Z</time>
      </trkpt>
      <trkpt lat="42.79569" lon="2.33583">
        <ele>653.83</ele>
        <time>2014-11-02T12:28:49Z</time>
      </trkpt>
      <trkpt lat="42.79571" lon="2.33589">
        <ele>654.31</ele>
        <time>2014-11-02T12:28:53Z</time>
      </trkpt>
      <trkpt lat="42.79572" lon="2.3359">
        <ele>654.8</ele>
        <time>2014-11-02T12:28:54Z</time>
      </trkpt>
      <trkpt lat="42.79572" lon="2.33592">
        <ele>654.8</ele>
        <time>2014-11-02T12:28:55Z</time>
      </trkpt>
      <trkpt lat="42.79573" lon="2.33595">
        <ele>655.28</ele>
        <time>2014-11-02T12:28:58Z</time>
      </trkpt>
      <trkpt lat="42.79578" lon="2.33613">
        <ele>658.64</ele>
        <time>2014-11-02T12:29:13Z</time>
      </trkpt>
      <trkpt lat="42.79587" lon="2.33637">
        <ele>660.56</ele>
        <time>2014-11-02T12:29:29Z</time>
      </trkpt>
      <trkpt lat="42.79595" lon="2.33664">
        <ele>663.45</ele>
        <time>2014-11-02T12:29:46Z</time>
      </trkpt>
      <trkpt lat="42.79599" lon="2.33692">
        <ele>666.33</ele>
        <time>2014-11-02T12:30:02Z</time>
      </trkpt>
      <trkpt lat="42.79601" lon="2.33719">
        <ele>669.22</ele>
        <time>2014-11-02T12:30:18Z</time>
      </trkpt>
      <trkpt lat="42.796" lon="2.3372">
        <ele>669.7</ele>
        <time>2014-11-02T12:30:19Z</time>
      </trkpt>
      <trkpt lat="42.796" lon="2.33722">
        <ele>669.7</ele>
        <time>2014-11-02T12:30:20Z</time>
      </trkpt>
      <trkpt lat="42.79601" lon="2.33724">
        <ele>669.7</ele>
        <time>2014-11-02T12:30:21Z</time>
      </trkpt>
      <trkpt lat="42.79601" lon="2.33726">
        <ele>669.7</ele>
        <time>2014-11-02T12:30:22Z</time>
      </trkpt>
      <trkpt lat="42.79601" lon="2.33729">
        <ele>670.18</ele>
        <time>2014-11-02T12:30:23Z</time>
      </trkpt>
      <trkpt lat="42.79604" lon="2.33759">
        <ele>671.14</ele>
        <time>2014-11-02T12:30:38Z</time>
      </trkpt>
      <trkpt lat="42.79603" lon="2.33766">
        <ele>671.62</ele>
        <time>2014-11-02T12:30:51Z</time>
      </trkpt>
      <trkpt lat="42.79605" lon="2.33767">
        <ele>671.62</ele>
        <time>2014-11-02T12:31:17Z</time>
      </trkpt>
      <trkpt lat="42.79605" lon="2.33768">
        <ele>671.62</ele>
        <time>2014-11-02T12:31:37Z</time>
      </trkpt>
      <trkpt lat="42.79606" lon="2.3377">
        <ele>671.62</ele>
        <time>2014-11-02T12:31:52Z</time>
      </trkpt>
      <trkpt lat="42.79606" lon="2.3377">
        <ele>672.1</ele>
        <time>2014-11-02T12:32:07Z</time>
      </trkpt>
      <trkpt lat="42.79607" lon="2.33769">
        <ele>672.1</ele>
        <time>2014-11-02T12:32:17Z</time>
      </trkpt>
      <trkpt lat="42.79607" lon="2.33769">
        <ele>672.1</ele>
        <time>2014-11-02T12:32:39Z</time>
      </trkpt>
      <trkpt lat="42.79608" lon="2.33769">
        <ele>672.1</ele>
        <time>2014-11-02T12:33:01Z</time>
      </trkpt>
      <trkpt lat="42.79608" lon="2.3377">
        <ele>672.1</ele>
        <time>2014-11-02T12:33:24Z</time>
      </trkpt>
      <trkpt lat="42.79607" lon="2.33769">
        <ele>672.1</ele>
        <time>2014-11-02T12:33:46Z</time>
      </trkpt>
      <trkpt lat="42.79608" lon="2.33769">
        <ele>671.62</ele>
        <time>2014-11-02T12:34:03Z</time>
      </trkpt>
      <trkpt lat="42.79608" lon="2.33769">
        <ele>672.1</ele>
        <time>2014-11-02T12:34:29Z</time>
      </trkpt>
      <trkpt lat="42.79609" lon="2.3377">
        <ele>672.1</ele>
        <time>2014-11-02T12:34:54Z</time>
      </trkpt>
      <trkpt lat="42.79607" lon="2.33776">
        <ele>671.62</ele>
        <time>2014-11-02T12:35:27Z</time>
      </trkpt>
      <trkpt lat="42.79606" lon="2.33779">
        <ele>671.62</ele>
        <time>2014-11-02T12:35:28Z</time>
      </trkpt>
      <trkpt lat="42.79604" lon="2.33781">
        <ele>671.14</ele>
        <time>2014-11-02T12:35:29Z</time>
      </trkpt>
      <trkpt lat="42.79604" lon="2.33784">
        <ele>671.14</ele>
        <time>2014-11-02T12:35:30Z</time>
      </trkpt>
      <trkpt lat="42.79603" lon="2.33787">
        <ele>671.14</ele>
        <time>2014-11-02T12:35:31Z</time>
      </trkpt>
      <trkpt lat="42.79603" lon="2.33791">
        <ele>670.66</ele>
        <time>2014-11-02T12:35:32Z</time>
      </trkpt>
      <trkpt lat="42.79603" lon="2.33796">
        <ele>670.66</ele>
        <time>2014-11-02T12:35:33Z</time>
      </trkpt>
      <trkpt lat="42.79603" lon="2.33854">
        <ele>671.14</ele>
        <time>2014-11-02T12:35:47Z</time>
      </trkpt>
      <trkpt lat="42.79605" lon="2.33897">
        <ele>670.18</ele>
        <time>2014-11-02T12:35:58Z</time>
      </trkpt>
      <trkpt lat="42.79605" lon="2.33934">
        <ele>669.22</ele>
        <time>2014-11-02T12:36:04Z</time>
      </trkpt>
      <trkpt lat="42.79605" lon="2.3394">
        <ele>669.22</ele>
        <time>2014-11-02T12:36:05Z</time>
      </trkpt>
      <trkpt lat="42.79613" lon="2.33987">
        <ele>672.1</ele>
        <time>2014-11-02T12:36:18Z</time>
      </trkpt>
      <trkpt lat="42.7962" lon="2.34016">
        <ele>674.5</ele>
        <time>2014-11-02T12:36:30Z</time>
      </trkpt>
      <trkpt lat="42.79629" lon="2.34037">
        <ele>676.91</ele>
        <time>2014-11-02T12:36:44Z</time>
      </trkpt>
      <trkpt lat="42.79633" lon="2.34049">
        <ele>678.35</ele>
        <time>2014-11-02T12:36:57Z</time>
      </trkpt>
      <trkpt lat="42.79637" lon="2.34056">
        <ele>679.79</ele>
        <time>2014-11-02T12:37:11Z</time>
      </trkpt>
      <trkpt lat="42.79641" lon="2.34064">
        <ele>681.71</ele>
        <time>2014-11-02T12:37:24Z</time>
      </trkpt>
      <trkpt lat="42.79645" lon="2.34077">
        <ele>683.63</ele>
        <time>2014-11-02T12:37:39Z</time>
      </trkpt>
      <trkpt lat="42.79648" lon="2.34077">
        <ele>683.63</ele>
        <time>2014-11-02T12:37:57Z</time>
      </trkpt>
      <trkpt lat="42.79656" lon="2.34098">
        <ele>686.52</ele>
        <time>2014-11-02T12:38:10Z</time>
      </trkpt>
      <trkpt lat="42.79666" lon="2.34119">
        <ele>689.4</ele>
        <time>2014-11-02T12:38:25Z</time>
      </trkpt>
      <trkpt lat="42.79667" lon="2.3412">
        <ele>689.88</ele>
        <time>2014-11-02T12:38:26Z</time>
      </trkpt>
      <trkpt lat="42.79668" lon="2.34122">
        <ele>689.88</ele>
        <time>2014-11-02T12:38:27Z</time>
      </trkpt>
      <trkpt lat="42.7967" lon="2.34126">
        <ele>690.36</ele>
        <time>2014-11-02T12:38:31Z</time>
      </trkpt>
      <trkpt lat="42.79671" lon="2.34128">
        <ele>690.84</ele>
        <time>2014-11-02T12:38:32Z</time>
      </trkpt>
      <trkpt lat="42.79677" lon="2.34147">
        <ele>692.29</ele>
        <time>2014-11-02T12:38:44Z</time>
      </trkpt>
      <trkpt lat="42.79685" lon="2.34166">
        <ele>694.21</ele>
        <time>2014-11-02T12:38:59Z</time>
      </trkpt>
      <trkpt lat="42.79693" lon="2.34182">
        <ele>697.09</ele>
        <time>2014-11-02T12:39:12Z</time>
      </trkpt>
      <trkpt lat="42.79693" lon="2.34183">
        <ele>697.09</ele>
        <time>2014-11-02T12:39:13Z</time>
      </trkpt>
      <trkpt lat="42.79699" lon="2.34199">
        <ele>699.02</ele>
        <time>2014-11-02T12:39:26Z</time>
      </trkpt>
      <trkpt lat="42.79705" lon="2.3422">
        <ele>701.42</ele>
        <time>2014-11-02T12:39:41Z</time>
      </trkpt>
      <trkpt lat="42.79705" lon="2.34228">
        <ele>702.86</ele>
        <time>2014-11-02T12:39:53Z</time>
      </trkpt>
      <trkpt lat="42.79709" lon="2.34238">
        <ele>704.78</ele>
        <time>2014-11-02T12:40:05Z</time>
      </trkpt>
      <trkpt lat="42.7971" lon="2.34249">
        <ele>706.23</ele>
        <time>2014-11-02T12:40:16Z</time>
      </trkpt>
      <trkpt lat="42.79707" lon="2.34262">
        <ele>708.15</ele>
        <time>2014-11-02T12:40:30Z</time>
      </trkpt>
      <trkpt lat="42.79714" lon="2.34269">
        <ele>709.59</ele>
        <time>2014-11-02T12:40:44Z</time>
      </trkpt>
      <trkpt lat="42.79718" lon="2.34268">
        <ele>710.55</ele>
        <time>2014-11-02T12:40:51Z</time>
      </trkpt>
      <trkpt lat="42.79722" lon="2.34267">
        <ele>711.99</ele>
        <time>2014-11-02T12:41:03Z</time>
      </trkpt>
      <trkpt lat="42.79733" lon="2.34264">
        <ele>713.92</ele>
        <time>2014-11-02T12:41:20Z</time>
      </trkpt>
      <trkpt lat="42.79738" lon="2.34268">
        <ele>715.84</ele>
        <time>2014-11-02T12:41:30Z</time>
      </trkpt>
      <trkpt lat="42.79741" lon="2.3428">
        <ele>716.8</ele>
        <time>2014-11-02T12:41:42Z</time>
      </trkpt>
      <trkpt lat="42.79743" lon="2.34293">
        <ele>719.2</ele>
        <time>2014-11-02T12:41:57Z</time>
      </trkpt>
      <trkpt lat="42.79745" lon="2.34305">
        <ele>721.61</ele>
        <time>2014-11-02T12:42:12Z</time>
      </trkpt>
      <trkpt lat="42.79746" lon="2.34321">
        <ele>723.53</ele>
        <time>2014-11-02T12:42:27Z</time>
      </trkpt>
      <trkpt lat="42.7975" lon="2.34333">
        <ele>725.93</ele>
        <time>2014-11-02T12:42:42Z</time>
      </trkpt>
      <trkpt lat="42.79752" lon="2.34343">
        <ele>726.41</ele>
        <time>2014-11-02T12:42:55Z</time>
      </trkpt>
      <trkpt lat="42.79752" lon="2.34344">
        <ele>726.41</ele>
        <time>2014-11-02T12:42:56Z</time>
      </trkpt>
      <trkpt lat="42.79752" lon="2.3435">
        <ele>726.89</ele>
        <time>2014-11-02T12:42:59Z</time>
      </trkpt>
      <trkpt lat="42.79751" lon="2.34352">
        <ele>726.89</ele>
        <time>2014-11-02T12:43:00Z</time>
      </trkpt>
      <trkpt lat="42.79751" lon="2.34354">
        <ele>726.89</ele>
        <time>2014-11-02T12:43:01Z</time>
      </trkpt>
      <trkpt lat="42.79755" lon="2.34372">
        <ele>727.37</ele>
        <time>2014-11-02T12:43:11Z</time>
      </trkpt>
      <trkpt lat="42.79756" lon="2.34374">
        <ele>727.37</ele>
        <time>2014-11-02T12:43:12Z</time>
      </trkpt>
      <trkpt lat="42.79756" lon="2.34376">
        <ele>727.37</ele>
        <time>2014-11-02T12:43:13Z</time>
      </trkpt>
      <trkpt lat="42.79756" lon="2.34378">
        <ele>727.37</ele>
        <time>2014-11-02T12:43:14Z</time>
      </trkpt>
      <trkpt lat="42.79757" lon="2.3438">
        <ele>727.37</ele>
        <time>2014-11-02T12:43:15Z</time>
      </trkpt>
      <trkpt lat="42.7976" lon="2.3441">
        <ele>728.82</ele>
        <time>2014-11-02T12:43:31Z</time>
      </trkpt>
      <trkpt lat="42.79762" lon="2.34419">
        <ele>729.3</ele>
        <time>2014-11-02T12:43:37Z</time>
      </trkpt>
      <trkpt lat="42.79761" lon="2.34428">
        <ele>730.26</ele>
        <time>2014-11-02T12:43:43Z</time>
      </trkpt>
      <trkpt lat="42.79762" lon="2.34432">
        <ele>730.26</ele>
        <time>2014-11-02T12:43:46Z</time>
      </trkpt>
      <trkpt lat="42.79762" lon="2.34434">
        <ele>730.74</ele>
        <time>2014-11-02T12:43:47Z</time>
      </trkpt>
      <trkpt lat="42.79762" lon="2.34436">
        <ele>730.74</ele>
        <time>2014-11-02T12:43:48Z</time>
      </trkpt>
      <trkpt lat="42.79763" lon="2.34437">
        <ele>731.22</ele>
        <time>2014-11-02T12:43:49Z</time>
      </trkpt>
      <trkpt lat="42.79763" lon="2.34439">
        <ele>731.7</ele>
        <time>2014-11-02T12:44:01Z</time>
      </trkpt>
      <trkpt lat="42.79762" lon="2.34439">
        <ele>731.22</ele>
        <time>2014-11-02T12:44:21Z</time>
      </trkpt>
      <trkpt lat="42.79762" lon="2.34438">
        <ele>731.7</ele>
        <time>2014-11-02T12:44:55Z</time>
      </trkpt>
      <trkpt lat="42.79762" lon="2.34439">
        <ele>731.22</ele>
        <time>2014-11-02T12:45:22Z</time>
      </trkpt>
      <trkpt lat="42.79762" lon="2.34439">
        <ele>731.22</ele>
        <time>2014-11-02T12:45:45Z</time>
      </trkpt>
      <trkpt lat="42.79762" lon="2.3444">
        <ele>731.22</ele>
        <time>2014-11-02T12:46:11Z</time>
      </trkpt>
      <trkpt lat="42.79762" lon="2.34439">
        <ele>731.22</ele>
        <time>2014-11-02T12:46:35Z</time>
      </trkpt>
      <trkpt lat="42.79765" lon="2.34445">
        <ele>731.7</ele>
        <time>2014-11-02T12:46:41Z</time>
      </trkpt>
      <trkpt lat="42.79766" lon="2.34446">
        <ele>731.7</ele>
        <time>2014-11-02T12:46:42Z</time>
      </trkpt>
      <trkpt lat="42.79766" lon="2.34448">
        <ele>732.18</ele>
        <time>2014-11-02T12:46:43Z</time>
      </trkpt>
      <trkpt lat="42.79767" lon="2.3446">
        <ele>733.14</ele>
        <time>2014-11-02T12:46:57Z</time>
      </trkpt>
      <trkpt lat="42.79767" lon="2.34463">
        <ele>733.14</ele>
        <time>2014-11-02T12:47:09Z</time>
      </trkpt>
      <trkpt lat="42.79766" lon="2.34467">
        <ele>733.62</ele>
        <time>2014-11-02T12:47:13Z</time>
      </trkpt>
      <trkpt lat="42.79766" lon="2.34468">
        <ele>733.62</ele>
        <time>2014-11-02T12:47:14Z</time>
      </trkpt>
      <trkpt lat="42.79765" lon="2.34476">
        <ele>735.07</ele>
        <time>2014-11-02T12:47:23Z</time>
      </trkpt>
      <trkpt lat="42.79766" lon="2.34483">
        <ele>734.58</ele>
        <time>2014-11-02T12:47:36Z</time>
      </trkpt>
      <trkpt lat="42.79772" lon="2.34497">
        <ele>734.1</ele>
        <time>2014-11-02T12:47:48Z</time>
      </trkpt>
      <trkpt lat="42.79781" lon="2.34537">
        <ele>733.14</ele>
        <time>2014-11-02T12:47:58Z</time>
      </trkpt>
      <trkpt lat="42.79783" lon="2.34597">
        <ele>730.26</ele>
        <time>2014-11-02T12:48:10Z</time>
      </trkpt>
      <trkpt lat="42.7979" lon="2.34641">
        <ele>728.82</ele>
        <time>2014-11-02T12:48:20Z</time>
      </trkpt>
      <trkpt lat="42.79796" lon="2.34656">
        <ele>727.86</ele>
        <time>2014-11-02T12:48:23Z</time>
      </trkpt>
      <trkpt lat="42.79797" lon="2.34662">
        <ele>727.37</ele>
        <time>2014-11-02T12:48:24Z</time>
      </trkpt>
      <trkpt lat="42.79801" lon="2.34677">
        <ele>726.41</ele>
        <time>2014-11-02T12:48:27Z</time>
      </trkpt>
      <trkpt lat="42.79802" lon="2.34682">
        <ele>725.93</ele>
        <time>2014-11-02T12:48:28Z</time>
      </trkpt>
      <trkpt lat="42.79803" lon="2.34686">
        <ele>725.93</ele>
        <time>2014-11-02T12:48:29Z</time>
      </trkpt>
      <trkpt lat="42.79803" lon="2.3469">
        <ele>725.45</ele>
        <time>2014-11-02T12:48:30Z</time>
      </trkpt>
      <trkpt lat="42.79804" lon="2.34694">
        <ele>725.45</ele>
        <time>2014-11-02T12:48:31Z</time>
      </trkpt>
      <trkpt lat="42.79805" lon="2.34697">
        <ele>725.45</ele>
        <time>2014-11-02T12:48:32Z</time>
      </trkpt>
      <trkpt lat="42.79805" lon="2.347">
        <ele>724.97</ele>
        <time>2014-11-02T12:48:33Z</time>
      </trkpt>
      <trkpt lat="42.79805" lon="2.34703">
        <ele>724.97</ele>
        <time>2014-11-02T12:48:34Z</time>
      </trkpt>
      <trkpt lat="42.79805" lon="2.34705">
        <ele>724.97</ele>
        <time>2014-11-02T12:48:35Z</time>
      </trkpt>
      <trkpt lat="42.79806" lon="2.34709">
        <ele>724.97</ele>
        <time>2014-11-02T12:48:36Z</time>
      </trkpt>
      <trkpt lat="42.79811" lon="2.34755">
        <ele>723.05</ele>
        <time>2014-11-02T12:48:46Z</time>
      </trkpt>
      <trkpt lat="42.79819" lon="2.34792">
        <ele>720.16</ele>
        <time>2014-11-02T12:48:55Z</time>
      </trkpt>
      <trkpt lat="42.79824" lon="2.34813">
        <ele>717.76</ele>
        <time>2014-11-02T12:49:04Z</time>
      </trkpt>
      <trkpt lat="42.79824" lon="2.34818">
        <ele>717.76</ele>
        <time>2014-11-02T12:49:05Z</time>
      </trkpt>
      <trkpt lat="42.79824" lon="2.34824">
        <ele>717.28</ele>
        <time>2014-11-02T12:49:06Z</time>
      </trkpt>
      <trkpt lat="42.79826" lon="2.34839">
        <ele>715.84</ele>
        <time>2014-11-02T12:49:08Z</time>
      </trkpt>
      <trkpt lat="42.79829" lon="2.34853">
        <ele>713.92</ele>
        <time>2014-11-02T12:49:10Z</time>
      </trkpt>
      <trkpt lat="42.79837" lon="2.34877">
        <ele>710.55</ele>
        <time>2014-11-02T12:49:14Z</time>
      </trkpt>
      <trkpt lat="42.79846" lon="2.34893">
        <ele>707.19</ele>
        <time>2014-11-02T12:49:21Z</time>
      </trkpt>
      <trkpt lat="42.79849" lon="2.34894">
        <ele>707.19</ele>
        <time>2014-11-02T12:49:40Z</time>
      </trkpt>
      <trkpt lat="42.79849" lon="2.34895">
        <ele>707.19</ele>
        <time>2014-11-02T12:49:57Z</time>
      </trkpt>
      <trkpt lat="42.79848" lon="2.34897">
        <ele>706.71</ele>
        <time>2014-11-02T12:49:58Z</time>
      </trkpt>
      <trkpt lat="42.79848" lon="2.34899">
        <ele>706.71</ele>
        <time>2014-11-02T12:49:59Z</time>
      </trkpt>
      <trkpt lat="42.79849" lon="2.34903">
        <ele>706.71</ele>
        <time>2014-11-02T12:50:00Z</time>
      </trkpt>
      <trkpt lat="42.7985" lon="2.34906">
        <ele>706.23</ele>
        <time>2014-11-02T12:50:01Z</time>
      </trkpt>
      <trkpt lat="42.79853" lon="2.34922">
        <ele>705.26</ele>
        <time>2014-11-02T12:50:11Z</time>
      </trkpt>
      <trkpt lat="42.79856" lon="2.34927">
        <ele>705.75</ele>
        <time>2014-11-02T12:50:26Z</time>
      </trkpt>
      <trkpt lat="42.7986" lon="2.34932">
        <ele>706.71</ele>
        <time>2014-11-02T12:50:35Z</time>
      </trkpt>
      <trkpt lat="42.7986" lon="2.34935">
        <ele>706.23</ele>
        <time>2014-11-02T12:50:36Z</time>
      </trkpt>
      <trkpt lat="42.79863" lon="2.34957">
        <ele>704.78</ele>
        <time>2014-11-02T12:50:41Z</time>
      </trkpt>
      <trkpt lat="42.79864" lon="2.35032">
        <ele>701.9</ele>
        <time>2014-11-02T12:50:54Z</time>
      </trkpt>
      <trkpt lat="42.79849" lon="2.35094">
        <ele>699.5</ele>
        <time>2014-11-02T12:51:06Z</time>
      </trkpt>
      <trkpt lat="42.79847" lon="2.35136">
        <ele>698.53</ele>
        <time>2014-11-02T12:51:17Z</time>
      </trkpt>
      <trkpt lat="42.7984" lon="2.35163">
        <ele>698.05</ele>
        <time>2014-11-02T12:51:23Z</time>
      </trkpt>
      <trkpt lat="42.79829" lon="2.35186">
        <ele>694.69</ele>
        <time>2014-11-02T12:51:27Z</time>
      </trkpt>
      <trkpt lat="42.79826" lon="2.35192">
        <ele>693.73</ele>
        <time>2014-11-02T12:51:28Z</time>
      </trkpt>
      <trkpt lat="42.79817" lon="2.35217">
        <ele>690.84</ele>
        <time>2014-11-02T12:51:32Z</time>
      </trkpt>
      <trkpt lat="42.79816" lon="2.35223">
        <ele>689.88</ele>
        <time>2014-11-02T12:51:33Z</time>
      </trkpt>
      <trkpt lat="42.79816" lon="2.35229">
        <ele>689.88</ele>
        <time>2014-11-02T12:51:34Z</time>
      </trkpt>
      <trkpt lat="42.79815" lon="2.35236">
        <ele>688.92</ele>
        <time>2014-11-02T12:51:35Z</time>
      </trkpt>
      <trkpt lat="42.79814" lon="2.35242">
        <ele>688.44</ele>
        <time>2014-11-02T12:51:36Z</time>
      </trkpt>
      <trkpt lat="42.79811" lon="2.35262">
        <ele>687.48</ele>
        <time>2014-11-02T12:51:39Z</time>
      </trkpt>
      <trkpt lat="42.79811" lon="2.35267">
        <ele>687</ele>
        <time>2014-11-02T12:51:40Z</time>
      </trkpt>
      <trkpt lat="42.79811" lon="2.35272">
        <ele>686.52</ele>
        <time>2014-11-02T12:51:41Z</time>
      </trkpt>
      <trkpt lat="42.79808" lon="2.35295">
        <ele>685.08</ele>
        <time>2014-11-02T12:51:45Z</time>
      </trkpt>
      <trkpt lat="42.79807" lon="2.35319">
        <ele>681.71</ele>
        <time>2014-11-02T12:51:50Z</time>
      </trkpt>
      <trkpt lat="42.79807" lon="2.35325">
        <ele>681.23</ele>
        <time>2014-11-02T12:51:52Z</time>
      </trkpt>
      <trkpt lat="42.79813" lon="2.35348">
        <ele>679.79</ele>
        <time>2014-11-02T12:52:03Z</time>
      </trkpt>
      <trkpt lat="42.79812" lon="2.3536">
        <ele>678.35</ele>
        <time>2014-11-02T12:52:07Z</time>
      </trkpt>
      <trkpt lat="42.79813" lon="2.35367">
        <ele>676.91</ele>
        <time>2014-11-02T12:52:19Z</time>
      </trkpt>
      <trkpt lat="42.79813" lon="2.35374">
        <ele>675.46</ele>
        <time>2014-11-02T12:52:29Z</time>
      </trkpt>
      <trkpt lat="42.79813" lon="2.35379">
        <ele>674.5</ele>
        <time>2014-11-02T12:52:42Z</time>
      </trkpt>
      <trkpt lat="42.79805" lon="2.35383">
        <ele>673.06</ele>
        <time>2014-11-02T12:52:55Z</time>
      </trkpt>
      <trkpt lat="42.79805" lon="2.35385">
        <ele>673.06</ele>
        <time>2014-11-02T12:53:14Z</time>
      </trkpt>
      <trkpt lat="42.79804" lon="2.35386">
        <ele>673.06</ele>
        <time>2014-11-02T12:53:34Z</time>
      </trkpt>
      <trkpt lat="42.79804" lon="2.35387">
        <ele>673.06</ele>
        <time>2014-11-02T12:53:56Z</time>
      </trkpt>
      <trkpt lat="42.79804" lon="2.35389">
        <ele>673.06</ele>
        <time>2014-11-02T12:54:22Z</time>
      </trkpt>
      <trkpt lat="42.79806" lon="2.35392">
        <ele>672.1</ele>
        <time>2014-11-02T12:54:39Z</time>
      </trkpt>
      <trkpt lat="42.79808" lon="2.35393">
        <ele>671.14</ele>
        <time>2014-11-02T12:54:40Z</time>
      </trkpt>
      <trkpt lat="42.79825" lon="2.3542">
        <ele>668.25</ele>
        <time>2014-11-02T12:54:48Z</time>
      </trkpt>
      <trkpt lat="42.79833" lon="2.35437">
        <ele>666.81</ele>
        <time>2014-11-02T12:54:55Z</time>
      </trkpt>
      <trkpt lat="42.79835" lon="2.35438">
        <ele>667.29</ele>
        <time>2014-11-02T12:54:56Z</time>
      </trkpt>
      <trkpt lat="42.79838" lon="2.35438">
        <ele>666.81</ele>
        <time>2014-11-02T12:54:57Z</time>
      </trkpt>
      <trkpt lat="42.7984" lon="2.3544">
        <ele>666.81</ele>
        <time>2014-11-02T12:54:58Z</time>
      </trkpt>
      <trkpt lat="42.79843" lon="2.35442">
        <ele>666.33</ele>
        <time>2014-11-02T12:54:59Z</time>
      </trkpt>
      <trkpt lat="42.79845" lon="2.35445">
        <ele>666.33</ele>
        <time>2014-11-02T12:55:00Z</time>
      </trkpt>
      <trkpt lat="42.79847" lon="2.35448">
        <ele>666.33</ele>
        <time>2014-11-02T12:55:01Z</time>
      </trkpt>
      <trkpt lat="42.79849" lon="2.35451">
        <ele>665.85</ele>
        <time>2014-11-02T12:55:02Z</time>
      </trkpt>
      <trkpt lat="42.79859" lon="2.35479">
        <ele>665.37</ele>
        <time>2014-11-02T12:55:11Z</time>
      </trkpt>
      <trkpt lat="42.79861" lon="2.35485">
        <ele>665.37</ele>
        <time>2014-11-02T12:55:14Z</time>
      </trkpt>
      <trkpt lat="42.7986" lon="2.35488">
        <ele>665.37</ele>
        <time>2014-11-02T12:55:15Z</time>
      </trkpt>
      <trkpt lat="42.7986" lon="2.35492">
        <ele>665.37</ele>
        <time>2014-11-02T12:55:16Z</time>
      </trkpt>
      <trkpt lat="42.79859" lon="2.35495">
        <ele>665.37</ele>
        <time>2014-11-02T12:55:17Z</time>
      </trkpt>
      <trkpt lat="42.79859" lon="2.35497">
        <ele>665.37</ele>
        <time>2014-11-02T12:55:18Z</time>
      </trkpt>
      <trkpt lat="42.79859" lon="2.35499">
        <ele>664.89</ele>
        <time>2014-11-02T12:55:19Z</time>
      </trkpt>
      <trkpt lat="42.79859" lon="2.35501">
        <ele>664.89</ele>
        <time>2014-11-02T12:55:20Z</time>
      </trkpt>
      <trkpt lat="42.79857" lon="2.35507">
        <ele>665.85</ele>
        <time>2014-11-02T12:55:24Z</time>
      </trkpt>
      <trkpt lat="42.79857" lon="2.35509">
        <ele>664.41</ele>
        <time>2014-11-02T12:55:25Z</time>
      </trkpt>
      <trkpt lat="42.79855" lon="2.35511">
        <ele>664.41</ele>
        <time>2014-11-02T12:55:26Z</time>
      </trkpt>
      <trkpt lat="42.79853" lon="2.35514">
        <ele>663.93</ele>
        <time>2014-11-02T12:55:27Z</time>
      </trkpt>
      <trkpt lat="42.79851" lon="2.35516">
        <ele>663.45</ele>
        <time>2014-11-02T12:55:28Z</time>
      </trkpt>
      <trkpt lat="42.79849" lon="2.35518">
        <ele>662.97</ele>
        <time>2014-11-02T12:55:29Z</time>
      </trkpt>
      <trkpt lat="42.79847" lon="2.35522">
        <ele>662.49</ele>
        <time>2014-11-02T12:55:30Z</time>
      </trkpt>
      <trkpt lat="42.79846" lon="2.35524">
        <ele>662.49</ele>
        <time>2014-11-02T12:55:31Z</time>
      </trkpt>
      <trkpt lat="42.79845" lon="2.35527">
        <ele>662.49</ele>
        <time>2014-11-02T12:55:32Z</time>
      </trkpt>
      <trkpt lat="42.79845" lon="2.35529">
        <ele>662.49</ele>
        <time>2014-11-02T12:55:33Z</time>
      </trkpt>
      <trkpt lat="42.79845" lon="2.35531">
        <ele>662.49</ele>
        <time>2014-11-02T12:55:34Z</time>
      </trkpt>
      <trkpt lat="42.79844" lon="2.35533">
        <ele>662.01</ele>
        <time>2014-11-02T12:55:35Z</time>
      </trkpt>
      <trkpt lat="42.79843" lon="2.35536">
        <ele>661.52</ele>
        <time>2014-11-02T12:55:36Z</time>
      </trkpt>
      <trkpt lat="42.79842" lon="2.35539">
        <ele>661.04</ele>
        <time>2014-11-02T12:55:37Z</time>
      </trkpt>
      <trkpt lat="42.79836" lon="2.35563">
        <ele>659.6</ele>
        <time>2014-11-02T12:55:41Z</time>
      </trkpt>
      <trkpt lat="42.79822" lon="2.35595">
        <ele>656.24</ele>
        <time>2014-11-02T12:55:46Z</time>
      </trkpt>
      <trkpt lat="42.79816" lon="2.35614">
        <ele>654.31</ele>
        <time>2014-11-02T12:55:50Z</time>
      </trkpt>
      <trkpt lat="42.79813" lon="2.35628">
        <ele>652.87</ele>
        <time>2014-11-02T12:55:54Z</time>
      </trkpt>
      <trkpt lat="42.7981" lon="2.35656">
        <ele>651.43</ele>
        <time>2014-11-02T12:56:04Z</time>
      </trkpt>
      <trkpt lat="42.79803" lon="2.35693">
        <ele>649.03</ele>
        <time>2014-11-02T12:56:15Z</time>
      </trkpt>
      <trkpt lat="42.79803" lon="2.35695">
        <ele>648.55</ele>
        <time>2014-11-02T12:56:16Z</time>
      </trkpt>
      <trkpt lat="42.79804" lon="2.35714">
        <ele>648.07</ele>
        <time>2014-11-02T12:56:24Z</time>
      </trkpt>
      <trkpt lat="42.79804" lon="2.35717">
        <ele>647.59</ele>
        <time>2014-11-02T12:56:25Z</time>
      </trkpt>
      <trkpt lat="42.79802" lon="2.35757">
        <ele>645.18</ele>
        <time>2014-11-02T12:56:36Z</time>
      </trkpt>
      <trkpt lat="42.79802" lon="2.35762">
        <ele>645.18</ele>
        <time>2014-11-02T12:56:38Z</time>
      </trkpt>
      <trkpt lat="42.79802" lon="2.35765">
        <ele>644.7</ele>
        <time>2014-11-02T12:56:39Z</time>
      </trkpt>
      <trkpt lat="42.79802" lon="2.35769">
        <ele>644.7</ele>
        <time>2014-11-02T12:56:40Z</time>
      </trkpt>
      <trkpt lat="42.79802" lon="2.35773">
        <ele>644.22</ele>
        <time>2014-11-02T12:56:41Z</time>
      </trkpt>
      <trkpt lat="42.79802" lon="2.35776">
        <ele>644.22</ele>
        <time>2014-11-02T12:56:42Z</time>
      </trkpt>
      <trkpt lat="42.79804" lon="2.35788">
        <ele>642.78</ele>
        <time>2014-11-02T12:56:46Z</time>
      </trkpt>
      <trkpt lat="42.79805" lon="2.35791">
        <ele>642.78</ele>
        <time>2014-11-02T12:56:47Z</time>
      </trkpt>
      <trkpt lat="42.79806" lon="2.35794">
        <ele>642.78</ele>
        <time>2014-11-02T12:56:48Z</time>
      </trkpt>
      <trkpt lat="42.79806" lon="2.35797">
        <ele>642.3</ele>
        <time>2014-11-02T12:56:49Z</time>
      </trkpt>
      <trkpt lat="42.79806" lon="2.35799">
        <ele>642.3</ele>
        <time>2014-11-02T12:56:50Z</time>
      </trkpt>
      <trkpt lat="42.79806" lon="2.35802">
        <ele>642.3</ele>
        <time>2014-11-02T12:56:51Z</time>
      </trkpt>
      <trkpt lat="42.79807" lon="2.35805">
        <ele>641.82</ele>
        <time>2014-11-02T12:56:52Z</time>
      </trkpt>
      <trkpt lat="42.79808" lon="2.35821">
        <ele>640.38</ele>
        <time>2014-11-02T12:57:02Z</time>
      </trkpt>
      <trkpt lat="42.79809" lon="2.3583">
        <ele>638.93</ele>
        <time>2014-11-02T12:57:17Z</time>
      </trkpt>
      <trkpt lat="42.79813" lon="2.35837">
        <ele>637.97</ele>
        <time>2014-11-02T12:57:30Z</time>
      </trkpt>
      <trkpt lat="42.79814" lon="2.35838">
        <ele>637.97</ele>
        <time>2014-11-02T12:57:52Z</time>
      </trkpt>
      <trkpt lat="42.79815" lon="2.35842">
        <ele>637.49</ele>
        <time>2014-11-02T12:58:05Z</time>
      </trkpt>
      <trkpt lat="42.79818" lon="2.35845">
        <ele>636.53</ele>
        <time>2014-11-02T12:58:19Z</time>
      </trkpt>
      <trkpt lat="42.7982" lon="2.35847">
        <ele>636.53</ele>
        <time>2014-11-02T12:58:21Z</time>
      </trkpt>
      <trkpt lat="42.79821" lon="2.35849">
        <ele>636.05</ele>
        <time>2014-11-02T12:58:22Z</time>
      </trkpt>
      <trkpt lat="42.79825" lon="2.35855">
        <ele>635.09</ele>
        <time>2014-11-02T12:58:29Z</time>
      </trkpt>
      <trkpt lat="42.79825" lon="2.35857">
        <ele>635.09</ele>
        <time>2014-11-02T12:58:30Z</time>
      </trkpt>
      <trkpt lat="42.79825" lon="2.35859">
        <ele>634.61</ele>
        <time>2014-11-02T12:58:31Z</time>
      </trkpt>
      <trkpt lat="42.79825" lon="2.35861">
        <ele>634.13</ele>
        <time>2014-11-02T12:58:32Z</time>
      </trkpt>
      <trkpt lat="42.79829" lon="2.35867">
        <ele>632.68</ele>
        <time>2014-11-02T12:58:42Z</time>
      </trkpt>
      <trkpt lat="42.7983" lon="2.35877">
        <ele>629.32</ele>
        <time>2014-11-02T12:58:51Z</time>
      </trkpt>
      <trkpt lat="42.7983" lon="2.35879">
        <ele>628.84</ele>
        <time>2014-11-02T12:58:52Z</time>
      </trkpt>
      <trkpt lat="42.7983" lon="2.35881">
        <ele>628.36</ele>
        <time>2014-11-02T12:58:53Z</time>
      </trkpt>
      <trkpt lat="42.79831" lon="2.35884">
        <ele>627.88</ele>
        <time>2014-11-02T12:58:54Z</time>
      </trkpt>
      <trkpt lat="42.7983" lon="2.35887">
        <ele>627.4</ele>
        <time>2014-11-02T12:58:55Z</time>
      </trkpt>
      <trkpt lat="42.7983" lon="2.3589">
        <ele>626.44</ele>
        <time>2014-11-02T12:58:56Z</time>
      </trkpt>
      <trkpt lat="42.79829" lon="2.35894">
        <ele>625.96</ele>
        <time>2014-11-02T12:58:57Z</time>
      </trkpt>
      <trkpt lat="42.79823" lon="2.35924">
        <ele>622.59</ele>
        <time>2014-11-02T12:59:05Z</time>
      </trkpt>
      <trkpt lat="42.79824" lon="2.35928">
        <ele>622.11</ele>
        <time>2014-11-02T12:59:06Z</time>
      </trkpt>
      <trkpt lat="42.79817" lon="2.35958">
        <ele>619.23</ele>
        <time>2014-11-02T12:59:14Z</time>
      </trkpt>
      <trkpt lat="42.79816" lon="2.35969">
        <ele>617.78</ele>
        <time>2014-11-02T12:59:17Z</time>
      </trkpt>
      <trkpt lat="42.79817" lon="2.35974">
        <ele>617.78</ele>
        <time>2014-11-02T12:59:18Z</time>
      </trkpt>
      <trkpt lat="42.79828" lon="2.36012">
        <ele>613.94</ele>
        <time>2014-11-02T12:59:25Z</time>
      </trkpt>
      <trkpt lat="42.79829" lon="2.36029">
        <ele>612.02</ele>
        <time>2014-11-02T12:59:29Z</time>
      </trkpt>
      <trkpt lat="42.79829" lon="2.36033">
        <ele>611.54</ele>
        <time>2014-11-02T12:59:30Z</time>
      </trkpt>
      <trkpt lat="42.7983" lon="2.36037">
        <ele>610.57</ele>
        <time>2014-11-02T12:59:31Z</time>
      </trkpt>
      <trkpt lat="42.79832" lon="2.3604">
        <ele>610.09</ele>
        <time>2014-11-02T12:59:32Z</time>
      </trkpt>
      <trkpt lat="42.79833" lon="2.36043">
        <ele>610.09</ele>
        <time>2014-11-02T12:59:33Z</time>
      </trkpt>
      <trkpt lat="42.79835" lon="2.36046">
        <ele>609.61</ele>
        <time>2014-11-02T12:59:34Z</time>
      </trkpt>
      <trkpt lat="42.79838" lon="2.36049">
        <ele>609.13</ele>
        <time>2014-11-02T12:59:35Z</time>
      </trkpt>
      <trkpt lat="42.7984" lon="2.36052">
        <ele>608.65</ele>
        <time>2014-11-02T12:59:36Z</time>
      </trkpt>
      <trkpt lat="42.79842" lon="2.36055">
        <ele>608.65</ele>
        <time>2014-11-02T12:59:37Z</time>
      </trkpt>
      <trkpt lat="42.79848" lon="2.36061">
        <ele>607.21</ele>
        <time>2014-11-02T12:59:40Z</time>
      </trkpt>
      <trkpt lat="42.79862" lon="2.36068">
        <ele>603.36</ele>
        <time>2014-11-02T12:59:46Z</time>
      </trkpt>
      <trkpt lat="42.79866" lon="2.36072">
        <ele>602.88</ele>
        <time>2014-11-02T12:59:47Z</time>
      </trkpt>
      <trkpt lat="42.79869" lon="2.36075">
        <ele>602.88</ele>
        <time>2014-11-02T12:59:48Z</time>
      </trkpt>
      <trkpt lat="42.79872" lon="2.36077">
        <ele>602.4</ele>
        <time>2014-11-02T12:59:49Z</time>
      </trkpt>
      <trkpt lat="42.79875" lon="2.36078">
        <ele>602.4</ele>
        <time>2014-11-02T12:59:50Z</time>
      </trkpt>
      <trkpt lat="42.79877" lon="2.3608">
        <ele>602.4</ele>
        <time>2014-11-02T12:59:51Z</time>
      </trkpt>
      <trkpt lat="42.79887" lon="2.36082">
        <ele>600.48</ele>
        <time>2014-11-02T13:00:01Z</time>
      </trkpt>
      <trkpt lat="42.79894" lon="2.36083">
        <ele>599.04</ele>
        <time>2014-11-02T13:00:12Z</time>
      </trkpt>
      <trkpt lat="42.79896" lon="2.36082">
        <ele>599.04</ele>
        <time>2014-11-02T13:00:13Z</time>
      </trkpt>
      <trkpt lat="42.79903" lon="2.36082">
        <ele>597.6</ele>
        <time>2014-11-02T13:00:24Z</time>
      </trkpt>
      <trkpt lat="42.79913" lon="2.36079">
        <ele>596.64</ele>
        <time>2014-11-02T13:00:31Z</time>
      </trkpt>
      <trkpt lat="42.79915" lon="2.36078">
        <ele>596.15</ele>
        <time>2014-11-02T13:00:32Z</time>
      </trkpt>
      <trkpt lat="42.79918" lon="2.36077">
        <ele>595.19</ele>
        <time>2014-11-02T13:00:33Z</time>
      </trkpt>
      <trkpt lat="42.7992" lon="2.36077">
        <ele>595.19</ele>
        <time>2014-11-02T13:00:34Z</time>
      </trkpt>
      <trkpt lat="42.79925" lon="2.36079">
        <ele>594.71</ele>
        <time>2014-11-02T13:00:45Z</time>
      </trkpt>
      <trkpt lat="42.79926" lon="2.36078">
        <ele>594.71</ele>
        <time>2014-11-02T13:01:02Z</time>
      </trkpt>
      <trkpt lat="42.79929" lon="2.36078">
        <ele>594.23</ele>
        <time>2014-11-02T13:01:22Z</time>
      </trkpt>
      <trkpt lat="42.7993" lon="2.36078">
        <ele>594.23</ele>
        <time>2014-11-02T13:01:35Z</time>
      </trkpt>
      <trkpt lat="42.79932" lon="2.36081">
        <ele>594.23</ele>
        <time>2014-11-02T13:01:50Z</time>
      </trkpt>
      <trkpt lat="42.79937" lon="2.36077">
        <ele>591.83</ele>
        <time>2014-11-02T13:02:12Z</time>
      </trkpt>
      <trkpt lat="42.79939" lon="2.36077">
        <ele>590.87</ele>
        <time>2014-11-02T13:02:21Z</time>
      </trkpt>
      <trkpt lat="42.7994" lon="2.36077">
        <ele>590.87</ele>
        <time>2014-11-02T13:02:22Z</time>
      </trkpt>
      <trkpt lat="42.79942" lon="2.36077">
        <ele>590.39</ele>
        <time>2014-11-02T13:02:23Z</time>
      </trkpt>
      <trkpt lat="42.79943" lon="2.36076">
        <ele>589.91</ele>
        <time>2014-11-02T13:02:24Z</time>
      </trkpt>
      <trkpt lat="42.79943" lon="2.36074">
        <ele>589.91</ele>
        <time>2014-11-02T13:02:25Z</time>
      </trkpt>
      <trkpt lat="42.79948" lon="2.36069">
        <ele>587.98</ele>
        <time>2014-11-02T13:02:31Z</time>
      </trkpt>
      <trkpt lat="42.79949" lon="2.36069">
        <ele>587.98</ele>
        <time>2014-11-02T13:02:32Z</time>
      </trkpt>
      <trkpt lat="42.79959" lon="2.36072">
        <ele>584.62</ele>
        <time>2014-11-02T13:02:38Z</time>
      </trkpt>
      <trkpt lat="42.7996" lon="2.36072">
        <ele>584.62</ele>
        <time>2014-11-02T13:02:39Z</time>
      </trkpt>
      <trkpt lat="42.79964" lon="2.36069">
        <ele>582.7</ele>
        <time>2014-11-02T13:02:46Z</time>
      </trkpt>
      <trkpt lat="42.79966" lon="2.36068">
        <ele>582.7</ele>
        <time>2014-11-02T13:02:47Z</time>
      </trkpt>
      <trkpt lat="42.79967" lon="2.36067">
        <ele>581.73</ele>
        <time>2014-11-02T13:02:48Z</time>
      </trkpt>
      <trkpt lat="42.79972" lon="2.36068">
        <ele>579.81</ele>
        <time>2014-11-02T13:02:53Z</time>
      </trkpt>
      <trkpt lat="42.79973" lon="2.36067">
        <ele>579.33</ele>
        <time>2014-11-02T13:02:54Z</time>
      </trkpt>
      <trkpt lat="42.79977" lon="2.3607">
        <ele>576.93</ele>
        <time>2014-11-02T13:02:58Z</time>
      </trkpt>
      <trkpt lat="42.79983" lon="2.36075">
        <ele>574.04</ele>
        <time>2014-11-02T13:03:05Z</time>
      </trkpt>
      <trkpt lat="42.79985" lon="2.36076">
        <ele>573.08</ele>
        <time>2014-11-02T13:03:07Z</time>
      </trkpt>
      <trkpt lat="42.79987" lon="2.36077">
        <ele>572.6</ele>
        <time>2014-11-02T13:03:08Z</time>
      </trkpt>
      <trkpt lat="42.79988" lon="2.36078">
        <ele>572.12</ele>
        <time>2014-11-02T13:03:09Z</time>
      </trkpt>
      <trkpt lat="42.79991" lon="2.36079">
        <ele>571.64</ele>
        <time>2014-11-02T13:03:11Z</time>
      </trkpt>
      <trkpt lat="42.79992" lon="2.3608">
        <ele>570.68</ele>
        <time>2014-11-02T13:03:12Z</time>
      </trkpt>
      <trkpt lat="42.79994" lon="2.36081">
        <ele>570.2</ele>
        <time>2014-11-02T13:03:13Z</time>
      </trkpt>
      <trkpt lat="42.79996" lon="2.36083">
        <ele>569.72</ele>
        <time>2014-11-02T13:03:14Z</time>
      </trkpt>
      <trkpt lat="42.80001" lon="2.36089">
        <ele>567.8</ele>
        <time>2014-11-02T13:03:19Z</time>
      </trkpt>
      <trkpt lat="42.80014" lon="2.36112">
        <ele>565.39</ele>
        <time>2014-11-02T13:03:25Z</time>
      </trkpt>
      <trkpt lat="42.80021" lon="2.3612">
        <ele>562.51</ele>
        <time>2014-11-02T13:03:28Z</time>
      </trkpt>
      <trkpt lat="42.8003" lon="2.36132">
        <ele>559.14</ele>
        <time>2014-11-02T13:03:32Z</time>
      </trkpt>
      <trkpt lat="42.80038" lon="2.36142">
        <ele>556.74</ele>
        <time>2014-11-02T13:03:36Z</time>
      </trkpt>
      <trkpt lat="42.8004" lon="2.36146">
        <ele>556.74</ele>
        <time>2014-11-02T13:03:53Z</time>
      </trkpt>
      <trkpt lat="42.80043" lon="2.36149">
        <ele>555.78</ele>
        <time>2014-11-02T13:04:12Z</time>
      </trkpt>
      <trkpt lat="42.80045" lon="2.36153">
        <ele>554.82</ele>
        <time>2014-11-02T13:04:31Z</time>
      </trkpt>
      <trkpt lat="42.80047" lon="2.36158">
        <ele>554.34</ele>
        <time>2014-11-02T13:04:33Z</time>
      </trkpt>
      <trkpt lat="42.80049" lon="2.3616">
        <ele>553.38</ele>
        <time>2014-11-02T13:04:34Z</time>
      </trkpt>
      <trkpt lat="42.80051" lon="2.36163">
        <ele>552.41</ele>
        <time>2014-11-02T13:04:35Z</time>
      </trkpt>
      <trkpt lat="42.80054" lon="2.36165">
        <ele>551.45</ele>
        <time>2014-11-02T13:04:36Z</time>
      </trkpt>
      <trkpt lat="42.80057" lon="2.36167">
        <ele>550.49</ele>
        <time>2014-11-02T13:04:37Z</time>
      </trkpt>
      <trkpt lat="42.8006" lon="2.3617">
        <ele>550.01</ele>
        <time>2014-11-02T13:04:38Z</time>
      </trkpt>
      <trkpt lat="42.8007" lon="2.36177">
        <ele>546.17</ele>
        <time>2014-11-02T13:04:41Z</time>
      </trkpt>
      <trkpt lat="42.80073" lon="2.36178">
        <ele>545.69</ele>
        <time>2014-11-02T13:04:43Z</time>
      </trkpt>
      <trkpt lat="42.80071" lon="2.36174">
        <ele>545.2</ele>
        <time>2014-11-02T13:04:55Z</time>
      </trkpt>
      <trkpt lat="42.8007" lon="2.3617">
        <ele>545.2</ele>
        <time>2014-11-02T13:05:08Z</time>
      </trkpt>
      <trkpt lat="42.80073" lon="2.3617">
        <ele>545.2</ele>
        <time>2014-11-02T13:05:23Z</time>
      </trkpt>
      <trkpt lat="42.80072" lon="2.36171">
        <ele>545.2</ele>
        <time>2014-11-02T13:05:45Z</time>
      </trkpt>
      <trkpt lat="42.80073" lon="2.3617">
        <ele>544.72</ele>
        <time>2014-11-02T13:06:08Z</time>
      </trkpt>
      <trkpt lat="42.80073" lon="2.36168">
        <ele>545.2</ele>
        <time>2014-11-02T13:06:31Z</time>
      </trkpt>
      <trkpt lat="42.80074" lon="2.36168">
        <ele>545.2</ele>
        <time>2014-11-02T13:06:59Z</time>
      </trkpt>
      <trkpt lat="42.80074" lon="2.36169">
        <ele>545.2</ele>
        <time>2014-11-02T13:07:21Z</time>
      </trkpt>
      <trkpt lat="42.80075" lon="2.36168">
        <ele>545.2</ele>
        <time>2014-11-02T13:07:38Z</time>
      </trkpt>
      <trkpt lat="42.80078" lon="2.36168">
        <ele>544.24</ele>
        <time>2014-11-02T13:07:43Z</time>
      </trkpt>
      <trkpt lat="42.8008" lon="2.36167">
        <ele>543.28</ele>
        <time>2014-11-02T13:07:44Z</time>
      </trkpt>
      <trkpt lat="42.80083" lon="2.36167">
        <ele>542.8</ele>
        <time>2014-11-02T13:07:45Z</time>
      </trkpt>
      <trkpt lat="42.8009" lon="2.36166">
        <ele>540.4</ele>
        <time>2014-11-02T13:07:50Z</time>
      </trkpt>
      <trkpt lat="42.80092" lon="2.36167">
        <ele>539.44</ele>
        <time>2014-11-02T13:07:51Z</time>
      </trkpt>
      <trkpt lat="42.80094" lon="2.36168">
        <ele>538.96</ele>
        <time>2014-11-02T13:07:52Z</time>
      </trkpt>
      <trkpt lat="42.80095" lon="2.36169">
        <ele>538.48</ele>
        <time>2014-11-02T13:07:53Z</time>
      </trkpt>
      <trkpt lat="42.80096" lon="2.36172">
        <ele>537.99</ele>
        <time>2014-11-02T13:07:54Z</time>
      </trkpt>
      <trkpt lat="42.80098" lon="2.36176">
        <ele>537.51</ele>
        <time>2014-11-02T13:07:55Z</time>
      </trkpt>
      <trkpt lat="42.80099" lon="2.36178">
        <ele>537.03</ele>
        <time>2014-11-02T13:07:56Z</time>
      </trkpt>
      <trkpt lat="42.80107" lon="2.36192">
        <ele>534.15</ele>
        <time>2014-11-02T13:08:02Z</time>
      </trkpt>
      <trkpt lat="42.80108" lon="2.36195">
        <ele>533.67</ele>
        <time>2014-11-02T13:08:03Z</time>
      </trkpt>
      <trkpt lat="42.80111" lon="2.36202">
        <ele>531.75</ele>
        <time>2014-11-02T13:08:06Z</time>
      </trkpt>
      <trkpt lat="42.8012" lon="2.36229">
        <ele>529.34</ele>
        <time>2014-11-02T13:08:18Z</time>
      </trkpt>
      <trkpt lat="42.80121" lon="2.36231">
        <ele>529.34</ele>
        <time>2014-11-02T13:08:42Z</time>
      </trkpt>
      <trkpt lat="42.80121" lon="2.36235">
        <ele>528.86</ele>
        <time>2014-11-02T13:08:46Z</time>
      </trkpt>
      <trkpt lat="42.80124" lon="2.36238">
        <ele>527.42</ele>
        <time>2014-11-02T13:08:49Z</time>
      </trkpt>
      <trkpt lat="42.8013" lon="2.36242">
        <ele>525.5</ele>
        <time>2014-11-02T13:08:54Z</time>
      </trkpt>
      <trkpt lat="42.80139" lon="2.36256">
        <ele>522.13</ele>
        <time>2014-11-02T13:09:01Z</time>
      </trkpt>
      <trkpt lat="42.80148" lon="2.36267">
        <ele>519.25</ele>
        <time>2014-11-02T13:09:06Z</time>
      </trkpt>
      <trkpt lat="42.80149" lon="2.36271">
        <ele>518.77</ele>
        <time>2014-11-02T13:09:07Z</time>
      </trkpt>
      <trkpt lat="42.8015" lon="2.36275">
        <ele>518.29</ele>
        <time>2014-11-02T13:09:08Z</time>
      </trkpt>
      <trkpt lat="42.8015" lon="2.36279">
        <ele>517.81</ele>
        <time>2014-11-02T13:09:09Z</time>
      </trkpt>
      <trkpt lat="42.80152" lon="2.36281">
        <ele>517.33</ele>
        <time>2014-11-02T13:09:10Z</time>
      </trkpt>
      <trkpt lat="42.80153" lon="2.36282">
        <ele>516.85</ele>
        <time>2014-11-02T13:09:11Z</time>
      </trkpt>
      <trkpt lat="42.80155" lon="2.36281">
        <ele>515.88</ele>
        <time>2014-11-02T13:09:12Z</time>
      </trkpt>
      <trkpt lat="42.80157" lon="2.36279">
        <ele>515.88</ele>
        <time>2014-11-02T13:09:13Z</time>
      </trkpt>
      <trkpt lat="42.80158" lon="2.36274">
        <ele>514.92</ele>
        <time>2014-11-02T13:09:18Z</time>
      </trkpt>
      <trkpt lat="42.80159" lon="2.36266">
        <ele>513.48</ele>
        <time>2014-11-02T13:09:32Z</time>
      </trkpt>
      <trkpt lat="42.80162" lon="2.36266">
        <ele>513</ele>
        <time>2014-11-02T13:09:36Z</time>
      </trkpt>
      <trkpt lat="42.80166" lon="2.36264">
        <ele>511.08</ele>
        <time>2014-11-02T13:09:40Z</time>
      </trkpt>
      <trkpt lat="42.8017" lon="2.36265">
        <ele>510.6</ele>
        <time>2014-11-02T13:09:51Z</time>
      </trkpt>
      <trkpt lat="42.80173" lon="2.36274">
        <ele>508.19</ele>
        <time>2014-11-02T13:09:55Z</time>
      </trkpt>
      <trkpt lat="42.80186" lon="2.36299">
        <ele>504.35</ele>
        <time>2014-11-02T13:10:01Z</time>
      </trkpt>
      <trkpt lat="42.80204" lon="2.36327">
        <ele>500.02</ele>
        <time>2014-11-02T13:10:07Z</time>
      </trkpt>
      <trkpt lat="42.80208" lon="2.36342">
        <ele>496.66</ele>
        <time>2014-11-02T13:10:10Z</time>
      </trkpt>
      <trkpt lat="42.80224" lon="2.36361">
        <ele>493.29</ele>
        <time>2014-11-02T13:10:16Z</time>
      </trkpt>
      <trkpt lat="42.80239" lon="2.36366">
        <ele>490.41</ele>
        <time>2014-11-02T13:10:20Z</time>
      </trkpt>
      <trkpt lat="42.80253" lon="2.36368">
        <ele>487.05</ele>
        <time>2014-11-02T13:10:24Z</time>
      </trkpt>
      <trkpt lat="42.80269" lon="2.36369">
        <ele>483.68</ele>
        <time>2014-11-02T13:10:28Z</time>
      </trkpt>
      <trkpt lat="42.80282" lon="2.36371">
        <ele>480.32</ele>
        <time>2014-11-02T13:10:32Z</time>
      </trkpt>
      <trkpt lat="42.8029" lon="2.36373">
        <ele>477.91</ele>
        <time>2014-11-02T13:10:35Z</time>
      </trkpt>
      <trkpt lat="42.80302" lon="2.36372">
        <ele>474.07</ele>
        <time>2014-11-02T13:10:46Z</time>
      </trkpt>
      <trkpt lat="42.80323" lon="2.36368">
        <ele>471.18</ele>
        <time>2014-11-02T13:10:54Z</time>
      </trkpt>
      <trkpt lat="42.80331" lon="2.36364">
        <ele>468.78</ele>
        <time>2014-11-02T13:10:57Z</time>
      </trkpt>
      <trkpt lat="42.80344" lon="2.36355">
        <ele>465.42</ele>
        <time>2014-11-02T13:11:01Z</time>
      </trkpt>
      <trkpt lat="42.8036" lon="2.36347">
        <ele>461.57</ele>
        <time>2014-11-02T13:11:06Z</time>
      </trkpt>
      <trkpt lat="42.80375" lon="2.36339">
        <ele>458.21</ele>
        <time>2014-11-02T13:11:12Z</time>
      </trkpt>
      <trkpt lat="42.8039" lon="2.36329">
        <ele>454.84</ele>
        <time>2014-11-02T13:11:17Z</time>
      </trkpt>
      <trkpt lat="42.80398" lon="2.36326">
        <ele>452.92</ele>
        <time>2014-11-02T13:11:20Z</time>
      </trkpt>
      <trkpt lat="42.80416" lon="2.36324">
        <ele>448.59</ele>
        <time>2014-11-02T13:11:27Z</time>
      </trkpt>
      <trkpt lat="42.80448" lon="2.36327">
        <ele>445.23</ele>
        <time>2014-11-02T13:11:34Z</time>
      </trkpt>
      <trkpt lat="42.80459" lon="2.36329">
        <ele>443.79</ele>
        <time>2014-11-02T13:11:37Z</time>
      </trkpt>
      <trkpt lat="42.80468" lon="2.36334">
        <ele>442.34</ele>
        <time>2014-11-02T13:11:46Z</time>
      </trkpt>
      <trkpt lat="42.8047" lon="2.36336">
        <ele>441.86</ele>
        <time>2014-11-02T13:11:48Z</time>
      </trkpt>
      <trkpt lat="42.80487" lon="2.36339">
        <ele>438.5</ele>
        <time>2014-11-02T13:11:57Z</time>
      </trkpt>
      <trkpt lat="42.80505" lon="2.36352">
        <ele>434.65</ele>
        <time>2014-11-02T13:12:03Z</time>
      </trkpt>
      <trkpt lat="42.80519" lon="2.36364">
        <ele>432.73</ele>
        <time>2014-11-02T13:12:07Z</time>
      </trkpt>
      <trkpt lat="42.80522" lon="2.36366">
        <ele>432.25</ele>
        <time>2014-11-02T13:12:08Z</time>
      </trkpt>
      <trkpt lat="42.80528" lon="2.36373">
        <ele>431.29</ele>
        <time>2014-11-02T13:12:14Z</time>
      </trkpt>
      <trkpt lat="42.80529" lon="2.36377">
        <ele>430.33</ele>
        <time>2014-11-02T13:12:24Z</time>
      </trkpt>
      <trkpt lat="42.80529" lon="2.36378">
        <ele>430.33</ele>
        <time>2014-11-02T13:12:37Z</time>
      </trkpt>
      <trkpt lat="42.80529" lon="2.36381">
        <ele>429.85</ele>
        <time>2014-11-02T13:12:38Z</time>
      </trkpt>
      <trkpt lat="42.80529" lon="2.36385">
        <ele>429.85</ele>
        <time>2014-11-02T13:12:39Z</time>
      </trkpt>
      <trkpt lat="42.80529" lon="2.36389">
        <ele>428.89</ele>
        <time>2014-11-02T13:12:40Z</time>
      </trkpt>
      <trkpt lat="42.80529" lon="2.36393">
        <ele>428.4</ele>
        <time>2014-11-02T13:12:41Z</time>
      </trkpt>
      <trkpt lat="42.8053" lon="2.36398">
        <ele>428.4</ele>
        <time>2014-11-02T13:12:42Z</time>
      </trkpt>
      <trkpt lat="42.80532" lon="2.36401">
        <ele>427.92</ele>
        <time>2014-11-02T13:12:43Z</time>
      </trkpt>
      <trkpt lat="42.80533" lon="2.36405">
        <ele>427.44</ele>
        <time>2014-11-02T13:12:44Z</time>
      </trkpt>
      <trkpt lat="42.80535" lon="2.36407">
        <ele>426.96</ele>
        <time>2014-11-02T13:12:45Z</time>
      </trkpt>
      <trkpt lat="42.80535" lon="2.36411">
        <ele>426.48</ele>
        <time>2014-11-02T13:12:46Z</time>
      </trkpt>
      <trkpt lat="42.80536" lon="2.36414">
        <ele>426.48</ele>
        <time>2014-11-02T13:12:47Z</time>
      </trkpt>
      <trkpt lat="42.80536" lon="2.36417">
        <ele>426.48</ele>
        <time>2014-11-02T13:12:48Z</time>
      </trkpt>
      <trkpt lat="42.80541" lon="2.36451">
        <ele>425.04</ele>
        <time>2014-11-02T13:12:56Z</time>
      </trkpt>
      <trkpt lat="42.8054" lon="2.36455">
        <ele>425.04</ele>
        <time>2014-11-02T13:12:57Z</time>
      </trkpt>
      <trkpt lat="42.80539" lon="2.36459">
        <ele>425.04</ele>
        <time>2014-11-02T13:12:58Z</time>
      </trkpt>
      <trkpt lat="42.80538" lon="2.36463">
        <ele>424.56</ele>
        <time>2014-11-02T13:12:59Z</time>
      </trkpt>
      <trkpt lat="42.80537" lon="2.36468">
        <ele>424.08</ele>
        <time>2014-11-02T13:13:00Z</time>
      </trkpt>
      <trkpt lat="42.80536" lon="2.3648">
        <ele>423.6</ele>
        <time>2014-11-02T13:13:02Z</time>
      </trkpt>
      <trkpt lat="42.80538" lon="2.36499">
        <ele>422.16</ele>
        <time>2014-11-02T13:13:05Z</time>
      </trkpt>
      <trkpt lat="42.80546" lon="2.36518">
        <ele>420.23</ele>
        <time>2014-11-02T13:13:09Z</time>
      </trkpt>
      <trkpt lat="42.80549" lon="2.36522">
        <ele>419.75</ele>
        <time>2014-11-02T13:13:10Z</time>
      </trkpt>
      <trkpt lat="42.80551" lon="2.36525">
        <ele>419.75</ele>
        <time>2014-11-02T13:13:11Z</time>
      </trkpt>
      <trkpt lat="42.80553" lon="2.3653">
        <ele>419.27</ele>
        <time>2014-11-02T13:13:12Z</time>
      </trkpt>
      <trkpt lat="42.80554" lon="2.36535">
        <ele>419.27</ele>
        <time>2014-11-02T13:13:13Z</time>
      </trkpt>
      <trkpt lat="42.80555" lon="2.36545">
        <ele>419.27</ele>
        <time>2014-11-02T13:13:15Z</time>
      </trkpt>
      <trkpt lat="42.80555" lon="2.36551">
        <ele>418.79</ele>
        <time>2014-11-02T13:13:16Z</time>
      </trkpt>
      <trkpt lat="42.80555" lon="2.36557">
        <ele>418.79</ele>
        <time>2014-11-02T13:13:17Z</time>
      </trkpt>
      <trkpt lat="42.80557" lon="2.36571">
        <ele>417.83</ele>
        <time>2014-11-02T13:13:19Z</time>
      </trkpt>
      <trkpt lat="42.80558" lon="2.36578">
        <ele>417.35</ele>
        <time>2014-11-02T13:13:20Z</time>
      </trkpt>
      <trkpt lat="42.80558" lon="2.36586">
        <ele>416.87</ele>
        <time>2014-11-02T13:13:21Z</time>
      </trkpt>
      <trkpt lat="42.80557" lon="2.36608">
        <ele>414.47</ele>
        <time>2014-11-02T13:13:24Z</time>
      </trkpt>
      <trkpt lat="42.80557" lon="2.36614">
        <ele>413.98</ele>
        <time>2014-11-02T13:13:25Z</time>
      </trkpt>
      <trkpt lat="42.80559" lon="2.36621">
        <ele>413.98</ele>
        <time>2014-11-02T13:13:26Z</time>
      </trkpt>
      <trkpt lat="42.80562" lon="2.36628">
        <ele>412.54</ele>
        <time>2014-11-02T13:13:27Z</time>
      </trkpt>
      <trkpt lat="42.80567" lon="2.36633">
        <ele>412.54</ele>
        <time>2014-11-02T13:13:28Z</time>
      </trkpt>
      <trkpt lat="42.80573" lon="2.36637">
        <ele>412.54</ele>
        <time>2014-11-02T13:13:29Z</time>
      </trkpt>
      <trkpt lat="42.80578" lon="2.36641">
        <ele>412.54</ele>
        <time>2014-11-02T13:13:30Z</time>
      </trkpt>
      <trkpt lat="42.80586" lon="2.36647">
        <ele>411.58</ele>
        <time>2014-11-02T13:13:32Z</time>
      </trkpt>
      <trkpt lat="42.80589" lon="2.36651">
        <ele>410.62</ele>
        <time>2014-11-02T13:13:33Z</time>
      </trkpt>
      <trkpt lat="42.80591" lon="2.36657">
        <ele>410.14</ele>
        <time>2014-11-02T13:13:34Z</time>
      </trkpt>
      <trkpt lat="42.80599" lon="2.36699">
        <ele>406.77</ele>
        <time>2014-11-02T13:13:40Z</time>
      </trkpt>
      <trkpt lat="42.80601" lon="2.36708">
        <ele>405.81</ele>
        <time>2014-11-02T13:13:41Z</time>
      </trkpt>
      <trkpt lat="42.80605" lon="2.36718">
        <ele>405.33</ele>
        <time>2014-11-02T13:13:42Z</time>
      </trkpt>
      <trkpt lat="42.80609" lon="2.36726">
        <ele>404.85</ele>
        <time>2014-11-02T13:13:43Z</time>
      </trkpt>
      <trkpt lat="42.80614" lon="2.36734">
        <ele>404.37</ele>
        <time>2014-11-02T13:13:44Z</time>
      </trkpt>
      <trkpt lat="42.80618" lon="2.36742">
        <ele>404.37</ele>
        <time>2014-11-02T13:13:45Z</time>
      </trkpt>
      <trkpt lat="42.8064" lon="2.3679">
        <ele>401.49</ele>
        <time>2014-11-02T13:13:51Z</time>
      </trkpt>
      <trkpt lat="42.80642" lon="2.36796">
        <ele>400.53</ele>
        <time>2014-11-02T13:13:52Z</time>
      </trkpt>
      <trkpt lat="42.80645" lon="2.36806">
        <ele>399.08</ele>
        <time>2014-11-02T13:13:54Z</time>
      </trkpt>
      <trkpt lat="42.80646" lon="2.36812">
        <ele>397.64</ele>
        <time>2014-11-02T13:13:55Z</time>
      </trkpt>
      <trkpt lat="42.80647" lon="2.36817">
        <ele>397.16</ele>
        <time>2014-11-02T13:13:56Z</time>
      </trkpt>
      <trkpt lat="42.80649" lon="2.36822">
        <ele>396.2</ele>
        <time>2014-11-02T13:13:57Z</time>
      </trkpt>
      <trkpt lat="42.80651" lon="2.36826">
        <ele>395.72</ele>
        <time>2014-11-02T13:13:58Z</time>
      </trkpt>
      <trkpt lat="42.80654" lon="2.36832">
        <ele>395.24</ele>
        <time>2014-11-02T13:13:59Z</time>
      </trkpt>
      <trkpt lat="42.80655" lon="2.36838">
        <ele>394.28</ele>
        <time>2014-11-02T13:14:00Z</time>
      </trkpt>
      <trkpt lat="42.80656" lon="2.36844">
        <ele>393.8</ele>
        <time>2014-11-02T13:14:01Z</time>
      </trkpt>
      <trkpt lat="42.80656" lon="2.36852">
        <ele>393.32</ele>
        <time>2014-11-02T13:14:02Z</time>
      </trkpt>
      <trkpt lat="42.80656" lon="2.36859">
        <ele>392.36</ele>
        <time>2014-11-02T13:14:03Z</time>
      </trkpt>
      <trkpt lat="42.80656" lon="2.36867">
        <ele>391.87</ele>
        <time>2014-11-02T13:14:04Z</time>
      </trkpt>
      <trkpt lat="42.80657" lon="2.36874">
        <ele>390.91</ele>
        <time>2014-11-02T13:14:05Z</time>
      </trkpt>
      <trkpt lat="42.8066" lon="2.36881">
        <ele>389.95</ele>
        <time>2014-11-02T13:14:06Z</time>
      </trkpt>
      <trkpt lat="42.80663" lon="2.36887">
        <ele>389.95</ele>
        <time>2014-11-02T13:14:07Z</time>
      </trkpt>
      <trkpt lat="42.80667" lon="2.36894">
        <ele>389.47</ele>
        <time>2014-11-02T13:14:08Z</time>
      </trkpt>
      <trkpt lat="42.80683" lon="2.36921">
        <ele>388.51</ele>
        <time>2014-11-02T13:14:12Z</time>
      </trkpt>
      <trkpt lat="42.80685" lon="2.36928">
        <ele>388.51</ele>
        <time>2014-11-02T13:14:13Z</time>
      </trkpt>
      <trkpt lat="42.80689" lon="2.36941">
        <ele>388.51</ele>
        <time>2014-11-02T13:14:15Z</time>
      </trkpt>
      <trkpt lat="42.80692" lon="2.36944">
        <ele>388.51</ele>
        <time>2014-11-02T13:14:16Z</time>
      </trkpt>
      <trkpt lat="42.80695" lon="2.36947">
        <ele>388.51</ele>
        <time>2014-11-02T13:14:17Z</time>
      </trkpt>
      <trkpt lat="42.80697" lon="2.3695">
        <ele>388.99</ele>
        <time>2014-11-02T13:14:18Z</time>
      </trkpt>
      <trkpt lat="42.80699" lon="2.36954">
        <ele>388.99</ele>
        <time>2014-11-02T13:14:19Z</time>
      </trkpt>
      <trkpt lat="42.80705" lon="2.36969">
        <ele>388.51</ele>
        <time>2014-11-02T13:14:28Z</time>
      </trkpt>
      <trkpt lat="42.80707" lon="2.36968">
        <ele>388.51</ele>
        <time>2014-11-02T13:14:54Z</time>
      </trkpt>
      <trkpt lat="42.80706" lon="2.3697">
        <ele>388.51</ele>
        <time>2014-11-02T13:15:12Z</time>
      </trkpt>
      <trkpt lat="42.80708" lon="2.36968">
        <ele>388.51</ele>
        <time>2014-11-02T13:15:27Z</time>
      </trkpt>
      <trkpt lat="42.80707" lon="2.3697">
        <ele>388.51</ele>
        <time>2014-11-02T13:15:45Z</time>
      </trkpt>
      <trkpt lat="42.80708" lon="2.36972">
        <ele>388.51</ele>
        <time>2014-11-02T13:16:03Z</time>
      </trkpt>
      <trkpt lat="42.80708" lon="2.36972">
        <ele>388.51</ele>
        <time>2014-11-02T13:16:32Z</time>
      </trkpt>
      <trkpt lat="42.80707" lon="2.36971">
        <ele>388.51</ele>
        <time>2014-11-02T13:17:04Z</time>
      </trkpt>
      <trkpt lat="42.80708" lon="2.36971">
        <ele>388.03</ele>
        <time>2014-11-02T13:17:28Z</time>
      </trkpt>
      <trkpt lat="42.80707" lon="2.36972">
        <ele>388.03</ele>
        <time>2014-11-02T13:17:52Z</time>
      </trkpt>
      <trkpt lat="42.80708" lon="2.36972">
        <ele>388.03</ele>
        <time>2014-11-02T13:18:18Z</time>
      </trkpt>
      <trkpt lat="42.80708" lon="2.36972">
        <ele>388.03</ele>
        <time>2014-11-02T13:18:37Z</time>
      </trkpt>
      <trkpt lat="42.80708" lon="2.36972">
        <ele>388.03</ele>
        <time>2014-11-02T13:19:00Z</time>
      </trkpt>
      <trkpt lat="42.80708" lon="2.36972">
        <ele>388.03</ele>
        <time>2014-11-02T13:19:24Z</time>
      </trkpt>
      <trkpt lat="42.80708" lon="2.36972">
        <ele>388.03</ele>
        <time>2014-11-02T13:19:49Z</time>
      </trkpt>
      <trkpt lat="42.80707" lon="2.36974">
        <ele>388.03</ele>
        <time>2014-11-02T13:20:05Z</time>
      </trkpt>
      <trkpt lat="42.80707" lon="2.36977">
        <ele>387.55</ele>
        <time>2014-11-02T13:20:06Z</time>
      </trkpt>
      <trkpt lat="42.80707" lon="2.36981">
        <ele>387.07</ele>
        <time>2014-11-02T13:20:07Z</time>
      </trkpt>
      <trkpt lat="42.80708" lon="2.36986">
        <ele>387.07</ele>
        <time>2014-11-02T13:20:08Z</time>
      </trkpt>
      <trkpt lat="42.80709" lon="2.3699">
        <ele>386.59</ele>
        <time>2014-11-02T13:20:09Z</time>
      </trkpt>
      <trkpt lat="42.80711" lon="2.36996">
        <ele>386.11</ele>
        <time>2014-11-02T13:20:10Z</time>
      </trkpt>
      <trkpt lat="42.80712" lon="2.37001">
        <ele>385.63</ele>
        <time>2014-11-02T13:20:11Z</time>
      </trkpt>
      <trkpt lat="42.80714" lon="2.37008">
        <ele>385.15</ele>
        <time>2014-11-02T13:20:12Z</time>
      </trkpt>
      <trkpt lat="42.80715" lon="2.37015">
        <ele>384.66</ele>
        <time>2014-11-02T13:20:13Z</time>
      </trkpt>
      <trkpt lat="42.80715" lon="2.37023">
        <ele>384.18</ele>
        <time>2014-11-02T13:20:14Z</time>
      </trkpt>
      <trkpt lat="42.80714" lon="2.37058">
        <ele>381.78</ele>
        <time>2014-11-02T13:20:18Z</time>
      </trkpt>
      <trkpt lat="42.80712" lon="2.37087">
        <ele>380.34</ele>
        <time>2014-11-02T13:20:21Z</time>
      </trkpt>
      <trkpt lat="42.80712" lon="2.37097">
        <ele>379.86</ele>
        <time>2014-11-02T13:20:22Z</time>
      </trkpt>
      <trkpt lat="42.80717" lon="2.37126">
        <ele>377.94</ele>
        <time>2014-11-02T13:20:25Z</time>
      </trkpt>
      <trkpt lat="42.8072" lon="2.37135">
        <ele>377.94</ele>
        <time>2014-11-02T13:20:26Z</time>
      </trkpt>
      <trkpt lat="42.80724" lon="2.37143">
        <ele>376.97</ele>
        <time>2014-11-02T13:20:27Z</time>
      </trkpt>
      <trkpt lat="42.80729" lon="2.3715">
        <ele>376.49</ele>
        <time>2014-11-02T13:20:28Z</time>
      </trkpt>
      <trkpt lat="42.80735" lon="2.37156">
        <ele>376.01</ele>
        <time>2014-11-02T13:20:29Z</time>
      </trkpt>
      <trkpt lat="42.80742" lon="2.37162">
        <ele>375.53</ele>
        <time>2014-11-02T13:20:30Z</time>
      </trkpt>
      <trkpt lat="42.80794" lon="2.37206">
        <ele>372.17</ele>
        <time>2014-11-02T13:20:38Z</time>
      </trkpt>
      <trkpt lat="42.80814" lon="2.37222">
        <ele>370.73</ele>
        <time>2014-11-02T13:20:41Z</time>
      </trkpt>
      <trkpt lat="42.80868" lon="2.37273">
        <ele>368.8</ele>
        <time>2014-11-02T13:20:50Z</time>
      </trkpt>
      <trkpt lat="42.80886" lon="2.37289">
        <ele>367.36</ele>
        <time>2014-11-02T13:20:53Z</time>
      </trkpt>
      <trkpt lat="42.80902" lon="2.37308">
        <ele>366.88</ele>
        <time>2014-11-02T13:20:56Z</time>
      </trkpt>
      <trkpt lat="42.80906" lon="2.37315">
        <ele>366.88</ele>
        <time>2014-11-02T13:20:57Z</time>
      </trkpt>
      <trkpt lat="42.8091" lon="2.37323">
        <ele>366.88</ele>
        <time>2014-11-02T13:20:58Z</time>
      </trkpt>
      <trkpt lat="42.80913" lon="2.37331">
        <ele>366.4</ele>
        <time>2014-11-02T13:20:59Z</time>
      </trkpt>
      <trkpt lat="42.80916" lon="2.3734">
        <ele>365.92</ele>
        <time>2014-11-02T13:21:00Z</time>
      </trkpt>
      <trkpt lat="42.80919" lon="2.37348">
        <ele>364.96</ele>
        <time>2014-11-02T13:21:01Z</time>
      </trkpt>
      <trkpt lat="42.80924" lon="2.37355">
        <ele>364.48</ele>
        <time>2014-11-02T13:21:02Z</time>
      </trkpt>
      <trkpt lat="42.8093" lon="2.3736">
        <ele>364.48</ele>
        <time>2014-11-02T13:21:03Z</time>
      </trkpt>
      <trkpt lat="42.80992" lon="2.37401">
        <ele>361.59</ele>
        <time>2014-11-02T13:21:12Z</time>
      </trkpt>
      <trkpt lat="42.80998" lon="2.37404">
        <ele>361.11</ele>
        <time>2014-11-02T13:21:13Z</time>
      </trkpt>
      <trkpt lat="42.81004" lon="2.37408">
        <ele>361.11</ele>
        <time>2014-11-02T13:21:14Z</time>
      </trkpt>
      <trkpt lat="42.81008" lon="2.37413">
        <ele>361.11</ele>
        <time>2014-11-02T13:21:15Z</time>
      </trkpt>
      <trkpt lat="42.81011" lon="2.37419">
        <ele>360.63</ele>
        <time>2014-11-02T13:21:16Z</time>
      </trkpt>
      <trkpt lat="42.81011" lon="2.37427">
        <ele>360.63</ele>
        <time>2014-11-02T13:21:17Z</time>
      </trkpt>
      <trkpt lat="42.81011" lon="2.37434">
        <ele>360.63</ele>
        <time>2014-11-02T13:21:18Z</time>
      </trkpt>
      <trkpt lat="42.8101" lon="2.3744">
        <ele>360.15</ele>
        <time>2014-11-02T13:21:19Z</time>
      </trkpt>
      <trkpt lat="42.81009" lon="2.37447">
        <ele>360.15</ele>
        <time>2014-11-02T13:21:20Z</time>
      </trkpt>
      <trkpt lat="42.81006" lon="2.3749">
        <ele>360.63</ele>
        <time>2014-11-02T13:21:27Z</time>
      </trkpt>
      <trkpt lat="42.81007" lon="2.37495">
        <ele>359.67</ele>
        <time>2014-11-02T13:21:28Z</time>
      </trkpt>
      <trkpt lat="42.81009" lon="2.37499">
        <ele>359.67</ele>
        <time>2014-11-02T13:21:29Z</time>
      </trkpt>
      <trkpt lat="42.81012" lon="2.37503">
        <ele>359.67</ele>
        <time>2014-11-02T13:21:30Z</time>
      </trkpt>
      <trkpt lat="42.81015" lon="2.37506">
        <ele>359.67</ele>
        <time>2014-11-02T13:21:31Z</time>
      </trkpt>
      <trkpt lat="42.81018" lon="2.37508">
        <ele>359.67</ele>
        <time>2014-11-02T13:21:32Z</time>
      </trkpt>
      <trkpt lat="42.81021" lon="2.37509">
        <ele>359.67</ele>
        <time>2014-11-02T13:21:33Z</time>
      </trkpt>
      <trkpt lat="42.81052" lon="2.37517">
        <ele>359.19</ele>
        <time>2014-11-02T13:21:46Z</time>
      </trkpt>
      <trkpt lat="42.81074" lon="2.37503">
        <ele>358.23</ele>
        <time>2014-11-02T13:22:01Z</time>
      </trkpt>
      <trkpt lat="42.81088" lon="2.37498">
        <ele>357.75</ele>
        <time>2014-11-02T13:22:07Z</time>
      </trkpt>
      <trkpt lat="42.81089" lon="2.37495">
        <ele>357.75</ele>
        <time>2014-11-02T13:22:08Z</time>
      </trkpt>
      <trkpt lat="42.81095" lon="2.3748">
        <ele>357.75</ele>
        <time>2014-11-02T13:22:14Z</time>
      </trkpt>
      <trkpt lat="42.81124" lon="2.37483">
        <ele>357.27</ele>
        <time>2014-11-02T13:22:24Z</time>
      </trkpt>
      <trkpt lat="42.81171" lon="2.37504">
        <ele>355.83</ele>
        <time>2014-11-02T13:22:39Z</time>
      </trkpt>
      <trkpt lat="42.81173" lon="2.37506">
        <ele>355.83</ele>
        <time>2014-11-02T13:22:40Z</time>
      </trkpt>
      <trkpt lat="42.81174" lon="2.37509">
        <ele>355.83</ele>
        <time>2014-11-02T13:22:41Z</time>
      </trkpt>
      <trkpt lat="42.81175" lon="2.37512">
        <ele>355.34</ele>
        <time>2014-11-02T13:22:42Z</time>
      </trkpt>
      <trkpt lat="42.81175" lon="2.37514">
        <ele>355.83</ele>
        <time>2014-11-02T13:22:43Z</time>
      </trkpt>
      <trkpt lat="42.81175" lon="2.37517">
        <ele>355.34</ele>
        <time>2014-11-02T13:22:44Z</time>
      </trkpt>
      <trkpt lat="42.81175" lon="2.37518">
        <ele>355.34</ele>
        <time>2014-11-02T13:22:45Z</time>
      </trkpt>
      <trkpt lat="42.81174" lon="2.3752">
        <ele>355.34</ele>
        <time>2014-11-02T13:22:46Z</time>
      </trkpt>
      <trkpt lat="42.81173" lon="2.37526">
        <ele>355.34</ele>
        <time>2014-11-02T13:22:50Z</time>
      </trkpt>
      <trkpt lat="42.81173" lon="2.37528">
        <ele>355.34</ele>
        <time>2014-11-02T13:22:52Z</time>
      </trkpt>
      <trkpt lat="42.81174" lon="2.37529">
        <ele>355.34</ele>
        <time>2014-11-02T13:22:53Z</time>
      </trkpt>
      <trkpt lat="42.81175" lon="2.37529">
        <ele>355.34</ele>
        <time>2014-11-02T13:22:54Z</time>
      </trkpt>
      <trkpt lat="42.81176" lon="2.3753">
        <ele>355.34</ele>
        <time>2014-11-02T13:22:55Z</time>
      </trkpt>
      <trkpt lat="42.81177" lon="2.3753">
        <ele>355.34</ele>
        <time>2014-11-02T13:22:56Z</time>
      </trkpt>
      <trkpt lat="42.81195" lon="2.37537">
        <ele>355.34</ele>
        <time>2014-11-02T13:23:11Z</time>
      </trkpt>
      <trkpt lat="42.81202" lon="2.37542">
        <ele>354.86</ele>
        <time>2014-11-02T13:23:18Z</time>
      </trkpt>
      <trkpt lat="42.81207" lon="2.37545">
        <ele>354.86</ele>
        <time>2014-11-02T13:23:21Z</time>
      </trkpt>
      <trkpt lat="42.81208" lon="2.37544">
        <ele>354.86</ele>
        <time>2014-11-02T13:23:22Z</time>
      </trkpt>
      <trkpt lat="42.81209" lon="2.37542">
        <ele>354.86</ele>
        <time>2014-11-02T13:23:23Z</time>
      </trkpt>
      <trkpt lat="42.8121" lon="2.37539">
        <ele>354.86</ele>
        <time>2014-11-02T13:23:24Z</time>
      </trkpt>
      <trkpt lat="42.81211" lon="2.37536">
        <ele>354.86</ele>
        <time>2014-11-02T13:23:25Z</time>
      </trkpt>
      <trkpt lat="42.81214" lon="2.37526">
        <ele>354.86</ele>
        <time>2014-11-02T13:23:35Z</time>
      </trkpt>
      <trkpt lat="42.81214" lon="2.37523">
        <ele>354.86</ele>
        <time>2014-11-02T13:23:36Z</time>
      </trkpt>
      <trkpt lat="42.81225" lon="2.37491">
        <ele>355.34</ele>
        <time>2014-11-02T13:23:49Z</time>
      </trkpt>
      <trkpt lat="42.81234" lon="2.37462">
        <ele>355.83</ele>
        <time>2014-11-02T13:24:04Z</time>
      </trkpt>
      <trkpt lat="42.81235" lon="2.37461">
        <ele>355.34</ele>
        <time>2014-11-02T13:24:18Z</time>
      </trkpt>
      <trkpt lat="42.81235" lon="2.37465">
        <ele>355.34</ele>
        <time>2014-11-02T13:24:35Z</time>
      </trkpt>
      <trkpt lat="42.81236" lon="2.37464">
        <ele>355.34</ele>
        <time>2014-11-02T13:24:55Z</time>
      </trkpt>
      <trkpt lat="42.81235" lon="2.37462">
        <ele>355.34</ele>
        <time>2014-11-02T13:25:15Z</time>
      </trkpt>
    </trkseg>
  </trk>
</gpx>